<?xml version="1.0" encoding="UTF-8" standalone="no" ?>
<gpx xmlns="http://www.topografix.com/GPX/1/1" xmlns:xsi="http://www.w3.org/2001/XMLSchema-instance" xsi:schemaLocation="http://www.topografix.com/GPX/1/1 http://www.topografix.com/GPX/1/1/gpx.xsd" version="1.1" creator="VisuGPX - https://www.visugpx.com">
  <metadata>
    <name>Cordes-Laguépie-Najac</name>
    <desc><![CDATA[Première partie par les chemins, retour par la route]]></desc>
  </metadata>
  <trk>
    <name><![CDATA[Cordes-Laguépie-Najac]]></name>
    <trkseg>
      <trkpt lat="44.059" lon="1.96632">
        <ele>117</ele>
        <time>2014-08-15T11:29:49Z</time>
      </trkpt>
      <trkpt lat="44.059" lon="1.96632">
        <ele>117</ele>
        <time>2014-08-15T11:29:51Z</time>
      </trkpt>
      <trkpt lat="44.059" lon="1.96633">
        <ele>117</ele>
        <time>2014-08-15T11:29:53Z</time>
      </trkpt>
      <trkpt lat="44.05902" lon="1.96634">
        <ele>117</ele>
        <time>2014-08-15T11:29:55Z</time>
      </trkpt>
      <trkpt lat="44.05904" lon="1.96635">
        <ele>117</ele>
        <time>2014-08-15T11:29:57Z</time>
      </trkpt>
      <trkpt lat="44.05905" lon="1.96635">
        <ele>117</ele>
        <time>2014-08-15T11:29:59Z</time>
      </trkpt>
      <trkpt lat="44.05907" lon="1.96632">
        <ele>117</ele>
        <time>2014-08-15T11:30:01Z</time>
      </trkpt>
      <trkpt lat="44.05911" lon="1.9663">
        <ele>117</ele>
        <time>2014-08-15T11:30:03Z</time>
      </trkpt>
      <trkpt lat="44.05917" lon="1.96625">
        <ele>117</ele>
        <time>2014-08-15T11:30:05Z</time>
      </trkpt>
      <trkpt lat="44.05919" lon="1.96619">
        <ele>117</ele>
        <time>2014-08-15T11:30:07Z</time>
      </trkpt>
      <trkpt lat="44.0592" lon="1.96614">
        <ele>117</ele>
        <time>2014-08-15T11:30:09Z</time>
      </trkpt>
      <trkpt lat="44.05922" lon="1.96608">
        <ele>117</ele>
        <time>2014-08-15T11:30:11Z</time>
      </trkpt>
      <trkpt lat="44.05924" lon="1.96601">
        <ele>117</ele>
        <time>2014-08-15T11:30:13Z</time>
      </trkpt>
      <trkpt lat="44.05926" lon="1.96595">
        <ele>117</ele>
        <time>2014-08-15T11:30:15Z</time>
      </trkpt>
      <trkpt lat="44.05928" lon="1.96588">
        <ele>117</ele>
        <time>2014-08-15T11:30:18Z</time>
      </trkpt>
      <trkpt lat="44.0593" lon="1.96581">
        <ele>118</ele>
        <time>2014-08-15T11:30:20Z</time>
      </trkpt>
      <trkpt lat="44.05931" lon="1.96574">
        <ele>118</ele>
        <time>2014-08-15T11:30:22Z</time>
      </trkpt>
      <trkpt lat="44.05935" lon="1.96564">
        <ele>118</ele>
        <time>2014-08-15T11:30:25Z</time>
      </trkpt>
      <trkpt lat="44.05937" lon="1.96556">
        <ele>118</ele>
        <time>2014-08-15T11:30:27Z</time>
      </trkpt>
      <trkpt lat="44.05939" lon="1.96549">
        <ele>118</ele>
        <time>2014-08-15T11:30:29Z</time>
      </trkpt>
      <trkpt lat="44.05942" lon="1.96542">
        <ele>118</ele>
        <time>2014-08-15T11:30:31Z</time>
      </trkpt>
      <trkpt lat="44.05944" lon="1.96534">
        <ele>117</ele>
        <time>2014-08-15T11:30:33Z</time>
      </trkpt>
      <trkpt lat="44.05949" lon="1.9652">
        <ele>117</ele>
        <time>2014-08-15T11:30:36Z</time>
      </trkpt>
      <trkpt lat="44.05952" lon="1.96509">
        <ele>117</ele>
        <time>2014-08-15T11:30:38Z</time>
      </trkpt>
      <trkpt lat="44.05958" lon="1.9649">
        <ele>117</ele>
        <time>2014-08-15T11:30:41Z</time>
      </trkpt>
      <trkpt lat="44.05963" lon="1.96477">
        <ele>117</ele>
        <time>2014-08-15T11:30:43Z</time>
      </trkpt>
      <trkpt lat="44.05972" lon="1.96456">
        <ele>117</ele>
        <time>2014-08-15T11:30:46Z</time>
      </trkpt>
      <trkpt lat="44.05976" lon="1.96441">
        <ele>117</ele>
        <time>2014-08-15T11:30:48Z</time>
      </trkpt>
      <trkpt lat="44.05982" lon="1.9642">
        <ele>117</ele>
        <time>2014-08-15T11:30:51Z</time>
      </trkpt>
      <trkpt lat="44.05986" lon="1.96407">
        <ele>117</ele>
        <time>2014-08-15T11:30:53Z</time>
      </trkpt>
      <trkpt lat="44.05991" lon="1.9639">
        <ele>117</ele>
        <time>2014-08-15T11:30:56Z</time>
      </trkpt>
      <trkpt lat="44.05996" lon="1.96374">
        <ele>117</ele>
        <time>2014-08-15T11:30:59Z</time>
      </trkpt>
      <trkpt lat="44.06001" lon="1.9636">
        <ele>117</ele>
        <time>2014-08-15T11:31:02Z</time>
      </trkpt>
      <trkpt lat="44.06004" lon="1.9635">
        <ele>118</ele>
        <time>2014-08-15T11:31:04Z</time>
      </trkpt>
      <trkpt lat="44.06007" lon="1.96337">
        <ele>118</ele>
        <time>2014-08-15T11:31:07Z</time>
      </trkpt>
      <trkpt lat="44.0601" lon="1.96324">
        <ele>118</ele>
        <time>2014-08-15T11:31:10Z</time>
      </trkpt>
      <trkpt lat="44.06012" lon="1.96312">
        <ele>118</ele>
        <time>2014-08-15T11:31:13Z</time>
      </trkpt>
      <trkpt lat="44.06015" lon="1.96299">
        <ele>118</ele>
        <time>2014-08-15T11:31:16Z</time>
      </trkpt>
      <trkpt lat="44.06017" lon="1.9629">
        <ele>119</ele>
        <time>2014-08-15T11:31:18Z</time>
      </trkpt>
      <trkpt lat="44.06018" lon="1.96277">
        <ele>119</ele>
        <time>2014-08-15T11:31:21Z</time>
      </trkpt>
      <trkpt lat="44.0602" lon="1.96263">
        <ele>120</ele>
        <time>2014-08-15T11:31:24Z</time>
      </trkpt>
      <trkpt lat="44.06021" lon="1.96254">
        <ele>121</ele>
        <time>2014-08-15T11:31:26Z</time>
      </trkpt>
      <trkpt lat="44.06023" lon="1.96241">
        <ele>121</ele>
        <time>2014-08-15T11:31:28Z</time>
      </trkpt>
      <trkpt lat="44.06025" lon="1.96232">
        <ele>122</ele>
        <time>2014-08-15T11:31:30Z</time>
      </trkpt>
      <trkpt lat="44.06025" lon="1.96224">
        <ele>122</ele>
        <time>2014-08-15T11:31:33Z</time>
      </trkpt>
      <trkpt lat="44.06027" lon="1.96211">
        <ele>123</ele>
        <time>2014-08-15T11:31:36Z</time>
      </trkpt>
      <trkpt lat="44.0603" lon="1.96196">
        <ele>123</ele>
        <time>2014-08-15T11:31:39Z</time>
      </trkpt>
      <trkpt lat="44.06032" lon="1.96187">
        <ele>124</ele>
        <time>2014-08-15T11:31:41Z</time>
      </trkpt>
      <trkpt lat="44.06035" lon="1.96173">
        <ele>124</ele>
        <time>2014-08-15T11:31:43Z</time>
      </trkpt>
      <trkpt lat="44.06036" lon="1.96165">
        <ele>124</ele>
        <time>2014-08-15T11:31:45Z</time>
      </trkpt>
      <trkpt lat="44.06039" lon="1.96157">
        <ele>125</ele>
        <time>2014-08-15T11:31:48Z</time>
      </trkpt>
      <trkpt lat="44.06042" lon="1.96146">
        <ele>125</ele>
        <time>2014-08-15T11:31:51Z</time>
      </trkpt>
      <trkpt lat="44.06047" lon="1.96135">
        <ele>125</ele>
        <time>2014-08-15T11:31:54Z</time>
      </trkpt>
      <trkpt lat="44.0605" lon="1.96128">
        <ele>126</ele>
        <time>2014-08-15T11:31:56Z</time>
      </trkpt>
      <trkpt lat="44.06053" lon="1.96121">
        <ele>126</ele>
        <time>2014-08-15T11:31:58Z</time>
      </trkpt>
      <trkpt lat="44.06057" lon="1.96115">
        <ele>126</ele>
        <time>2014-08-15T11:32:00Z</time>
      </trkpt>
      <trkpt lat="44.06061" lon="1.96108">
        <ele>127</ele>
        <time>2014-08-15T11:32:03Z</time>
      </trkpt>
      <trkpt lat="44.06067" lon="1.96097">
        <ele>127</ele>
        <time>2014-08-15T11:32:06Z</time>
      </trkpt>
      <trkpt lat="44.06074" lon="1.96084">
        <ele>127</ele>
        <time>2014-08-15T11:32:09Z</time>
      </trkpt>
      <trkpt lat="44.06079" lon="1.96075">
        <ele>127</ele>
        <time>2014-08-15T11:32:11Z</time>
      </trkpt>
      <trkpt lat="44.06087" lon="1.96063">
        <ele>128</ele>
        <time>2014-08-15T11:32:13Z</time>
      </trkpt>
      <trkpt lat="44.06093" lon="1.96054">
        <ele>128</ele>
        <time>2014-08-15T11:32:15Z</time>
      </trkpt>
      <trkpt lat="44.06099" lon="1.96044">
        <ele>129</ele>
        <time>2014-08-15T11:32:18Z</time>
      </trkpt>
      <trkpt lat="44.06106" lon="1.9603">
        <ele>129</ele>
        <time>2014-08-15T11:32:21Z</time>
      </trkpt>
      <trkpt lat="44.06113" lon="1.96014">
        <ele>130</ele>
        <time>2014-08-15T11:32:24Z</time>
      </trkpt>
      <trkpt lat="44.06117" lon="1.96004">
        <ele>131</ele>
        <time>2014-08-15T11:32:26Z</time>
      </trkpt>
      <trkpt lat="44.06125" lon="1.95989">
        <ele>131</ele>
        <time>2014-08-15T11:32:28Z</time>
      </trkpt>
      <trkpt lat="44.06128" lon="1.95979">
        <ele>131</ele>
        <time>2014-08-15T11:32:30Z</time>
      </trkpt>
      <trkpt lat="44.06133" lon="1.95969">
        <ele>131</ele>
        <time>2014-08-15T11:32:33Z</time>
      </trkpt>
      <trkpt lat="44.06139" lon="1.95952">
        <ele>131</ele>
        <time>2014-08-15T11:32:36Z</time>
      </trkpt>
      <trkpt lat="44.06145" lon="1.95938">
        <ele>132</ele>
        <time>2014-08-15T11:32:39Z</time>
      </trkpt>
      <trkpt lat="44.0615" lon="1.95928">
        <ele>132</ele>
        <time>2014-08-15T11:32:41Z</time>
      </trkpt>
      <trkpt lat="44.06156" lon="1.95913">
        <ele>133</ele>
        <time>2014-08-15T11:32:43Z</time>
      </trkpt>
      <trkpt lat="44.0616" lon="1.95904">
        <ele>133</ele>
        <time>2014-08-15T11:32:45Z</time>
      </trkpt>
      <trkpt lat="44.06162" lon="1.95895">
        <ele>133</ele>
        <time>2014-08-15T11:32:48Z</time>
      </trkpt>
      <trkpt lat="44.06167" lon="1.95883">
        <ele>134</ele>
        <time>2014-08-15T11:32:51Z</time>
      </trkpt>
      <trkpt lat="44.06174" lon="1.95871">
        <ele>134</ele>
        <time>2014-08-15T11:32:54Z</time>
      </trkpt>
      <trkpt lat="44.06181" lon="1.95865">
        <ele>134</ele>
        <time>2014-08-15T11:32:56Z</time>
      </trkpt>
      <trkpt lat="44.06191" lon="1.95858">
        <ele>134</ele>
        <time>2014-08-15T11:32:58Z</time>
      </trkpt>
      <trkpt lat="44.06198" lon="1.95853">
        <ele>135</ele>
        <time>2014-08-15T11:33:00Z</time>
      </trkpt>
      <trkpt lat="44.06205" lon="1.95849">
        <ele>135</ele>
        <time>2014-08-15T11:33:03Z</time>
      </trkpt>
      <trkpt lat="44.06216" lon="1.95842">
        <ele>135</ele>
        <time>2014-08-15T11:33:06Z</time>
      </trkpt>
      <trkpt lat="44.06226" lon="1.95834">
        <ele>135</ele>
        <time>2014-08-15T11:33:08Z</time>
      </trkpt>
      <trkpt lat="44.06232" lon="1.95828">
        <ele>135</ele>
        <time>2014-08-15T11:33:11Z</time>
      </trkpt>
      <trkpt lat="44.06242" lon="1.95819">
        <ele>136</ele>
        <time>2014-08-15T11:33:13Z</time>
      </trkpt>
      <trkpt lat="44.06247" lon="1.95811">
        <ele>136</ele>
        <time>2014-08-15T11:33:16Z</time>
      </trkpt>
      <trkpt lat="44.06255" lon="1.95797">
        <ele>136</ele>
        <time>2014-08-15T11:33:18Z</time>
      </trkpt>
      <trkpt lat="44.06259" lon="1.9579">
        <ele>136</ele>
        <time>2014-08-15T11:33:20Z</time>
      </trkpt>
      <trkpt lat="44.06263" lon="1.95783">
        <ele>136</ele>
        <time>2014-08-15T11:33:23Z</time>
      </trkpt>
      <trkpt lat="44.06266" lon="1.95777">
        <ele>136</ele>
        <time>2014-08-15T11:33:25Z</time>
      </trkpt>
      <trkpt lat="44.06266" lon="1.95769">
        <ele>137</ele>
        <time>2014-08-15T11:33:27Z</time>
      </trkpt>
      <trkpt lat="44.06263" lon="1.95765">
        <ele>137</ele>
        <time>2014-08-15T11:33:30Z</time>
      </trkpt>
      <trkpt lat="44.06264" lon="1.95756">
        <ele>137</ele>
        <time>2014-08-15T11:33:32Z</time>
      </trkpt>
      <trkpt lat="44.06268" lon="1.95755">
        <ele>137</ele>
        <time>2014-08-15T11:33:34Z</time>
      </trkpt>
      <trkpt lat="44.0627" lon="1.95758">
        <ele>137</ele>
        <time>2014-08-15T11:33:36Z</time>
      </trkpt>
      <trkpt lat="44.06272" lon="1.95763">
        <ele>137</ele>
        <time>2014-08-15T11:33:39Z</time>
      </trkpt>
      <trkpt lat="44.06273" lon="1.95762">
        <ele>137</ele>
        <time>2014-08-15T11:33:41Z</time>
      </trkpt>
      <trkpt lat="44.06276" lon="1.95754">
        <ele>136</ele>
        <time>2014-08-15T11:33:45Z</time>
      </trkpt>
      <trkpt lat="44.06277" lon="1.95748">
        <ele>137</ele>
        <time>2014-08-15T11:33:47Z</time>
      </trkpt>
      <trkpt lat="44.06279" lon="1.95744">
        <ele>137</ele>
        <time>2014-08-15T11:33:49Z</time>
      </trkpt>
      <trkpt lat="44.0628" lon="1.95749">
        <ele>137</ele>
        <time>2014-08-15T11:33:52Z</time>
      </trkpt>
      <trkpt lat="44.06274" lon="1.95762">
        <ele>137</ele>
        <time>2014-08-15T11:33:54Z</time>
      </trkpt>
      <trkpt lat="44.06268" lon="1.9577">
        <ele>137</ele>
        <time>2014-08-15T11:33:56Z</time>
      </trkpt>
      <trkpt lat="44.06265" lon="1.9577">
        <ele>137</ele>
        <time>2014-08-15T11:33:59Z</time>
      </trkpt>
      <trkpt lat="44.06262" lon="1.95756">
        <ele>137</ele>
        <time>2014-08-15T11:34:01Z</time>
      </trkpt>
      <trkpt lat="44.0626" lon="1.95743">
        <ele>138</ele>
        <time>2014-08-15T11:34:04Z</time>
      </trkpt>
      <trkpt lat="44.06258" lon="1.9572">
        <ele>139</ele>
        <time>2014-08-15T11:34:06Z</time>
      </trkpt>
      <trkpt lat="44.06257" lon="1.95702">
        <ele>140</ele>
        <time>2014-08-15T11:34:09Z</time>
      </trkpt>
      <trkpt lat="44.06251" lon="1.95696">
        <ele>141</ele>
        <time>2014-08-15T11:34:11Z</time>
      </trkpt>
      <trkpt lat="44.06252" lon="1.95687">
        <ele>141</ele>
        <time>2014-08-15T11:34:13Z</time>
      </trkpt>
      <trkpt lat="44.06255" lon="1.95679">
        <ele>142</ele>
        <time>2014-08-15T11:34:16Z</time>
      </trkpt>
      <trkpt lat="44.06254" lon="1.95673">
        <ele>142</ele>
        <time>2014-08-15T11:34:18Z</time>
      </trkpt>
      <trkpt lat="44.06252" lon="1.95665">
        <ele>142</ele>
        <time>2014-08-15T11:34:20Z</time>
      </trkpt>
      <trkpt lat="44.06252" lon="1.95659">
        <ele>143</ele>
        <time>2014-08-15T11:34:22Z</time>
      </trkpt>
      <trkpt lat="44.06253" lon="1.95649">
        <ele>144</ele>
        <time>2014-08-15T11:34:26Z</time>
      </trkpt>
      <trkpt lat="44.06253" lon="1.9564">
        <ele>144</ele>
        <time>2014-08-15T11:34:28Z</time>
      </trkpt>
      <trkpt lat="44.06253" lon="1.95634">
        <ele>145</ele>
        <time>2014-08-15T11:34:30Z</time>
      </trkpt>
      <trkpt lat="44.06255" lon="1.95628">
        <ele>145</ele>
        <time>2014-08-15T11:34:32Z</time>
      </trkpt>
      <trkpt lat="44.06259" lon="1.95618">
        <ele>145</ele>
        <time>2014-08-15T11:34:36Z</time>
      </trkpt>
      <trkpt lat="44.06262" lon="1.95609">
        <ele>146</ele>
        <time>2014-08-15T11:34:38Z</time>
      </trkpt>
      <trkpt lat="44.06263" lon="1.95598">
        <ele>146</ele>
        <time>2014-08-15T11:34:40Z</time>
      </trkpt>
      <trkpt lat="44.06263" lon="1.95592">
        <ele>147</ele>
        <time>2014-08-15T11:34:42Z</time>
      </trkpt>
      <trkpt lat="44.06261" lon="1.95584">
        <ele>148</ele>
        <time>2014-08-15T11:34:46Z</time>
      </trkpt>
      <trkpt lat="44.06262" lon="1.95573">
        <ele>149</ele>
        <time>2014-08-15T11:34:48Z</time>
      </trkpt>
      <trkpt lat="44.06262" lon="1.95566">
        <ele>149</ele>
        <time>2014-08-15T11:34:51Z</time>
      </trkpt>
      <trkpt lat="44.06258" lon="1.95558">
        <ele>150</ele>
        <time>2014-08-15T11:34:54Z</time>
      </trkpt>
      <trkpt lat="44.06257" lon="1.95547">
        <ele>150</ele>
        <time>2014-08-15T11:34:56Z</time>
      </trkpt>
      <trkpt lat="44.06257" lon="1.95541">
        <ele>151</ele>
        <time>2014-08-15T11:34:58Z</time>
      </trkpt>
      <trkpt lat="44.06259" lon="1.95531">
        <ele>151</ele>
        <time>2014-08-15T11:35:02Z</time>
      </trkpt>
      <trkpt lat="44.06255" lon="1.95527">
        <ele>152</ele>
        <time>2014-08-15T11:35:04Z</time>
      </trkpt>
      <trkpt lat="44.06254" lon="1.95524">
        <ele>153</ele>
        <time>2014-08-15T11:35:06Z</time>
      </trkpt>
      <trkpt lat="44.0625" lon="1.95518">
        <ele>153</ele>
        <time>2014-08-15T11:35:10Z</time>
      </trkpt>
      <trkpt lat="44.06248" lon="1.95508">
        <ele>154</ele>
        <time>2014-08-15T11:35:12Z</time>
      </trkpt>
      <trkpt lat="44.06246" lon="1.95501">
        <ele>154</ele>
        <time>2014-08-15T11:35:14Z</time>
      </trkpt>
      <trkpt lat="44.06244" lon="1.95495">
        <ele>154</ele>
        <time>2014-08-15T11:35:17Z</time>
      </trkpt>
      <trkpt lat="44.06242" lon="1.95484">
        <ele>154</ele>
        <time>2014-08-15T11:35:19Z</time>
      </trkpt>
      <trkpt lat="44.06241" lon="1.95475">
        <ele>154</ele>
        <time>2014-08-15T11:35:21Z</time>
      </trkpt>
      <trkpt lat="44.06236" lon="1.95464">
        <ele>155</ele>
        <time>2014-08-15T11:35:24Z</time>
      </trkpt>
      <trkpt lat="44.06232" lon="1.95453">
        <ele>155</ele>
        <time>2014-08-15T11:35:27Z</time>
      </trkpt>
      <trkpt lat="44.06229" lon="1.95446">
        <ele>156</ele>
        <time>2014-08-15T11:35:30Z</time>
      </trkpt>
      <trkpt lat="44.06225" lon="1.95436">
        <ele>156</ele>
        <time>2014-08-15T11:35:32Z</time>
      </trkpt>
      <trkpt lat="44.06222" lon="1.9543">
        <ele>157</ele>
        <time>2014-08-15T11:35:35Z</time>
      </trkpt>
      <trkpt lat="44.06218" lon="1.95419">
        <ele>157</ele>
        <time>2014-08-15T11:35:37Z</time>
      </trkpt>
      <trkpt lat="44.06217" lon="1.95412">
        <ele>158</ele>
        <time>2014-08-15T11:35:39Z</time>
      </trkpt>
      <trkpt lat="44.06216" lon="1.954">
        <ele>158</ele>
        <time>2014-08-15T11:35:42Z</time>
      </trkpt>
      <trkpt lat="44.06216" lon="1.95392">
        <ele>158</ele>
        <time>2014-08-15T11:35:44Z</time>
      </trkpt>
      <trkpt lat="44.06213" lon="1.95381">
        <ele>159</ele>
        <time>2014-08-15T11:35:47Z</time>
      </trkpt>
      <trkpt lat="44.06214" lon="1.9537">
        <ele>160</ele>
        <time>2014-08-15T11:35:50Z</time>
      </trkpt>
      <trkpt lat="44.06215" lon="1.95364">
        <ele>161</ele>
        <time>2014-08-15T11:35:52Z</time>
      </trkpt>
      <trkpt lat="44.06215" lon="1.95358">
        <ele>161</ele>
        <time>2014-08-15T11:35:55Z</time>
      </trkpt>
      <trkpt lat="44.06215" lon="1.95351">
        <ele>162</ele>
        <time>2014-08-15T11:35:58Z</time>
      </trkpt>
      <trkpt lat="44.06215" lon="1.95348">
        <ele>162</ele>
        <time>2014-08-15T11:36:01Z</time>
      </trkpt>
      <trkpt lat="44.06215" lon="1.95345">
        <ele>163</ele>
        <time>2014-08-15T11:36:03Z</time>
      </trkpt>
      <trkpt lat="44.06216" lon="1.95338">
        <ele>163</ele>
        <time>2014-08-15T11:36:06Z</time>
      </trkpt>
      <trkpt lat="44.06218" lon="1.95332">
        <ele>164</ele>
        <time>2014-08-15T11:36:09Z</time>
      </trkpt>
      <trkpt lat="44.06222" lon="1.95322">
        <ele>164</ele>
        <time>2014-08-15T11:36:12Z</time>
      </trkpt>
      <trkpt lat="44.06226" lon="1.95313">
        <ele>164</ele>
        <time>2014-08-15T11:36:14Z</time>
      </trkpt>
      <trkpt lat="44.06227" lon="1.95307">
        <ele>165</ele>
        <time>2014-08-15T11:36:16Z</time>
      </trkpt>
      <trkpt lat="44.06227" lon="1.95302">
        <ele>165</ele>
        <time>2014-08-15T11:36:18Z</time>
      </trkpt>
      <trkpt lat="44.06228" lon="1.95295">
        <ele>166</ele>
        <time>2014-08-15T11:36:21Z</time>
      </trkpt>
      <trkpt lat="44.06229" lon="1.95293">
        <ele>167</ele>
        <time>2014-08-15T11:36:23Z</time>
      </trkpt>
      <trkpt lat="44.06228" lon="1.95291">
        <ele>167</ele>
        <time>2014-08-15T11:36:25Z</time>
      </trkpt>
      <trkpt lat="44.06228" lon="1.95284">
        <ele>168</ele>
        <time>2014-08-15T11:36:29Z</time>
      </trkpt>
      <trkpt lat="44.06229" lon="1.95277">
        <ele>169</ele>
        <time>2014-08-15T11:36:31Z</time>
      </trkpt>
      <trkpt lat="44.06232" lon="1.95272">
        <ele>169</ele>
        <time>2014-08-15T11:36:33Z</time>
      </trkpt>
      <trkpt lat="44.06233" lon="1.95268">
        <ele>169</ele>
        <time>2014-08-15T11:36:35Z</time>
      </trkpt>
      <trkpt lat="44.06235" lon="1.95261">
        <ele>169</ele>
        <time>2014-08-15T11:36:38Z</time>
      </trkpt>
      <trkpt lat="44.06236" lon="1.95255">
        <ele>170</ele>
        <time>2014-08-15T11:36:40Z</time>
      </trkpt>
      <trkpt lat="44.06238" lon="1.95246">
        <ele>171</ele>
        <time>2014-08-15T11:36:43Z</time>
      </trkpt>
      <trkpt lat="44.06239" lon="1.95241">
        <ele>171</ele>
        <time>2014-08-15T11:36:46Z</time>
      </trkpt>
      <trkpt lat="44.06239" lon="1.95239">
        <ele>172</ele>
        <time>2014-08-15T11:36:48Z</time>
      </trkpt>
      <trkpt lat="44.06238" lon="1.95237">
        <ele>172</ele>
        <time>2014-08-15T11:36:51Z</time>
      </trkpt>
      <trkpt lat="44.06238" lon="1.95236">
        <ele>172</ele>
        <time>2014-08-15T11:36:53Z</time>
      </trkpt>
      <trkpt lat="44.06237" lon="1.95237">
        <ele>172</ele>
        <time>2014-08-15T11:36:56Z</time>
      </trkpt>
      <trkpt lat="44.06232" lon="1.9523">
        <ele>172</ele>
        <time>2014-08-15T11:36:59Z</time>
      </trkpt>
      <trkpt lat="44.06233" lon="1.95226">
        <ele>172</ele>
        <time>2014-08-15T11:37:01Z</time>
      </trkpt>
      <trkpt lat="44.06233" lon="1.95221">
        <ele>172</ele>
        <time>2014-08-15T11:37:03Z</time>
      </trkpt>
      <trkpt lat="44.06235" lon="1.95213">
        <ele>173</ele>
        <time>2014-08-15T11:37:06Z</time>
      </trkpt>
      <trkpt lat="44.06237" lon="1.95202">
        <ele>174</ele>
        <time>2014-08-15T11:37:09Z</time>
      </trkpt>
      <trkpt lat="44.06237" lon="1.95195">
        <ele>174</ele>
        <time>2014-08-15T11:37:11Z</time>
      </trkpt>
      <trkpt lat="44.06238" lon="1.95188">
        <ele>175</ele>
        <time>2014-08-15T11:37:13Z</time>
      </trkpt>
      <trkpt lat="44.06239" lon="1.95178">
        <ele>175</ele>
        <time>2014-08-15T11:37:16Z</time>
      </trkpt>
      <trkpt lat="44.06241" lon="1.95168">
        <ele>176</ele>
        <time>2014-08-15T11:37:19Z</time>
      </trkpt>
      <trkpt lat="44.06241" lon="1.95162">
        <ele>176</ele>
        <time>2014-08-15T11:37:21Z</time>
      </trkpt>
      <trkpt lat="44.06241" lon="1.95156">
        <ele>177</ele>
        <time>2014-08-15T11:37:23Z</time>
      </trkpt>
      <trkpt lat="44.06241" lon="1.9515">
        <ele>177</ele>
        <time>2014-08-15T11:37:25Z</time>
      </trkpt>
      <trkpt lat="44.06241" lon="1.95144">
        <ele>178</ele>
        <time>2014-08-15T11:37:27Z</time>
      </trkpt>
      <trkpt lat="44.06241" lon="1.95133">
        <ele>178</ele>
        <time>2014-08-15T11:37:30Z</time>
      </trkpt>
      <trkpt lat="44.06241" lon="1.95124">
        <ele>179</ele>
        <time>2014-08-15T11:37:33Z</time>
      </trkpt>
      <trkpt lat="44.06241" lon="1.95117">
        <ele>179</ele>
        <time>2014-08-15T11:37:35Z</time>
      </trkpt>
      <trkpt lat="44.06242" lon="1.9511">
        <ele>180</ele>
        <time>2014-08-15T11:37:37Z</time>
      </trkpt>
      <trkpt lat="44.06244" lon="1.95104">
        <ele>180</ele>
        <time>2014-08-15T11:37:39Z</time>
      </trkpt>
      <trkpt lat="44.06247" lon="1.95098">
        <ele>180</ele>
        <time>2014-08-15T11:37:41Z</time>
      </trkpt>
      <trkpt lat="44.06253" lon="1.9509">
        <ele>181</ele>
        <time>2014-08-15T11:37:44Z</time>
      </trkpt>
      <trkpt lat="44.06256" lon="1.95087">
        <ele>182</ele>
        <time>2014-08-15T11:37:46Z</time>
      </trkpt>
      <trkpt lat="44.0626" lon="1.95082">
        <ele>182</ele>
        <time>2014-08-15T11:37:48Z</time>
      </trkpt>
      <trkpt lat="44.06263" lon="1.95077">
        <ele>183</ele>
        <time>2014-08-15T11:37:50Z</time>
      </trkpt>
      <trkpt lat="44.06268" lon="1.9507">
        <ele>183</ele>
        <time>2014-08-15T11:37:53Z</time>
      </trkpt>
      <trkpt lat="44.06271" lon="1.95066">
        <ele>184</ele>
        <time>2014-08-15T11:37:55Z</time>
      </trkpt>
      <trkpt lat="44.06273" lon="1.95061">
        <ele>184</ele>
        <time>2014-08-15T11:37:57Z</time>
      </trkpt>
      <trkpt lat="44.06274" lon="1.95052">
        <ele>185</ele>
        <time>2014-08-15T11:38:00Z</time>
      </trkpt>
      <trkpt lat="44.06276" lon="1.95044">
        <ele>185</ele>
        <time>2014-08-15T11:38:03Z</time>
      </trkpt>
      <trkpt lat="44.06278" lon="1.95038">
        <ele>186</ele>
        <time>2014-08-15T11:38:05Z</time>
      </trkpt>
      <trkpt lat="44.06281" lon="1.95028">
        <ele>186</ele>
        <time>2014-08-15T11:38:08Z</time>
      </trkpt>
      <trkpt lat="44.06283" lon="1.95021">
        <ele>186</ele>
        <time>2014-08-15T11:38:10Z</time>
      </trkpt>
      <trkpt lat="44.06284" lon="1.95014">
        <ele>186</ele>
        <time>2014-08-15T11:38:12Z</time>
      </trkpt>
      <trkpt lat="44.06286" lon="1.95007">
        <ele>186</ele>
        <time>2014-08-15T11:38:14Z</time>
      </trkpt>
      <trkpt lat="44.06288" lon="1.94995">
        <ele>186</ele>
        <time>2014-08-15T11:38:17Z</time>
      </trkpt>
      <trkpt lat="44.06291" lon="1.94983">
        <ele>186</ele>
        <time>2014-08-15T11:38:20Z</time>
      </trkpt>
      <trkpt lat="44.06293" lon="1.94971">
        <ele>186</ele>
        <time>2014-08-15T11:38:23Z</time>
      </trkpt>
      <trkpt lat="44.06293" lon="1.94965">
        <ele>186</ele>
        <time>2014-08-15T11:38:25Z</time>
      </trkpt>
      <trkpt lat="44.06295" lon="1.94958">
        <ele>186</ele>
        <time>2014-08-15T11:38:27Z</time>
      </trkpt>
      <trkpt lat="44.06297" lon="1.9495">
        <ele>186</ele>
        <time>2014-08-15T11:38:29Z</time>
      </trkpt>
      <trkpt lat="44.063" lon="1.94936">
        <ele>186</ele>
        <time>2014-08-15T11:38:32Z</time>
      </trkpt>
      <trkpt lat="44.06301" lon="1.94927">
        <ele>186</ele>
        <time>2014-08-15T11:38:34Z</time>
      </trkpt>
      <trkpt lat="44.06304" lon="1.94919">
        <ele>186</ele>
        <time>2014-08-15T11:38:36Z</time>
      </trkpt>
      <trkpt lat="44.06306" lon="1.94911">
        <ele>187</ele>
        <time>2014-08-15T11:38:38Z</time>
      </trkpt>
      <trkpt lat="44.06309" lon="1.94902">
        <ele>187</ele>
        <time>2014-08-15T11:38:41Z</time>
      </trkpt>
      <trkpt lat="44.0631" lon="1.94899">
        <ele>187</ele>
        <time>2014-08-15T11:38:43Z</time>
      </trkpt>
      <trkpt lat="44.06313" lon="1.94893">
        <ele>187</ele>
        <time>2014-08-15T11:38:46Z</time>
      </trkpt>
      <trkpt lat="44.06314" lon="1.94888">
        <ele>186</ele>
        <time>2014-08-15T11:38:48Z</time>
      </trkpt>
      <trkpt lat="44.06317" lon="1.94884">
        <ele>186</ele>
        <time>2014-08-15T11:38:50Z</time>
      </trkpt>
      <trkpt lat="44.0632" lon="1.94878">
        <ele>187</ele>
        <time>2014-08-15T11:38:52Z</time>
      </trkpt>
      <trkpt lat="44.06321" lon="1.94868">
        <ele>187</ele>
        <time>2014-08-15T11:38:54Z</time>
      </trkpt>
      <trkpt lat="44.06324" lon="1.94854">
        <ele>187</ele>
        <time>2014-08-15T11:38:57Z</time>
      </trkpt>
      <trkpt lat="44.06327" lon="1.94846">
        <ele>187</ele>
        <time>2014-08-15T11:38:59Z</time>
      </trkpt>
      <trkpt lat="44.06332" lon="1.94841">
        <ele>186</ele>
        <time>2014-08-15T11:39:01Z</time>
      </trkpt>
      <trkpt lat="44.06365" lon="1.94852">
        <ele>189</ele>
        <time>2014-08-15T11:39:04Z</time>
      </trkpt>
      <trkpt lat="44.06366" lon="1.94854">
        <ele>190</ele>
        <time>2014-08-15T11:39:07Z</time>
      </trkpt>
      <trkpt lat="44.06367" lon="1.94859">
        <ele>190</ele>
        <time>2014-08-15T11:39:09Z</time>
      </trkpt>
      <trkpt lat="44.06366" lon="1.94861">
        <ele>191</ele>
        <time>2014-08-15T11:39:11Z</time>
      </trkpt>
      <trkpt lat="44.06363" lon="1.94865">
        <ele>191</ele>
        <time>2014-08-15T11:39:13Z</time>
      </trkpt>
      <trkpt lat="44.06359" lon="1.94869">
        <ele>192</ele>
        <time>2014-08-15T11:39:15Z</time>
      </trkpt>
      <trkpt lat="44.06356" lon="1.94871">
        <ele>193</ele>
        <time>2014-08-15T11:39:17Z</time>
      </trkpt>
      <trkpt lat="44.06357" lon="1.94874">
        <ele>193</ele>
        <time>2014-08-15T11:39:20Z</time>
      </trkpt>
      <trkpt lat="44.06356" lon="1.94875">
        <ele>194</ele>
        <time>2014-08-15T11:39:22Z</time>
      </trkpt>
      <trkpt lat="44.06355" lon="1.94876">
        <ele>194</ele>
        <time>2014-08-15T11:39:24Z</time>
      </trkpt>
      <trkpt lat="44.06354" lon="1.94882">
        <ele>195</ele>
        <time>2014-08-15T11:39:27Z</time>
      </trkpt>
      <trkpt lat="44.06356" lon="1.94887">
        <ele>195</ele>
        <time>2014-08-15T11:39:29Z</time>
      </trkpt>
      <trkpt lat="44.06359" lon="1.94896">
        <ele>196</ele>
        <time>2014-08-15T11:39:32Z</time>
      </trkpt>
      <trkpt lat="44.0637" lon="1.9492">
        <ele>198</ele>
        <time>2014-08-15T11:39:41Z</time>
      </trkpt>
      <trkpt lat="44.06368" lon="1.9493">
        <ele>199</ele>
        <time>2014-08-15T11:39:43Z</time>
      </trkpt>
      <trkpt lat="44.06368" lon="1.94939">
        <ele>199</ele>
        <time>2014-08-15T11:39:45Z</time>
      </trkpt>
      <trkpt lat="44.06372" lon="1.94945">
        <ele>199</ele>
        <time>2014-08-15T11:39:47Z</time>
      </trkpt>
      <trkpt lat="44.06375" lon="1.94948">
        <ele>200</ele>
        <time>2014-08-15T11:39:49Z</time>
      </trkpt>
      <trkpt lat="44.06377" lon="1.94954">
        <ele>201</ele>
        <time>2014-08-15T11:39:52Z</time>
      </trkpt>
      <trkpt lat="44.06377" lon="1.94964">
        <ele>201</ele>
        <time>2014-08-15T11:39:55Z</time>
      </trkpt>
      <trkpt lat="44.06377" lon="1.94969">
        <ele>202</ele>
        <time>2014-08-15T11:39:57Z</time>
      </trkpt>
      <trkpt lat="44.06377" lon="1.94976">
        <ele>202</ele>
        <time>2014-08-15T11:39:59Z</time>
      </trkpt>
      <trkpt lat="44.06377" lon="1.94983">
        <ele>202</ele>
        <time>2014-08-15T11:40:01Z</time>
      </trkpt>
      <trkpt lat="44.06375" lon="1.94994">
        <ele>203</ele>
        <time>2014-08-15T11:40:04Z</time>
      </trkpt>
      <trkpt lat="44.06373" lon="1.95001">
        <ele>204</ele>
        <time>2014-08-15T11:40:06Z</time>
      </trkpt>
      <trkpt lat="44.06372" lon="1.95008">
        <ele>205</ele>
        <time>2014-08-15T11:40:08Z</time>
      </trkpt>
      <trkpt lat="44.06373" lon="1.95018">
        <ele>205</ele>
        <time>2014-08-15T11:40:11Z</time>
      </trkpt>
      <trkpt lat="44.06374" lon="1.95025">
        <ele>206</ele>
        <time>2014-08-15T11:40:14Z</time>
      </trkpt>
      <trkpt lat="44.06373" lon="1.9503">
        <ele>206</ele>
        <time>2014-08-15T11:40:16Z</time>
      </trkpt>
      <trkpt lat="44.06372" lon="1.95036">
        <ele>207</ele>
        <time>2014-08-15T11:40:18Z</time>
      </trkpt>
      <trkpt lat="44.06367" lon="1.95043">
        <ele>208</ele>
        <time>2014-08-15T11:40:21Z</time>
      </trkpt>
      <trkpt lat="44.06364" lon="1.95046">
        <ele>208</ele>
        <time>2014-08-15T11:40:23Z</time>
      </trkpt>
      <trkpt lat="44.06361" lon="1.95051">
        <ele>209</ele>
        <time>2014-08-15T11:40:26Z</time>
      </trkpt>
      <trkpt lat="44.06363" lon="1.95055">
        <ele>209</ele>
        <time>2014-08-15T11:40:28Z</time>
      </trkpt>
      <trkpt lat="44.06366" lon="1.95056">
        <ele>209</ele>
        <time>2014-08-15T11:40:30Z</time>
      </trkpt>
      <trkpt lat="44.06371" lon="1.95057">
        <ele>209</ele>
        <time>2014-08-15T11:40:32Z</time>
      </trkpt>
      <trkpt lat="44.06373" lon="1.95066">
        <ele>210</ele>
        <time>2014-08-15T11:40:35Z</time>
      </trkpt>
      <trkpt lat="44.06374" lon="1.95072">
        <ele>210</ele>
        <time>2014-08-15T11:40:37Z</time>
      </trkpt>
      <trkpt lat="44.06373" lon="1.95079">
        <ele>210</ele>
        <time>2014-08-15T11:40:40Z</time>
      </trkpt>
      <trkpt lat="44.06374" lon="1.95085">
        <ele>210</ele>
        <time>2014-08-15T11:40:43Z</time>
      </trkpt>
      <trkpt lat="44.06373" lon="1.95093">
        <ele>211</ele>
        <time>2014-08-15T11:40:46Z</time>
      </trkpt>
      <trkpt lat="44.06372" lon="1.95102">
        <ele>212</ele>
        <time>2014-08-15T11:40:49Z</time>
      </trkpt>
      <trkpt lat="44.06372" lon="1.95107">
        <ele>212</ele>
        <time>2014-08-15T11:40:51Z</time>
      </trkpt>
      <trkpt lat="44.06372" lon="1.95114">
        <ele>212</ele>
        <time>2014-08-15T11:40:54Z</time>
      </trkpt>
      <trkpt lat="44.06372" lon="1.95117">
        <ele>212</ele>
        <time>2014-08-15T11:40:56Z</time>
      </trkpt>
      <trkpt lat="44.06371" lon="1.95121">
        <ele>213</ele>
        <time>2014-08-15T11:40:58Z</time>
      </trkpt>
      <trkpt lat="44.06371" lon="1.95126">
        <ele>213</ele>
        <time>2014-08-15T11:41:01Z</time>
      </trkpt>
      <trkpt lat="44.06369" lon="1.95134">
        <ele>214</ele>
        <time>2014-08-15T11:41:04Z</time>
      </trkpt>
      <trkpt lat="44.06367" lon="1.95141">
        <ele>214</ele>
        <time>2014-08-15T11:41:07Z</time>
      </trkpt>
      <trkpt lat="44.06366" lon="1.95145">
        <ele>214</ele>
        <time>2014-08-15T11:41:10Z</time>
      </trkpt>
      <trkpt lat="44.06366" lon="1.95149">
        <ele>214</ele>
        <time>2014-08-15T11:41:13Z</time>
      </trkpt>
      <trkpt lat="44.06365" lon="1.9515">
        <ele>214</ele>
        <time>2014-08-15T11:41:15Z</time>
      </trkpt>
      <trkpt lat="44.06365" lon="1.9515">
        <ele>214</ele>
        <time>2014-08-15T11:41:17Z</time>
      </trkpt>
      <trkpt lat="44.06365" lon="1.95149">
        <ele>214</ele>
        <time>2014-08-15T11:41:19Z</time>
      </trkpt>
      <trkpt lat="44.06365" lon="1.95145">
        <ele>214</ele>
        <time>2014-08-15T11:41:22Z</time>
      </trkpt>
      <trkpt lat="44.06366" lon="1.95142">
        <ele>213</ele>
        <time>2014-08-15T11:41:24Z</time>
      </trkpt>
      <trkpt lat="44.06364" lon="1.95141">
        <ele>213</ele>
        <time>2014-08-15T11:41:26Z</time>
      </trkpt>
      <trkpt lat="44.06362" lon="1.9514">
        <ele>213</ele>
        <time>2014-08-15T11:41:29Z</time>
      </trkpt>
      <trkpt lat="44.06361" lon="1.95138">
        <ele>213</ele>
        <time>2014-08-15T11:41:32Z</time>
      </trkpt>
      <trkpt lat="44.06358" lon="1.95136">
        <ele>213</ele>
        <time>2014-08-15T11:41:35Z</time>
      </trkpt>
      <trkpt lat="44.06356" lon="1.95136">
        <ele>213</ele>
        <time>2014-08-15T11:41:37Z</time>
      </trkpt>
      <trkpt lat="44.06351" lon="1.95135">
        <ele>213</ele>
        <time>2014-08-15T11:41:40Z</time>
      </trkpt>
      <trkpt lat="44.0635" lon="1.95135">
        <ele>213</ele>
        <time>2014-08-15T11:41:42Z</time>
      </trkpt>
      <trkpt lat="44.06347" lon="1.95133">
        <ele>213</ele>
        <time>2014-08-15T11:41:45Z</time>
      </trkpt>
      <trkpt lat="44.06344" lon="1.95129">
        <ele>213</ele>
        <time>2014-08-15T11:41:48Z</time>
      </trkpt>
      <trkpt lat="44.06343" lon="1.95127">
        <ele>213</ele>
        <time>2014-08-15T11:41:50Z</time>
      </trkpt>
      <trkpt lat="44.06344" lon="1.95125">
        <ele>213</ele>
        <time>2014-08-15T11:41:53Z</time>
      </trkpt>
      <trkpt lat="44.06344" lon="1.95122">
        <ele>213</ele>
        <time>2014-08-15T11:41:56Z</time>
      </trkpt>
      <trkpt lat="44.06344" lon="1.95121">
        <ele>213</ele>
        <time>2014-08-15T11:41:58Z</time>
      </trkpt>
      <trkpt lat="44.06343" lon="1.95118">
        <ele>212</ele>
        <time>2014-08-15T11:42:01Z</time>
      </trkpt>
      <trkpt lat="44.06341" lon="1.95113">
        <ele>212</ele>
        <time>2014-08-15T11:42:04Z</time>
      </trkpt>
      <trkpt lat="44.06338" lon="1.95104">
        <ele>212</ele>
        <time>2014-08-15T11:42:07Z</time>
      </trkpt>
      <trkpt lat="44.06341" lon="1.95097">
        <ele>211</ele>
        <time>2014-08-15T11:42:10Z</time>
      </trkpt>
      <trkpt lat="44.06343" lon="1.95094">
        <ele>211</ele>
        <time>2014-08-15T11:42:12Z</time>
      </trkpt>
      <trkpt lat="44.06343" lon="1.95086">
        <ele>210</ele>
        <time>2014-08-15T11:42:15Z</time>
      </trkpt>
      <trkpt lat="44.06344" lon="1.95081">
        <ele>210</ele>
        <time>2014-08-15T11:42:17Z</time>
      </trkpt>
      <trkpt lat="44.06345" lon="1.95074">
        <ele>209</ele>
        <time>2014-08-15T11:42:19Z</time>
      </trkpt>
      <trkpt lat="44.06348" lon="1.95061">
        <ele>209</ele>
        <time>2014-08-15T11:42:22Z</time>
      </trkpt>
      <trkpt lat="44.0635" lon="1.9505">
        <ele>208</ele>
        <time>2014-08-15T11:42:24Z</time>
      </trkpt>
      <trkpt lat="44.0635" lon="1.95037">
        <ele>207</ele>
        <time>2014-08-15T11:42:26Z</time>
      </trkpt>
      <trkpt lat="44.06348" lon="1.95019">
        <ele>206</ele>
        <time>2014-08-15T11:42:29Z</time>
      </trkpt>
      <trkpt lat="44.06349" lon="1.95">
        <ele>205</ele>
        <time>2014-08-15T11:42:32Z</time>
      </trkpt>
      <trkpt lat="44.0635" lon="1.94984">
        <ele>204</ele>
        <time>2014-08-15T11:42:34Z</time>
      </trkpt>
      <trkpt lat="44.06353" lon="1.94965">
        <ele>203</ele>
        <time>2014-08-15T11:42:37Z</time>
      </trkpt>
      <trkpt lat="44.06356" lon="1.94952">
        <ele>202</ele>
        <time>2014-08-15T11:42:39Z</time>
      </trkpt>
      <trkpt lat="44.06358" lon="1.94937">
        <ele>199</ele>
        <time>2014-08-15T11:42:42Z</time>
      </trkpt>
      <trkpt lat="44.06361" lon="1.94925">
        <ele>196</ele>
        <time>2014-08-15T11:42:45Z</time>
      </trkpt>
      <trkpt lat="44.06364" lon="1.94915">
        <ele>195</ele>
        <time>2014-08-15T11:42:47Z</time>
      </trkpt>
      <trkpt lat="44.06371" lon="1.94888">
        <ele>192</ele>
        <time>2014-08-15T11:42:52Z</time>
      </trkpt>
      <trkpt lat="44.06369" lon="1.94869">
        <ele>191</ele>
        <time>2014-08-15T11:42:55Z</time>
      </trkpt>
      <trkpt lat="44.06369" lon="1.94857">
        <ele>189</ele>
        <time>2014-08-15T11:42:58Z</time>
      </trkpt>
      <trkpt lat="44.06376" lon="1.94849">
        <ele>188</ele>
        <time>2014-08-15T11:43:01Z</time>
      </trkpt>
      <trkpt lat="44.06387" lon="1.94846">
        <ele>187</ele>
        <time>2014-08-15T11:43:04Z</time>
      </trkpt>
      <trkpt lat="44.06401" lon="1.94846">
        <ele>185</ele>
        <time>2014-08-15T11:43:07Z</time>
      </trkpt>
      <trkpt lat="44.0641" lon="1.94848">
        <ele>184</ele>
        <time>2014-08-15T11:43:10Z</time>
      </trkpt>
      <trkpt lat="44.06414" lon="1.9486">
        <ele>182</ele>
        <time>2014-08-15T11:43:13Z</time>
      </trkpt>
      <trkpt lat="44.06415" lon="1.94872">
        <ele>181</ele>
        <time>2014-08-15T11:43:15Z</time>
      </trkpt>
      <trkpt lat="44.06419" lon="1.94895">
        <ele>181</ele>
        <time>2014-08-15T11:43:18Z</time>
      </trkpt>
      <trkpt lat="44.06424" lon="1.94912">
        <ele>180</ele>
        <time>2014-08-15T11:43:20Z</time>
      </trkpt>
      <trkpt lat="44.06437" lon="1.94943">
        <ele>178</ele>
        <time>2014-08-15T11:43:23Z</time>
      </trkpt>
      <trkpt lat="44.06449" lon="1.94978">
        <ele>175</ele>
        <time>2014-08-15T11:43:26Z</time>
      </trkpt>
      <trkpt lat="44.06461" lon="1.9501">
        <ele>172</ele>
        <time>2014-08-15T11:43:29Z</time>
      </trkpt>
      <trkpt lat="44.0647" lon="1.95042">
        <ele>170</ele>
        <time>2014-08-15T11:43:32Z</time>
      </trkpt>
      <trkpt lat="44.06479" lon="1.95071">
        <ele>167</ele>
        <time>2014-08-15T11:43:35Z</time>
      </trkpt>
      <trkpt lat="44.06484" lon="1.95085">
        <ele>165</ele>
        <time>2014-08-15T11:43:37Z</time>
      </trkpt>
      <trkpt lat="44.06489" lon="1.95103">
        <ele>163</ele>
        <time>2014-08-15T11:43:40Z</time>
      </trkpt>
      <trkpt lat="44.06491" lon="1.95117">
        <ele>162</ele>
        <time>2014-08-15T11:43:42Z</time>
      </trkpt>
      <trkpt lat="44.06493" lon="1.95133">
        <ele>161</ele>
        <time>2014-08-15T11:43:44Z</time>
      </trkpt>
      <trkpt lat="44.06495" lon="1.9515">
        <ele>160</ele>
        <time>2014-08-15T11:43:46Z</time>
      </trkpt>
      <trkpt lat="44.06496" lon="1.9516">
        <ele>159</ele>
        <time>2014-08-15T11:43:49Z</time>
      </trkpt>
      <trkpt lat="44.06497" lon="1.95171">
        <ele>158</ele>
        <time>2014-08-15T11:43:51Z</time>
      </trkpt>
      <trkpt lat="44.065" lon="1.95185">
        <ele>157</ele>
        <time>2014-08-15T11:43:54Z</time>
      </trkpt>
      <trkpt lat="44.06501" lon="1.95196">
        <ele>156</ele>
        <time>2014-08-15T11:43:56Z</time>
      </trkpt>
      <trkpt lat="44.06503" lon="1.95204">
        <ele>156</ele>
        <time>2014-08-15T11:43:58Z</time>
      </trkpt>
      <trkpt lat="44.06505" lon="1.95215">
        <ele>155</ele>
        <time>2014-08-15T11:44:01Z</time>
      </trkpt>
      <trkpt lat="44.06514" lon="1.95216">
        <ele>154</ele>
        <time>2014-08-15T11:44:04Z</time>
      </trkpt>
      <trkpt lat="44.0653" lon="1.95225">
        <ele>152</ele>
        <time>2014-08-15T11:44:07Z</time>
      </trkpt>
      <trkpt lat="44.06544" lon="1.95243">
        <ele>149</ele>
        <time>2014-08-15T11:44:10Z</time>
      </trkpt>
      <trkpt lat="44.06551" lon="1.95254">
        <ele>146</ele>
        <time>2014-08-15T11:44:12Z</time>
      </trkpt>
      <trkpt lat="44.06553" lon="1.95266">
        <ele>143</ele>
        <time>2014-08-15T11:44:15Z</time>
      </trkpt>
      <trkpt lat="44.06553" lon="1.95273">
        <ele>141</ele>
        <time>2014-08-15T11:44:17Z</time>
      </trkpt>
      <trkpt lat="44.06553" lon="1.95274">
        <ele>140</ele>
        <time>2014-08-15T11:44:19Z</time>
      </trkpt>
      <trkpt lat="44.06554" lon="1.95274">
        <ele>139</ele>
        <time>2014-08-15T11:44:21Z</time>
      </trkpt>
      <trkpt lat="44.06556" lon="1.95274">
        <ele>140</ele>
        <time>2014-08-15T11:44:24Z</time>
      </trkpt>
      <trkpt lat="44.06557" lon="1.9527">
        <ele>139</ele>
        <time>2014-08-15T11:44:26Z</time>
      </trkpt>
      <trkpt lat="44.06559" lon="1.95268">
        <ele>140</ele>
        <time>2014-08-15T11:44:29Z</time>
      </trkpt>
      <trkpt lat="44.06561" lon="1.95266">
        <ele>140</ele>
        <time>2014-08-15T11:44:31Z</time>
      </trkpt>
      <trkpt lat="44.06563" lon="1.95264">
        <ele>140</ele>
        <time>2014-08-15T11:44:33Z</time>
      </trkpt>
      <trkpt lat="44.06564" lon="1.95263">
        <ele>140</ele>
        <time>2014-08-15T11:44:35Z</time>
      </trkpt>
      <trkpt lat="44.06564" lon="1.95263">
        <ele>140</ele>
        <time>2014-08-15T11:44:38Z</time>
      </trkpt>
      <trkpt lat="44.06564" lon="1.95263">
        <ele>139</ele>
        <time>2014-08-15T11:44:41Z</time>
      </trkpt>
      <trkpt lat="44.06565" lon="1.95264">
        <ele>139</ele>
        <time>2014-08-15T11:44:43Z</time>
      </trkpt>
      <trkpt lat="44.06567" lon="1.9526">
        <ele>139</ele>
        <time>2014-08-15T11:44:45Z</time>
      </trkpt>
      <trkpt lat="44.06567" lon="1.9526">
        <ele>139</ele>
        <time>2014-08-15T11:44:47Z</time>
      </trkpt>
      <trkpt lat="44.06569" lon="1.95257">
        <ele>139</ele>
        <time>2014-08-15T11:44:49Z</time>
      </trkpt>
      <trkpt lat="44.06572" lon="1.95249">
        <ele>139</ele>
        <time>2014-08-15T11:44:51Z</time>
      </trkpt>
      <trkpt lat="44.06574" lon="1.95239">
        <ele>139</ele>
        <time>2014-08-15T11:44:53Z</time>
      </trkpt>
      <trkpt lat="44.06578" lon="1.95224">
        <ele>138</ele>
        <time>2014-08-15T11:44:55Z</time>
      </trkpt>
      <trkpt lat="44.06584" lon="1.95187">
        <ele>138</ele>
        <time>2014-08-15T11:44:58Z</time>
      </trkpt>
      <trkpt lat="44.06591" lon="1.95142">
        <ele>135</ele>
        <time>2014-08-15T11:45:01Z</time>
      </trkpt>
      <trkpt lat="44.06601" lon="1.95091">
        <ele>131</ele>
        <time>2014-08-15T11:45:04Z</time>
      </trkpt>
      <trkpt lat="44.06614" lon="1.95036">
        <ele>127</ele>
        <time>2014-08-15T11:45:07Z</time>
      </trkpt>
      <trkpt lat="44.06621" lon="1.95">
        <ele>124</ele>
        <time>2014-08-15T11:45:09Z</time>
      </trkpt>
      <trkpt lat="44.0663" lon="1.94963">
        <ele>120</ele>
        <time>2014-08-15T11:45:12Z</time>
      </trkpt>
      <trkpt lat="44.06636" lon="1.94952">
        <ele>115</ele>
        <time>2014-08-15T11:45:15Z</time>
      </trkpt>
      <trkpt lat="44.06638" lon="1.94947">
        <ele>112</ele>
        <time>2014-08-15T11:45:17Z</time>
      </trkpt>
      <trkpt lat="44.0664" lon="1.94943">
        <ele>111</ele>
        <time>2014-08-15T11:45:19Z</time>
      </trkpt>
      <trkpt lat="44.06643" lon="1.94937">
        <ele>110</ele>
        <time>2014-08-15T11:45:21Z</time>
      </trkpt>
      <trkpt lat="44.06649" lon="1.94931">
        <ele>110</ele>
        <time>2014-08-15T11:45:23Z</time>
      </trkpt>
      <trkpt lat="44.06662" lon="1.94924">
        <ele>110</ele>
        <time>2014-08-15T11:45:26Z</time>
      </trkpt>
      <trkpt lat="44.06675" lon="1.94922">
        <ele>109</ele>
        <time>2014-08-15T11:45:28Z</time>
      </trkpt>
      <trkpt lat="44.06697" lon="1.94926">
        <ele>107</ele>
        <time>2014-08-15T11:45:31Z</time>
      </trkpt>
      <trkpt lat="44.06708" lon="1.94927">
        <ele>106</ele>
        <time>2014-08-15T11:45:33Z</time>
      </trkpt>
      <trkpt lat="44.06718" lon="1.94926">
        <ele>105</ele>
        <time>2014-08-15T11:45:36Z</time>
      </trkpt>
      <trkpt lat="44.06725" lon="1.94911">
        <ele>104</ele>
        <time>2014-08-15T11:45:39Z</time>
      </trkpt>
      <trkpt lat="44.06734" lon="1.94891">
        <ele>103</ele>
        <time>2014-08-15T11:45:42Z</time>
      </trkpt>
      <trkpt lat="44.06749" lon="1.94869">
        <ele>102</ele>
        <time>2014-08-15T11:45:45Z</time>
      </trkpt>
      <trkpt lat="44.06762" lon="1.94843">
        <ele>100</ele>
        <time>2014-08-15T11:45:48Z</time>
      </trkpt>
      <trkpt lat="44.06771" lon="1.94825">
        <ele>99</ele>
        <time>2014-08-15T11:45:50Z</time>
      </trkpt>
      <trkpt lat="44.06783" lon="1.94797">
        <ele>98</ele>
        <time>2014-08-15T11:45:53Z</time>
      </trkpt>
      <trkpt lat="44.06789" lon="1.9478">
        <ele>97</ele>
        <time>2014-08-15T11:45:55Z</time>
      </trkpt>
      <trkpt lat="44.06793" lon="1.94755">
        <ele>96</ele>
        <time>2014-08-15T11:45:58Z</time>
      </trkpt>
      <trkpt lat="44.06795" lon="1.94738">
        <ele>96</ele>
        <time>2014-08-15T11:46:00Z</time>
      </trkpt>
      <trkpt lat="44.06797" lon="1.94714">
        <ele>96</ele>
        <time>2014-08-15T11:46:03Z</time>
      </trkpt>
      <trkpt lat="44.06797" lon="1.94698">
        <ele>95</ele>
        <time>2014-08-15T11:46:05Z</time>
      </trkpt>
      <trkpt lat="44.06797" lon="1.94671">
        <ele>95</ele>
        <time>2014-08-15T11:46:08Z</time>
      </trkpt>
      <trkpt lat="44.06796" lon="1.94655">
        <ele>95</ele>
        <time>2014-08-15T11:46:10Z</time>
      </trkpt>
      <trkpt lat="44.06794" lon="1.94639">
        <ele>95</ele>
        <time>2014-08-15T11:46:12Z</time>
      </trkpt>
      <trkpt lat="44.06791" lon="1.94614">
        <ele>95</ele>
        <time>2014-08-15T11:46:15Z</time>
      </trkpt>
      <trkpt lat="44.06789" lon="1.94598">
        <ele>94</ele>
        <time>2014-08-15T11:46:17Z</time>
      </trkpt>
      <trkpt lat="44.06786" lon="1.94584">
        <ele>94</ele>
        <time>2014-08-15T11:46:19Z</time>
      </trkpt>
      <trkpt lat="44.06781" lon="1.94566">
        <ele>94</ele>
        <time>2014-08-15T11:46:22Z</time>
      </trkpt>
      <trkpt lat="44.06777" lon="1.94556">
        <ele>93</ele>
        <time>2014-08-15T11:46:24Z</time>
      </trkpt>
      <trkpt lat="44.06776" lon="1.94543">
        <ele>93</ele>
        <time>2014-08-15T11:46:26Z</time>
      </trkpt>
      <trkpt lat="44.06775" lon="1.94522">
        <ele>93</ele>
        <time>2014-08-15T11:46:29Z</time>
      </trkpt>
      <trkpt lat="44.06775" lon="1.94509">
        <ele>94</ele>
        <time>2014-08-15T11:46:31Z</time>
      </trkpt>
      <trkpt lat="44.06776" lon="1.94497">
        <ele>93</ele>
        <time>2014-08-15T11:46:33Z</time>
      </trkpt>
      <trkpt lat="44.06781" lon="1.94481">
        <ele>93</ele>
        <time>2014-08-15T11:46:36Z</time>
      </trkpt>
      <trkpt lat="44.06784" lon="1.9447">
        <ele>93</ele>
        <time>2014-08-15T11:46:38Z</time>
      </trkpt>
      <trkpt lat="44.06789" lon="1.94458">
        <ele>93</ele>
        <time>2014-08-15T11:46:40Z</time>
      </trkpt>
      <trkpt lat="44.06797" lon="1.94439">
        <ele>93</ele>
        <time>2014-08-15T11:46:43Z</time>
      </trkpt>
      <trkpt lat="44.06807" lon="1.94421">
        <ele>93</ele>
        <time>2014-08-15T11:46:46Z</time>
      </trkpt>
      <trkpt lat="44.06818" lon="1.94402">
        <ele>93</ele>
        <time>2014-08-15T11:46:49Z</time>
      </trkpt>
      <trkpt lat="44.06824" lon="1.9439">
        <ele>93</ele>
        <time>2014-08-15T11:46:51Z</time>
      </trkpt>
      <trkpt lat="44.06835" lon="1.9437">
        <ele>92</ele>
        <time>2014-08-15T11:46:54Z</time>
      </trkpt>
      <trkpt lat="44.06846" lon="1.94351">
        <ele>92</ele>
        <time>2014-08-15T11:46:57Z</time>
      </trkpt>
      <trkpt lat="44.06856" lon="1.94333">
        <ele>91</ele>
        <time>2014-08-15T11:47:00Z</time>
      </trkpt>
      <trkpt lat="44.06861" lon="1.94319">
        <ele>91</ele>
        <time>2014-08-15T11:47:02Z</time>
      </trkpt>
      <trkpt lat="44.06869" lon="1.94299">
        <ele>92</ele>
        <time>2014-08-15T11:47:05Z</time>
      </trkpt>
      <trkpt lat="44.06873" lon="1.94286">
        <ele>92</ele>
        <time>2014-08-15T11:47:07Z</time>
      </trkpt>
      <trkpt lat="44.06877" lon="1.94276">
        <ele>93</ele>
        <time>2014-08-15T11:47:09Z</time>
      </trkpt>
      <trkpt lat="44.06882" lon="1.94263">
        <ele>95</ele>
        <time>2014-08-15T11:47:12Z</time>
      </trkpt>
      <trkpt lat="44.06888" lon="1.9425">
        <ele>95</ele>
        <time>2014-08-15T11:47:15Z</time>
      </trkpt>
      <trkpt lat="44.06893" lon="1.94243">
        <ele>95</ele>
        <time>2014-08-15T11:47:17Z</time>
      </trkpt>
      <trkpt lat="44.06902" lon="1.9423">
        <ele>95</ele>
        <time>2014-08-15T11:47:20Z</time>
      </trkpt>
      <trkpt lat="44.06908" lon="1.9422">
        <ele>95</ele>
        <time>2014-08-15T11:47:22Z</time>
      </trkpt>
      <trkpt lat="44.06914" lon="1.94211">
        <ele>95</ele>
        <time>2014-08-15T11:47:24Z</time>
      </trkpt>
      <trkpt lat="44.06919" lon="1.94201">
        <ele>95</ele>
        <time>2014-08-15T11:47:26Z</time>
      </trkpt>
      <trkpt lat="44.06927" lon="1.94188">
        <ele>95</ele>
        <time>2014-08-15T11:47:29Z</time>
      </trkpt>
      <trkpt lat="44.06931" lon="1.94182">
        <ele>95</ele>
        <time>2014-08-15T11:47:31Z</time>
      </trkpt>
      <trkpt lat="44.0694" lon="1.94168">
        <ele>95</ele>
        <time>2014-08-15T11:47:34Z</time>
      </trkpt>
      <trkpt lat="44.06945" lon="1.94158">
        <ele>95</ele>
        <time>2014-08-15T11:47:36Z</time>
      </trkpt>
      <trkpt lat="44.06956" lon="1.94141">
        <ele>94</ele>
        <time>2014-08-15T11:47:39Z</time>
      </trkpt>
      <trkpt lat="44.06965" lon="1.94125">
        <ele>93</ele>
        <time>2014-08-15T11:47:41Z</time>
      </trkpt>
      <trkpt lat="44.06978" lon="1.94104">
        <ele>92</ele>
        <time>2014-08-15T11:47:44Z</time>
      </trkpt>
      <trkpt lat="44.06978" lon="1.94091">
        <ele>91</ele>
        <time>2014-08-15T11:47:46Z</time>
      </trkpt>
      <trkpt lat="44.06977" lon="1.94082">
        <ele>91</ele>
        <time>2014-08-15T11:47:48Z</time>
      </trkpt>
      <trkpt lat="44.06983" lon="1.94075">
        <ele>90</ele>
        <time>2014-08-15T11:47:51Z</time>
      </trkpt>
      <trkpt lat="44.0699" lon="1.94067">
        <ele>90</ele>
        <time>2014-08-15T11:47:54Z</time>
      </trkpt>
      <trkpt lat="44.06998" lon="1.94057">
        <ele>90</ele>
        <time>2014-08-15T11:47:57Z</time>
      </trkpt>
      <trkpt lat="44.07008" lon="1.94043">
        <ele>90</ele>
        <time>2014-08-15T11:48:00Z</time>
      </trkpt>
      <trkpt lat="44.07013" lon="1.94034">
        <ele>91</ele>
        <time>2014-08-15T11:48:02Z</time>
      </trkpt>
      <trkpt lat="44.07021" lon="1.94023">
        <ele>92</ele>
        <time>2014-08-15T11:48:05Z</time>
      </trkpt>
      <trkpt lat="44.07024" lon="1.94016">
        <ele>93</ele>
        <time>2014-08-15T11:48:07Z</time>
      </trkpt>
      <trkpt lat="44.07027" lon="1.94013">
        <ele>93</ele>
        <time>2014-08-15T11:48:10Z</time>
      </trkpt>
      <trkpt lat="44.07027" lon="1.94013">
        <ele>93</ele>
        <time>2014-08-15T11:48:12Z</time>
      </trkpt>
      <trkpt lat="44.07029" lon="1.9401">
        <ele>93</ele>
        <time>2014-08-15T11:48:15Z</time>
      </trkpt>
      <trkpt lat="44.07029" lon="1.94009">
        <ele>93</ele>
        <time>2014-08-15T11:48:17Z</time>
      </trkpt>
      <trkpt lat="44.07029" lon="1.94009">
        <ele>93</ele>
        <time>2014-08-15T11:48:19Z</time>
      </trkpt>
      <trkpt lat="44.07027" lon="1.94009">
        <ele>92</ele>
        <time>2014-08-15T11:48:22Z</time>
      </trkpt>
      <trkpt lat="44.07026" lon="1.9401">
        <ele>92</ele>
        <time>2014-08-15T11:48:24Z</time>
      </trkpt>
      <trkpt lat="44.07023" lon="1.94014">
        <ele>93</ele>
        <time>2014-08-15T11:48:26Z</time>
      </trkpt>
      <trkpt lat="44.07019" lon="1.94019">
        <ele>93</ele>
        <time>2014-08-15T11:48:28Z</time>
      </trkpt>
      <trkpt lat="44.07009" lon="1.94031">
        <ele>93</ele>
        <time>2014-08-15T11:48:31Z</time>
      </trkpt>
      <trkpt lat="44.06996" lon="1.94047">
        <ele>92</ele>
        <time>2014-08-15T11:48:34Z</time>
      </trkpt>
      <trkpt lat="44.06985" lon="1.94059">
        <ele>91</ele>
        <time>2014-08-15T11:48:37Z</time>
      </trkpt>
      <trkpt lat="44.06979" lon="1.94063">
        <ele>90</ele>
        <time>2014-08-15T11:48:39Z</time>
      </trkpt>
      <trkpt lat="44.06979" lon="1.9407">
        <ele>90</ele>
        <time>2014-08-15T11:48:42Z</time>
      </trkpt>
      <trkpt lat="44.06989" lon="1.94076">
        <ele>89</ele>
        <time>2014-08-15T11:48:45Z</time>
      </trkpt>
      <trkpt lat="44.06997" lon="1.9408">
        <ele>89</ele>
        <time>2014-08-15T11:48:47Z</time>
      </trkpt>
      <trkpt lat="44.07005" lon="1.94084">
        <ele>90</ele>
        <time>2014-08-15T11:48:49Z</time>
      </trkpt>
      <trkpt lat="44.07017" lon="1.94093">
        <ele>90</ele>
        <time>2014-08-15T11:48:52Z</time>
      </trkpt>
      <trkpt lat="44.07025" lon="1.94098">
        <ele>90</ele>
        <time>2014-08-15T11:48:54Z</time>
      </trkpt>
      <trkpt lat="44.07032" lon="1.94105">
        <ele>91</ele>
        <time>2014-08-15T11:48:56Z</time>
      </trkpt>
      <trkpt lat="44.07041" lon="1.94118">
        <ele>91</ele>
        <time>2014-08-15T11:48:59Z</time>
      </trkpt>
      <trkpt lat="44.07051" lon="1.9413">
        <ele>91</ele>
        <time>2014-08-15T11:49:02Z</time>
      </trkpt>
      <trkpt lat="44.07057" lon="1.94137">
        <ele>92</ele>
        <time>2014-08-15T11:49:04Z</time>
      </trkpt>
      <trkpt lat="44.07068" lon="1.94144">
        <ele>92</ele>
        <time>2014-08-15T11:49:07Z</time>
      </trkpt>
      <trkpt lat="44.07079" lon="1.94149">
        <ele>92</ele>
        <time>2014-08-15T11:49:10Z</time>
      </trkpt>
      <trkpt lat="44.0709" lon="1.94154">
        <ele>92</ele>
        <time>2014-08-15T11:49:13Z</time>
      </trkpt>
      <trkpt lat="44.071" lon="1.94155">
        <ele>93</ele>
        <time>2014-08-15T11:49:16Z</time>
      </trkpt>
      <trkpt lat="44.07107" lon="1.94156">
        <ele>93</ele>
        <time>2014-08-15T11:49:18Z</time>
      </trkpt>
      <trkpt lat="44.07117" lon="1.94156">
        <ele>94</ele>
        <time>2014-08-15T11:49:21Z</time>
      </trkpt>
      <trkpt lat="44.07124" lon="1.94155">
        <ele>94</ele>
        <time>2014-08-15T11:49:23Z</time>
      </trkpt>
      <trkpt lat="44.07134" lon="1.94153">
        <ele>95</ele>
        <time>2014-08-15T11:49:26Z</time>
      </trkpt>
      <trkpt lat="44.07141" lon="1.94153">
        <ele>95</ele>
        <time>2014-08-15T11:49:28Z</time>
      </trkpt>
      <trkpt lat="44.07148" lon="1.94153">
        <ele>96</ele>
        <time>2014-08-15T11:49:30Z</time>
      </trkpt>
      <trkpt lat="44.07158" lon="1.94154">
        <ele>96</ele>
        <time>2014-08-15T11:49:33Z</time>
      </trkpt>
      <trkpt lat="44.07169" lon="1.94154">
        <ele>96</ele>
        <time>2014-08-15T11:49:36Z</time>
      </trkpt>
      <trkpt lat="44.0718" lon="1.94154">
        <ele>97</ele>
        <time>2014-08-15T11:49:39Z</time>
      </trkpt>
      <trkpt lat="44.07193" lon="1.94156">
        <ele>97</ele>
        <time>2014-08-15T11:49:42Z</time>
      </trkpt>
      <trkpt lat="44.07201" lon="1.94156">
        <ele>97</ele>
        <time>2014-08-15T11:49:44Z</time>
      </trkpt>
      <trkpt lat="44.07214" lon="1.94158">
        <ele>97</ele>
        <time>2014-08-15T11:49:47Z</time>
      </trkpt>
      <trkpt lat="44.07222" lon="1.9416">
        <ele>97</ele>
        <time>2014-08-15T11:49:49Z</time>
      </trkpt>
      <trkpt lat="44.0723" lon="1.94164">
        <ele>97</ele>
        <time>2014-08-15T11:49:51Z</time>
      </trkpt>
      <trkpt lat="44.07241" lon="1.9417">
        <ele>98</ele>
        <time>2014-08-15T11:49:54Z</time>
      </trkpt>
      <trkpt lat="44.07249" lon="1.94179">
        <ele>98</ele>
        <time>2014-08-15T11:49:57Z</time>
      </trkpt>
      <trkpt lat="44.07256" lon="1.94186">
        <ele>98</ele>
        <time>2014-08-15T11:49:59Z</time>
      </trkpt>
      <trkpt lat="44.07265" lon="1.94195">
        <ele>99</ele>
        <time>2014-08-15T11:50:02Z</time>
      </trkpt>
      <trkpt lat="44.07273" lon="1.94204">
        <ele>99</ele>
        <time>2014-08-15T11:50:05Z</time>
      </trkpt>
      <trkpt lat="44.07279" lon="1.94211">
        <ele>100</ele>
        <time>2014-08-15T11:50:07Z</time>
      </trkpt>
      <trkpt lat="44.07288" lon="1.94221">
        <ele>100</ele>
        <time>2014-08-15T11:50:10Z</time>
      </trkpt>
      <trkpt lat="44.07296" lon="1.94231">
        <ele>101</ele>
        <time>2014-08-15T11:50:13Z</time>
      </trkpt>
      <trkpt lat="44.07305" lon="1.94243">
        <ele>101</ele>
        <time>2014-08-15T11:50:16Z</time>
      </trkpt>
      <trkpt lat="44.07313" lon="1.94256">
        <ele>101</ele>
        <time>2014-08-15T11:50:19Z</time>
      </trkpt>
      <trkpt lat="44.07321" lon="1.94269">
        <ele>101</ele>
        <time>2014-08-15T11:50:22Z</time>
      </trkpt>
      <trkpt lat="44.07327" lon="1.94283">
        <ele>101</ele>
        <time>2014-08-15T11:50:25Z</time>
      </trkpt>
      <trkpt lat="44.07331" lon="1.94293">
        <ele>101</ele>
        <time>2014-08-15T11:50:27Z</time>
      </trkpt>
      <trkpt lat="44.07334" lon="1.94309">
        <ele>101</ele>
        <time>2014-08-15T11:50:30Z</time>
      </trkpt>
      <trkpt lat="44.07335" lon="1.94324">
        <ele>101</ele>
        <time>2014-08-15T11:50:33Z</time>
      </trkpt>
      <trkpt lat="44.07336" lon="1.94342">
        <ele>101</ele>
        <time>2014-08-15T11:50:36Z</time>
      </trkpt>
      <trkpt lat="44.07339" lon="1.94364">
        <ele>100</ele>
        <time>2014-08-15T11:50:39Z</time>
      </trkpt>
      <trkpt lat="44.07344" lon="1.94379">
        <ele>100</ele>
        <time>2014-08-15T11:50:41Z</time>
      </trkpt>
      <trkpt lat="44.07349" lon="1.94403">
        <ele>100</ele>
        <time>2014-08-15T11:50:44Z</time>
      </trkpt>
      <trkpt lat="44.07353" lon="1.94415">
        <ele>99</ele>
        <time>2014-08-15T11:50:46Z</time>
      </trkpt>
      <trkpt lat="44.07358" lon="1.94426">
        <ele>99</ele>
        <time>2014-08-15T11:50:49Z</time>
      </trkpt>
      <trkpt lat="44.07364" lon="1.94439">
        <ele>98</ele>
        <time>2014-08-15T11:50:52Z</time>
      </trkpt>
      <trkpt lat="44.07367" lon="1.94448">
        <ele>98</ele>
        <time>2014-08-15T11:50:54Z</time>
      </trkpt>
      <trkpt lat="44.07372" lon="1.94457">
        <ele>98</ele>
        <time>2014-08-15T11:50:56Z</time>
      </trkpt>
      <trkpt lat="44.0738" lon="1.94472">
        <ele>99</ele>
        <time>2014-08-15T11:50:59Z</time>
      </trkpt>
      <trkpt lat="44.0739" lon="1.9448">
        <ele>99</ele>
        <time>2014-08-15T11:51:02Z</time>
      </trkpt>
      <trkpt lat="44.07402" lon="1.9448">
        <ele>99</ele>
        <time>2014-08-15T11:51:05Z</time>
      </trkpt>
      <trkpt lat="44.07413" lon="1.9448">
        <ele>99</ele>
        <time>2014-08-15T11:51:08Z</time>
      </trkpt>
      <trkpt lat="44.0742" lon="1.9448">
        <ele>100</ele>
        <time>2014-08-15T11:51:10Z</time>
      </trkpt>
      <trkpt lat="44.0743" lon="1.94478">
        <ele>100</ele>
        <time>2014-08-15T11:51:13Z</time>
      </trkpt>
      <trkpt lat="44.07436" lon="1.94476">
        <ele>101</ele>
        <time>2014-08-15T11:51:15Z</time>
      </trkpt>
      <trkpt lat="44.07445" lon="1.94474">
        <ele>102</ele>
        <time>2014-08-15T11:51:18Z</time>
      </trkpt>
      <trkpt lat="44.0745" lon="1.94473">
        <ele>102</ele>
        <time>2014-08-15T11:51:20Z</time>
      </trkpt>
      <trkpt lat="44.07456" lon="1.94472">
        <ele>103</ele>
        <time>2014-08-15T11:51:22Z</time>
      </trkpt>
      <trkpt lat="44.07462" lon="1.94472">
        <ele>103</ele>
        <time>2014-08-15T11:51:24Z</time>
      </trkpt>
      <trkpt lat="44.07471" lon="1.94472">
        <ele>104</ele>
        <time>2014-08-15T11:51:27Z</time>
      </trkpt>
      <trkpt lat="44.07478" lon="1.94474">
        <ele>105</ele>
        <time>2014-08-15T11:51:30Z</time>
      </trkpt>
      <trkpt lat="44.07484" lon="1.94474">
        <ele>106</ele>
        <time>2014-08-15T11:51:33Z</time>
      </trkpt>
      <trkpt lat="44.0749" lon="1.94474">
        <ele>106</ele>
        <time>2014-08-15T11:51:36Z</time>
      </trkpt>
      <trkpt lat="44.07495" lon="1.94474">
        <ele>106</ele>
        <time>2014-08-15T11:51:38Z</time>
      </trkpt>
      <trkpt lat="44.07503" lon="1.94474">
        <ele>107</ele>
        <time>2014-08-15T11:51:41Z</time>
      </trkpt>
      <trkpt lat="44.07508" lon="1.94473">
        <ele>107</ele>
        <time>2014-08-15T11:51:43Z</time>
      </trkpt>
      <trkpt lat="44.07516" lon="1.94471">
        <ele>108</ele>
        <time>2014-08-15T11:51:46Z</time>
      </trkpt>
      <trkpt lat="44.07523" lon="1.9447">
        <ele>108</ele>
        <time>2014-08-15T11:51:49Z</time>
      </trkpt>
      <trkpt lat="44.0753" lon="1.94468">
        <ele>109</ele>
        <time>2014-08-15T11:51:52Z</time>
      </trkpt>
      <trkpt lat="44.07535" lon="1.94465">
        <ele>109</ele>
        <time>2014-08-15T11:51:54Z</time>
      </trkpt>
      <trkpt lat="44.07541" lon="1.94455">
        <ele>110</ele>
        <time>2014-08-15T11:51:57Z</time>
      </trkpt>
      <trkpt lat="44.0755" lon="1.9445">
        <ele>111</ele>
        <time>2014-08-15T11:52:00Z</time>
      </trkpt>
      <trkpt lat="44.07557" lon="1.94448">
        <ele>112</ele>
        <time>2014-08-15T11:52:02Z</time>
      </trkpt>
      <trkpt lat="44.07562" lon="1.94446">
        <ele>113</ele>
        <time>2014-08-15T11:52:04Z</time>
      </trkpt>
      <trkpt lat="44.0757" lon="1.94443">
        <ele>114</ele>
        <time>2014-08-15T11:52:07Z</time>
      </trkpt>
      <trkpt lat="44.07574" lon="1.94439">
        <ele>115</ele>
        <time>2014-08-15T11:52:10Z</time>
      </trkpt>
      <trkpt lat="44.07577" lon="1.94436">
        <ele>116</ele>
        <time>2014-08-15T11:52:13Z</time>
      </trkpt>
      <trkpt lat="44.07576" lon="1.94426">
        <ele>116</ele>
        <time>2014-08-15T11:52:16Z</time>
      </trkpt>
      <trkpt lat="44.07574" lon="1.9442">
        <ele>116</ele>
        <time>2014-08-15T11:52:18Z</time>
      </trkpt>
      <trkpt lat="44.07573" lon="1.94412">
        <ele>117</ele>
        <time>2014-08-15T11:52:20Z</time>
      </trkpt>
      <trkpt lat="44.07571" lon="1.94405">
        <ele>117</ele>
        <time>2014-08-15T11:52:22Z</time>
      </trkpt>
      <trkpt lat="44.0757" lon="1.94393">
        <ele>117</ele>
        <time>2014-08-15T11:52:25Z</time>
      </trkpt>
      <trkpt lat="44.07569" lon="1.9438">
        <ele>117</ele>
        <time>2014-08-15T11:52:28Z</time>
      </trkpt>
      <trkpt lat="44.07568" lon="1.94367">
        <ele>117</ele>
        <time>2014-08-15T11:52:31Z</time>
      </trkpt>
      <trkpt lat="44.07567" lon="1.94351">
        <ele>117</ele>
        <time>2014-08-15T11:52:34Z</time>
      </trkpt>
      <trkpt lat="44.07566" lon="1.94334">
        <ele>117</ele>
        <time>2014-08-15T11:52:37Z</time>
      </trkpt>
      <trkpt lat="44.07565" lon="1.94319">
        <ele>117</ele>
        <time>2014-08-15T11:52:40Z</time>
      </trkpt>
      <trkpt lat="44.07564" lon="1.94305">
        <ele>117</ele>
        <time>2014-08-15T11:52:43Z</time>
      </trkpt>
      <trkpt lat="44.07564" lon="1.94292">
        <ele>118</ele>
        <time>2014-08-15T11:52:46Z</time>
      </trkpt>
      <trkpt lat="44.07564" lon="1.94283">
        <ele>118</ele>
        <time>2014-08-15T11:52:49Z</time>
      </trkpt>
      <trkpt lat="44.07564" lon="1.94279">
        <ele>118</ele>
        <time>2014-08-15T11:52:51Z</time>
      </trkpt>
      <trkpt lat="44.07564" lon="1.94269">
        <ele>119</ele>
        <time>2014-08-15T11:52:54Z</time>
      </trkpt>
      <trkpt lat="44.07564" lon="1.94257">
        <ele>119</ele>
        <time>2014-08-15T11:52:57Z</time>
      </trkpt>
      <trkpt lat="44.07564" lon="1.94245">
        <ele>119</ele>
        <time>2014-08-15T11:53:00Z</time>
      </trkpt>
      <trkpt lat="44.07564" lon="1.94237">
        <ele>120</ele>
        <time>2014-08-15T11:53:02Z</time>
      </trkpt>
      <trkpt lat="44.07563" lon="1.94223">
        <ele>120</ele>
        <time>2014-08-15T11:53:05Z</time>
      </trkpt>
      <trkpt lat="44.0756" lon="1.94205">
        <ele>120</ele>
        <time>2014-08-15T11:53:08Z</time>
      </trkpt>
      <trkpt lat="44.07557" lon="1.94188">
        <ele>120</ele>
        <time>2014-08-15T11:53:11Z</time>
      </trkpt>
      <trkpt lat="44.07553" lon="1.94172">
        <ele>119</ele>
        <time>2014-08-15T11:53:14Z</time>
      </trkpt>
      <trkpt lat="44.07551" lon="1.94158">
        <ele>119</ele>
        <time>2014-08-15T11:53:17Z</time>
      </trkpt>
      <trkpt lat="44.07547" lon="1.94142">
        <ele>119</ele>
        <time>2014-08-15T11:53:20Z</time>
      </trkpt>
      <trkpt lat="44.07544" lon="1.94127">
        <ele>120</ele>
        <time>2014-08-15T11:53:23Z</time>
      </trkpt>
      <trkpt lat="44.07541" lon="1.94111">
        <ele>120</ele>
        <time>2014-08-15T11:53:26Z</time>
      </trkpt>
      <trkpt lat="44.07536" lon="1.94096">
        <ele>120</ele>
        <time>2014-08-15T11:53:29Z</time>
      </trkpt>
      <trkpt lat="44.07534" lon="1.94085">
        <ele>120</ele>
        <time>2014-08-15T11:53:31Z</time>
      </trkpt>
      <trkpt lat="44.07531" lon="1.9407">
        <ele>120</ele>
        <time>2014-08-15T11:53:34Z</time>
      </trkpt>
      <trkpt lat="44.07529" lon="1.94059">
        <ele>120</ele>
        <time>2014-08-15T11:53:36Z</time>
      </trkpt>
      <trkpt lat="44.07527" lon="1.94048">
        <ele>120</ele>
        <time>2014-08-15T11:53:38Z</time>
      </trkpt>
      <trkpt lat="44.07525" lon="1.94033">
        <ele>120</ele>
        <time>2014-08-15T11:53:41Z</time>
      </trkpt>
      <trkpt lat="44.07525" lon="1.94024">
        <ele>120</ele>
        <time>2014-08-15T11:53:44Z</time>
      </trkpt>
      <trkpt lat="44.07526" lon="1.94021">
        <ele>120</ele>
        <time>2014-08-15T11:53:47Z</time>
      </trkpt>
      <trkpt lat="44.07527" lon="1.9402">
        <ele>120</ele>
        <time>2014-08-15T11:53:50Z</time>
      </trkpt>
      <trkpt lat="44.07531" lon="1.94023">
        <ele>120</ele>
        <time>2014-08-15T11:53:53Z</time>
      </trkpt>
      <trkpt lat="44.07536" lon="1.94023">
        <ele>120</ele>
        <time>2014-08-15T11:53:56Z</time>
      </trkpt>
      <trkpt lat="44.07541" lon="1.94024">
        <ele>120</ele>
        <time>2014-08-15T11:53:58Z</time>
      </trkpt>
      <trkpt lat="44.07549" lon="1.94027">
        <ele>121</ele>
        <time>2014-08-15T11:54:01Z</time>
      </trkpt>
      <trkpt lat="44.07561" lon="1.9403">
        <ele>122</ele>
        <time>2014-08-15T11:54:04Z</time>
      </trkpt>
      <trkpt lat="44.07572" lon="1.94033">
        <ele>122</ele>
        <time>2014-08-15T11:54:06Z</time>
      </trkpt>
      <trkpt lat="44.07587" lon="1.94036">
        <ele>123</ele>
        <time>2014-08-15T11:54:09Z</time>
      </trkpt>
      <trkpt lat="44.07602" lon="1.9404">
        <ele>125</ele>
        <time>2014-08-15T11:54:12Z</time>
      </trkpt>
      <trkpt lat="44.0761" lon="1.94043">
        <ele>126</ele>
        <time>2014-08-15T11:54:14Z</time>
      </trkpt>
      <trkpt lat="44.07621" lon="1.94047">
        <ele>127</ele>
        <time>2014-08-15T11:54:17Z</time>
      </trkpt>
      <trkpt lat="44.07628" lon="1.94049">
        <ele>128</ele>
        <time>2014-08-15T11:54:19Z</time>
      </trkpt>
      <trkpt lat="44.07638" lon="1.94053">
        <ele>130</ele>
        <time>2014-08-15T11:54:22Z</time>
      </trkpt>
      <trkpt lat="44.07644" lon="1.94055">
        <ele>131</ele>
        <time>2014-08-15T11:54:24Z</time>
      </trkpt>
      <trkpt lat="44.07653" lon="1.94059">
        <ele>132</ele>
        <time>2014-08-15T11:54:27Z</time>
      </trkpt>
      <trkpt lat="44.07661" lon="1.94062">
        <ele>133</ele>
        <time>2014-08-15T11:54:30Z</time>
      </trkpt>
      <trkpt lat="44.07668" lon="1.94065">
        <ele>134</ele>
        <time>2014-08-15T11:54:33Z</time>
      </trkpt>
      <trkpt lat="44.07673" lon="1.94067">
        <ele>135</ele>
        <time>2014-08-15T11:54:35Z</time>
      </trkpt>
      <trkpt lat="44.07681" lon="1.9407">
        <ele>136</ele>
        <time>2014-08-15T11:54:38Z</time>
      </trkpt>
      <trkpt lat="44.07688" lon="1.94074">
        <ele>136</ele>
        <time>2014-08-15T11:54:41Z</time>
      </trkpt>
      <trkpt lat="44.07695" lon="1.94079">
        <ele>137</ele>
        <time>2014-08-15T11:54:44Z</time>
      </trkpt>
      <trkpt lat="44.07702" lon="1.94084">
        <ele>137</ele>
        <time>2014-08-15T11:54:47Z</time>
      </trkpt>
      <trkpt lat="44.07709" lon="1.94089">
        <ele>139</ele>
        <time>2014-08-15T11:54:50Z</time>
      </trkpt>
      <trkpt lat="44.07713" lon="1.94094">
        <ele>139</ele>
        <time>2014-08-15T11:54:52Z</time>
      </trkpt>
      <trkpt lat="44.07716" lon="1.94098">
        <ele>140</ele>
        <time>2014-08-15T11:54:54Z</time>
      </trkpt>
      <trkpt lat="44.07721" lon="1.94103">
        <ele>140</ele>
        <time>2014-08-15T11:54:57Z</time>
      </trkpt>
      <trkpt lat="44.07724" lon="1.94107">
        <ele>140</ele>
        <time>2014-08-15T11:54:59Z</time>
      </trkpt>
      <trkpt lat="44.07727" lon="1.94111">
        <ele>140</ele>
        <time>2014-08-15T11:55:01Z</time>
      </trkpt>
      <trkpt lat="44.07741" lon="1.94133">
        <ele>141</ele>
        <time>2014-08-15T11:55:03Z</time>
      </trkpt>
      <trkpt lat="44.07744" lon="1.9414">
        <ele>141</ele>
        <time>2014-08-15T11:55:06Z</time>
      </trkpt>
      <trkpt lat="44.07747" lon="1.94146">
        <ele>141</ele>
        <time>2014-08-15T11:55:08Z</time>
      </trkpt>
      <trkpt lat="44.0775" lon="1.94153">
        <ele>141</ele>
        <time>2014-08-15T11:55:10Z</time>
      </trkpt>
      <trkpt lat="44.07756" lon="1.94164">
        <ele>141</ele>
        <time>2014-08-15T11:55:13Z</time>
      </trkpt>
      <trkpt lat="44.07761" lon="1.94174">
        <ele>141</ele>
        <time>2014-08-15T11:55:16Z</time>
      </trkpt>
      <trkpt lat="44.07764" lon="1.94179">
        <ele>141</ele>
        <time>2014-08-15T11:55:18Z</time>
      </trkpt>
      <trkpt lat="44.07766" lon="1.94181">
        <ele>141</ele>
        <time>2014-08-15T11:55:21Z</time>
      </trkpt>
      <trkpt lat="44.07767" lon="1.94182">
        <ele>141</ele>
        <time>2014-08-15T11:55:23Z</time>
      </trkpt>
      <trkpt lat="44.07767" lon="1.94182">
        <ele>141</ele>
        <time>2014-08-15T11:55:25Z</time>
      </trkpt>
      <trkpt lat="44.07767" lon="1.94183">
        <ele>141</ele>
        <time>2014-08-15T11:55:28Z</time>
      </trkpt>
      <trkpt lat="44.07767" lon="1.94183">
        <ele>142</ele>
        <time>2014-08-15T11:55:31Z</time>
      </trkpt>
      <trkpt lat="44.07768" lon="1.94183">
        <ele>142</ele>
        <time>2014-08-15T11:55:34Z</time>
      </trkpt>
      <trkpt lat="44.07768" lon="1.94183">
        <ele>142</ele>
        <time>2014-08-15T11:55:36Z</time>
      </trkpt>
      <trkpt lat="44.07769" lon="1.94186">
        <ele>141</ele>
        <time>2014-08-15T11:55:38Z</time>
      </trkpt>
      <trkpt lat="44.07771" lon="1.94188">
        <ele>142</ele>
        <time>2014-08-15T11:55:40Z</time>
      </trkpt>
      <trkpt lat="44.07779" lon="1.94189">
        <ele>142</ele>
        <time>2014-08-15T11:55:43Z</time>
      </trkpt>
      <trkpt lat="44.07786" lon="1.94187">
        <ele>143</ele>
        <time>2014-08-15T11:55:45Z</time>
      </trkpt>
      <trkpt lat="44.07793" lon="1.94185">
        <ele>143</ele>
        <time>2014-08-15T11:55:47Z</time>
      </trkpt>
      <trkpt lat="44.07805" lon="1.94181">
        <ele>144</ele>
        <time>2014-08-15T11:55:50Z</time>
      </trkpt>
      <trkpt lat="44.07818" lon="1.94181">
        <ele>144</ele>
        <time>2014-08-15T11:55:53Z</time>
      </trkpt>
      <trkpt lat="44.07832" lon="1.94183">
        <ele>145</ele>
        <time>2014-08-15T11:55:56Z</time>
      </trkpt>
      <trkpt lat="44.07841" lon="1.94191">
        <ele>145</ele>
        <time>2014-08-15T11:55:58Z</time>
      </trkpt>
      <trkpt lat="44.07847" lon="1.94204">
        <ele>146</ele>
        <time>2014-08-15T11:56:00Z</time>
      </trkpt>
      <trkpt lat="44.07855" lon="1.94223">
        <ele>146</ele>
        <time>2014-08-15T11:56:03Z</time>
      </trkpt>
      <trkpt lat="44.0786" lon="1.94235">
        <ele>147</ele>
        <time>2014-08-15T11:56:05Z</time>
      </trkpt>
      <trkpt lat="44.07866" lon="1.94247">
        <ele>148</ele>
        <time>2014-08-15T11:56:07Z</time>
      </trkpt>
      <trkpt lat="44.07872" lon="1.94259">
        <ele>149</ele>
        <time>2014-08-15T11:56:09Z</time>
      </trkpt>
      <trkpt lat="44.07881" lon="1.94275">
        <ele>150</ele>
        <time>2014-08-15T11:56:12Z</time>
      </trkpt>
      <trkpt lat="44.07887" lon="1.94286">
        <ele>151</ele>
        <time>2014-08-15T11:56:14Z</time>
      </trkpt>
      <trkpt lat="44.07895" lon="1.94301">
        <ele>152</ele>
        <time>2014-08-15T11:56:17Z</time>
      </trkpt>
      <trkpt lat="44.07898" lon="1.9431">
        <ele>152</ele>
        <time>2014-08-15T11:56:19Z</time>
      </trkpt>
      <trkpt lat="44.07903" lon="1.9432">
        <ele>153</ele>
        <time>2014-08-15T11:56:22Z</time>
      </trkpt>
      <trkpt lat="44.07908" lon="1.94329">
        <ele>154</ele>
        <time>2014-08-15T11:56:25Z</time>
      </trkpt>
      <trkpt lat="44.07912" lon="1.94339">
        <ele>154</ele>
        <time>2014-08-15T11:56:28Z</time>
      </trkpt>
      <trkpt lat="44.07917" lon="1.94349">
        <ele>155</ele>
        <time>2014-08-15T11:56:31Z</time>
      </trkpt>
      <trkpt lat="44.07921" lon="1.94358">
        <ele>156</ele>
        <time>2014-08-15T11:56:34Z</time>
      </trkpt>
      <trkpt lat="44.07923" lon="1.94364">
        <ele>156</ele>
        <time>2014-08-15T11:56:36Z</time>
      </trkpt>
      <trkpt lat="44.07926" lon="1.9437">
        <ele>157</ele>
        <time>2014-08-15T11:56:38Z</time>
      </trkpt>
      <trkpt lat="44.07929" lon="1.94379">
        <ele>157</ele>
        <time>2014-08-15T11:56:41Z</time>
      </trkpt>
      <trkpt lat="44.07931" lon="1.94385">
        <ele>157</ele>
        <time>2014-08-15T11:56:43Z</time>
      </trkpt>
      <trkpt lat="44.07933" lon="1.94393">
        <ele>157</ele>
        <time>2014-08-15T11:56:46Z</time>
      </trkpt>
      <trkpt lat="44.07935" lon="1.94397">
        <ele>157</ele>
        <time>2014-08-15T11:56:48Z</time>
      </trkpt>
      <trkpt lat="44.07937" lon="1.94401">
        <ele>158</ele>
        <time>2014-08-15T11:56:50Z</time>
      </trkpt>
      <trkpt lat="44.0794" lon="1.94407">
        <ele>158</ele>
        <time>2014-08-15T11:56:53Z</time>
      </trkpt>
      <trkpt lat="44.07943" lon="1.94416">
        <ele>158</ele>
        <time>2014-08-15T11:56:56Z</time>
      </trkpt>
      <trkpt lat="44.07947" lon="1.94424">
        <ele>158</ele>
        <time>2014-08-15T11:56:59Z</time>
      </trkpt>
      <trkpt lat="44.07951" lon="1.94434">
        <ele>158</ele>
        <time>2014-08-15T11:57:02Z</time>
      </trkpt>
      <trkpt lat="44.07954" lon="1.94439">
        <ele>158</ele>
        <time>2014-08-15T11:57:04Z</time>
      </trkpt>
      <trkpt lat="44.07956" lon="1.94442">
        <ele>159</ele>
        <time>2014-08-15T11:57:07Z</time>
      </trkpt>
      <trkpt lat="44.07956" lon="1.94442">
        <ele>158</ele>
        <time>2014-08-15T11:57:10Z</time>
      </trkpt>
      <trkpt lat="44.07956" lon="1.94442">
        <ele>158</ele>
        <time>2014-08-15T11:57:12Z</time>
      </trkpt>
      <trkpt lat="44.07956" lon="1.94442">
        <ele>158</ele>
        <time>2014-08-15T11:57:15Z</time>
      </trkpt>
      <trkpt lat="44.07956" lon="1.94443">
        <ele>158</ele>
        <time>2014-08-15T11:57:18Z</time>
      </trkpt>
      <trkpt lat="44.07972" lon="1.94469">
        <ele>159</ele>
        <time>2014-08-15T11:57:20Z</time>
      </trkpt>
      <trkpt lat="44.07972" lon="1.94469">
        <ele>159</ele>
        <time>2014-08-15T11:57:23Z</time>
      </trkpt>
      <trkpt lat="44.07973" lon="1.94472">
        <ele>159</ele>
        <time>2014-08-15T11:57:26Z</time>
      </trkpt>
      <trkpt lat="44.07975" lon="1.94475">
        <ele>159</ele>
        <time>2014-08-15T11:57:28Z</time>
      </trkpt>
      <trkpt lat="44.0798" lon="1.94482">
        <ele>159</ele>
        <time>2014-08-15T11:57:31Z</time>
      </trkpt>
      <trkpt lat="44.07985" lon="1.94489">
        <ele>159</ele>
        <time>2014-08-15T11:57:33Z</time>
      </trkpt>
      <trkpt lat="44.07991" lon="1.94496">
        <ele>159</ele>
        <time>2014-08-15T11:57:35Z</time>
      </trkpt>
      <trkpt lat="44.08" lon="1.94507">
        <ele>160</ele>
        <time>2014-08-15T11:57:38Z</time>
      </trkpt>
      <trkpt lat="44.08007" lon="1.94514">
        <ele>160</ele>
        <time>2014-08-15T11:57:40Z</time>
      </trkpt>
      <trkpt lat="44.08015" lon="1.94521">
        <ele>160</ele>
        <time>2014-08-15T11:57:42Z</time>
      </trkpt>
      <trkpt lat="44.08025" lon="1.9453">
        <ele>160</ele>
        <time>2014-08-15T11:57:45Z</time>
      </trkpt>
      <trkpt lat="44.08035" lon="1.94537">
        <ele>161</ele>
        <time>2014-08-15T11:57:48Z</time>
      </trkpt>
      <trkpt lat="44.0804" lon="1.94541">
        <ele>161</ele>
        <time>2014-08-15T11:57:50Z</time>
      </trkpt>
      <trkpt lat="44.08046" lon="1.94546">
        <ele>161</ele>
        <time>2014-08-15T11:57:53Z</time>
      </trkpt>
      <trkpt lat="44.08053" lon="1.9455">
        <ele>161</ele>
        <time>2014-08-15T11:57:56Z</time>
      </trkpt>
      <trkpt lat="44.08057" lon="1.94553">
        <ele>162</ele>
        <time>2014-08-15T11:57:58Z</time>
      </trkpt>
      <trkpt lat="44.08063" lon="1.94557">
        <ele>162</ele>
        <time>2014-08-15T11:58:01Z</time>
      </trkpt>
      <trkpt lat="44.08067" lon="1.94559">
        <ele>162</ele>
        <time>2014-08-15T11:58:03Z</time>
      </trkpt>
      <trkpt lat="44.08072" lon="1.94562">
        <ele>163</ele>
        <time>2014-08-15T11:58:05Z</time>
      </trkpt>
      <trkpt lat="44.08078" lon="1.94565">
        <ele>164</ele>
        <time>2014-08-15T11:58:08Z</time>
      </trkpt>
      <trkpt lat="44.08084" lon="1.94568">
        <ele>164</ele>
        <time>2014-08-15T11:58:11Z</time>
      </trkpt>
      <trkpt lat="44.08092" lon="1.94571">
        <ele>165</ele>
        <time>2014-08-15T11:58:14Z</time>
      </trkpt>
      <trkpt lat="44.08096" lon="1.94573">
        <ele>166</ele>
        <time>2014-08-15T11:58:16Z</time>
      </trkpt>
      <trkpt lat="44.08102" lon="1.94574">
        <ele>166</ele>
        <time>2014-08-15T11:58:19Z</time>
      </trkpt>
      <trkpt lat="44.08109" lon="1.94574">
        <ele>167</ele>
        <time>2014-08-15T11:58:22Z</time>
      </trkpt>
      <trkpt lat="44.08113" lon="1.94575">
        <ele>168</ele>
        <time>2014-08-15T11:58:24Z</time>
      </trkpt>
      <trkpt lat="44.08119" lon="1.94575">
        <ele>169</ele>
        <time>2014-08-15T11:58:27Z</time>
      </trkpt>
      <trkpt lat="44.08123" lon="1.94575">
        <ele>170</ele>
        <time>2014-08-15T11:58:29Z</time>
      </trkpt>
      <trkpt lat="44.08129" lon="1.94576">
        <ele>170</ele>
        <time>2014-08-15T11:58:32Z</time>
      </trkpt>
      <trkpt lat="44.08134" lon="1.94579">
        <ele>171</ele>
        <time>2014-08-15T11:58:35Z</time>
      </trkpt>
      <trkpt lat="44.08139" lon="1.94581">
        <ele>171</ele>
        <time>2014-08-15T11:58:38Z</time>
      </trkpt>
      <trkpt lat="44.08143" lon="1.94584">
        <ele>172</ele>
        <time>2014-08-15T11:58:41Z</time>
      </trkpt>
      <trkpt lat="44.08147" lon="1.94588">
        <ele>172</ele>
        <time>2014-08-15T11:58:44Z</time>
      </trkpt>
      <trkpt lat="44.0815" lon="1.94593">
        <ele>174</ele>
        <time>2014-08-15T11:58:47Z</time>
      </trkpt>
      <trkpt lat="44.08152" lon="1.94598">
        <ele>174</ele>
        <time>2014-08-15T11:58:49Z</time>
      </trkpt>
      <trkpt lat="44.08154" lon="1.94605">
        <ele>175</ele>
        <time>2014-08-15T11:58:52Z</time>
      </trkpt>
      <trkpt lat="44.08155" lon="1.94609">
        <ele>175</ele>
        <time>2014-08-15T11:58:54Z</time>
      </trkpt>
      <trkpt lat="44.08155" lon="1.94616">
        <ele>176</ele>
        <time>2014-08-15T11:58:57Z</time>
      </trkpt>
      <trkpt lat="44.08154" lon="1.9462">
        <ele>177</ele>
        <time>2014-08-15T11:58:59Z</time>
      </trkpt>
      <trkpt lat="44.08155" lon="1.9462">
        <ele>177</ele>
        <time>2014-08-15T11:59:01Z</time>
      </trkpt>
      <trkpt lat="44.08155" lon="1.9462">
        <ele>178</ele>
        <time>2014-08-15T11:59:03Z</time>
      </trkpt>
      <trkpt lat="44.08155" lon="1.94621">
        <ele>178</ele>
        <time>2014-08-15T11:59:06Z</time>
      </trkpt>
      <trkpt lat="44.08155" lon="1.94621">
        <ele>178</ele>
        <time>2014-08-15T11:59:08Z</time>
      </trkpt>
      <trkpt lat="44.08155" lon="1.94621">
        <ele>178</ele>
        <time>2014-08-15T11:59:13Z</time>
      </trkpt>
      <trkpt lat="44.08155" lon="1.94622">
        <ele>178</ele>
        <time>2014-08-15T11:59:15Z</time>
      </trkpt>
      <trkpt lat="44.08155" lon="1.94623">
        <ele>178</ele>
        <time>2014-08-15T11:59:17Z</time>
      </trkpt>
      <trkpt lat="44.08155" lon="1.94623">
        <ele>178</ele>
        <time>2014-08-15T11:59:19Z</time>
      </trkpt>
      <trkpt lat="44.08155" lon="1.94624">
        <ele>179</ele>
        <time>2014-08-15T11:59:23Z</time>
      </trkpt>
      <trkpt lat="44.08155" lon="1.94624">
        <ele>179</ele>
        <time>2014-08-15T11:59:25Z</time>
      </trkpt>
      <trkpt lat="44.08155" lon="1.94624">
        <ele>179</ele>
        <time>2014-08-15T11:59:29Z</time>
      </trkpt>
      <trkpt lat="44.08155" lon="1.94624">
        <ele>178</ele>
        <time>2014-08-15T11:59:32Z</time>
      </trkpt>
      <trkpt lat="44.08155" lon="1.94624">
        <ele>178</ele>
        <time>2014-08-15T11:59:34Z</time>
      </trkpt>
      <trkpt lat="44.08155" lon="1.94624">
        <ele>179</ele>
        <time>2014-08-15T11:59:36Z</time>
      </trkpt>
      <trkpt lat="44.08155" lon="1.94623">
        <ele>179</ele>
        <time>2014-08-15T11:59:38Z</time>
      </trkpt>
      <trkpt lat="44.08155" lon="1.94623">
        <ele>178</ele>
        <time>2014-08-15T11:59:40Z</time>
      </trkpt>
      <trkpt lat="44.08155" lon="1.94623">
        <ele>179</ele>
        <time>2014-08-15T11:59:43Z</time>
      </trkpt>
      <trkpt lat="44.08154" lon="1.94623">
        <ele>178</ele>
        <time>2014-08-15T11:59:45Z</time>
      </trkpt>
      <trkpt lat="44.08154" lon="1.94626">
        <ele>178</ele>
        <time>2014-08-15T11:59:47Z</time>
      </trkpt>
      <trkpt lat="44.08154" lon="1.94631">
        <ele>179</ele>
        <time>2014-08-15T11:59:50Z</time>
      </trkpt>
      <trkpt lat="44.08153" lon="1.94635">
        <ele>179</ele>
        <time>2014-08-15T11:59:52Z</time>
      </trkpt>
      <trkpt lat="44.08151" lon="1.94642">
        <ele>180</ele>
        <time>2014-08-15T11:59:55Z</time>
      </trkpt>
      <trkpt lat="44.0815" lon="1.94649">
        <ele>181</ele>
        <time>2014-08-15T11:59:58Z</time>
      </trkpt>
      <trkpt lat="44.0815" lon="1.94655">
        <ele>182</ele>
        <time>2014-08-15T12:00:00Z</time>
      </trkpt>
      <trkpt lat="44.08149" lon="1.94664">
        <ele>183</ele>
        <time>2014-08-15T12:00:03Z</time>
      </trkpt>
      <trkpt lat="44.08149" lon="1.94669">
        <ele>184</ele>
        <time>2014-08-15T12:00:05Z</time>
      </trkpt>
      <trkpt lat="44.08147" lon="1.94677">
        <ele>185</ele>
        <time>2014-08-15T12:00:08Z</time>
      </trkpt>
      <trkpt lat="44.08147" lon="1.94685">
        <ele>186</ele>
        <time>2014-08-15T12:00:11Z</time>
      </trkpt>
      <trkpt lat="44.08147" lon="1.94694">
        <ele>187</ele>
        <time>2014-08-15T12:00:14Z</time>
      </trkpt>
      <trkpt lat="44.08147" lon="1.947">
        <ele>188</ele>
        <time>2014-08-15T12:00:16Z</time>
      </trkpt>
      <trkpt lat="44.08147" lon="1.94705">
        <ele>189</ele>
        <time>2014-08-15T12:00:18Z</time>
      </trkpt>
      <trkpt lat="44.08148" lon="1.94713">
        <ele>191</ele>
        <time>2014-08-15T12:00:21Z</time>
      </trkpt>
      <trkpt lat="44.08147" lon="1.94719">
        <ele>192</ele>
        <time>2014-08-15T12:00:23Z</time>
      </trkpt>
      <trkpt lat="44.08148" lon="1.94728">
        <ele>193</ele>
        <time>2014-08-15T12:00:26Z</time>
      </trkpt>
      <trkpt lat="44.08151" lon="1.94732">
        <ele>194</ele>
        <time>2014-08-15T12:00:28Z</time>
      </trkpt>
      <trkpt lat="44.08155" lon="1.94735">
        <ele>195</ele>
        <time>2014-08-15T12:00:31Z</time>
      </trkpt>
      <trkpt lat="44.08159" lon="1.94737">
        <ele>196</ele>
        <time>2014-08-15T12:00:34Z</time>
      </trkpt>
      <trkpt lat="44.08162" lon="1.94738">
        <ele>197</ele>
        <time>2014-08-15T12:00:36Z</time>
      </trkpt>
      <trkpt lat="44.08164" lon="1.94739">
        <ele>197</ele>
        <time>2014-08-15T12:00:39Z</time>
      </trkpt>
      <trkpt lat="44.08168" lon="1.94741">
        <ele>198</ele>
        <time>2014-08-15T12:00:42Z</time>
      </trkpt>
      <trkpt lat="44.08172" lon="1.94743">
        <ele>199</ele>
        <time>2014-08-15T12:00:45Z</time>
      </trkpt>
      <trkpt lat="44.08177" lon="1.94744">
        <ele>200</ele>
        <time>2014-08-15T12:00:48Z</time>
      </trkpt>
      <trkpt lat="44.08182" lon="1.94744">
        <ele>201</ele>
        <time>2014-08-15T12:00:51Z</time>
      </trkpt>
      <trkpt lat="44.08186" lon="1.94746">
        <ele>202</ele>
        <time>2014-08-15T12:00:54Z</time>
      </trkpt>
      <trkpt lat="44.08191" lon="1.94747">
        <ele>203</ele>
        <time>2014-08-15T12:00:57Z</time>
      </trkpt>
      <trkpt lat="44.08197" lon="1.94747">
        <ele>205</ele>
        <time>2014-08-15T12:01:00Z</time>
      </trkpt>
      <trkpt lat="44.082" lon="1.94746">
        <ele>206</ele>
        <time>2014-08-15T12:01:02Z</time>
      </trkpt>
      <trkpt lat="44.08204" lon="1.94746">
        <ele>206</ele>
        <time>2014-08-15T12:01:04Z</time>
      </trkpt>
      <trkpt lat="44.08207" lon="1.94745">
        <ele>206</ele>
        <time>2014-08-15T12:01:06Z</time>
      </trkpt>
      <trkpt lat="44.08212" lon="1.94745">
        <ele>207</ele>
        <time>2014-08-15T12:01:09Z</time>
      </trkpt>
      <trkpt lat="44.08215" lon="1.94745">
        <ele>207</ele>
        <time>2014-08-15T12:01:11Z</time>
      </trkpt>
      <trkpt lat="44.0822" lon="1.94744">
        <ele>208</ele>
        <time>2014-08-15T12:01:14Z</time>
      </trkpt>
      <trkpt lat="44.08226" lon="1.94744">
        <ele>209</ele>
        <time>2014-08-15T12:01:17Z</time>
      </trkpt>
      <trkpt lat="44.08229" lon="1.94743">
        <ele>210</ele>
        <time>2014-08-15T12:01:19Z</time>
      </trkpt>
      <trkpt lat="44.08234" lon="1.94742">
        <ele>210</ele>
        <time>2014-08-15T12:01:22Z</time>
      </trkpt>
      <trkpt lat="44.08239" lon="1.94741">
        <ele>211</ele>
        <time>2014-08-15T12:01:24Z</time>
      </trkpt>
      <trkpt lat="44.08244" lon="1.94738">
        <ele>212</ele>
        <time>2014-08-15T12:01:27Z</time>
      </trkpt>
      <trkpt lat="44.08247" lon="1.94738">
        <ele>213</ele>
        <time>2014-08-15T12:01:29Z</time>
      </trkpt>
      <trkpt lat="44.0825" lon="1.94737">
        <ele>214</ele>
        <time>2014-08-15T12:01:31Z</time>
      </trkpt>
      <trkpt lat="44.08256" lon="1.94736">
        <ele>214</ele>
        <time>2014-08-15T12:01:34Z</time>
      </trkpt>
      <trkpt lat="44.08262" lon="1.94735">
        <ele>215</ele>
        <time>2014-08-15T12:01:37Z</time>
      </trkpt>
      <trkpt lat="44.08268" lon="1.94735">
        <ele>216</ele>
        <time>2014-08-15T12:01:40Z</time>
      </trkpt>
      <trkpt lat="44.08273" lon="1.94734">
        <ele>217</ele>
        <time>2014-08-15T12:01:43Z</time>
      </trkpt>
      <trkpt lat="44.08277" lon="1.94734">
        <ele>217</ele>
        <time>2014-08-15T12:01:45Z</time>
      </trkpt>
      <trkpt lat="44.08284" lon="1.94734">
        <ele>218</ele>
        <time>2014-08-15T12:01:48Z</time>
      </trkpt>
      <trkpt lat="44.0829" lon="1.94733">
        <ele>218</ele>
        <time>2014-08-15T12:01:51Z</time>
      </trkpt>
      <trkpt lat="44.08296" lon="1.94734">
        <ele>219</ele>
        <time>2014-08-15T12:01:54Z</time>
      </trkpt>
      <trkpt lat="44.083" lon="1.94734">
        <ele>219</ele>
        <time>2014-08-15T12:01:56Z</time>
      </trkpt>
      <trkpt lat="44.08306" lon="1.94735">
        <ele>220</ele>
        <time>2014-08-15T12:01:59Z</time>
      </trkpt>
      <trkpt lat="44.0831" lon="1.94736">
        <ele>221</ele>
        <time>2014-08-15T12:02:01Z</time>
      </trkpt>
      <trkpt lat="44.08316" lon="1.94737">
        <ele>222</ele>
        <time>2014-08-15T12:02:04Z</time>
      </trkpt>
      <trkpt lat="44.08319" lon="1.94738">
        <ele>222</ele>
        <time>2014-08-15T12:02:06Z</time>
      </trkpt>
      <trkpt lat="44.08323" lon="1.94739">
        <ele>223</ele>
        <time>2014-08-15T12:02:08Z</time>
      </trkpt>
      <trkpt lat="44.08329" lon="1.94741">
        <ele>223</ele>
        <time>2014-08-15T12:02:11Z</time>
      </trkpt>
      <trkpt lat="44.08331" lon="1.94743">
        <ele>224</ele>
        <time>2014-08-15T12:02:13Z</time>
      </trkpt>
      <trkpt lat="44.08336" lon="1.94748">
        <ele>224</ele>
        <time>2014-08-15T12:02:16Z</time>
      </trkpt>
      <trkpt lat="44.08339" lon="1.94751">
        <ele>225</ele>
        <time>2014-08-15T12:02:18Z</time>
      </trkpt>
      <trkpt lat="44.08345" lon="1.94756">
        <ele>225</ele>
        <time>2014-08-15T12:02:21Z</time>
      </trkpt>
      <trkpt lat="44.0835" lon="1.9476">
        <ele>227</ele>
        <time>2014-08-15T12:02:24Z</time>
      </trkpt>
      <trkpt lat="44.08353" lon="1.94763">
        <ele>227</ele>
        <time>2014-08-15T12:02:26Z</time>
      </trkpt>
      <trkpt lat="44.08357" lon="1.94768">
        <ele>228</ele>
        <time>2014-08-15T12:02:29Z</time>
      </trkpt>
      <trkpt lat="44.08361" lon="1.94773">
        <ele>228</ele>
        <time>2014-08-15T12:02:32Z</time>
      </trkpt>
      <trkpt lat="44.08364" lon="1.94776">
        <ele>229</ele>
        <time>2014-08-15T12:02:34Z</time>
      </trkpt>
      <trkpt lat="44.08368" lon="1.94781">
        <ele>229</ele>
        <time>2014-08-15T12:02:37Z</time>
      </trkpt>
      <trkpt lat="44.08372" lon="1.94786">
        <ele>229</ele>
        <time>2014-08-15T12:02:40Z</time>
      </trkpt>
      <trkpt lat="44.08376" lon="1.9479">
        <ele>230</ele>
        <time>2014-08-15T12:02:42Z</time>
      </trkpt>
      <trkpt lat="44.08382" lon="1.94796">
        <ele>230</ele>
        <time>2014-08-15T12:02:45Z</time>
      </trkpt>
      <trkpt lat="44.08387" lon="1.94802">
        <ele>230</ele>
        <time>2014-08-15T12:02:48Z</time>
      </trkpt>
      <trkpt lat="44.0839" lon="1.94806">
        <ele>230</ele>
        <time>2014-08-15T12:02:50Z</time>
      </trkpt>
      <trkpt lat="44.08394" lon="1.94812">
        <ele>230</ele>
        <time>2014-08-15T12:02:53Z</time>
      </trkpt>
      <trkpt lat="44.08398" lon="1.94816">
        <ele>230</ele>
        <time>2014-08-15T12:02:55Z</time>
      </trkpt>
      <trkpt lat="44.08401" lon="1.94823">
        <ele>231</ele>
        <time>2014-08-15T12:02:58Z</time>
      </trkpt>
      <trkpt lat="44.08406" lon="1.94828">
        <ele>231</ele>
        <time>2014-08-15T12:03:01Z</time>
      </trkpt>
      <trkpt lat="44.08411" lon="1.94834">
        <ele>231</ele>
        <time>2014-08-15T12:03:04Z</time>
      </trkpt>
      <trkpt lat="44.08413" lon="1.94838">
        <ele>231</ele>
        <time>2014-08-15T12:03:06Z</time>
      </trkpt>
      <trkpt lat="44.08415" lon="1.94843">
        <ele>231</ele>
        <time>2014-08-15T12:03:09Z</time>
      </trkpt>
      <trkpt lat="44.08417" lon="1.94847">
        <ele>231</ele>
        <time>2014-08-15T12:03:11Z</time>
      </trkpt>
      <trkpt lat="44.08419" lon="1.94851">
        <ele>231</ele>
        <time>2014-08-15T12:03:13Z</time>
      </trkpt>
      <trkpt lat="44.08422" lon="1.94857">
        <ele>231</ele>
        <time>2014-08-15T12:03:16Z</time>
      </trkpt>
      <trkpt lat="44.08424" lon="1.94859">
        <ele>231</ele>
        <time>2014-08-15T12:03:18Z</time>
      </trkpt>
      <trkpt lat="44.08425" lon="1.9486">
        <ele>232</ele>
        <time>2014-08-15T12:03:21Z</time>
      </trkpt>
      <trkpt lat="44.08437" lon="1.94874">
        <ele>232</ele>
        <time>2014-08-15T12:03:23Z</time>
      </trkpt>
      <trkpt lat="44.0844" lon="1.9488">
        <ele>231</ele>
        <time>2014-08-15T12:03:25Z</time>
      </trkpt>
      <trkpt lat="44.08443" lon="1.94894">
        <ele>231</ele>
        <time>2014-08-15T12:03:28Z</time>
      </trkpt>
      <trkpt lat="44.08446" lon="1.94905">
        <ele>232</ele>
        <time>2014-08-15T12:03:30Z</time>
      </trkpt>
      <trkpt lat="44.08452" lon="1.94921">
        <ele>232</ele>
        <time>2014-08-15T12:03:33Z</time>
      </trkpt>
      <trkpt lat="44.08459" lon="1.94938">
        <ele>232</ele>
        <time>2014-08-15T12:03:36Z</time>
      </trkpt>
      <trkpt lat="44.08464" lon="1.94949">
        <ele>232</ele>
        <time>2014-08-15T12:03:38Z</time>
      </trkpt>
      <trkpt lat="44.08472" lon="1.94965">
        <ele>232</ele>
        <time>2014-08-15T12:03:41Z</time>
      </trkpt>
      <trkpt lat="44.08477" lon="1.94973">
        <ele>232</ele>
        <time>2014-08-15T12:03:43Z</time>
      </trkpt>
      <trkpt lat="44.08487" lon="1.94983">
        <ele>232</ele>
        <time>2014-08-15T12:03:46Z</time>
      </trkpt>
      <trkpt lat="44.08496" lon="1.94993">
        <ele>233</ele>
        <time>2014-08-15T12:03:49Z</time>
      </trkpt>
      <trkpt lat="44.08502" lon="1.94999">
        <ele>233</ele>
        <time>2014-08-15T12:03:51Z</time>
      </trkpt>
      <trkpt lat="44.08513" lon="1.95007">
        <ele>233</ele>
        <time>2014-08-15T12:03:54Z</time>
      </trkpt>
      <trkpt lat="44.0852" lon="1.95013">
        <ele>234</ele>
        <time>2014-08-15T12:03:56Z</time>
      </trkpt>
      <trkpt lat="44.08527" lon="1.95017">
        <ele>234</ele>
        <time>2014-08-15T12:03:58Z</time>
      </trkpt>
      <trkpt lat="44.08538" lon="1.95022">
        <ele>234</ele>
        <time>2014-08-15T12:04:01Z</time>
      </trkpt>
      <trkpt lat="44.08546" lon="1.95025">
        <ele>234</ele>
        <time>2014-08-15T12:04:03Z</time>
      </trkpt>
      <trkpt lat="44.08558" lon="1.95029">
        <ele>234</ele>
        <time>2014-08-15T12:04:06Z</time>
      </trkpt>
      <trkpt lat="44.08568" lon="1.95034">
        <ele>235</ele>
        <time>2014-08-15T12:04:09Z</time>
      </trkpt>
      <trkpt lat="44.08575" lon="1.95038">
        <ele>235</ele>
        <time>2014-08-15T12:04:11Z</time>
      </trkpt>
      <trkpt lat="44.08582" lon="1.95044">
        <ele>234</ele>
        <time>2014-08-15T12:04:13Z</time>
      </trkpt>
      <trkpt lat="44.08593" lon="1.95053">
        <ele>234</ele>
        <time>2014-08-15T12:04:16Z</time>
      </trkpt>
      <trkpt lat="44.08605" lon="1.95059">
        <ele>235</ele>
        <time>2014-08-15T12:04:19Z</time>
      </trkpt>
      <trkpt lat="44.08618" lon="1.95066">
        <ele>235</ele>
        <time>2014-08-15T12:04:22Z</time>
      </trkpt>
      <trkpt lat="44.08633" lon="1.95073">
        <ele>234</ele>
        <time>2014-08-15T12:04:25Z</time>
      </trkpt>
      <trkpt lat="44.08648" lon="1.95079">
        <ele>234</ele>
        <time>2014-08-15T12:04:28Z</time>
      </trkpt>
      <trkpt lat="44.08658" lon="1.95083">
        <ele>234</ele>
        <time>2014-08-15T12:04:30Z</time>
      </trkpt>
      <trkpt lat="44.08673" lon="1.95088">
        <ele>234</ele>
        <time>2014-08-15T12:04:33Z</time>
      </trkpt>
      <trkpt lat="44.08681" lon="1.95089">
        <ele>234</ele>
        <time>2014-08-15T12:04:35Z</time>
      </trkpt>
      <trkpt lat="44.08694" lon="1.95089">
        <ele>233</ele>
        <time>2014-08-15T12:04:38Z</time>
      </trkpt>
      <trkpt lat="44.08707" lon="1.95086">
        <ele>232</ele>
        <time>2014-08-15T12:04:41Z</time>
      </trkpt>
      <trkpt lat="44.08721" lon="1.95084">
        <ele>233</ele>
        <time>2014-08-15T12:04:44Z</time>
      </trkpt>
      <trkpt lat="44.0873" lon="1.95081">
        <ele>232</ele>
        <time>2014-08-15T12:04:46Z</time>
      </trkpt>
      <trkpt lat="44.08743" lon="1.95076">
        <ele>233</ele>
        <time>2014-08-15T12:04:49Z</time>
      </trkpt>
      <trkpt lat="44.08752" lon="1.95073">
        <ele>233</ele>
        <time>2014-08-15T12:04:51Z</time>
      </trkpt>
      <trkpt lat="44.08765" lon="1.95067">
        <ele>233</ele>
        <time>2014-08-15T12:04:54Z</time>
      </trkpt>
      <trkpt lat="44.08775" lon="1.95062">
        <ele>233</ele>
        <time>2014-08-15T12:04:56Z</time>
      </trkpt>
      <trkpt lat="44.08789" lon="1.95055">
        <ele>233</ele>
        <time>2014-08-15T12:04:59Z</time>
      </trkpt>
      <trkpt lat="44.08799" lon="1.95051">
        <ele>233</ele>
        <time>2014-08-15T12:05:01Z</time>
      </trkpt>
      <trkpt lat="44.08815" lon="1.95046">
        <ele>232</ele>
        <time>2014-08-15T12:05:04Z</time>
      </trkpt>
      <trkpt lat="44.08829" lon="1.95045">
        <ele>232</ele>
        <time>2014-08-15T12:05:07Z</time>
      </trkpt>
      <trkpt lat="44.08839" lon="1.95046">
        <ele>232</ele>
        <time>2014-08-15T12:05:09Z</time>
      </trkpt>
      <trkpt lat="44.08853" lon="1.95046">
        <ele>232</ele>
        <time>2014-08-15T12:05:12Z</time>
      </trkpt>
      <trkpt lat="44.08863" lon="1.95046">
        <ele>232</ele>
        <time>2014-08-15T12:05:14Z</time>
      </trkpt>
      <trkpt lat="44.08871" lon="1.95048">
        <ele>231</ele>
        <time>2014-08-15T12:05:16Z</time>
      </trkpt>
      <trkpt lat="44.08885" lon="1.95053">
        <ele>232</ele>
        <time>2014-08-15T12:05:19Z</time>
      </trkpt>
      <trkpt lat="44.08892" lon="1.95058">
        <ele>232</ele>
        <time>2014-08-15T12:05:21Z</time>
      </trkpt>
      <trkpt lat="44.089" lon="1.95064">
        <ele>232</ele>
        <time>2014-08-15T12:05:23Z</time>
      </trkpt>
      <trkpt lat="44.08908" lon="1.95076">
        <ele>233</ele>
        <time>2014-08-15T12:05:26Z</time>
      </trkpt>
      <trkpt lat="44.08915" lon="1.95083">
        <ele>233</ele>
        <time>2014-08-15T12:05:28Z</time>
      </trkpt>
      <trkpt lat="44.08927" lon="1.95094">
        <ele>233</ele>
        <time>2014-08-15T12:05:31Z</time>
      </trkpt>
      <trkpt lat="44.08938" lon="1.951">
        <ele>234</ele>
        <time>2014-08-15T12:05:34Z</time>
      </trkpt>
      <trkpt lat="44.08946" lon="1.95105">
        <ele>234</ele>
        <time>2014-08-15T12:05:36Z</time>
      </trkpt>
      <trkpt lat="44.08956" lon="1.95113">
        <ele>234</ele>
        <time>2014-08-15T12:05:39Z</time>
      </trkpt>
      <trkpt lat="44.08965" lon="1.95121">
        <ele>235</ele>
        <time>2014-08-15T12:05:42Z</time>
      </trkpt>
      <trkpt lat="44.08973" lon="1.95131">
        <ele>236</ele>
        <time>2014-08-15T12:05:45Z</time>
      </trkpt>
      <trkpt lat="44.08979" lon="1.95137">
        <ele>236</ele>
        <time>2014-08-15T12:05:47Z</time>
      </trkpt>
      <trkpt lat="44.08986" lon="1.95143">
        <ele>236</ele>
        <time>2014-08-15T12:05:49Z</time>
      </trkpt>
      <trkpt lat="44.08995" lon="1.95154">
        <ele>236</ele>
        <time>2014-08-15T12:05:52Z</time>
      </trkpt>
      <trkpt lat="44.09002" lon="1.95161">
        <ele>236</ele>
        <time>2014-08-15T12:05:54Z</time>
      </trkpt>
      <trkpt lat="44.09009" lon="1.95169">
        <ele>236</ele>
        <time>2014-08-15T12:05:56Z</time>
      </trkpt>
      <trkpt lat="44.09017" lon="1.95182">
        <ele>237</ele>
        <time>2014-08-15T12:05:59Z</time>
      </trkpt>
      <trkpt lat="44.09021" lon="1.95192">
        <ele>237</ele>
        <time>2014-08-15T12:06:01Z</time>
      </trkpt>
      <trkpt lat="44.09029" lon="1.95206">
        <ele>237</ele>
        <time>2014-08-15T12:06:04Z</time>
      </trkpt>
      <trkpt lat="44.09038" lon="1.95219">
        <ele>237</ele>
        <time>2014-08-15T12:06:07Z</time>
      </trkpt>
      <trkpt lat="44.09044" lon="1.95228">
        <ele>237</ele>
        <time>2014-08-15T12:06:09Z</time>
      </trkpt>
      <trkpt lat="44.09054" lon="1.95239">
        <ele>238</ele>
        <time>2014-08-15T12:06:12Z</time>
      </trkpt>
      <trkpt lat="44.09061" lon="1.95247">
        <ele>238</ele>
        <time>2014-08-15T12:06:14Z</time>
      </trkpt>
      <trkpt lat="44.09072" lon="1.95258">
        <ele>238</ele>
        <time>2014-08-15T12:06:17Z</time>
      </trkpt>
      <trkpt lat="44.09079" lon="1.95267">
        <ele>238</ele>
        <time>2014-08-15T12:06:19Z</time>
      </trkpt>
      <trkpt lat="44.09087" lon="1.95277">
        <ele>239</ele>
        <time>2014-08-15T12:06:21Z</time>
      </trkpt>
      <trkpt lat="44.09095" lon="1.95288">
        <ele>240</ele>
        <time>2014-08-15T12:06:24Z</time>
      </trkpt>
      <trkpt lat="44.091" lon="1.95294">
        <ele>241</ele>
        <time>2014-08-15T12:06:26Z</time>
      </trkpt>
      <trkpt lat="44.09106" lon="1.95301">
        <ele>242</ele>
        <time>2014-08-15T12:06:29Z</time>
      </trkpt>
      <trkpt lat="44.09111" lon="1.95306">
        <ele>242</ele>
        <time>2014-08-15T12:06:31Z</time>
      </trkpt>
      <trkpt lat="44.09118" lon="1.95313">
        <ele>243</ele>
        <time>2014-08-15T12:06:34Z</time>
      </trkpt>
      <trkpt lat="44.09124" lon="1.95318">
        <ele>243</ele>
        <time>2014-08-15T12:06:36Z</time>
      </trkpt>
      <trkpt lat="44.09129" lon="1.95323">
        <ele>243</ele>
        <time>2014-08-15T12:06:38Z</time>
      </trkpt>
      <trkpt lat="44.09138" lon="1.95329">
        <ele>244</ele>
        <time>2014-08-15T12:06:41Z</time>
      </trkpt>
      <trkpt lat="44.09146" lon="1.95336">
        <ele>244</ele>
        <time>2014-08-15T12:06:44Z</time>
      </trkpt>
      <trkpt lat="44.09155" lon="1.95343">
        <ele>244</ele>
        <time>2014-08-15T12:06:47Z</time>
      </trkpt>
      <trkpt lat="44.09162" lon="1.95348">
        <ele>244</ele>
        <time>2014-08-15T12:06:49Z</time>
      </trkpt>
      <trkpt lat="44.09171" lon="1.95355">
        <ele>244</ele>
        <time>2014-08-15T12:06:52Z</time>
      </trkpt>
      <trkpt lat="44.09177" lon="1.9536">
        <ele>244</ele>
        <time>2014-08-15T12:06:54Z</time>
      </trkpt>
      <trkpt lat="44.09185" lon="1.95368">
        <ele>244</ele>
        <time>2014-08-15T12:06:57Z</time>
      </trkpt>
      <trkpt lat="44.09192" lon="1.95373">
        <ele>244</ele>
        <time>2014-08-15T12:06:59Z</time>
      </trkpt>
      <trkpt lat="44.09198" lon="1.95377">
        <ele>244</ele>
        <time>2014-08-15T12:07:01Z</time>
      </trkpt>
      <trkpt lat="44.09209" lon="1.95386">
        <ele>243</ele>
        <time>2014-08-15T12:07:04Z</time>
      </trkpt>
      <trkpt lat="44.09216" lon="1.95391">
        <ele>243</ele>
        <time>2014-08-15T12:07:06Z</time>
      </trkpt>
      <trkpt lat="44.09227" lon="1.95398">
        <ele>243</ele>
        <time>2014-08-15T12:07:09Z</time>
      </trkpt>
      <trkpt lat="44.09235" lon="1.95403">
        <ele>243</ele>
        <time>2014-08-15T12:07:11Z</time>
      </trkpt>
      <trkpt lat="44.09245" lon="1.95407">
        <ele>243</ele>
        <time>2014-08-15T12:07:13Z</time>
      </trkpt>
      <trkpt lat="44.09259" lon="1.95415">
        <ele>242</ele>
        <time>2014-08-15T12:07:16Z</time>
      </trkpt>
      <trkpt lat="44.09269" lon="1.95422">
        <ele>242</ele>
        <time>2014-08-15T12:07:18Z</time>
      </trkpt>
      <trkpt lat="44.09282" lon="1.95432">
        <ele>241</ele>
        <time>2014-08-15T12:07:21Z</time>
      </trkpt>
      <trkpt lat="44.0929" lon="1.95438">
        <ele>241</ele>
        <time>2014-08-15T12:07:23Z</time>
      </trkpt>
      <trkpt lat="44.09302" lon="1.95449">
        <ele>241</ele>
        <time>2014-08-15T12:07:26Z</time>
      </trkpt>
      <trkpt lat="44.09308" lon="1.95456">
        <ele>241</ele>
        <time>2014-08-15T12:07:28Z</time>
      </trkpt>
      <trkpt lat="44.09317" lon="1.95467">
        <ele>241</ele>
        <time>2014-08-15T12:07:31Z</time>
      </trkpt>
      <trkpt lat="44.09322" lon="1.95475">
        <ele>240</ele>
        <time>2014-08-15T12:07:33Z</time>
      </trkpt>
      <trkpt lat="44.0933" lon="1.95485">
        <ele>240</ele>
        <time>2014-08-15T12:07:36Z</time>
      </trkpt>
      <trkpt lat="44.09335" lon="1.95492">
        <ele>240</ele>
        <time>2014-08-15T12:07:38Z</time>
      </trkpt>
      <trkpt lat="44.09343" lon="1.955">
        <ele>240</ele>
        <time>2014-08-15T12:07:41Z</time>
      </trkpt>
      <trkpt lat="44.09346" lon="1.955">
        <ele>240</ele>
        <time>2014-08-15T12:07:43Z</time>
      </trkpt>
      <trkpt lat="44.09347" lon="1.95501">
        <ele>240</ele>
        <time>2014-08-15T12:07:46Z</time>
      </trkpt>
      <trkpt lat="44.09348" lon="1.95501">
        <ele>240</ele>
        <time>2014-08-15T12:07:49Z</time>
      </trkpt>
      <trkpt lat="44.09348" lon="1.95501">
        <ele>240</ele>
        <time>2014-08-15T12:07:51Z</time>
      </trkpt>
      <trkpt lat="44.09349" lon="1.95501">
        <ele>240</ele>
        <time>2014-08-15T12:07:54Z</time>
      </trkpt>
      <trkpt lat="44.09349" lon="1.95501">
        <ele>240</ele>
        <time>2014-08-15T12:07:56Z</time>
      </trkpt>
      <trkpt lat="44.09351" lon="1.95503">
        <ele>240</ele>
        <time>2014-08-15T12:07:58Z</time>
      </trkpt>
      <trkpt lat="44.09355" lon="1.95508">
        <ele>240</ele>
        <time>2014-08-15T12:08:01Z</time>
      </trkpt>
      <trkpt lat="44.09364" lon="1.95514">
        <ele>240</ele>
        <time>2014-08-15T12:08:04Z</time>
      </trkpt>
      <trkpt lat="44.09371" lon="1.95519">
        <ele>240</ele>
        <time>2014-08-15T12:08:06Z</time>
      </trkpt>
      <trkpt lat="44.09382" lon="1.95529">
        <ele>239</ele>
        <time>2014-08-15T12:08:09Z</time>
      </trkpt>
      <trkpt lat="44.09392" lon="1.95538">
        <ele>239</ele>
        <time>2014-08-15T12:08:12Z</time>
      </trkpt>
      <trkpt lat="44.09402" lon="1.95546">
        <ele>239</ele>
        <time>2014-08-15T12:08:15Z</time>
      </trkpt>
      <trkpt lat="44.09412" lon="1.95555">
        <ele>239</ele>
        <time>2014-08-15T12:08:18Z</time>
      </trkpt>
      <trkpt lat="44.09423" lon="1.95566">
        <ele>239</ele>
        <time>2014-08-15T12:08:21Z</time>
      </trkpt>
      <trkpt lat="44.09435" lon="1.95579">
        <ele>239</ele>
        <time>2014-08-15T12:08:24Z</time>
      </trkpt>
      <trkpt lat="44.09443" lon="1.95588">
        <ele>239</ele>
        <time>2014-08-15T12:08:26Z</time>
      </trkpt>
      <trkpt lat="44.09455" lon="1.95604">
        <ele>239</ele>
        <time>2014-08-15T12:08:29Z</time>
      </trkpt>
      <trkpt lat="44.09465" lon="1.95621">
        <ele>240</ele>
        <time>2014-08-15T12:08:32Z</time>
      </trkpt>
      <trkpt lat="44.0947" lon="1.95632">
        <ele>240</ele>
        <time>2014-08-15T12:08:34Z</time>
      </trkpt>
      <trkpt lat="44.09478" lon="1.95648">
        <ele>240</ele>
        <time>2014-08-15T12:08:37Z</time>
      </trkpt>
      <trkpt lat="44.09483" lon="1.95657">
        <ele>240</ele>
        <time>2014-08-15T12:08:39Z</time>
      </trkpt>
      <trkpt lat="44.09489" lon="1.95671">
        <ele>241</ele>
        <time>2014-08-15T12:08:42Z</time>
      </trkpt>
      <trkpt lat="44.09496" lon="1.95684">
        <ele>241</ele>
        <time>2014-08-15T12:08:45Z</time>
      </trkpt>
      <trkpt lat="44.09502" lon="1.95697">
        <ele>242</ele>
        <time>2014-08-15T12:08:48Z</time>
      </trkpt>
      <trkpt lat="44.09507" lon="1.95709">
        <ele>242</ele>
        <time>2014-08-15T12:08:51Z</time>
      </trkpt>
      <trkpt lat="44.0951" lon="1.95716">
        <ele>242</ele>
        <time>2014-08-15T12:08:53Z</time>
      </trkpt>
      <trkpt lat="44.09514" lon="1.95721">
        <ele>243</ele>
        <time>2014-08-15T12:08:55Z</time>
      </trkpt>
      <trkpt lat="44.09518" lon="1.9573">
        <ele>243</ele>
        <time>2014-08-15T12:08:58Z</time>
      </trkpt>
      <trkpt lat="44.09521" lon="1.95742">
        <ele>244</ele>
        <time>2014-08-15T12:09:01Z</time>
      </trkpt>
      <trkpt lat="44.09524" lon="1.9575">
        <ele>244</ele>
        <time>2014-08-15T12:09:03Z</time>
      </trkpt>
      <trkpt lat="44.09528" lon="1.95765">
        <ele>244</ele>
        <time>2014-08-15T12:09:06Z</time>
      </trkpt>
      <trkpt lat="44.09532" lon="1.95781">
        <ele>244</ele>
        <time>2014-08-15T12:09:09Z</time>
      </trkpt>
      <trkpt lat="44.09536" lon="1.95799">
        <ele>245</ele>
        <time>2014-08-15T12:09:12Z</time>
      </trkpt>
      <trkpt lat="44.0954" lon="1.9581">
        <ele>244</ele>
        <time>2014-08-15T12:09:14Z</time>
      </trkpt>
      <trkpt lat="44.09545" lon="1.95827">
        <ele>244</ele>
        <time>2014-08-15T12:09:17Z</time>
      </trkpt>
      <trkpt lat="44.0955" lon="1.95843">
        <ele>244</ele>
        <time>2014-08-15T12:09:20Z</time>
      </trkpt>
      <trkpt lat="44.09555" lon="1.95859">
        <ele>245</ele>
        <time>2014-08-15T12:09:23Z</time>
      </trkpt>
      <trkpt lat="44.0956" lon="1.95875">
        <ele>245</ele>
        <time>2014-08-15T12:09:26Z</time>
      </trkpt>
      <trkpt lat="44.09563" lon="1.95886">
        <ele>245</ele>
        <time>2014-08-15T12:09:28Z</time>
      </trkpt>
      <trkpt lat="44.09568" lon="1.95902">
        <ele>245</ele>
        <time>2014-08-15T12:09:31Z</time>
      </trkpt>
      <trkpt lat="44.09573" lon="1.95917">
        <ele>245</ele>
        <time>2014-08-15T12:09:34Z</time>
      </trkpt>
      <trkpt lat="44.09579" lon="1.95932">
        <ele>245</ele>
        <time>2014-08-15T12:09:37Z</time>
      </trkpt>
      <trkpt lat="44.09584" lon="1.95948">
        <ele>245</ele>
        <time>2014-08-15T12:09:40Z</time>
      </trkpt>
      <trkpt lat="44.09586" lon="1.95964">
        <ele>245</ele>
        <time>2014-08-15T12:09:43Z</time>
      </trkpt>
      <trkpt lat="44.09588" lon="1.95976">
        <ele>245</ele>
        <time>2014-08-15T12:09:45Z</time>
      </trkpt>
      <trkpt lat="44.09587" lon="1.95994">
        <ele>246</ele>
        <time>2014-08-15T12:09:48Z</time>
      </trkpt>
      <trkpt lat="44.09585" lon="1.96014">
        <ele>246</ele>
        <time>2014-08-15T12:09:51Z</time>
      </trkpt>
      <trkpt lat="44.09583" lon="1.96027">
        <ele>246</ele>
        <time>2014-08-15T12:09:53Z</time>
      </trkpt>
      <trkpt lat="44.09582" lon="1.96041">
        <ele>246</ele>
        <time>2014-08-15T12:09:55Z</time>
      </trkpt>
      <trkpt lat="44.09583" lon="1.96062">
        <ele>246</ele>
        <time>2014-08-15T12:09:58Z</time>
      </trkpt>
      <trkpt lat="44.09586" lon="1.96084">
        <ele>245</ele>
        <time>2014-08-15T12:10:01Z</time>
      </trkpt>
      <trkpt lat="44.09592" lon="1.96106">
        <ele>245</ele>
        <time>2014-08-15T12:10:04Z</time>
      </trkpt>
      <trkpt lat="44.09597" lon="1.96122">
        <ele>245</ele>
        <time>2014-08-15T12:10:06Z</time>
      </trkpt>
      <trkpt lat="44.09602" lon="1.96138">
        <ele>245</ele>
        <time>2014-08-15T12:10:08Z</time>
      </trkpt>
      <trkpt lat="44.09607" lon="1.96162">
        <ele>245</ele>
        <time>2014-08-15T12:10:11Z</time>
      </trkpt>
      <trkpt lat="44.09613" lon="1.96186">
        <ele>245</ele>
        <time>2014-08-15T12:10:14Z</time>
      </trkpt>
      <trkpt lat="44.09615" lon="1.96203">
        <ele>245</ele>
        <time>2014-08-15T12:10:16Z</time>
      </trkpt>
      <trkpt lat="44.09618" lon="1.96227">
        <ele>244</ele>
        <time>2014-08-15T12:10:19Z</time>
      </trkpt>
      <trkpt lat="44.09621" lon="1.96251">
        <ele>244</ele>
        <time>2014-08-15T12:10:22Z</time>
      </trkpt>
      <trkpt lat="44.09626" lon="1.96276">
        <ele>244</ele>
        <time>2014-08-15T12:10:25Z</time>
      </trkpt>
      <trkpt lat="44.09629" lon="1.96292">
        <ele>244</ele>
        <time>2014-08-15T12:10:27Z</time>
      </trkpt>
      <trkpt lat="44.09636" lon="1.96315">
        <ele>244</ele>
        <time>2014-08-15T12:10:30Z</time>
      </trkpt>
      <trkpt lat="44.09641" lon="1.96329">
        <ele>245</ele>
        <time>2014-08-15T12:10:32Z</time>
      </trkpt>
      <trkpt lat="44.09648" lon="1.96351">
        <ele>245</ele>
        <time>2014-08-15T12:10:35Z</time>
      </trkpt>
      <trkpt lat="44.09655" lon="1.96371">
        <ele>245</ele>
        <time>2014-08-15T12:10:38Z</time>
      </trkpt>
      <trkpt lat="44.09659" lon="1.96384">
        <ele>246</ele>
        <time>2014-08-15T12:10:40Z</time>
      </trkpt>
      <trkpt lat="44.09664" lon="1.96402">
        <ele>246</ele>
        <time>2014-08-15T12:10:43Z</time>
      </trkpt>
      <trkpt lat="44.09669" lon="1.96414">
        <ele>246</ele>
        <time>2014-08-15T12:10:46Z</time>
      </trkpt>
      <trkpt lat="44.0967" lon="1.96419">
        <ele>246</ele>
        <time>2014-08-15T12:10:49Z</time>
      </trkpt>
      <trkpt lat="44.09673" lon="1.96422">
        <ele>246</ele>
        <time>2014-08-15T12:10:52Z</time>
      </trkpt>
      <trkpt lat="44.09673" lon="1.96422">
        <ele>245</ele>
        <time>2014-08-15T12:10:54Z</time>
      </trkpt>
      <trkpt lat="44.09673" lon="1.96421">
        <ele>245</ele>
        <time>2014-08-15T12:10:56Z</time>
      </trkpt>
      <trkpt lat="44.09671" lon="1.96417">
        <ele>246</ele>
        <time>2014-08-15T12:10:59Z</time>
      </trkpt>
      <trkpt lat="44.09672" lon="1.96411">
        <ele>246</ele>
        <time>2014-08-15T12:11:02Z</time>
      </trkpt>
      <trkpt lat="44.09679" lon="1.96403">
        <ele>246</ele>
        <time>2014-08-15T12:11:05Z</time>
      </trkpt>
      <trkpt lat="44.09683" lon="1.96397">
        <ele>246</ele>
        <time>2014-08-15T12:11:07Z</time>
      </trkpt>
      <trkpt lat="44.09689" lon="1.96391">
        <ele>246</ele>
        <time>2014-08-15T12:11:09Z</time>
      </trkpt>
      <trkpt lat="44.09697" lon="1.96381">
        <ele>246</ele>
        <time>2014-08-15T12:11:12Z</time>
      </trkpt>
      <trkpt lat="44.09705" lon="1.96368">
        <ele>246</ele>
        <time>2014-08-15T12:11:15Z</time>
      </trkpt>
      <trkpt lat="44.09713" lon="1.96355">
        <ele>246</ele>
        <time>2014-08-15T12:11:18Z</time>
      </trkpt>
      <trkpt lat="44.09719" lon="1.96345">
        <ele>246</ele>
        <time>2014-08-15T12:11:20Z</time>
      </trkpt>
      <trkpt lat="44.09726" lon="1.96336">
        <ele>245</ele>
        <time>2014-08-15T12:11:22Z</time>
      </trkpt>
      <trkpt lat="44.09738" lon="1.96326">
        <ele>244</ele>
        <time>2014-08-15T12:11:25Z</time>
      </trkpt>
      <trkpt lat="44.09749" lon="1.96318">
        <ele>244</ele>
        <time>2014-08-15T12:11:27Z</time>
      </trkpt>
      <trkpt lat="44.09766" lon="1.96302">
        <ele>242</ele>
        <time>2014-08-15T12:11:30Z</time>
      </trkpt>
      <trkpt lat="44.09778" lon="1.96288">
        <ele>240</ele>
        <time>2014-08-15T12:11:32Z</time>
      </trkpt>
      <trkpt lat="44.09797" lon="1.96274">
        <ele>236</ele>
        <time>2014-08-15T12:11:35Z</time>
      </trkpt>
      <trkpt lat="44.0981" lon="1.96271">
        <ele>233</ele>
        <time>2014-08-15T12:11:37Z</time>
      </trkpt>
      <trkpt lat="44.09824" lon="1.96274">
        <ele>229</ele>
        <time>2014-08-15T12:11:40Z</time>
      </trkpt>
      <trkpt lat="44.09833" lon="1.96275">
        <ele>227</ele>
        <time>2014-08-15T12:11:42Z</time>
      </trkpt>
      <trkpt lat="44.0984" lon="1.96276">
        <ele>224</ele>
        <time>2014-08-15T12:11:44Z</time>
      </trkpt>
      <trkpt lat="44.09852" lon="1.9628">
        <ele>221</ele>
        <time>2014-08-15T12:11:47Z</time>
      </trkpt>
      <trkpt lat="44.09859" lon="1.96282">
        <ele>219</ele>
        <time>2014-08-15T12:11:49Z</time>
      </trkpt>
      <trkpt lat="44.09869" lon="1.96283">
        <ele>217</ele>
        <time>2014-08-15T12:11:52Z</time>
      </trkpt>
      <trkpt lat="44.09882" lon="1.96275">
        <ele>214</ele>
        <time>2014-08-15T12:11:55Z</time>
      </trkpt>
      <trkpt lat="44.09892" lon="1.9627">
        <ele>211</ele>
        <time>2014-08-15T12:11:58Z</time>
      </trkpt>
      <trkpt lat="44.09906" lon="1.96262">
        <ele>208</ele>
        <time>2014-08-15T12:12:01Z</time>
      </trkpt>
      <trkpt lat="44.09915" lon="1.96252">
        <ele>206</ele>
        <time>2014-08-15T12:12:03Z</time>
      </trkpt>
      <trkpt lat="44.0993" lon="1.9623">
        <ele>205</ele>
        <time>2014-08-15T12:12:06Z</time>
      </trkpt>
      <trkpt lat="44.09946" lon="1.96207">
        <ele>203</ele>
        <time>2014-08-15T12:12:09Z</time>
      </trkpt>
      <trkpt lat="44.09961" lon="1.96184">
        <ele>202</ele>
        <time>2014-08-15T12:12:12Z</time>
      </trkpt>
      <trkpt lat="44.09973" lon="1.96172">
        <ele>200</ele>
        <time>2014-08-15T12:12:14Z</time>
      </trkpt>
      <trkpt lat="44.09992" lon="1.96158">
        <ele>199</ele>
        <time>2014-08-15T12:12:17Z</time>
      </trkpt>
      <trkpt lat="44.10005" lon="1.96147">
        <ele>197</ele>
        <time>2014-08-15T12:12:19Z</time>
      </trkpt>
      <trkpt lat="44.10024" lon="1.96128">
        <ele>195</ele>
        <time>2014-08-15T12:12:22Z</time>
      </trkpt>
      <trkpt lat="44.10035" lon="1.96119">
        <ele>194</ele>
        <time>2014-08-15T12:12:24Z</time>
      </trkpt>
      <trkpt lat="44.10046" lon="1.96112">
        <ele>193</ele>
        <time>2014-08-15T12:12:26Z</time>
      </trkpt>
      <trkpt lat="44.10061" lon="1.96107">
        <ele>192</ele>
        <time>2014-08-15T12:12:29Z</time>
      </trkpt>
      <trkpt lat="44.10073" lon="1.96108">
        <ele>191</ele>
        <time>2014-08-15T12:12:31Z</time>
      </trkpt>
      <trkpt lat="44.10094" lon="1.96112">
        <ele>190</ele>
        <time>2014-08-15T12:12:34Z</time>
      </trkpt>
      <trkpt lat="44.10109" lon="1.96115">
        <ele>189</ele>
        <time>2014-08-15T12:12:36Z</time>
      </trkpt>
      <trkpt lat="44.10122" lon="1.96118">
        <ele>187</ele>
        <time>2014-08-15T12:12:38Z</time>
      </trkpt>
      <trkpt lat="44.10136" lon="1.96123">
        <ele>186</ele>
        <time>2014-08-15T12:12:41Z</time>
      </trkpt>
      <trkpt lat="44.10148" lon="1.96125">
        <ele>184</ele>
        <time>2014-08-15T12:12:44Z</time>
      </trkpt>
      <trkpt lat="44.1016" lon="1.96126">
        <ele>184</ele>
        <time>2014-08-15T12:12:47Z</time>
      </trkpt>
      <trkpt lat="44.1017" lon="1.96123">
        <ele>183</ele>
        <time>2014-08-15T12:12:50Z</time>
      </trkpt>
      <trkpt lat="44.10182" lon="1.96119">
        <ele>182</ele>
        <time>2014-08-15T12:12:53Z</time>
      </trkpt>
      <trkpt lat="44.10199" lon="1.96112">
        <ele>181</ele>
        <time>2014-08-15T12:12:56Z</time>
      </trkpt>
      <trkpt lat="44.10212" lon="1.96104">
        <ele>180</ele>
        <time>2014-08-15T12:12:58Z</time>
      </trkpt>
      <trkpt lat="44.10226" lon="1.96096">
        <ele>178</ele>
        <time>2014-08-15T12:13:00Z</time>
      </trkpt>
      <trkpt lat="44.10236" lon="1.96092">
        <ele>177</ele>
        <time>2014-08-15T12:13:02Z</time>
      </trkpt>
      <trkpt lat="44.10255" lon="1.96093">
        <ele>175</ele>
        <time>2014-08-15T12:13:05Z</time>
      </trkpt>
      <trkpt lat="44.10267" lon="1.96097">
        <ele>173</ele>
        <time>2014-08-15T12:13:08Z</time>
      </trkpt>
      <trkpt lat="44.10272" lon="1.96097">
        <ele>172</ele>
        <time>2014-08-15T12:13:10Z</time>
      </trkpt>
      <trkpt lat="44.10275" lon="1.96092">
        <ele>170</ele>
        <time>2014-08-15T12:13:13Z</time>
      </trkpt>
      <trkpt lat="44.10276" lon="1.96091">
        <ele>170</ele>
        <time>2014-08-15T12:13:15Z</time>
      </trkpt>
      <trkpt lat="44.10278" lon="1.96091">
        <ele>169</ele>
        <time>2014-08-15T12:13:18Z</time>
      </trkpt>
      <trkpt lat="44.10286" lon="1.96079">
        <ele>169</ele>
        <time>2014-08-15T12:13:21Z</time>
      </trkpt>
      <trkpt lat="44.10287" lon="1.96078">
        <ele>169</ele>
        <time>2014-08-15T12:13:24Z</time>
      </trkpt>
      <trkpt lat="44.10287" lon="1.96074">
        <ele>169</ele>
        <time>2014-08-15T12:13:26Z</time>
      </trkpt>
      <trkpt lat="44.10287" lon="1.96063">
        <ele>169</ele>
        <time>2014-08-15T12:13:29Z</time>
      </trkpt>
      <trkpt lat="44.10289" lon="1.96054">
        <ele>169</ele>
        <time>2014-08-15T12:13:31Z</time>
      </trkpt>
      <trkpt lat="44.10294" lon="1.9604">
        <ele>170</ele>
        <time>2014-08-15T12:13:34Z</time>
      </trkpt>
      <trkpt lat="44.10302" lon="1.96032">
        <ele>169</ele>
        <time>2014-08-15T12:13:37Z</time>
      </trkpt>
      <trkpt lat="44.10309" lon="1.96031">
        <ele>170</ele>
        <time>2014-08-15T12:13:39Z</time>
      </trkpt>
      <trkpt lat="44.10316" lon="1.9603">
        <ele>170</ele>
        <time>2014-08-15T12:13:41Z</time>
      </trkpt>
      <trkpt lat="44.10328" lon="1.96029">
        <ele>170</ele>
        <time>2014-08-15T12:13:44Z</time>
      </trkpt>
      <trkpt lat="44.1034" lon="1.96026">
        <ele>170</ele>
        <time>2014-08-15T12:13:47Z</time>
      </trkpt>
      <trkpt lat="44.10348" lon="1.96023">
        <ele>170</ele>
        <time>2014-08-15T12:13:49Z</time>
      </trkpt>
      <trkpt lat="44.10361" lon="1.96016">
        <ele>170</ele>
        <time>2014-08-15T12:13:52Z</time>
      </trkpt>
      <trkpt lat="44.10373" lon="1.96007">
        <ele>171</ele>
        <time>2014-08-15T12:13:55Z</time>
      </trkpt>
      <trkpt lat="44.10381" lon="1.96">
        <ele>171</ele>
        <time>2014-08-15T12:13:57Z</time>
      </trkpt>
      <trkpt lat="44.10394" lon="1.95988">
        <ele>171</ele>
        <time>2014-08-15T12:14:00Z</time>
      </trkpt>
      <trkpt lat="44.10406" lon="1.95976">
        <ele>172</ele>
        <time>2014-08-15T12:14:03Z</time>
      </trkpt>
      <trkpt lat="44.10417" lon="1.95966">
        <ele>172</ele>
        <time>2014-08-15T12:14:06Z</time>
      </trkpt>
      <trkpt lat="44.10426" lon="1.95957">
        <ele>173</ele>
        <time>2014-08-15T12:14:09Z</time>
      </trkpt>
      <trkpt lat="44.10432" lon="1.95949">
        <ele>174</ele>
        <time>2014-08-15T12:14:12Z</time>
      </trkpt>
      <trkpt lat="44.10439" lon="1.95941">
        <ele>174</ele>
        <time>2014-08-15T12:14:15Z</time>
      </trkpt>
      <trkpt lat="44.10444" lon="1.95936">
        <ele>175</ele>
        <time>2014-08-15T12:14:17Z</time>
      </trkpt>
      <trkpt lat="44.10451" lon="1.95929">
        <ele>176</ele>
        <time>2014-08-15T12:14:20Z</time>
      </trkpt>
      <trkpt lat="44.10456" lon="1.95923">
        <ele>176</ele>
        <time>2014-08-15T12:14:22Z</time>
      </trkpt>
      <trkpt lat="44.10463" lon="1.95915">
        <ele>177</ele>
        <time>2014-08-15T12:14:25Z</time>
      </trkpt>
      <trkpt lat="44.10469" lon="1.95909">
        <ele>177</ele>
        <time>2014-08-15T12:14:28Z</time>
      </trkpt>
      <trkpt lat="44.10475" lon="1.95903">
        <ele>178</ele>
        <time>2014-08-15T12:14:31Z</time>
      </trkpt>
      <trkpt lat="44.10482" lon="1.95897">
        <ele>178</ele>
        <time>2014-08-15T12:14:34Z</time>
      </trkpt>
      <trkpt lat="44.10487" lon="1.9589">
        <ele>179</ele>
        <time>2014-08-15T12:14:37Z</time>
      </trkpt>
      <trkpt lat="44.10489" lon="1.95885">
        <ele>179</ele>
        <time>2014-08-15T12:14:39Z</time>
      </trkpt>
      <trkpt lat="44.10486" lon="1.95888">
        <ele>179</ele>
        <time>2014-08-15T12:14:42Z</time>
      </trkpt>
      <trkpt lat="44.10482" lon="1.95895">
        <ele>179</ele>
        <time>2014-08-15T12:14:44Z</time>
      </trkpt>
      <trkpt lat="44.10472" lon="1.95904">
        <ele>179</ele>
        <time>2014-08-15T12:14:47Z</time>
      </trkpt>
      <trkpt lat="44.10465" lon="1.95909">
        <ele>178</ele>
        <time>2014-08-15T12:14:50Z</time>
      </trkpt>
      <trkpt lat="44.10463" lon="1.9591">
        <ele>178</ele>
        <time>2014-08-15T12:14:52Z</time>
      </trkpt>
      <trkpt lat="44.10462" lon="1.95911">
        <ele>177</ele>
        <time>2014-08-15T12:14:54Z</time>
      </trkpt>
      <trkpt lat="44.10464" lon="1.95912">
        <ele>177</ele>
        <time>2014-08-15T12:14:57Z</time>
      </trkpt>
      <trkpt lat="44.10468" lon="1.9592">
        <ele>177</ele>
        <time>2014-08-15T12:15:00Z</time>
      </trkpt>
      <trkpt lat="44.10473" lon="1.95927">
        <ele>176</ele>
        <time>2014-08-15T12:15:02Z</time>
      </trkpt>
      <trkpt lat="44.1048" lon="1.95936">
        <ele>175</ele>
        <time>2014-08-15T12:15:05Z</time>
      </trkpt>
      <trkpt lat="44.10483" lon="1.95937">
        <ele>174</ele>
        <time>2014-08-15T12:15:07Z</time>
      </trkpt>
      <trkpt lat="44.10483" lon="1.95937">
        <ele>173</ele>
        <time>2014-08-15T12:15:11Z</time>
      </trkpt>
      <trkpt lat="44.10488" lon="1.9593">
        <ele>173</ele>
        <time>2014-08-15T12:15:14Z</time>
      </trkpt>
      <trkpt lat="44.10487" lon="1.95931">
        <ele>173</ele>
        <time>2014-08-15T12:15:16Z</time>
      </trkpt>
      <trkpt lat="44.10489" lon="1.95933">
        <ele>173</ele>
        <time>2014-08-15T12:15:19Z</time>
      </trkpt>
      <trkpt lat="44.10497" lon="1.95937">
        <ele>173</ele>
        <time>2014-08-15T12:15:22Z</time>
      </trkpt>
      <trkpt lat="44.10511" lon="1.95941">
        <ele>172</ele>
        <time>2014-08-15T12:15:25Z</time>
      </trkpt>
      <trkpt lat="44.10522" lon="1.95945">
        <ele>172</ele>
        <time>2014-08-15T12:15:27Z</time>
      </trkpt>
      <trkpt lat="44.1054" lon="1.95956">
        <ele>171</ele>
        <time>2014-08-15T12:15:30Z</time>
      </trkpt>
      <trkpt lat="44.10553" lon="1.95969">
        <ele>170</ele>
        <time>2014-08-15T12:15:32Z</time>
      </trkpt>
      <trkpt lat="44.10574" lon="1.95986">
        <ele>168</ele>
        <time>2014-08-15T12:15:35Z</time>
      </trkpt>
      <trkpt lat="44.10595" lon="1.96002">
        <ele>167</ele>
        <time>2014-08-15T12:15:38Z</time>
      </trkpt>
      <trkpt lat="44.10616" lon="1.96019">
        <ele>165</ele>
        <time>2014-08-15T12:15:41Z</time>
      </trkpt>
      <trkpt lat="44.10638" lon="1.9604">
        <ele>164</ele>
        <time>2014-08-15T12:15:44Z</time>
      </trkpt>
      <trkpt lat="44.10654" lon="1.96055">
        <ele>163</ele>
        <time>2014-08-15T12:15:46Z</time>
      </trkpt>
      <trkpt lat="44.10669" lon="1.96068">
        <ele>161</ele>
        <time>2014-08-15T12:15:48Z</time>
      </trkpt>
      <trkpt lat="44.10683" lon="1.96086">
        <ele>157</ele>
        <time>2014-08-15T12:15:51Z</time>
      </trkpt>
      <trkpt lat="44.1069" lon="1.96109">
        <ele>155</ele>
        <time>2014-08-15T12:15:54Z</time>
      </trkpt>
      <trkpt lat="44.10696" lon="1.96123">
        <ele>153</ele>
        <time>2014-08-15T12:15:57Z</time>
      </trkpt>
      <trkpt lat="44.10699" lon="1.96129">
        <ele>153</ele>
        <time>2014-08-15T12:15:59Z</time>
      </trkpt>
      <trkpt lat="44.10703" lon="1.96137">
        <ele>152</ele>
        <time>2014-08-15T12:16:02Z</time>
      </trkpt>
      <trkpt lat="44.10708" lon="1.96144">
        <ele>152</ele>
        <time>2014-08-15T12:16:05Z</time>
      </trkpt>
      <trkpt lat="44.10712" lon="1.96151">
        <ele>152</ele>
        <time>2014-08-15T12:16:07Z</time>
      </trkpt>
      <trkpt lat="44.1072" lon="1.9616">
        <ele>153</ele>
        <time>2014-08-15T12:16:10Z</time>
      </trkpt>
      <trkpt lat="44.10725" lon="1.96166">
        <ele>154</ele>
        <time>2014-08-15T12:16:12Z</time>
      </trkpt>
      <trkpt lat="44.10733" lon="1.96175">
        <ele>156</ele>
        <time>2014-08-15T12:16:15Z</time>
      </trkpt>
      <trkpt lat="44.10738" lon="1.96183">
        <ele>158</ele>
        <time>2014-08-15T12:16:18Z</time>
      </trkpt>
      <trkpt lat="44.10745" lon="1.96189">
        <ele>159</ele>
        <time>2014-08-15T12:16:21Z</time>
      </trkpt>
      <trkpt lat="44.1075" lon="1.96195">
        <ele>161</ele>
        <time>2014-08-15T12:16:24Z</time>
      </trkpt>
      <trkpt lat="44.10754" lon="1.96198">
        <ele>162</ele>
        <time>2014-08-15T12:16:26Z</time>
      </trkpt>
      <trkpt lat="44.1076" lon="1.96204">
        <ele>163</ele>
        <time>2014-08-15T12:16:29Z</time>
      </trkpt>
      <trkpt lat="44.10763" lon="1.96207">
        <ele>164</ele>
        <time>2014-08-15T12:16:31Z</time>
      </trkpt>
      <trkpt lat="44.10766" lon="1.9621">
        <ele>164</ele>
        <time>2014-08-15T12:16:33Z</time>
      </trkpt>
      <trkpt lat="44.1077" lon="1.96214">
        <ele>165</ele>
        <time>2014-08-15T12:16:36Z</time>
      </trkpt>
      <trkpt lat="44.10775" lon="1.96219">
        <ele>167</ele>
        <time>2014-08-15T12:16:39Z</time>
      </trkpt>
      <trkpt lat="44.1078" lon="1.96224">
        <ele>168</ele>
        <time>2014-08-15T12:16:42Z</time>
      </trkpt>
      <trkpt lat="44.10785" lon="1.96229">
        <ele>169</ele>
        <time>2014-08-15T12:16:45Z</time>
      </trkpt>
      <trkpt lat="44.10789" lon="1.96235">
        <ele>170</ele>
        <time>2014-08-15T12:16:48Z</time>
      </trkpt>
      <trkpt lat="44.10793" lon="1.96238">
        <ele>171</ele>
        <time>2014-08-15T12:16:50Z</time>
      </trkpt>
      <trkpt lat="44.10796" lon="1.96241">
        <ele>172</ele>
        <time>2014-08-15T12:16:52Z</time>
      </trkpt>
      <trkpt lat="44.10801" lon="1.96245">
        <ele>173</ele>
        <time>2014-08-15T12:16:55Z</time>
      </trkpt>
      <trkpt lat="44.10806" lon="1.9625">
        <ele>174</ele>
        <time>2014-08-15T12:16:58Z</time>
      </trkpt>
      <trkpt lat="44.1081" lon="1.96255">
        <ele>175</ele>
        <time>2014-08-15T12:17:01Z</time>
      </trkpt>
      <trkpt lat="44.10814" lon="1.96258">
        <ele>176</ele>
        <time>2014-08-15T12:17:03Z</time>
      </trkpt>
      <trkpt lat="44.10817" lon="1.96261">
        <ele>176</ele>
        <time>2014-08-15T12:17:05Z</time>
      </trkpt>
      <trkpt lat="44.10821" lon="1.96266">
        <ele>177</ele>
        <time>2014-08-15T12:17:08Z</time>
      </trkpt>
      <trkpt lat="44.10824" lon="1.96269">
        <ele>178</ele>
        <time>2014-08-15T12:17:10Z</time>
      </trkpt>
      <trkpt lat="44.10828" lon="1.96273">
        <ele>179</ele>
        <time>2014-08-15T12:17:12Z</time>
      </trkpt>
      <trkpt lat="44.10831" lon="1.96276">
        <ele>179</ele>
        <time>2014-08-15T12:17:14Z</time>
      </trkpt>
      <trkpt lat="44.10835" lon="1.96282">
        <ele>180</ele>
        <time>2014-08-15T12:17:17Z</time>
      </trkpt>
      <trkpt lat="44.10839" lon="1.96287">
        <ele>181</ele>
        <time>2014-08-15T12:17:20Z</time>
      </trkpt>
      <trkpt lat="44.10842" lon="1.9629">
        <ele>181</ele>
        <time>2014-08-15T12:17:22Z</time>
      </trkpt>
      <trkpt lat="44.10846" lon="1.96296">
        <ele>182</ele>
        <time>2014-08-15T12:17:25Z</time>
      </trkpt>
      <trkpt lat="44.10849" lon="1.963">
        <ele>183</ele>
        <time>2014-08-15T12:17:27Z</time>
      </trkpt>
      <trkpt lat="44.10854" lon="1.96306">
        <ele>183</ele>
        <time>2014-08-15T12:17:30Z</time>
      </trkpt>
      <trkpt lat="44.10856" lon="1.96309">
        <ele>183</ele>
        <time>2014-08-15T12:17:32Z</time>
      </trkpt>
      <trkpt lat="44.10858" lon="1.96312">
        <ele>184</ele>
        <time>2014-08-15T12:17:34Z</time>
      </trkpt>
      <trkpt lat="44.10859" lon="1.96313">
        <ele>184</ele>
        <time>2014-08-15T12:17:37Z</time>
      </trkpt>
      <trkpt lat="44.10873" lon="1.96326">
        <ele>183</ele>
        <time>2014-08-15T12:17:40Z</time>
      </trkpt>
      <trkpt lat="44.10877" lon="1.96332">
        <ele>183</ele>
        <time>2014-08-15T12:17:43Z</time>
      </trkpt>
      <trkpt lat="44.1088" lon="1.96336">
        <ele>183</ele>
        <time>2014-08-15T12:17:45Z</time>
      </trkpt>
      <trkpt lat="44.10886" lon="1.96344">
        <ele>184</ele>
        <time>2014-08-15T12:17:48Z</time>
      </trkpt>
      <trkpt lat="44.10891" lon="1.96352">
        <ele>184</ele>
        <time>2014-08-15T12:17:51Z</time>
      </trkpt>
      <trkpt lat="44.10896" lon="1.9636">
        <ele>184</ele>
        <time>2014-08-15T12:17:54Z</time>
      </trkpt>
      <trkpt lat="44.109" lon="1.96365">
        <ele>184</ele>
        <time>2014-08-15T12:17:56Z</time>
      </trkpt>
      <trkpt lat="44.10904" lon="1.96371">
        <ele>185</ele>
        <time>2014-08-15T12:17:58Z</time>
      </trkpt>
      <trkpt lat="44.1091" lon="1.9638">
        <ele>185</ele>
        <time>2014-08-15T12:18:01Z</time>
      </trkpt>
      <trkpt lat="44.10916" lon="1.96389">
        <ele>185</ele>
        <time>2014-08-15T12:18:04Z</time>
      </trkpt>
      <trkpt lat="44.10923" lon="1.96398">
        <ele>185</ele>
        <time>2014-08-15T12:18:07Z</time>
      </trkpt>
      <trkpt lat="44.10928" lon="1.96408">
        <ele>186</ele>
        <time>2014-08-15T12:18:10Z</time>
      </trkpt>
      <trkpt lat="44.10934" lon="1.96418">
        <ele>186</ele>
        <time>2014-08-15T12:18:13Z</time>
      </trkpt>
      <trkpt lat="44.10941" lon="1.96427">
        <ele>187</ele>
        <time>2014-08-15T12:18:16Z</time>
      </trkpt>
      <trkpt lat="44.10946" lon="1.96437">
        <ele>187</ele>
        <time>2014-08-15T12:18:19Z</time>
      </trkpt>
      <trkpt lat="44.1095" lon="1.96444">
        <ele>187</ele>
        <time>2014-08-15T12:18:21Z</time>
      </trkpt>
      <trkpt lat="44.10955" lon="1.96455">
        <ele>188</ele>
        <time>2014-08-15T12:18:24Z</time>
      </trkpt>
      <trkpt lat="44.10961" lon="1.96466">
        <ele>188</ele>
        <time>2014-08-15T12:18:27Z</time>
      </trkpt>
      <trkpt lat="44.10965" lon="1.96473">
        <ele>189</ele>
        <time>2014-08-15T12:18:29Z</time>
      </trkpt>
      <trkpt lat="44.1097" lon="1.96484">
        <ele>189</ele>
        <time>2014-08-15T12:18:32Z</time>
      </trkpt>
      <trkpt lat="44.10975" lon="1.96495">
        <ele>190</ele>
        <time>2014-08-15T12:18:35Z</time>
      </trkpt>
      <trkpt lat="44.1098" lon="1.96506">
        <ele>190</ele>
        <time>2014-08-15T12:18:38Z</time>
      </trkpt>
      <trkpt lat="44.10983" lon="1.96514">
        <ele>191</ele>
        <time>2014-08-15T12:18:40Z</time>
      </trkpt>
      <trkpt lat="44.10987" lon="1.96525">
        <ele>191</ele>
        <time>2014-08-15T12:18:43Z</time>
      </trkpt>
      <trkpt lat="44.10989" lon="1.96533">
        <ele>191</ele>
        <time>2014-08-15T12:18:45Z</time>
      </trkpt>
      <trkpt lat="44.10991" lon="1.96542">
        <ele>192</ele>
        <time>2014-08-15T12:18:48Z</time>
      </trkpt>
      <trkpt lat="44.10991" lon="1.96543">
        <ele>192</ele>
        <time>2014-08-15T12:18:50Z</time>
      </trkpt>
      <trkpt lat="44.10991" lon="1.96544">
        <ele>192</ele>
        <time>2014-08-15T12:18:52Z</time>
      </trkpt>
      <trkpt lat="44.1099" lon="1.96544">
        <ele>192</ele>
        <time>2014-08-15T12:18:55Z</time>
      </trkpt>
      <trkpt lat="44.10991" lon="1.96544">
        <ele>192</ele>
        <time>2014-08-15T12:18:58Z</time>
      </trkpt>
      <trkpt lat="44.10991" lon="1.96545">
        <ele>192</ele>
        <time>2014-08-15T12:19:01Z</time>
      </trkpt>
      <trkpt lat="44.10991" lon="1.96545">
        <ele>192</ele>
        <time>2014-08-15T12:19:05Z</time>
      </trkpt>
      <trkpt lat="44.10991" lon="1.96545">
        <ele>192</ele>
        <time>2014-08-15T12:19:09Z</time>
      </trkpt>
      <trkpt lat="44.10992" lon="1.96546">
        <ele>192</ele>
        <time>2014-08-15T12:19:11Z</time>
      </trkpt>
      <trkpt lat="44.10993" lon="1.96549">
        <ele>192</ele>
        <time>2014-08-15T12:19:13Z</time>
      </trkpt>
      <trkpt lat="44.10995" lon="1.96556">
        <ele>192</ele>
        <time>2014-08-15T12:19:16Z</time>
      </trkpt>
      <trkpt lat="44.10998" lon="1.96566">
        <ele>192</ele>
        <time>2014-08-15T12:19:19Z</time>
      </trkpt>
      <trkpt lat="44.11" lon="1.96572">
        <ele>192</ele>
        <time>2014-08-15T12:19:21Z</time>
      </trkpt>
      <trkpt lat="44.11004" lon="1.96584">
        <ele>193</ele>
        <time>2014-08-15T12:19:24Z</time>
      </trkpt>
      <trkpt lat="44.11007" lon="1.96594">
        <ele>193</ele>
        <time>2014-08-15T12:19:26Z</time>
      </trkpt>
      <trkpt lat="44.11012" lon="1.96609">
        <ele>194</ele>
        <time>2014-08-15T12:19:29Z</time>
      </trkpt>
      <trkpt lat="44.11016" lon="1.96622">
        <ele>194</ele>
        <time>2014-08-15T12:19:32Z</time>
      </trkpt>
      <trkpt lat="44.11018" lon="1.9663">
        <ele>195</ele>
        <time>2014-08-15T12:19:34Z</time>
      </trkpt>
      <trkpt lat="44.11022" lon="1.96644">
        <ele>196</ele>
        <time>2014-08-15T12:19:37Z</time>
      </trkpt>
      <trkpt lat="44.11024" lon="1.96655">
        <ele>196</ele>
        <time>2014-08-15T12:19:39Z</time>
      </trkpt>
      <trkpt lat="44.11027" lon="1.9667">
        <ele>197</ele>
        <time>2014-08-15T12:19:42Z</time>
      </trkpt>
      <trkpt lat="44.11028" lon="1.96679">
        <ele>197</ele>
        <time>2014-08-15T12:19:44Z</time>
      </trkpt>
      <trkpt lat="44.11031" lon="1.96692">
        <ele>198</ele>
        <time>2014-08-15T12:19:47Z</time>
      </trkpt>
      <trkpt lat="44.11033" lon="1.96701">
        <ele>198</ele>
        <time>2014-08-15T12:19:49Z</time>
      </trkpt>
      <trkpt lat="44.11036" lon="1.96714">
        <ele>199</ele>
        <time>2014-08-15T12:19:52Z</time>
      </trkpt>
      <trkpt lat="44.11038" lon="1.96723">
        <ele>199</ele>
        <time>2014-08-15T12:19:54Z</time>
      </trkpt>
      <trkpt lat="44.1104" lon="1.96731">
        <ele>200</ele>
        <time>2014-08-15T12:19:56Z</time>
      </trkpt>
      <trkpt lat="44.11042" lon="1.96741">
        <ele>200</ele>
        <time>2014-08-15T12:19:59Z</time>
      </trkpt>
      <trkpt lat="44.11044" lon="1.9675">
        <ele>201</ele>
        <time>2014-08-15T12:20:02Z</time>
      </trkpt>
      <trkpt lat="44.11045" lon="1.96755">
        <ele>201</ele>
        <time>2014-08-15T12:20:04Z</time>
      </trkpt>
      <trkpt lat="44.11047" lon="1.96761">
        <ele>201</ele>
        <time>2014-08-15T12:20:06Z</time>
      </trkpt>
      <trkpt lat="44.11048" lon="1.96767">
        <ele>202</ele>
        <time>2014-08-15T12:20:08Z</time>
      </trkpt>
      <trkpt lat="44.11052" lon="1.96775">
        <ele>201</ele>
        <time>2014-08-15T12:20:11Z</time>
      </trkpt>
      <trkpt lat="44.11056" lon="1.96779">
        <ele>201</ele>
        <time>2014-08-15T12:20:13Z</time>
      </trkpt>
      <trkpt lat="44.11066" lon="1.96778">
        <ele>200</ele>
        <time>2014-08-15T12:20:16Z</time>
      </trkpt>
      <trkpt lat="44.11071" lon="1.96776">
        <ele>200</ele>
        <time>2014-08-15T12:20:18Z</time>
      </trkpt>
      <trkpt lat="44.11077" lon="1.96773">
        <ele>201</ele>
        <time>2014-08-15T12:20:20Z</time>
      </trkpt>
      <trkpt lat="44.11083" lon="1.9677">
        <ele>202</ele>
        <time>2014-08-15T12:20:23Z</time>
      </trkpt>
      <trkpt lat="44.11089" lon="1.96769">
        <ele>203</ele>
        <time>2014-08-15T12:20:25Z</time>
      </trkpt>
      <trkpt lat="44.11095" lon="1.96767">
        <ele>204</ele>
        <time>2014-08-15T12:20:27Z</time>
      </trkpt>
      <trkpt lat="44.11105" lon="1.96766">
        <ele>204</ele>
        <time>2014-08-15T12:20:30Z</time>
      </trkpt>
      <trkpt lat="44.11111" lon="1.96764">
        <ele>205</ele>
        <time>2014-08-15T12:20:32Z</time>
      </trkpt>
      <trkpt lat="44.11117" lon="1.96762">
        <ele>205</ele>
        <time>2014-08-15T12:20:34Z</time>
      </trkpt>
      <trkpt lat="44.11127" lon="1.96759">
        <ele>205</ele>
        <time>2014-08-15T12:20:37Z</time>
      </trkpt>
      <trkpt lat="44.11137" lon="1.96755">
        <ele>205</ele>
        <time>2014-08-15T12:20:40Z</time>
      </trkpt>
      <trkpt lat="44.11145" lon="1.96754">
        <ele>205</ele>
        <time>2014-08-15T12:20:43Z</time>
      </trkpt>
      <trkpt lat="44.1115" lon="1.96753">
        <ele>205</ele>
        <time>2014-08-15T12:20:45Z</time>
      </trkpt>
      <trkpt lat="44.11155" lon="1.96753">
        <ele>205</ele>
        <time>2014-08-15T12:20:47Z</time>
      </trkpt>
      <trkpt lat="44.1116" lon="1.96751">
        <ele>205</ele>
        <time>2014-08-15T12:20:49Z</time>
      </trkpt>
      <trkpt lat="44.11169" lon="1.96748">
        <ele>205</ele>
        <time>2014-08-15T12:20:52Z</time>
      </trkpt>
      <trkpt lat="44.11177" lon="1.96747">
        <ele>205</ele>
        <time>2014-08-15T12:20:54Z</time>
      </trkpt>
      <trkpt lat="44.11186" lon="1.96745">
        <ele>205</ele>
        <time>2014-08-15T12:20:56Z</time>
      </trkpt>
      <trkpt lat="44.11195" lon="1.96742">
        <ele>205</ele>
        <time>2014-08-15T12:20:58Z</time>
      </trkpt>
      <trkpt lat="44.11211" lon="1.96739">
        <ele>204</ele>
        <time>2014-08-15T12:21:01Z</time>
      </trkpt>
      <trkpt lat="44.11221" lon="1.96738">
        <ele>204</ele>
        <time>2014-08-15T12:21:03Z</time>
      </trkpt>
      <trkpt lat="44.11232" lon="1.96736">
        <ele>204</ele>
        <time>2014-08-15T12:21:05Z</time>
      </trkpt>
      <trkpt lat="44.11248" lon="1.96734">
        <ele>203</ele>
        <time>2014-08-15T12:21:08Z</time>
      </trkpt>
      <trkpt lat="44.11258" lon="1.96733">
        <ele>203</ele>
        <time>2014-08-15T12:21:10Z</time>
      </trkpt>
      <trkpt lat="44.11275" lon="1.96732">
        <ele>203</ele>
        <time>2014-08-15T12:21:13Z</time>
      </trkpt>
      <trkpt lat="44.11286" lon="1.96731">
        <ele>203</ele>
        <time>2014-08-15T12:21:15Z</time>
      </trkpt>
      <trkpt lat="44.11298" lon="1.9673">
        <ele>203</ele>
        <time>2014-08-15T12:21:17Z</time>
      </trkpt>
      <trkpt lat="44.11315" lon="1.96731">
        <ele>202</ele>
        <time>2014-08-15T12:21:20Z</time>
      </trkpt>
      <trkpt lat="44.11334" lon="1.96731">
        <ele>201</ele>
        <time>2014-08-15T12:21:23Z</time>
      </trkpt>
      <trkpt lat="44.11347" lon="1.9673">
        <ele>201</ele>
        <time>2014-08-15T12:21:25Z</time>
      </trkpt>
      <trkpt lat="44.11361" lon="1.96727">
        <ele>201</ele>
        <time>2014-08-15T12:21:27Z</time>
      </trkpt>
      <trkpt lat="44.11374" lon="1.96722">
        <ele>201</ele>
        <time>2014-08-15T12:21:29Z</time>
      </trkpt>
      <trkpt lat="44.11391" lon="1.96713">
        <ele>200</ele>
        <time>2014-08-15T12:21:32Z</time>
      </trkpt>
      <trkpt lat="44.11407" lon="1.96705">
        <ele>200</ele>
        <time>2014-08-15T12:21:35Z</time>
      </trkpt>
      <trkpt lat="44.11419" lon="1.96702">
        <ele>199</ele>
        <time>2014-08-15T12:21:37Z</time>
      </trkpt>
      <trkpt lat="44.11438" lon="1.96697">
        <ele>199</ele>
        <time>2014-08-15T12:21:40Z</time>
      </trkpt>
      <trkpt lat="44.11464" lon="1.96692">
        <ele>200</ele>
        <time>2014-08-15T12:21:43Z</time>
      </trkpt>
      <trkpt lat="44.11482" lon="1.96688">
        <ele>199</ele>
        <time>2014-08-15T12:21:45Z</time>
      </trkpt>
      <trkpt lat="44.11502" lon="1.96685">
        <ele>200</ele>
        <time>2014-08-15T12:21:47Z</time>
      </trkpt>
      <trkpt lat="44.11532" lon="1.9668">
        <ele>201</ele>
        <time>2014-08-15T12:21:50Z</time>
      </trkpt>
      <trkpt lat="44.11551" lon="1.96678">
        <ele>201</ele>
        <time>2014-08-15T12:21:52Z</time>
      </trkpt>
      <trkpt lat="44.11568" lon="1.96675">
        <ele>201</ele>
        <time>2014-08-15T12:21:54Z</time>
      </trkpt>
      <trkpt lat="44.11593" lon="1.96672">
        <ele>201</ele>
        <time>2014-08-15T12:21:57Z</time>
      </trkpt>
      <trkpt lat="44.11609" lon="1.96671">
        <ele>201</ele>
        <time>2014-08-15T12:21:59Z</time>
      </trkpt>
      <trkpt lat="44.11632" lon="1.96668">
        <ele>200</ele>
        <time>2014-08-15T12:22:02Z</time>
      </trkpt>
      <trkpt lat="44.11648" lon="1.96665">
        <ele>200</ele>
        <time>2014-08-15T12:22:04Z</time>
      </trkpt>
      <trkpt lat="44.11663" lon="1.9666">
        <ele>200</ele>
        <time>2014-08-15T12:22:06Z</time>
      </trkpt>
      <trkpt lat="44.11686" lon="1.96653">
        <ele>200</ele>
        <time>2014-08-15T12:22:09Z</time>
      </trkpt>
      <trkpt lat="44.117" lon="1.96648">
        <ele>200</ele>
        <time>2014-08-15T12:22:11Z</time>
      </trkpt>
      <trkpt lat="44.1172" lon="1.96641">
        <ele>200</ele>
        <time>2014-08-15T12:22:14Z</time>
      </trkpt>
      <trkpt lat="44.11732" lon="1.96636">
        <ele>199</ele>
        <time>2014-08-15T12:22:16Z</time>
      </trkpt>
      <trkpt lat="44.11744" lon="1.96631">
        <ele>199</ele>
        <time>2014-08-15T12:22:18Z</time>
      </trkpt>
      <trkpt lat="44.11761" lon="1.96625">
        <ele>199</ele>
        <time>2014-08-15T12:22:21Z</time>
      </trkpt>
      <trkpt lat="44.11777" lon="1.96621">
        <ele>198</ele>
        <time>2014-08-15T12:22:24Z</time>
      </trkpt>
      <trkpt lat="44.11794" lon="1.96616">
        <ele>197</ele>
        <time>2014-08-15T12:22:27Z</time>
      </trkpt>
      <trkpt lat="44.11811" lon="1.96611">
        <ele>196</ele>
        <time>2014-08-15T12:22:30Z</time>
      </trkpt>
      <trkpt lat="44.11827" lon="1.96605">
        <ele>195</ele>
        <time>2014-08-15T12:22:33Z</time>
      </trkpt>
      <trkpt lat="44.11834" lon="1.96599">
        <ele>195</ele>
        <time>2014-08-15T12:22:35Z</time>
      </trkpt>
      <trkpt lat="44.11839" lon="1.96595">
        <ele>194</ele>
        <time>2014-08-15T12:22:38Z</time>
      </trkpt>
      <trkpt lat="44.11843" lon="1.96595">
        <ele>194</ele>
        <time>2014-08-15T12:22:40Z</time>
      </trkpt>
      <trkpt lat="44.11848" lon="1.96595">
        <ele>193</ele>
        <time>2014-08-15T12:22:42Z</time>
      </trkpt>
      <trkpt lat="44.11857" lon="1.96593">
        <ele>193</ele>
        <time>2014-08-15T12:22:45Z</time>
      </trkpt>
      <trkpt lat="44.11865" lon="1.9659">
        <ele>192</ele>
        <time>2014-08-15T12:22:48Z</time>
      </trkpt>
      <trkpt lat="44.11871" lon="1.96587">
        <ele>192</ele>
        <time>2014-08-15T12:22:50Z</time>
      </trkpt>
      <trkpt lat="44.11879" lon="1.96581">
        <ele>191</ele>
        <time>2014-08-15T12:22:53Z</time>
      </trkpt>
      <trkpt lat="44.11891" lon="1.96573">
        <ele>190</ele>
        <time>2014-08-15T12:22:56Z</time>
      </trkpt>
      <trkpt lat="44.11906" lon="1.96561">
        <ele>189</ele>
        <time>2014-08-15T12:22:59Z</time>
      </trkpt>
      <trkpt lat="44.11917" lon="1.96553">
        <ele>188</ele>
        <time>2014-08-15T12:23:01Z</time>
      </trkpt>
      <trkpt lat="44.11934" lon="1.9654">
        <ele>187</ele>
        <time>2014-08-15T12:23:04Z</time>
      </trkpt>
      <trkpt lat="44.11945" lon="1.96529">
        <ele>186</ele>
        <time>2014-08-15T12:23:06Z</time>
      </trkpt>
      <trkpt lat="44.11959" lon="1.96518">
        <ele>184</ele>
        <time>2014-08-15T12:23:08Z</time>
      </trkpt>
      <trkpt lat="44.11975" lon="1.96509">
        <ele>183</ele>
        <time>2014-08-15T12:23:10Z</time>
      </trkpt>
      <trkpt lat="44.11996" lon="1.96502">
        <ele>181</ele>
        <time>2014-08-15T12:23:13Z</time>
      </trkpt>
      <trkpt lat="44.12005" lon="1.96496">
        <ele>179</ele>
        <time>2014-08-15T12:23:15Z</time>
      </trkpt>
      <trkpt lat="44.12015" lon="1.96488">
        <ele>175</ele>
        <time>2014-08-15T12:23:18Z</time>
      </trkpt>
      <trkpt lat="44.12026" lon="1.96486">
        <ele>171</ele>
        <time>2014-08-15T12:23:21Z</time>
      </trkpt>
      <trkpt lat="44.12038" lon="1.96489">
        <ele>168</ele>
        <time>2014-08-15T12:23:24Z</time>
      </trkpt>
      <trkpt lat="44.12047" lon="1.96493">
        <ele>166</ele>
        <time>2014-08-15T12:23:26Z</time>
      </trkpt>
      <trkpt lat="44.12065" lon="1.96504">
        <ele>162</ele>
        <time>2014-08-15T12:23:29Z</time>
      </trkpt>
      <trkpt lat="44.12085" lon="1.96515">
        <ele>157</ele>
        <time>2014-08-15T12:23:32Z</time>
      </trkpt>
      <trkpt lat="44.121" lon="1.96519">
        <ele>154</ele>
        <time>2014-08-15T12:23:34Z</time>
      </trkpt>
      <trkpt lat="44.12114" lon="1.96522">
        <ele>152</ele>
        <time>2014-08-15T12:23:37Z</time>
      </trkpt>
      <trkpt lat="44.12119" lon="1.96527">
        <ele>149</ele>
        <time>2014-08-15T12:23:39Z</time>
      </trkpt>
      <trkpt lat="44.12125" lon="1.96536">
        <ele>148</ele>
        <time>2014-08-15T12:23:41Z</time>
      </trkpt>
      <trkpt lat="44.12136" lon="1.96547">
        <ele>146</ele>
        <time>2014-08-15T12:23:44Z</time>
      </trkpt>
      <trkpt lat="44.12145" lon="1.96556">
        <ele>144</ele>
        <time>2014-08-15T12:23:46Z</time>
      </trkpt>
      <trkpt lat="44.12159" lon="1.96569">
        <ele>142</ele>
        <time>2014-08-15T12:23:49Z</time>
      </trkpt>
      <trkpt lat="44.12169" lon="1.96576">
        <ele>140</ele>
        <time>2014-08-15T12:23:51Z</time>
      </trkpt>
      <trkpt lat="44.12177" lon="1.96581">
        <ele>137</ele>
        <time>2014-08-15T12:23:53Z</time>
      </trkpt>
      <trkpt lat="44.12187" lon="1.96582">
        <ele>135</ele>
        <time>2014-08-15T12:23:56Z</time>
      </trkpt>
      <trkpt lat="44.12194" lon="1.96581">
        <ele>133</ele>
        <time>2014-08-15T12:23:58Z</time>
      </trkpt>
      <trkpt lat="44.122" lon="1.9658">
        <ele>133</ele>
        <time>2014-08-15T12:24:01Z</time>
      </trkpt>
      <trkpt lat="44.12202" lon="1.9658">
        <ele>132</ele>
        <time>2014-08-15T12:24:03Z</time>
      </trkpt>
      <trkpt lat="44.12203" lon="1.96581">
        <ele>132</ele>
        <time>2014-08-15T12:24:05Z</time>
      </trkpt>
      <trkpt lat="44.12208" lon="1.96582">
        <ele>132</ele>
        <time>2014-08-15T12:24:08Z</time>
      </trkpt>
      <trkpt lat="44.12209" lon="1.96581">
        <ele>132</ele>
        <time>2014-08-15T12:24:10Z</time>
      </trkpt>
      <trkpt lat="44.12211" lon="1.96581">
        <ele>132</ele>
        <time>2014-08-15T12:24:13Z</time>
      </trkpt>
      <trkpt lat="44.12212" lon="1.96581">
        <ele>132</ele>
        <time>2014-08-15T12:24:15Z</time>
      </trkpt>
      <trkpt lat="44.12213" lon="1.96581">
        <ele>132</ele>
        <time>2014-08-15T12:24:17Z</time>
      </trkpt>
      <trkpt lat="44.12214" lon="1.96581">
        <ele>132</ele>
        <time>2014-08-15T12:24:20Z</time>
      </trkpt>
      <trkpt lat="44.12216" lon="1.96582">
        <ele>132</ele>
        <time>2014-08-15T12:24:23Z</time>
      </trkpt>
      <trkpt lat="44.1222" lon="1.96583">
        <ele>132</ele>
        <time>2014-08-15T12:24:25Z</time>
      </trkpt>
      <trkpt lat="44.1223" lon="1.96586">
        <ele>132</ele>
        <time>2014-08-15T12:24:28Z</time>
      </trkpt>
      <trkpt lat="44.1224" lon="1.96584">
        <ele>132</ele>
        <time>2014-08-15T12:24:30Z</time>
      </trkpt>
      <trkpt lat="44.12255" lon="1.96581">
        <ele>131</ele>
        <time>2014-08-15T12:24:33Z</time>
      </trkpt>
      <trkpt lat="44.12272" lon="1.96574">
        <ele>130</ele>
        <time>2014-08-15T12:24:36Z</time>
      </trkpt>
      <trkpt lat="44.12284" lon="1.96571">
        <ele>130</ele>
        <time>2014-08-15T12:24:38Z</time>
      </trkpt>
      <trkpt lat="44.12295" lon="1.96568">
        <ele>128</ele>
        <time>2014-08-15T12:24:40Z</time>
      </trkpt>
      <trkpt lat="44.12305" lon="1.96563">
        <ele>127</ele>
        <time>2014-08-15T12:24:43Z</time>
      </trkpt>
      <trkpt lat="44.1231" lon="1.96561">
        <ele>126</ele>
        <time>2014-08-15T12:24:45Z</time>
      </trkpt>
      <trkpt lat="44.12315" lon="1.96562">
        <ele>125</ele>
        <time>2014-08-15T12:24:47Z</time>
      </trkpt>
      <trkpt lat="44.12318" lon="1.96562">
        <ele>125</ele>
        <time>2014-08-15T12:24:50Z</time>
      </trkpt>
      <trkpt lat="44.1232" lon="1.96561">
        <ele>125</ele>
        <time>2014-08-15T12:24:52Z</time>
      </trkpt>
      <trkpt lat="44.12322" lon="1.9656">
        <ele>125</ele>
        <time>2014-08-15T12:24:54Z</time>
      </trkpt>
      <trkpt lat="44.12327" lon="1.96562">
        <ele>126</ele>
        <time>2014-08-15T12:24:57Z</time>
      </trkpt>
      <trkpt lat="44.12331" lon="1.96561">
        <ele>127</ele>
        <time>2014-08-15T12:25:00Z</time>
      </trkpt>
      <trkpt lat="44.12334" lon="1.9656">
        <ele>128</ele>
        <time>2014-08-15T12:25:02Z</time>
      </trkpt>
      <trkpt lat="44.12334" lon="1.96561">
        <ele>129</ele>
        <time>2014-08-15T12:25:05Z</time>
      </trkpt>
      <trkpt lat="44.12329" lon="1.96562">
        <ele>129</ele>
        <time>2014-08-15T12:25:08Z</time>
      </trkpt>
      <trkpt lat="44.12327" lon="1.9656">
        <ele>128</ele>
        <time>2014-08-15T12:25:11Z</time>
      </trkpt>
      <trkpt lat="44.12327" lon="1.96561">
        <ele>126</ele>
        <time>2014-08-15T12:25:14Z</time>
      </trkpt>
      <trkpt lat="44.1233" lon="1.96561">
        <ele>126</ele>
        <time>2014-08-15T12:25:17Z</time>
      </trkpt>
      <trkpt lat="44.12331" lon="1.96563">
        <ele>126</ele>
        <time>2014-08-15T12:25:19Z</time>
      </trkpt>
      <trkpt lat="44.12334" lon="1.96567">
        <ele>126</ele>
        <time>2014-08-15T12:25:22Z</time>
      </trkpt>
      <trkpt lat="44.12336" lon="1.96571">
        <ele>128</ele>
        <time>2014-08-15T12:25:25Z</time>
      </trkpt>
      <trkpt lat="44.12337" lon="1.96577">
        <ele>129</ele>
        <time>2014-08-15T12:25:28Z</time>
      </trkpt>
      <trkpt lat="44.12339" lon="1.96581">
        <ele>129</ele>
        <time>2014-08-15T12:25:30Z</time>
      </trkpt>
      <trkpt lat="44.12343" lon="1.96583">
        <ele>130</ele>
        <time>2014-08-15T12:25:33Z</time>
      </trkpt>
      <trkpt lat="44.12345" lon="1.96584">
        <ele>131</ele>
        <time>2014-08-15T12:25:36Z</time>
      </trkpt>
      <trkpt lat="44.12346" lon="1.96585">
        <ele>131</ele>
        <time>2014-08-15T12:25:39Z</time>
      </trkpt>
      <trkpt lat="44.12347" lon="1.96586">
        <ele>131</ele>
        <time>2014-08-15T12:25:42Z</time>
      </trkpt>
      <trkpt lat="44.12349" lon="1.96587">
        <ele>131</ele>
        <time>2014-08-15T12:25:44Z</time>
      </trkpt>
      <trkpt lat="44.1235" lon="1.96587">
        <ele>132</ele>
        <time>2014-08-15T12:25:47Z</time>
      </trkpt>
      <trkpt lat="44.12352" lon="1.96589">
        <ele>132</ele>
        <time>2014-08-15T12:25:50Z</time>
      </trkpt>
      <trkpt lat="44.12353" lon="1.96591">
        <ele>133</ele>
        <time>2014-08-15T12:25:53Z</time>
      </trkpt>
      <trkpt lat="44.12353" lon="1.96591">
        <ele>133</ele>
        <time>2014-08-15T12:25:55Z</time>
      </trkpt>
      <trkpt lat="44.12354" lon="1.96592">
        <ele>133</ele>
        <time>2014-08-15T12:25:57Z</time>
      </trkpt>
      <trkpt lat="44.12354" lon="1.96592">
        <ele>133</ele>
        <time>2014-08-15T12:25:59Z</time>
      </trkpt>
      <trkpt lat="44.12355" lon="1.96597">
        <ele>133</ele>
        <time>2014-08-15T12:26:02Z</time>
      </trkpt>
      <trkpt lat="44.12358" lon="1.96598">
        <ele>133</ele>
        <time>2014-08-15T12:26:04Z</time>
      </trkpt>
      <trkpt lat="44.12362" lon="1.966">
        <ele>134</ele>
        <time>2014-08-15T12:26:07Z</time>
      </trkpt>
      <trkpt lat="44.12366" lon="1.96602">
        <ele>135</ele>
        <time>2014-08-15T12:26:10Z</time>
      </trkpt>
      <trkpt lat="44.12369" lon="1.96604">
        <ele>135</ele>
        <time>2014-08-15T12:26:12Z</time>
      </trkpt>
      <trkpt lat="44.12373" lon="1.96604">
        <ele>136</ele>
        <time>2014-08-15T12:26:15Z</time>
      </trkpt>
      <trkpt lat="44.12376" lon="1.96605">
        <ele>137</ele>
        <time>2014-08-15T12:26:17Z</time>
      </trkpt>
      <trkpt lat="44.12379" lon="1.96608">
        <ele>138</ele>
        <time>2014-08-15T12:26:20Z</time>
      </trkpt>
      <trkpt lat="44.12382" lon="1.96612">
        <ele>139</ele>
        <time>2014-08-15T12:26:23Z</time>
      </trkpt>
      <trkpt lat="44.12386" lon="1.96614">
        <ele>139</ele>
        <time>2014-08-15T12:26:25Z</time>
      </trkpt>
      <trkpt lat="44.1239" lon="1.96618">
        <ele>140</ele>
        <time>2014-08-15T12:26:28Z</time>
      </trkpt>
      <trkpt lat="44.12394" lon="1.96621">
        <ele>140</ele>
        <time>2014-08-15T12:26:30Z</time>
      </trkpt>
      <trkpt lat="44.124" lon="1.96623">
        <ele>141</ele>
        <time>2014-08-15T12:26:33Z</time>
      </trkpt>
      <trkpt lat="44.12405" lon="1.96629">
        <ele>142</ele>
        <time>2014-08-15T12:26:36Z</time>
      </trkpt>
      <trkpt lat="44.12407" lon="1.96632">
        <ele>142</ele>
        <time>2014-08-15T12:26:38Z</time>
      </trkpt>
      <trkpt lat="44.12412" lon="1.96636">
        <ele>143</ele>
        <time>2014-08-15T12:26:41Z</time>
      </trkpt>
      <trkpt lat="44.12418" lon="1.96639">
        <ele>144</ele>
        <time>2014-08-15T12:26:44Z</time>
      </trkpt>
      <trkpt lat="44.12424" lon="1.96642">
        <ele>144</ele>
        <time>2014-08-15T12:26:47Z</time>
      </trkpt>
      <trkpt lat="44.1243" lon="1.96643">
        <ele>145</ele>
        <time>2014-08-15T12:26:50Z</time>
      </trkpt>
      <trkpt lat="44.12434" lon="1.96645">
        <ele>145</ele>
        <time>2014-08-15T12:26:53Z</time>
      </trkpt>
      <trkpt lat="44.12438" lon="1.96645">
        <ele>145</ele>
        <time>2014-08-15T12:26:56Z</time>
      </trkpt>
      <trkpt lat="44.1244" lon="1.96646">
        <ele>145</ele>
        <time>2014-08-15T12:26:59Z</time>
      </trkpt>
      <trkpt lat="44.12442" lon="1.96646">
        <ele>146</ele>
        <time>2014-08-15T12:27:01Z</time>
      </trkpt>
      <trkpt lat="44.12445" lon="1.96646">
        <ele>147</ele>
        <time>2014-08-15T12:27:04Z</time>
      </trkpt>
      <trkpt lat="44.12447" lon="1.96646">
        <ele>147</ele>
        <time>2014-08-15T12:27:06Z</time>
      </trkpt>
      <trkpt lat="44.12448" lon="1.96646">
        <ele>147</ele>
        <time>2014-08-15T12:27:08Z</time>
      </trkpt>
      <trkpt lat="44.12449" lon="1.96647">
        <ele>147</ele>
        <time>2014-08-15T12:27:10Z</time>
      </trkpt>
      <trkpt lat="44.1245" lon="1.96647">
        <ele>147</ele>
        <time>2014-08-15T12:27:13Z</time>
      </trkpt>
      <trkpt lat="44.12454" lon="1.96648">
        <ele>148</ele>
        <time>2014-08-15T12:27:16Z</time>
      </trkpt>
      <trkpt lat="44.1246" lon="1.9665">
        <ele>148</ele>
        <time>2014-08-15T12:27:19Z</time>
      </trkpt>
      <trkpt lat="44.12464" lon="1.96651">
        <ele>149</ele>
        <time>2014-08-15T12:27:21Z</time>
      </trkpt>
      <trkpt lat="44.12468" lon="1.96654">
        <ele>150</ele>
        <time>2014-08-15T12:27:24Z</time>
      </trkpt>
      <trkpt lat="44.12474" lon="1.96654">
        <ele>151</ele>
        <time>2014-08-15T12:27:27Z</time>
      </trkpt>
      <trkpt lat="44.12477" lon="1.96655">
        <ele>152</ele>
        <time>2014-08-15T12:27:29Z</time>
      </trkpt>
      <trkpt lat="44.12481" lon="1.96657">
        <ele>153</ele>
        <time>2014-08-15T12:27:32Z</time>
      </trkpt>
      <trkpt lat="44.12482" lon="1.96657">
        <ele>154</ele>
        <time>2014-08-15T12:27:35Z</time>
      </trkpt>
      <trkpt lat="44.12485" lon="1.96658">
        <ele>154</ele>
        <time>2014-08-15T12:27:37Z</time>
      </trkpt>
      <trkpt lat="44.12489" lon="1.96658">
        <ele>155</ele>
        <time>2014-08-15T12:27:40Z</time>
      </trkpt>
      <trkpt lat="44.12491" lon="1.96659">
        <ele>155</ele>
        <time>2014-08-15T12:27:43Z</time>
      </trkpt>
      <trkpt lat="44.12494" lon="1.96661">
        <ele>156</ele>
        <time>2014-08-15T12:27:45Z</time>
      </trkpt>
      <trkpt lat="44.12497" lon="1.96662">
        <ele>156</ele>
        <time>2014-08-15T12:27:47Z</time>
      </trkpt>
      <trkpt lat="44.12501" lon="1.96665">
        <ele>156</ele>
        <time>2014-08-15T12:27:50Z</time>
      </trkpt>
      <trkpt lat="44.12505" lon="1.96666">
        <ele>157</ele>
        <time>2014-08-15T12:27:53Z</time>
      </trkpt>
      <trkpt lat="44.12508" lon="1.96665">
        <ele>158</ele>
        <time>2014-08-15T12:27:56Z</time>
      </trkpt>
      <trkpt lat="44.12511" lon="1.96665">
        <ele>158</ele>
        <time>2014-08-15T12:27:58Z</time>
      </trkpt>
      <trkpt lat="44.12515" lon="1.96667">
        <ele>159</ele>
        <time>2014-08-15T12:28:01Z</time>
      </trkpt>
      <trkpt lat="44.1252" lon="1.96669">
        <ele>159</ele>
        <time>2014-08-15T12:28:04Z</time>
      </trkpt>
      <trkpt lat="44.12524" lon="1.9667">
        <ele>160</ele>
        <time>2014-08-15T12:28:06Z</time>
      </trkpt>
      <trkpt lat="44.12528" lon="1.96671">
        <ele>161</ele>
        <time>2014-08-15T12:28:09Z</time>
      </trkpt>
      <trkpt lat="44.12532" lon="1.9667">
        <ele>162</ele>
        <time>2014-08-15T12:28:12Z</time>
      </trkpt>
      <trkpt lat="44.12534" lon="1.96671">
        <ele>163</ele>
        <time>2014-08-15T12:28:15Z</time>
      </trkpt>
      <trkpt lat="44.12537" lon="1.96673">
        <ele>164</ele>
        <time>2014-08-15T12:28:18Z</time>
      </trkpt>
      <trkpt lat="44.1254" lon="1.96675">
        <ele>165</ele>
        <time>2014-08-15T12:28:20Z</time>
      </trkpt>
      <trkpt lat="44.12542" lon="1.96676">
        <ele>166</ele>
        <time>2014-08-15T12:28:22Z</time>
      </trkpt>
      <trkpt lat="44.12544" lon="1.96679">
        <ele>166</ele>
        <time>2014-08-15T12:28:25Z</time>
      </trkpt>
      <trkpt lat="44.12548" lon="1.96682">
        <ele>167</ele>
        <time>2014-08-15T12:28:28Z</time>
      </trkpt>
      <trkpt lat="44.12551" lon="1.96684">
        <ele>168</ele>
        <time>2014-08-15T12:28:31Z</time>
      </trkpt>
      <trkpt lat="44.12555" lon="1.96683">
        <ele>169</ele>
        <time>2014-08-15T12:28:34Z</time>
      </trkpt>
      <trkpt lat="44.12559" lon="1.96682">
        <ele>170</ele>
        <time>2014-08-15T12:28:37Z</time>
      </trkpt>
      <trkpt lat="44.12562" lon="1.96681">
        <ele>171</ele>
        <time>2014-08-15T12:28:40Z</time>
      </trkpt>
      <trkpt lat="44.12566" lon="1.9668">
        <ele>172</ele>
        <time>2014-08-15T12:28:43Z</time>
      </trkpt>
      <trkpt lat="44.12571" lon="1.96679">
        <ele>172</ele>
        <time>2014-08-15T12:28:46Z</time>
      </trkpt>
      <trkpt lat="44.12574" lon="1.9668">
        <ele>173</ele>
        <time>2014-08-15T12:28:48Z</time>
      </trkpt>
      <trkpt lat="44.12577" lon="1.96681">
        <ele>174</ele>
        <time>2014-08-15T12:28:50Z</time>
      </trkpt>
      <trkpt lat="44.12581" lon="1.96684">
        <ele>175</ele>
        <time>2014-08-15T12:28:53Z</time>
      </trkpt>
      <trkpt lat="44.12586" lon="1.96685">
        <ele>176</ele>
        <time>2014-08-15T12:28:56Z</time>
      </trkpt>
      <trkpt lat="44.1259" lon="1.96685">
        <ele>176</ele>
        <time>2014-08-15T12:28:59Z</time>
      </trkpt>
      <trkpt lat="44.12594" lon="1.96685">
        <ele>176</ele>
        <time>2014-08-15T12:29:02Z</time>
      </trkpt>
      <trkpt lat="44.12598" lon="1.96684">
        <ele>177</ele>
        <time>2014-08-15T12:29:05Z</time>
      </trkpt>
      <trkpt lat="44.12601" lon="1.96682">
        <ele>178</ele>
        <time>2014-08-15T12:29:08Z</time>
      </trkpt>
      <trkpt lat="44.12606" lon="1.96679">
        <ele>179</ele>
        <time>2014-08-15T12:29:11Z</time>
      </trkpt>
      <trkpt lat="44.12609" lon="1.96678">
        <ele>179</ele>
        <time>2014-08-15T12:29:13Z</time>
      </trkpt>
      <trkpt lat="44.12611" lon="1.96677">
        <ele>179</ele>
        <time>2014-08-15T12:29:15Z</time>
      </trkpt>
      <trkpt lat="44.12612" lon="1.96675">
        <ele>179</ele>
        <time>2014-08-15T12:29:18Z</time>
      </trkpt>
      <trkpt lat="44.12614" lon="1.96673">
        <ele>180</ele>
        <time>2014-08-15T12:29:20Z</time>
      </trkpt>
      <trkpt lat="44.12614" lon="1.96671">
        <ele>180</ele>
        <time>2014-08-15T12:29:23Z</time>
      </trkpt>
      <trkpt lat="44.12615" lon="1.9667">
        <ele>180</ele>
        <time>2014-08-15T12:29:25Z</time>
      </trkpt>
      <trkpt lat="44.12619" lon="1.96669">
        <ele>180</ele>
        <time>2014-08-15T12:29:28Z</time>
      </trkpt>
      <trkpt lat="44.12622" lon="1.96667">
        <ele>180</ele>
        <time>2014-08-15T12:29:31Z</time>
      </trkpt>
      <trkpt lat="44.12626" lon="1.96665">
        <ele>181</ele>
        <time>2014-08-15T12:29:33Z</time>
      </trkpt>
      <trkpt lat="44.12631" lon="1.96664">
        <ele>182</ele>
        <time>2014-08-15T12:29:36Z</time>
      </trkpt>
      <trkpt lat="44.12634" lon="1.96663">
        <ele>183</ele>
        <time>2014-08-15T12:29:38Z</time>
      </trkpt>
      <trkpt lat="44.12636" lon="1.96662">
        <ele>184</ele>
        <time>2014-08-15T12:29:41Z</time>
      </trkpt>
      <trkpt lat="44.12637" lon="1.96662">
        <ele>184</ele>
        <time>2014-08-15T12:29:44Z</time>
      </trkpt>
      <trkpt lat="44.12637" lon="1.96661">
        <ele>185</ele>
        <time>2014-08-15T12:29:47Z</time>
      </trkpt>
      <trkpt lat="44.12639" lon="1.96661">
        <ele>185</ele>
        <time>2014-08-15T12:29:50Z</time>
      </trkpt>
      <trkpt lat="44.12644" lon="1.96663">
        <ele>185</ele>
        <time>2014-08-15T12:29:53Z</time>
      </trkpt>
      <trkpt lat="44.12647" lon="1.96664">
        <ele>185</ele>
        <time>2014-08-15T12:29:55Z</time>
      </trkpt>
      <trkpt lat="44.12651" lon="1.96663">
        <ele>185</ele>
        <time>2014-08-15T12:29:58Z</time>
      </trkpt>
      <trkpt lat="44.12656" lon="1.96663">
        <ele>185</ele>
        <time>2014-08-15T12:30:01Z</time>
      </trkpt>
      <trkpt lat="44.12659" lon="1.96663">
        <ele>186</ele>
        <time>2014-08-15T12:30:03Z</time>
      </trkpt>
      <trkpt lat="44.12664" lon="1.96662">
        <ele>187</ele>
        <time>2014-08-15T12:30:06Z</time>
      </trkpt>
      <trkpt lat="44.12667" lon="1.9666">
        <ele>187</ele>
        <time>2014-08-15T12:30:08Z</time>
      </trkpt>
      <trkpt lat="44.12672" lon="1.96658">
        <ele>188</ele>
        <time>2014-08-15T12:30:11Z</time>
      </trkpt>
      <trkpt lat="44.12676" lon="1.96656">
        <ele>189</ele>
        <time>2014-08-15T12:30:14Z</time>
      </trkpt>
      <trkpt lat="44.1268" lon="1.96656">
        <ele>190</ele>
        <time>2014-08-15T12:30:17Z</time>
      </trkpt>
      <trkpt lat="44.12683" lon="1.96655">
        <ele>190</ele>
        <time>2014-08-15T12:30:19Z</time>
      </trkpt>
      <trkpt lat="44.12686" lon="1.96654">
        <ele>191</ele>
        <time>2014-08-15T12:30:21Z</time>
      </trkpt>
      <trkpt lat="44.1269" lon="1.96653">
        <ele>192</ele>
        <time>2014-08-15T12:30:23Z</time>
      </trkpt>
      <trkpt lat="44.12694" lon="1.96651">
        <ele>192</ele>
        <time>2014-08-15T12:30:26Z</time>
      </trkpt>
      <trkpt lat="44.12697" lon="1.9665">
        <ele>192</ele>
        <time>2014-08-15T12:30:28Z</time>
      </trkpt>
      <trkpt lat="44.12701" lon="1.96648">
        <ele>193</ele>
        <time>2014-08-15T12:30:30Z</time>
      </trkpt>
      <trkpt lat="44.12704" lon="1.96648">
        <ele>193</ele>
        <time>2014-08-15T12:30:32Z</time>
      </trkpt>
      <trkpt lat="44.12708" lon="1.96647">
        <ele>194</ele>
        <time>2014-08-15T12:30:34Z</time>
      </trkpt>
      <trkpt lat="44.12712" lon="1.96645">
        <ele>194</ele>
        <time>2014-08-15T12:30:36Z</time>
      </trkpt>
      <trkpt lat="44.12715" lon="1.96644">
        <ele>195</ele>
        <time>2014-08-15T12:30:38Z</time>
      </trkpt>
      <trkpt lat="44.12717" lon="1.96643">
        <ele>195</ele>
        <time>2014-08-15T12:30:40Z</time>
      </trkpt>
      <trkpt lat="44.12719" lon="1.96641">
        <ele>195</ele>
        <time>2014-08-15T12:30:43Z</time>
      </trkpt>
      <trkpt lat="44.12721" lon="1.9664">
        <ele>195</ele>
        <time>2014-08-15T12:30:46Z</time>
      </trkpt>
      <trkpt lat="44.12723" lon="1.96639">
        <ele>196</ele>
        <time>2014-08-15T12:30:49Z</time>
      </trkpt>
      <trkpt lat="44.12727" lon="1.96638">
        <ele>196</ele>
        <time>2014-08-15T12:30:52Z</time>
      </trkpt>
      <trkpt lat="44.1273" lon="1.96637">
        <ele>196</ele>
        <time>2014-08-15T12:30:54Z</time>
      </trkpt>
      <trkpt lat="44.12732" lon="1.96636">
        <ele>196</ele>
        <time>2014-08-15T12:30:56Z</time>
      </trkpt>
      <trkpt lat="44.12733" lon="1.96635">
        <ele>197</ele>
        <time>2014-08-15T12:30:59Z</time>
      </trkpt>
      <trkpt lat="44.12735" lon="1.96635">
        <ele>197</ele>
        <time>2014-08-15T12:31:01Z</time>
      </trkpt>
      <trkpt lat="44.12737" lon="1.96635">
        <ele>197</ele>
        <time>2014-08-15T12:31:04Z</time>
      </trkpt>
      <trkpt lat="44.12738" lon="1.96635">
        <ele>198</ele>
        <time>2014-08-15T12:31:07Z</time>
      </trkpt>
      <trkpt lat="44.1274" lon="1.96636">
        <ele>198</ele>
        <time>2014-08-15T12:31:10Z</time>
      </trkpt>
      <trkpt lat="44.12743" lon="1.96636">
        <ele>199</ele>
        <time>2014-08-15T12:31:13Z</time>
      </trkpt>
      <trkpt lat="44.12745" lon="1.96637">
        <ele>199</ele>
        <time>2014-08-15T12:31:16Z</time>
      </trkpt>
      <trkpt lat="44.12747" lon="1.96636">
        <ele>200</ele>
        <time>2014-08-15T12:31:19Z</time>
      </trkpt>
      <trkpt lat="44.12748" lon="1.96636">
        <ele>200</ele>
        <time>2014-08-15T12:31:21Z</time>
      </trkpt>
      <trkpt lat="44.12748" lon="1.96636">
        <ele>200</ele>
        <time>2014-08-15T12:31:24Z</time>
      </trkpt>
      <trkpt lat="44.12751" lon="1.96636">
        <ele>201</ele>
        <time>2014-08-15T12:31:26Z</time>
      </trkpt>
      <trkpt lat="44.12754" lon="1.96636">
        <ele>201</ele>
        <time>2014-08-15T12:31:28Z</time>
      </trkpt>
      <trkpt lat="44.12759" lon="1.96636">
        <ele>202</ele>
        <time>2014-08-15T12:31:31Z</time>
      </trkpt>
      <trkpt lat="44.12764" lon="1.96637">
        <ele>203</ele>
        <time>2014-08-15T12:31:34Z</time>
      </trkpt>
      <trkpt lat="44.1277" lon="1.96637">
        <ele>204</ele>
        <time>2014-08-15T12:31:37Z</time>
      </trkpt>
      <trkpt lat="44.12775" lon="1.96637">
        <ele>204</ele>
        <time>2014-08-15T12:31:40Z</time>
      </trkpt>
      <trkpt lat="44.12782" lon="1.96638">
        <ele>205</ele>
        <time>2014-08-15T12:31:43Z</time>
      </trkpt>
      <trkpt lat="44.12788" lon="1.96638">
        <ele>206</ele>
        <time>2014-08-15T12:31:46Z</time>
      </trkpt>
      <trkpt lat="44.12793" lon="1.96639">
        <ele>206</ele>
        <time>2014-08-15T12:31:49Z</time>
      </trkpt>
      <trkpt lat="44.12797" lon="1.9664">
        <ele>207</ele>
        <time>2014-08-15T12:31:51Z</time>
      </trkpt>
      <trkpt lat="44.12801" lon="1.9664">
        <ele>208</ele>
        <time>2014-08-15T12:31:53Z</time>
      </trkpt>
      <trkpt lat="44.12809" lon="1.96641">
        <ele>208</ele>
        <time>2014-08-15T12:31:56Z</time>
      </trkpt>
      <trkpt lat="44.12813" lon="1.96642">
        <ele>209</ele>
        <time>2014-08-15T12:31:58Z</time>
      </trkpt>
      <trkpt lat="44.12821" lon="1.96643">
        <ele>210</ele>
        <time>2014-08-15T12:32:01Z</time>
      </trkpt>
      <trkpt lat="44.12829" lon="1.96642">
        <ele>211</ele>
        <time>2014-08-15T12:32:04Z</time>
      </trkpt>
      <trkpt lat="44.12837" lon="1.96643">
        <ele>211</ele>
        <time>2014-08-15T12:32:07Z</time>
      </trkpt>
      <trkpt lat="44.12845" lon="1.96644">
        <ele>212</ele>
        <time>2014-08-15T12:32:10Z</time>
      </trkpt>
      <trkpt lat="44.12853" lon="1.96645">
        <ele>213</ele>
        <time>2014-08-15T12:32:13Z</time>
      </trkpt>
      <trkpt lat="44.1286" lon="1.96646">
        <ele>214</ele>
        <time>2014-08-15T12:32:16Z</time>
      </trkpt>
      <trkpt lat="44.12865" lon="1.96646">
        <ele>214</ele>
        <time>2014-08-15T12:32:18Z</time>
      </trkpt>
      <trkpt lat="44.1287" lon="1.96646">
        <ele>215</ele>
        <time>2014-08-15T12:32:21Z</time>
      </trkpt>
      <trkpt lat="44.12872" lon="1.96644">
        <ele>215</ele>
        <time>2014-08-15T12:32:23Z</time>
      </trkpt>
      <trkpt lat="44.12876" lon="1.96644">
        <ele>216</ele>
        <time>2014-08-15T12:32:25Z</time>
      </trkpt>
      <trkpt lat="44.1288" lon="1.96647">
        <ele>216</ele>
        <time>2014-08-15T12:32:27Z</time>
      </trkpt>
      <trkpt lat="44.12885" lon="1.96649">
        <ele>217</ele>
        <time>2014-08-15T12:32:29Z</time>
      </trkpt>
      <trkpt lat="44.12893" lon="1.96651">
        <ele>217</ele>
        <time>2014-08-15T12:32:32Z</time>
      </trkpt>
      <trkpt lat="44.12901" lon="1.96653">
        <ele>217</ele>
        <time>2014-08-15T12:32:35Z</time>
      </trkpt>
      <trkpt lat="44.12905" lon="1.96655">
        <ele>217</ele>
        <time>2014-08-15T12:32:37Z</time>
      </trkpt>
      <trkpt lat="44.12911" lon="1.96657">
        <ele>218</ele>
        <time>2014-08-15T12:32:40Z</time>
      </trkpt>
      <trkpt lat="44.12916" lon="1.96658">
        <ele>218</ele>
        <time>2014-08-15T12:32:42Z</time>
      </trkpt>
      <trkpt lat="44.12924" lon="1.9666">
        <ele>219</ele>
        <time>2014-08-15T12:32:45Z</time>
      </trkpt>
      <trkpt lat="44.12928" lon="1.96661">
        <ele>219</ele>
        <time>2014-08-15T12:32:47Z</time>
      </trkpt>
      <trkpt lat="44.12932" lon="1.96663">
        <ele>219</ele>
        <time>2014-08-15T12:32:49Z</time>
      </trkpt>
      <trkpt lat="44.12936" lon="1.96665">
        <ele>219</ele>
        <time>2014-08-15T12:32:51Z</time>
      </trkpt>
      <trkpt lat="44.12938" lon="1.96667">
        <ele>220</ele>
        <time>2014-08-15T12:32:53Z</time>
      </trkpt>
      <trkpt lat="44.12939" lon="1.96666">
        <ele>220</ele>
        <time>2014-08-15T12:32:55Z</time>
      </trkpt>
      <trkpt lat="44.12941" lon="1.96663">
        <ele>220</ele>
        <time>2014-08-15T12:32:58Z</time>
      </trkpt>
      <trkpt lat="44.12941" lon="1.96663">
        <ele>220</ele>
        <time>2014-08-15T12:33:01Z</time>
      </trkpt>
      <trkpt lat="44.12944" lon="1.96664">
        <ele>220</ele>
        <time>2014-08-15T12:33:04Z</time>
      </trkpt>
      <trkpt lat="44.1295" lon="1.96667">
        <ele>220</ele>
        <time>2014-08-15T12:33:07Z</time>
      </trkpt>
      <trkpt lat="44.12957" lon="1.96671">
        <ele>220</ele>
        <time>2014-08-15T12:33:10Z</time>
      </trkpt>
      <trkpt lat="44.12963" lon="1.96674">
        <ele>219</ele>
        <time>2014-08-15T12:33:12Z</time>
      </trkpt>
      <trkpt lat="44.12968" lon="1.96676">
        <ele>219</ele>
        <time>2014-08-15T12:33:14Z</time>
      </trkpt>
      <trkpt lat="44.12978" lon="1.96678">
        <ele>219</ele>
        <time>2014-08-15T12:33:17Z</time>
      </trkpt>
      <trkpt lat="44.12985" lon="1.9668">
        <ele>219</ele>
        <time>2014-08-15T12:33:19Z</time>
      </trkpt>
      <trkpt lat="44.12994" lon="1.96681">
        <ele>219</ele>
        <time>2014-08-15T12:33:21Z</time>
      </trkpt>
      <trkpt lat="44.13012" lon="1.96681">
        <ele>218</ele>
        <time>2014-08-15T12:33:24Z</time>
      </trkpt>
      <trkpt lat="44.13025" lon="1.96684">
        <ele>218</ele>
        <time>2014-08-15T12:33:26Z</time>
      </trkpt>
      <trkpt lat="44.13036" lon="1.96693">
        <ele>217</ele>
        <time>2014-08-15T12:33:28Z</time>
      </trkpt>
      <trkpt lat="44.13041" lon="1.96719">
        <ele>215</ele>
        <time>2014-08-15T12:33:31Z</time>
      </trkpt>
      <trkpt lat="44.13039" lon="1.9675">
        <ele>213</ele>
        <time>2014-08-15T12:33:34Z</time>
      </trkpt>
      <trkpt lat="44.13044" lon="1.96765">
        <ele>212</ele>
        <time>2014-08-15T12:33:36Z</time>
      </trkpt>
      <trkpt lat="44.1306" lon="1.96776">
        <ele>210</ele>
        <time>2014-08-15T12:33:39Z</time>
      </trkpt>
      <trkpt lat="44.13074" lon="1.96778">
        <ele>209</ele>
        <time>2014-08-15T12:33:41Z</time>
      </trkpt>
      <trkpt lat="44.13097" lon="1.96779">
        <ele>208</ele>
        <time>2014-08-15T12:33:44Z</time>
      </trkpt>
      <trkpt lat="44.13114" lon="1.96784">
        <ele>206</ele>
        <time>2014-08-15T12:33:46Z</time>
      </trkpt>
      <trkpt lat="44.13141" lon="1.96792">
        <ele>205</ele>
        <time>2014-08-15T12:33:49Z</time>
      </trkpt>
      <trkpt lat="44.13169" lon="1.96801">
        <ele>203</ele>
        <time>2014-08-15T12:33:52Z</time>
      </trkpt>
      <trkpt lat="44.13197" lon="1.96814">
        <ele>202</ele>
        <time>2014-08-15T12:33:55Z</time>
      </trkpt>
      <trkpt lat="44.13217" lon="1.96823">
        <ele>201</ele>
        <time>2014-08-15T12:33:57Z</time>
      </trkpt>
      <trkpt lat="44.13247" lon="1.96835">
        <ele>198</ele>
        <time>2014-08-15T12:34:00Z</time>
      </trkpt>
      <trkpt lat="44.13266" lon="1.96844">
        <ele>197</ele>
        <time>2014-08-15T12:34:02Z</time>
      </trkpt>
      <trkpt lat="44.13283" lon="1.96844">
        <ele>195</ele>
        <time>2014-08-15T12:34:04Z</time>
      </trkpt>
      <trkpt lat="44.13299" lon="1.96819">
        <ele>193</ele>
        <time>2014-08-15T12:34:07Z</time>
      </trkpt>
      <trkpt lat="44.13304" lon="1.96797">
        <ele>192</ele>
        <time>2014-08-15T12:34:09Z</time>
      </trkpt>
      <trkpt lat="44.13317" lon="1.96773">
        <ele>189</ele>
        <time>2014-08-15T12:34:12Z</time>
      </trkpt>
      <trkpt lat="44.13329" lon="1.96773">
        <ele>188</ele>
        <time>2014-08-15T12:34:14Z</time>
      </trkpt>
      <trkpt lat="44.1334" lon="1.96788">
        <ele>186</ele>
        <time>2014-08-15T12:34:16Z</time>
      </trkpt>
      <trkpt lat="44.13346" lon="1.9682">
        <ele>184</ele>
        <time>2014-08-15T12:34:19Z</time>
      </trkpt>
      <trkpt lat="44.13348" lon="1.96854">
        <ele>182</ele>
        <time>2014-08-15T12:34:22Z</time>
      </trkpt>
      <trkpt lat="44.1335" lon="1.96876">
        <ele>181</ele>
        <time>2014-08-15T12:34:24Z</time>
      </trkpt>
      <trkpt lat="44.13352" lon="1.96907">
        <ele>179</ele>
        <time>2014-08-15T12:34:27Z</time>
      </trkpt>
      <trkpt lat="44.13363" lon="1.96924">
        <ele>178</ele>
        <time>2014-08-15T12:34:30Z</time>
      </trkpt>
      <trkpt lat="44.13378" lon="1.96931">
        <ele>176</ele>
        <time>2014-08-15T12:34:33Z</time>
      </trkpt>
      <trkpt lat="44.13395" lon="1.96923">
        <ele>175</ele>
        <time>2014-08-15T12:34:36Z</time>
      </trkpt>
      <trkpt lat="44.13406" lon="1.96915">
        <ele>174</ele>
        <time>2014-08-15T12:34:38Z</time>
      </trkpt>
      <trkpt lat="44.13423" lon="1.96906">
        <ele>174</ele>
        <time>2014-08-15T12:34:41Z</time>
      </trkpt>
      <trkpt lat="44.13436" lon="1.96902">
        <ele>173</ele>
        <time>2014-08-15T12:34:43Z</time>
      </trkpt>
      <trkpt lat="44.13454" lon="1.96899">
        <ele>172</ele>
        <time>2014-08-15T12:34:46Z</time>
      </trkpt>
      <trkpt lat="44.13464" lon="1.96899">
        <ele>171</ele>
        <time>2014-08-15T12:34:48Z</time>
      </trkpt>
      <trkpt lat="44.13468" lon="1.96899">
        <ele>170</ele>
        <time>2014-08-15T12:34:50Z</time>
      </trkpt>
      <trkpt lat="44.13474" lon="1.96899">
        <ele>169</ele>
        <time>2014-08-15T12:34:53Z</time>
      </trkpt>
      <trkpt lat="44.1348" lon="1.96899">
        <ele>169</ele>
        <time>2014-08-15T12:34:56Z</time>
      </trkpt>
      <trkpt lat="44.13482" lon="1.96899">
        <ele>169</ele>
        <time>2014-08-15T12:34:58Z</time>
      </trkpt>
      <trkpt lat="44.13486" lon="1.969">
        <ele>168</ele>
        <time>2014-08-15T12:35:01Z</time>
      </trkpt>
      <trkpt lat="44.13488" lon="1.96902">
        <ele>168</ele>
        <time>2014-08-15T12:35:03Z</time>
      </trkpt>
      <trkpt lat="44.1349" lon="1.96902">
        <ele>168</ele>
        <time>2014-08-15T12:35:06Z</time>
      </trkpt>
      <trkpt lat="44.13494" lon="1.96902">
        <ele>168</ele>
        <time>2014-08-15T12:35:09Z</time>
      </trkpt>
      <trkpt lat="44.13497" lon="1.96904">
        <ele>168</ele>
        <time>2014-08-15T12:35:12Z</time>
      </trkpt>
      <trkpt lat="44.13498" lon="1.96904">
        <ele>167</ele>
        <time>2014-08-15T12:35:14Z</time>
      </trkpt>
      <trkpt lat="44.13499" lon="1.96904">
        <ele>167</ele>
        <time>2014-08-15T12:35:16Z</time>
      </trkpt>
      <trkpt lat="44.13499" lon="1.96904">
        <ele>167</ele>
        <time>2014-08-15T12:35:19Z</time>
      </trkpt>
      <trkpt lat="44.13499" lon="1.96903">
        <ele>167</ele>
        <time>2014-08-15T12:35:24Z</time>
      </trkpt>
      <trkpt lat="44.13499" lon="1.96903">
        <ele>167</ele>
        <time>2014-08-15T12:35:26Z</time>
      </trkpt>
      <trkpt lat="44.13499" lon="1.96902">
        <ele>167</ele>
        <time>2014-08-15T12:35:29Z</time>
      </trkpt>
      <trkpt lat="44.13499" lon="1.96902">
        <ele>167</ele>
        <time>2014-08-15T12:35:33Z</time>
      </trkpt>
      <trkpt lat="44.13499" lon="1.96902">
        <ele>167</ele>
        <time>2014-08-15T12:35:35Z</time>
      </trkpt>
      <trkpt lat="44.13499" lon="1.96902">
        <ele>167</ele>
        <time>2014-08-15T12:35:38Z</time>
      </trkpt>
      <trkpt lat="44.135" lon="1.96901">
        <ele>168</ele>
        <time>2014-08-15T12:35:41Z</time>
      </trkpt>
      <trkpt lat="44.13501" lon="1.96898">
        <ele>168</ele>
        <time>2014-08-15T12:35:43Z</time>
      </trkpt>
      <trkpt lat="44.135" lon="1.96898">
        <ele>168</ele>
        <time>2014-08-15T12:35:46Z</time>
      </trkpt>
      <trkpt lat="44.13499" lon="1.96898">
        <ele>168</ele>
        <time>2014-08-15T12:35:48Z</time>
      </trkpt>
      <trkpt lat="44.13499" lon="1.96898">
        <ele>168</ele>
        <time>2014-08-15T12:35:50Z</time>
      </trkpt>
      <trkpt lat="44.135" lon="1.96899">
        <ele>168</ele>
        <time>2014-08-15T12:35:53Z</time>
      </trkpt>
      <trkpt lat="44.13501" lon="1.96899">
        <ele>168</ele>
        <time>2014-08-15T12:35:56Z</time>
      </trkpt>
      <trkpt lat="44.135" lon="1.96899">
        <ele>168</ele>
        <time>2014-08-15T12:36:00Z</time>
      </trkpt>
      <trkpt lat="44.13501" lon="1.96899">
        <ele>168</ele>
        <time>2014-08-15T12:36:02Z</time>
      </trkpt>
      <trkpt lat="44.13506" lon="1.969">
        <ele>168</ele>
        <time>2014-08-15T12:36:05Z</time>
      </trkpt>
      <trkpt lat="44.13511" lon="1.96902">
        <ele>168</ele>
        <time>2014-08-15T12:36:07Z</time>
      </trkpt>
      <trkpt lat="44.13522" lon="1.96905">
        <ele>167</ele>
        <time>2014-08-15T12:36:10Z</time>
      </trkpt>
      <trkpt lat="44.1353" lon="1.96906">
        <ele>166</ele>
        <time>2014-08-15T12:36:12Z</time>
      </trkpt>
      <trkpt lat="44.13541" lon="1.96904">
        <ele>165</ele>
        <time>2014-08-15T12:36:15Z</time>
      </trkpt>
      <trkpt lat="44.13559" lon="1.96897">
        <ele>164</ele>
        <time>2014-08-15T12:36:18Z</time>
      </trkpt>
      <trkpt lat="44.13575" lon="1.96892">
        <ele>163</ele>
        <time>2014-08-15T12:36:20Z</time>
      </trkpt>
      <trkpt lat="44.136" lon="1.96881">
        <ele>162</ele>
        <time>2014-08-15T12:36:23Z</time>
      </trkpt>
      <trkpt lat="44.13629" lon="1.96871">
        <ele>160</ele>
        <time>2014-08-15T12:36:26Z</time>
      </trkpt>
      <trkpt lat="44.13663" lon="1.96863">
        <ele>158</ele>
        <time>2014-08-15T12:36:29Z</time>
      </trkpt>
      <trkpt lat="44.13686" lon="1.96861">
        <ele>156</ele>
        <time>2014-08-15T12:36:31Z</time>
      </trkpt>
      <trkpt lat="44.13713" lon="1.96859">
        <ele>154</ele>
        <time>2014-08-15T12:36:34Z</time>
      </trkpt>
      <trkpt lat="44.1372" lon="1.96856">
        <ele>150</ele>
        <time>2014-08-15T12:36:36Z</time>
      </trkpt>
      <trkpt lat="44.13724" lon="1.96852">
        <ele>146</ele>
        <time>2014-08-15T12:36:39Z</time>
      </trkpt>
      <trkpt lat="44.13724" lon="1.96854">
        <ele>144</ele>
        <time>2014-08-15T12:36:41Z</time>
      </trkpt>
      <trkpt lat="44.13723" lon="1.96855">
        <ele>144</ele>
        <time>2014-08-15T12:36:43Z</time>
      </trkpt>
      <trkpt lat="44.13728" lon="1.96856">
        <ele>145</ele>
        <time>2014-08-15T12:36:46Z</time>
      </trkpt>
      <trkpt lat="44.13731" lon="1.96854">
        <ele>145</ele>
        <time>2014-08-15T12:36:48Z</time>
      </trkpt>
      <trkpt lat="44.13729" lon="1.96855">
        <ele>145</ele>
        <time>2014-08-15T12:36:51Z</time>
      </trkpt>
      <trkpt lat="44.13723" lon="1.96857">
        <ele>145</ele>
        <time>2014-08-15T12:36:54Z</time>
      </trkpt>
      <trkpt lat="44.13716" lon="1.96858">
        <ele>146</ele>
        <time>2014-08-15T12:36:57Z</time>
      </trkpt>
      <trkpt lat="44.13711" lon="1.96858">
        <ele>146</ele>
        <time>2014-08-15T12:36:59Z</time>
      </trkpt>
      <trkpt lat="44.13704" lon="1.96855">
        <ele>148</ele>
        <time>2014-08-15T12:37:02Z</time>
      </trkpt>
      <trkpt lat="44.13699" lon="1.96854">
        <ele>148</ele>
        <time>2014-08-15T12:37:04Z</time>
      </trkpt>
      <trkpt lat="44.13696" lon="1.96855">
        <ele>149</ele>
        <time>2014-08-15T12:37:06Z</time>
      </trkpt>
      <trkpt lat="44.13695" lon="1.96858">
        <ele>149</ele>
        <time>2014-08-15T12:37:09Z</time>
      </trkpt>
      <trkpt lat="44.13697" lon="1.96859">
        <ele>149</ele>
        <time>2014-08-15T12:37:11Z</time>
      </trkpt>
      <trkpt lat="44.13707" lon="1.96862">
        <ele>148</ele>
        <time>2014-08-15T12:37:14Z</time>
      </trkpt>
      <trkpt lat="44.13715" lon="1.9686">
        <ele>146</ele>
        <time>2014-08-15T12:37:16Z</time>
      </trkpt>
      <trkpt lat="44.13724" lon="1.9686">
        <ele>144</ele>
        <time>2014-08-15T12:37:18Z</time>
      </trkpt>
      <trkpt lat="44.13732" lon="1.96862">
        <ele>141</ele>
        <time>2014-08-15T12:37:21Z</time>
      </trkpt>
      <trkpt lat="44.13734" lon="1.9687">
        <ele>137</ele>
        <time>2014-08-15T12:37:24Z</time>
      </trkpt>
      <trkpt lat="44.13736" lon="1.96875">
        <ele>135</ele>
        <time>2014-08-15T12:37:26Z</time>
      </trkpt>
      <trkpt lat="44.13746" lon="1.96877">
        <ele>132</ele>
        <time>2014-08-15T12:37:29Z</time>
      </trkpt>
      <trkpt lat="44.13754" lon="1.96873">
        <ele>131</ele>
        <time>2014-08-15T12:37:31Z</time>
      </trkpt>
      <trkpt lat="44.13767" lon="1.96866">
        <ele>129</ele>
        <time>2014-08-15T12:37:34Z</time>
      </trkpt>
      <trkpt lat="44.13779" lon="1.96858">
        <ele>126</ele>
        <time>2014-08-15T12:37:37Z</time>
      </trkpt>
      <trkpt lat="44.13786" lon="1.96855">
        <ele>124</ele>
        <time>2014-08-15T12:37:39Z</time>
      </trkpt>
      <trkpt lat="44.13792" lon="1.96854">
        <ele>123</ele>
        <time>2014-08-15T12:37:41Z</time>
      </trkpt>
      <trkpt lat="44.13801" lon="1.9685">
        <ele>121</ele>
        <time>2014-08-15T12:37:44Z</time>
      </trkpt>
      <trkpt lat="44.13805" lon="1.96848">
        <ele>121</ele>
        <time>2014-08-15T12:37:46Z</time>
      </trkpt>
      <trkpt lat="44.13809" lon="1.96846">
        <ele>121</ele>
        <time>2014-08-15T12:37:48Z</time>
      </trkpt>
      <trkpt lat="44.13815" lon="1.96846">
        <ele>121</ele>
        <time>2014-08-15T12:37:50Z</time>
      </trkpt>
      <trkpt lat="44.13822" lon="1.96845">
        <ele>121</ele>
        <time>2014-08-15T12:37:53Z</time>
      </trkpt>
      <trkpt lat="44.13827" lon="1.96844">
        <ele>122</ele>
        <time>2014-08-15T12:37:56Z</time>
      </trkpt>
      <trkpt lat="44.1383" lon="1.96844">
        <ele>122</ele>
        <time>2014-08-15T12:37:58Z</time>
      </trkpt>
      <trkpt lat="44.13832" lon="1.96843">
        <ele>123</ele>
        <time>2014-08-15T12:38:00Z</time>
      </trkpt>
      <trkpt lat="44.13834" lon="1.96842">
        <ele>122</ele>
        <time>2014-08-15T12:38:02Z</time>
      </trkpt>
      <trkpt lat="44.13838" lon="1.96841">
        <ele>122</ele>
        <time>2014-08-15T12:38:05Z</time>
      </trkpt>
      <trkpt lat="44.13842" lon="1.96842">
        <ele>122</ele>
        <time>2014-08-15T12:38:07Z</time>
      </trkpt>
      <trkpt lat="44.13848" lon="1.96842">
        <ele>122</ele>
        <time>2014-08-15T12:38:10Z</time>
      </trkpt>
      <trkpt lat="44.13855" lon="1.96844">
        <ele>122</ele>
        <time>2014-08-15T12:38:13Z</time>
      </trkpt>
      <trkpt lat="44.13857" lon="1.96844">
        <ele>122</ele>
        <time>2014-08-15T12:38:15Z</time>
      </trkpt>
      <trkpt lat="44.1386" lon="1.96844">
        <ele>121</ele>
        <time>2014-08-15T12:38:18Z</time>
      </trkpt>
      <trkpt lat="44.13863" lon="1.96844">
        <ele>121</ele>
        <time>2014-08-15T12:38:21Z</time>
      </trkpt>
      <trkpt lat="44.13868" lon="1.96844">
        <ele>122</ele>
        <time>2014-08-15T12:38:24Z</time>
      </trkpt>
      <trkpt lat="44.13877" lon="1.96844">
        <ele>121</ele>
        <time>2014-08-15T12:38:27Z</time>
      </trkpt>
      <trkpt lat="44.13885" lon="1.96843">
        <ele>121</ele>
        <time>2014-08-15T12:38:29Z</time>
      </trkpt>
      <trkpt lat="44.13903" lon="1.96838">
        <ele>120</ele>
        <time>2014-08-15T12:38:32Z</time>
      </trkpt>
      <trkpt lat="44.13922" lon="1.96834">
        <ele>119</ele>
        <time>2014-08-15T12:38:35Z</time>
      </trkpt>
      <trkpt lat="44.13936" lon="1.96832">
        <ele>118</ele>
        <time>2014-08-15T12:38:37Z</time>
      </trkpt>
      <trkpt lat="44.13961" lon="1.9684">
        <ele>116</ele>
        <time>2014-08-15T12:38:40Z</time>
      </trkpt>
      <trkpt lat="44.13978" lon="1.96845">
        <ele>115</ele>
        <time>2014-08-15T12:38:42Z</time>
      </trkpt>
      <trkpt lat="44.14" lon="1.96849">
        <ele>113</ele>
        <time>2014-08-15T12:38:45Z</time>
      </trkpt>
      <trkpt lat="44.14019" lon="1.96847">
        <ele>112</ele>
        <time>2014-08-15T12:38:48Z</time>
      </trkpt>
      <trkpt lat="44.14032" lon="1.96847">
        <ele>112</ele>
        <time>2014-08-15T12:38:51Z</time>
      </trkpt>
      <trkpt lat="44.14039" lon="1.96848">
        <ele>113</ele>
        <time>2014-08-15T12:38:53Z</time>
      </trkpt>
      <trkpt lat="44.14047" lon="1.96851">
        <ele>113</ele>
        <time>2014-08-15T12:38:55Z</time>
      </trkpt>
      <trkpt lat="44.14062" lon="1.96855">
        <ele>113</ele>
        <time>2014-08-15T12:38:58Z</time>
      </trkpt>
      <trkpt lat="44.14073" lon="1.96859">
        <ele>114</ele>
        <time>2014-08-15T12:39:00Z</time>
      </trkpt>
      <trkpt lat="44.14087" lon="1.9686">
        <ele>114</ele>
        <time>2014-08-15T12:39:03Z</time>
      </trkpt>
      <trkpt lat="44.14093" lon="1.96862">
        <ele>114</ele>
        <time>2014-08-15T12:39:05Z</time>
      </trkpt>
      <trkpt lat="44.141" lon="1.96862">
        <ele>114</ele>
        <time>2014-08-15T12:39:07Z</time>
      </trkpt>
      <trkpt lat="44.14108" lon="1.96863">
        <ele>114</ele>
        <time>2014-08-15T12:39:10Z</time>
      </trkpt>
      <trkpt lat="44.14116" lon="1.96863">
        <ele>114</ele>
        <time>2014-08-15T12:39:13Z</time>
      </trkpt>
      <trkpt lat="44.14121" lon="1.96862">
        <ele>114</ele>
        <time>2014-08-15T12:39:15Z</time>
      </trkpt>
      <trkpt lat="44.14131" lon="1.9686">
        <ele>114</ele>
        <time>2014-08-15T12:39:18Z</time>
      </trkpt>
      <trkpt lat="44.1414" lon="1.96857">
        <ele>113</ele>
        <time>2014-08-15T12:39:20Z</time>
      </trkpt>
      <trkpt lat="44.1416" lon="1.96857">
        <ele>112</ele>
        <time>2014-08-15T12:39:23Z</time>
      </trkpt>
      <trkpt lat="44.14176" lon="1.9686">
        <ele>111</ele>
        <time>2014-08-15T12:39:26Z</time>
      </trkpt>
      <trkpt lat="44.14182" lon="1.96861">
        <ele>110</ele>
        <time>2014-08-15T12:39:28Z</time>
      </trkpt>
      <trkpt lat="44.14186" lon="1.96865">
        <ele>110</ele>
        <time>2014-08-15T12:39:30Z</time>
      </trkpt>
      <trkpt lat="44.14192" lon="1.96872">
        <ele>109</ele>
        <time>2014-08-15T12:39:33Z</time>
      </trkpt>
      <trkpt lat="44.14195" lon="1.96871">
        <ele>108</ele>
        <time>2014-08-15T12:39:35Z</time>
      </trkpt>
      <trkpt lat="44.14199" lon="1.9687">
        <ele>108</ele>
        <time>2014-08-15T12:39:38Z</time>
      </trkpt>
      <trkpt lat="44.14201" lon="1.96867">
        <ele>108</ele>
        <time>2014-08-15T12:39:40Z</time>
      </trkpt>
      <trkpt lat="44.14204" lon="1.96863">
        <ele>107</ele>
        <time>2014-08-15T12:39:43Z</time>
      </trkpt>
      <trkpt lat="44.14206" lon="1.96859">
        <ele>106</ele>
        <time>2014-08-15T12:39:46Z</time>
      </trkpt>
      <trkpt lat="44.14205" lon="1.96853">
        <ele>105</ele>
        <time>2014-08-15T12:39:48Z</time>
      </trkpt>
      <trkpt lat="44.14194" lon="1.96841">
        <ele>104</ele>
        <time>2014-08-15T12:39:51Z</time>
      </trkpt>
      <trkpt lat="44.14182" lon="1.96836">
        <ele>103</ele>
        <time>2014-08-15T12:39:53Z</time>
      </trkpt>
      <trkpt lat="44.14168" lon="1.96832">
        <ele>101</ele>
        <time>2014-08-15T12:39:56Z</time>
      </trkpt>
      <trkpt lat="44.14165" lon="1.96825">
        <ele>98</ele>
        <time>2014-08-15T12:39:59Z</time>
      </trkpt>
      <trkpt lat="44.14171" lon="1.96816">
        <ele>95</ele>
        <time>2014-08-15T12:40:02Z</time>
      </trkpt>
      <trkpt lat="44.14178" lon="1.96813">
        <ele>95</ele>
        <time>2014-08-15T12:40:05Z</time>
      </trkpt>
      <trkpt lat="44.14182" lon="1.96812">
        <ele>95</ele>
        <time>2014-08-15T12:40:08Z</time>
      </trkpt>
      <trkpt lat="44.14189" lon="1.96812">
        <ele>96</ele>
        <time>2014-08-15T12:40:11Z</time>
      </trkpt>
      <trkpt lat="44.14194" lon="1.96814">
        <ele>95</ele>
        <time>2014-08-15T12:40:13Z</time>
      </trkpt>
      <trkpt lat="44.14204" lon="1.96817">
        <ele>95</ele>
        <time>2014-08-15T12:40:16Z</time>
      </trkpt>
      <trkpt lat="44.1421" lon="1.96819">
        <ele>95</ele>
        <time>2014-08-15T12:40:18Z</time>
      </trkpt>
      <trkpt lat="44.1422" lon="1.96815">
        <ele>94</ele>
        <time>2014-08-15T12:40:20Z</time>
      </trkpt>
      <trkpt lat="44.1424" lon="1.96803">
        <ele>93</ele>
        <time>2014-08-15T12:40:23Z</time>
      </trkpt>
      <trkpt lat="44.14257" lon="1.96798">
        <ele>92</ele>
        <time>2014-08-15T12:40:25Z</time>
      </trkpt>
      <trkpt lat="44.14277" lon="1.96795">
        <ele>91</ele>
        <time>2014-08-15T12:40:27Z</time>
      </trkpt>
      <trkpt lat="44.14296" lon="1.96792">
        <ele>91</ele>
        <time>2014-08-15T12:40:29Z</time>
      </trkpt>
      <trkpt lat="44.14319" lon="1.9677">
        <ele>89</ele>
        <time>2014-08-15T12:40:32Z</time>
      </trkpt>
      <trkpt lat="44.14327" lon="1.96756">
        <ele>88</ele>
        <time>2014-08-15T12:40:34Z</time>
      </trkpt>
      <trkpt lat="44.14336" lon="1.96746">
        <ele>86</ele>
        <time>2014-08-15T12:40:36Z</time>
      </trkpt>
      <trkpt lat="44.14347" lon="1.96734">
        <ele>84</ele>
        <time>2014-08-15T12:40:39Z</time>
      </trkpt>
      <trkpt lat="44.14349" lon="1.9673">
        <ele>84</ele>
        <time>2014-08-15T12:40:41Z</time>
      </trkpt>
      <trkpt lat="44.14342" lon="1.96733">
        <ele>84</ele>
        <time>2014-08-15T12:40:44Z</time>
      </trkpt>
      <trkpt lat="44.14336" lon="1.96742">
        <ele>84</ele>
        <time>2014-08-15T12:40:46Z</time>
      </trkpt>
      <trkpt lat="44.14331" lon="1.96754">
        <ele>84</ele>
        <time>2014-08-15T12:40:48Z</time>
      </trkpt>
      <trkpt lat="44.14328" lon="1.96766">
        <ele>84</ele>
        <time>2014-08-15T12:40:50Z</time>
      </trkpt>
      <trkpt lat="44.14323" lon="1.96787">
        <ele>83</ele>
        <time>2014-08-15T12:40:53Z</time>
      </trkpt>
      <trkpt lat="44.14319" lon="1.96808">
        <ele>83</ele>
        <time>2014-08-15T12:40:56Z</time>
      </trkpt>
      <trkpt lat="44.14314" lon="1.96827">
        <ele>83</ele>
        <time>2014-08-15T12:40:59Z</time>
      </trkpt>
      <trkpt lat="44.14308" lon="1.9684">
        <ele>82</ele>
        <time>2014-08-15T12:41:01Z</time>
      </trkpt>
      <trkpt lat="44.14302" lon="1.96853">
        <ele>82</ele>
        <time>2014-08-15T12:41:03Z</time>
      </trkpt>
      <trkpt lat="44.14292" lon="1.96868">
        <ele>82</ele>
        <time>2014-08-15T12:41:06Z</time>
      </trkpt>
      <trkpt lat="44.14285" lon="1.96875">
        <ele>81</ele>
        <time>2014-08-15T12:41:08Z</time>
      </trkpt>
      <trkpt lat="44.14275" lon="1.96887">
        <ele>82</ele>
        <time>2014-08-15T12:41:11Z</time>
      </trkpt>
      <trkpt lat="44.14268" lon="1.96895">
        <ele>82</ele>
        <time>2014-08-15T12:41:13Z</time>
      </trkpt>
      <trkpt lat="44.14256" lon="1.96907">
        <ele>82</ele>
        <time>2014-08-15T12:41:16Z</time>
      </trkpt>
      <trkpt lat="44.14252" lon="1.96917">
        <ele>82</ele>
        <time>2014-08-15T12:41:18Z</time>
      </trkpt>
      <trkpt lat="44.14244" lon="1.96932">
        <ele>82</ele>
        <time>2014-08-15T12:41:21Z</time>
      </trkpt>
      <trkpt lat="44.14241" lon="1.96945">
        <ele>82</ele>
        <time>2014-08-15T12:41:23Z</time>
      </trkpt>
      <trkpt lat="44.14238" lon="1.96964">
        <ele>82</ele>
        <time>2014-08-15T12:41:26Z</time>
      </trkpt>
      <trkpt lat="44.14236" lon="1.96983">
        <ele>82</ele>
        <time>2014-08-15T12:41:29Z</time>
      </trkpt>
      <trkpt lat="44.14233" lon="1.97">
        <ele>82</ele>
        <time>2014-08-15T12:41:32Z</time>
      </trkpt>
      <trkpt lat="44.14232" lon="1.97017">
        <ele>82</ele>
        <time>2014-08-15T12:41:35Z</time>
      </trkpt>
      <trkpt lat="44.1423" lon="1.97027">
        <ele>82</ele>
        <time>2014-08-15T12:41:37Z</time>
      </trkpt>
      <trkpt lat="44.14227" lon="1.97042">
        <ele>82</ele>
        <time>2014-08-15T12:41:40Z</time>
      </trkpt>
      <trkpt lat="44.14224" lon="1.97056">
        <ele>82</ele>
        <time>2014-08-15T12:41:43Z</time>
      </trkpt>
      <trkpt lat="44.14222" lon="1.9707">
        <ele>82</ele>
        <time>2014-08-15T12:41:46Z</time>
      </trkpt>
      <trkpt lat="44.14222" lon="1.9708">
        <ele>82</ele>
        <time>2014-08-15T12:41:48Z</time>
      </trkpt>
      <trkpt lat="44.14223" lon="1.97089">
        <ele>82</ele>
        <time>2014-08-15T12:41:51Z</time>
      </trkpt>
      <trkpt lat="44.14223" lon="1.97091">
        <ele>81</ele>
        <time>2014-08-15T12:41:53Z</time>
      </trkpt>
      <trkpt lat="44.14228" lon="1.97095">
        <ele>81</ele>
        <time>2014-08-15T12:41:56Z</time>
      </trkpt>
      <trkpt lat="44.14233" lon="1.97093">
        <ele>81</ele>
        <time>2014-08-15T12:41:58Z</time>
      </trkpt>
      <trkpt lat="44.14238" lon="1.97091">
        <ele>81</ele>
        <time>2014-08-15T12:42:00Z</time>
      </trkpt>
      <trkpt lat="44.14248" lon="1.97089">
        <ele>82</ele>
        <time>2014-08-15T12:42:03Z</time>
      </trkpt>
      <trkpt lat="44.14257" lon="1.97089">
        <ele>82</ele>
        <time>2014-08-15T12:42:06Z</time>
      </trkpt>
      <trkpt lat="44.14262" lon="1.97088">
        <ele>82</ele>
        <time>2014-08-15T12:42:08Z</time>
      </trkpt>
      <trkpt lat="44.14268" lon="1.97088">
        <ele>82</ele>
        <time>2014-08-15T12:42:11Z</time>
      </trkpt>
      <trkpt lat="44.14276" lon="1.97087">
        <ele>82</ele>
        <time>2014-08-15T12:42:14Z</time>
      </trkpt>
      <trkpt lat="44.14285" lon="1.97087">
        <ele>82</ele>
        <time>2014-08-15T12:42:17Z</time>
      </trkpt>
      <trkpt lat="44.14288" lon="1.97085">
        <ele>82</ele>
        <time>2014-08-15T12:42:19Z</time>
      </trkpt>
      <trkpt lat="44.14294" lon="1.97082">
        <ele>82</ele>
        <time>2014-08-15T12:42:22Z</time>
      </trkpt>
      <trkpt lat="44.14305" lon="1.97081">
        <ele>81</ele>
        <time>2014-08-15T12:42:25Z</time>
      </trkpt>
      <trkpt lat="44.14313" lon="1.97086">
        <ele>80</ele>
        <time>2014-08-15T12:42:27Z</time>
      </trkpt>
      <trkpt lat="44.14325" lon="1.97096">
        <ele>79</ele>
        <time>2014-08-15T12:42:30Z</time>
      </trkpt>
      <trkpt lat="44.14328" lon="1.97099">
        <ele>79</ele>
        <time>2014-08-15T12:42:32Z</time>
      </trkpt>
      <trkpt lat="44.14327" lon="1.97102">
        <ele>79</ele>
        <time>2014-08-15T12:42:35Z</time>
      </trkpt>
      <trkpt lat="44.14327" lon="1.97105">
        <ele>80</ele>
        <time>2014-08-15T12:42:38Z</time>
      </trkpt>
      <trkpt lat="44.14327" lon="1.97108">
        <ele>80</ele>
        <time>2014-08-15T12:42:41Z</time>
      </trkpt>
      <trkpt lat="44.14327" lon="1.97111">
        <ele>80</ele>
        <time>2014-08-15T12:42:44Z</time>
      </trkpt>
      <trkpt lat="44.14328" lon="1.97114">
        <ele>80</ele>
        <time>2014-08-15T12:42:46Z</time>
      </trkpt>
      <trkpt lat="44.14328" lon="1.97118">
        <ele>80</ele>
        <time>2014-08-15T12:42:49Z</time>
      </trkpt>
      <trkpt lat="44.14327" lon="1.97119">
        <ele>81</ele>
        <time>2014-08-15T12:42:51Z</time>
      </trkpt>
      <trkpt lat="44.14331" lon="1.9712">
        <ele>81</ele>
        <time>2014-08-15T12:42:54Z</time>
      </trkpt>
      <trkpt lat="44.14336" lon="1.97125">
        <ele>81</ele>
        <time>2014-08-15T12:42:57Z</time>
      </trkpt>
      <trkpt lat="44.14336" lon="1.97127">
        <ele>81</ele>
        <time>2014-08-15T12:42:59Z</time>
      </trkpt>
      <trkpt lat="44.14338" lon="1.97128">
        <ele>81</ele>
        <time>2014-08-15T12:43:02Z</time>
      </trkpt>
      <trkpt lat="44.14339" lon="1.97128">
        <ele>80</ele>
        <time>2014-08-15T12:43:04Z</time>
      </trkpt>
      <trkpt lat="44.14341" lon="1.97127">
        <ele>80</ele>
        <time>2014-08-15T12:43:07Z</time>
      </trkpt>
      <trkpt lat="44.14343" lon="1.97126">
        <ele>80</ele>
        <time>2014-08-15T12:43:09Z</time>
      </trkpt>
      <trkpt lat="44.14344" lon="1.97126">
        <ele>80</ele>
        <time>2014-08-15T12:43:12Z</time>
      </trkpt>
      <trkpt lat="44.14343" lon="1.97128">
        <ele>80</ele>
        <time>2014-08-15T12:43:15Z</time>
      </trkpt>
      <trkpt lat="44.14344" lon="1.97129">
        <ele>80</ele>
        <time>2014-08-15T12:43:17Z</time>
      </trkpt>
      <trkpt lat="44.14344" lon="1.97129">
        <ele>80</ele>
        <time>2014-08-15T12:43:20Z</time>
      </trkpt>
      <trkpt lat="44.14343" lon="1.9713">
        <ele>80</ele>
        <time>2014-08-15T12:43:22Z</time>
      </trkpt>
      <trkpt lat="44.14342" lon="1.9713">
        <ele>80</ele>
        <time>2014-08-15T12:43:25Z</time>
      </trkpt>
      <trkpt lat="44.14343" lon="1.97132">
        <ele>80</ele>
        <time>2014-08-15T12:43:28Z</time>
      </trkpt>
      <trkpt lat="44.14343" lon="1.97136">
        <ele>80</ele>
        <time>2014-08-15T12:43:31Z</time>
      </trkpt>
      <trkpt lat="44.14342" lon="1.97139">
        <ele>80</ele>
        <time>2014-08-15T12:43:33Z</time>
      </trkpt>
      <trkpt lat="44.14342" lon="1.9714">
        <ele>80</ele>
        <time>2014-08-15T12:43:36Z</time>
      </trkpt>
      <trkpt lat="44.14342" lon="1.97141">
        <ele>80</ele>
        <time>2014-08-15T12:43:38Z</time>
      </trkpt>
      <trkpt lat="44.14339" lon="1.97145">
        <ele>80</ele>
        <time>2014-08-15T12:43:41Z</time>
      </trkpt>
      <trkpt lat="44.14338" lon="1.9715">
        <ele>80</ele>
        <time>2014-08-15T12:43:43Z</time>
      </trkpt>
      <trkpt lat="44.14337" lon="1.97158">
        <ele>79</ele>
        <time>2014-08-15T12:43:46Z</time>
      </trkpt>
      <trkpt lat="44.14334" lon="1.97162">
        <ele>79</ele>
        <time>2014-08-15T12:43:48Z</time>
      </trkpt>
      <trkpt lat="44.14333" lon="1.97168">
        <ele>79</ele>
        <time>2014-08-15T12:43:50Z</time>
      </trkpt>
      <trkpt lat="44.14326" lon="1.97172">
        <ele>79</ele>
        <time>2014-08-15T12:43:53Z</time>
      </trkpt>
      <trkpt lat="44.14322" lon="1.97172">
        <ele>78</ele>
        <time>2014-08-15T12:43:56Z</time>
      </trkpt>
      <trkpt lat="44.1432" lon="1.9717">
        <ele>79</ele>
        <time>2014-08-15T12:43:58Z</time>
      </trkpt>
      <trkpt lat="44.14319" lon="1.97169">
        <ele>78</ele>
        <time>2014-08-15T12:44:00Z</time>
      </trkpt>
      <trkpt lat="44.14319" lon="1.97169">
        <ele>78</ele>
        <time>2014-08-15T12:44:02Z</time>
      </trkpt>
      <trkpt lat="44.14318" lon="1.97168">
        <ele>79</ele>
        <time>2014-08-15T12:44:05Z</time>
      </trkpt>
      <trkpt lat="44.14319" lon="1.97169">
        <ele>78</ele>
        <time>2014-08-15T12:44:07Z</time>
      </trkpt>
      <trkpt lat="44.1432" lon="1.9717">
        <ele>78</ele>
        <time>2014-08-15T12:44:10Z</time>
      </trkpt>
      <trkpt lat="44.1432" lon="1.9717">
        <ele>78</ele>
        <time>2014-08-15T12:44:12Z</time>
      </trkpt>
      <trkpt lat="44.1432" lon="1.9717">
        <ele>78</ele>
        <time>2014-08-15T12:44:16Z</time>
      </trkpt>
      <trkpt lat="44.1432" lon="1.9717">
        <ele>78</ele>
        <time>2014-08-15T12:44:18Z</time>
      </trkpt>
      <trkpt lat="44.14318" lon="1.97169">
        <ele>78</ele>
        <time>2014-08-15T12:44:21Z</time>
      </trkpt>
      <trkpt lat="44.14318" lon="1.97169">
        <ele>78</ele>
        <time>2014-08-15T12:44:24Z</time>
      </trkpt>
      <trkpt lat="44.14317" lon="1.97169">
        <ele>78</ele>
        <time>2014-08-15T12:44:26Z</time>
      </trkpt>
      <trkpt lat="44.14317" lon="1.97169">
        <ele>78</ele>
        <time>2014-08-15T12:44:29Z</time>
      </trkpt>
      <trkpt lat="44.14317" lon="1.97169">
        <ele>78</ele>
        <time>2014-08-15T12:44:32Z</time>
      </trkpt>
      <trkpt lat="44.14317" lon="1.97169">
        <ele>78</ele>
        <time>2014-08-15T12:44:37Z</time>
      </trkpt>
      <trkpt lat="44.14317" lon="1.97168">
        <ele>78</ele>
        <time>2014-08-15T12:44:40Z</time>
      </trkpt>
      <trkpt lat="44.14317" lon="1.97168">
        <ele>78</ele>
        <time>2014-08-15T12:44:43Z</time>
      </trkpt>
      <trkpt lat="44.14316" lon="1.97169">
        <ele>78</ele>
        <time>2014-08-15T12:44:45Z</time>
      </trkpt>
      <trkpt lat="44.14316" lon="1.97169">
        <ele>78</ele>
        <time>2014-08-15T12:44:48Z</time>
      </trkpt>
      <trkpt lat="44.14316" lon="1.97169">
        <ele>78</ele>
        <time>2014-08-15T12:44:50Z</time>
      </trkpt>
      <trkpt lat="44.14315" lon="1.97169">
        <ele>78</ele>
        <time>2014-08-15T12:44:52Z</time>
      </trkpt>
      <trkpt lat="44.14315" lon="1.97168">
        <ele>78</ele>
        <time>2014-08-15T12:44:54Z</time>
      </trkpt>
      <trkpt lat="44.14316" lon="1.97168">
        <ele>78</ele>
        <time>2014-08-15T12:44:57Z</time>
      </trkpt>
      <trkpt lat="44.14317" lon="1.97168">
        <ele>78</ele>
        <time>2014-08-15T12:44:59Z</time>
      </trkpt>
      <trkpt lat="44.14388" lon="1.97179">
        <ele>79</ele>
        <time>2014-08-15T12:45:01Z</time>
      </trkpt>
      <trkpt lat="44.14389" lon="1.97176">
        <ele>79</ele>
        <time>2014-08-15T12:45:04Z</time>
      </trkpt>
      <trkpt lat="44.14394" lon="1.9717">
        <ele>79</ele>
        <time>2014-08-15T12:45:06Z</time>
      </trkpt>
      <trkpt lat="44.14399" lon="1.97166">
        <ele>79</ele>
        <time>2014-08-15T12:45:09Z</time>
      </trkpt>
      <trkpt lat="44.14406" lon="1.97157">
        <ele>80</ele>
        <time>2014-08-15T12:45:11Z</time>
      </trkpt>
      <trkpt lat="44.14412" lon="1.97151">
        <ele>80</ele>
        <time>2014-08-15T12:45:14Z</time>
      </trkpt>
      <trkpt lat="44.14419" lon="1.97142">
        <ele>81</ele>
        <time>2014-08-15T12:45:17Z</time>
      </trkpt>
      <trkpt lat="44.14425" lon="1.97137">
        <ele>81</ele>
        <time>2014-08-15T12:45:19Z</time>
      </trkpt>
      <trkpt lat="44.14433" lon="1.9713">
        <ele>81</ele>
        <time>2014-08-15T12:45:21Z</time>
      </trkpt>
      <trkpt lat="44.14439" lon="1.97126">
        <ele>82</ele>
        <time>2014-08-15T12:45:24Z</time>
      </trkpt>
      <trkpt lat="44.14444" lon="1.97123">
        <ele>82</ele>
        <time>2014-08-15T12:45:26Z</time>
      </trkpt>
      <trkpt lat="44.1445" lon="1.97117">
        <ele>83</ele>
        <time>2014-08-15T12:45:29Z</time>
      </trkpt>
      <trkpt lat="44.14458" lon="1.97115">
        <ele>84</ele>
        <time>2014-08-15T12:45:31Z</time>
      </trkpt>
      <trkpt lat="44.14464" lon="1.97112">
        <ele>84</ele>
        <time>2014-08-15T12:45:33Z</time>
      </trkpt>
      <trkpt lat="44.1447" lon="1.9711">
        <ele>84</ele>
        <time>2014-08-15T12:45:36Z</time>
      </trkpt>
      <trkpt lat="44.14477" lon="1.97108">
        <ele>84</ele>
        <time>2014-08-15T12:45:38Z</time>
      </trkpt>
      <trkpt lat="44.14488" lon="1.97103">
        <ele>83</ele>
        <time>2014-08-15T12:45:41Z</time>
      </trkpt>
      <trkpt lat="44.145" lon="1.97099">
        <ele>83</ele>
        <time>2014-08-15T12:45:44Z</time>
      </trkpt>
      <trkpt lat="44.14512" lon="1.97095">
        <ele>84</ele>
        <time>2014-08-15T12:45:46Z</time>
      </trkpt>
      <trkpt lat="44.14519" lon="1.97092">
        <ele>84</ele>
        <time>2014-08-15T12:45:48Z</time>
      </trkpt>
      <trkpt lat="44.14531" lon="1.97089">
        <ele>84</ele>
        <time>2014-08-15T12:45:52Z</time>
      </trkpt>
      <trkpt lat="44.14539" lon="1.97086">
        <ele>84</ele>
        <time>2014-08-15T12:45:55Z</time>
      </trkpt>
      <trkpt lat="44.14544" lon="1.97082">
        <ele>84</ele>
        <time>2014-08-15T12:45:58Z</time>
      </trkpt>
      <trkpt lat="44.14545" lon="1.97075">
        <ele>84</ele>
        <time>2014-08-15T12:46:00Z</time>
      </trkpt>
      <trkpt lat="44.14543" lon="1.97071">
        <ele>83</ele>
        <time>2014-08-15T12:46:03Z</time>
      </trkpt>
      <trkpt lat="44.14543" lon="1.97064">
        <ele>83</ele>
        <time>2014-08-15T12:46:06Z</time>
      </trkpt>
      <trkpt lat="44.14545" lon="1.97052">
        <ele>82</ele>
        <time>2014-08-15T12:46:09Z</time>
      </trkpt>
      <trkpt lat="44.14545" lon="1.97035">
        <ele>82</ele>
        <time>2014-08-15T12:46:12Z</time>
      </trkpt>
      <trkpt lat="44.1454" lon="1.97022">
        <ele>81</ele>
        <time>2014-08-15T12:46:15Z</time>
      </trkpt>
      <trkpt lat="44.14532" lon="1.97021">
        <ele>80</ele>
        <time>2014-08-15T12:46:17Z</time>
      </trkpt>
      <trkpt lat="44.14524" lon="1.97023">
        <ele>79</ele>
        <time>2014-08-15T12:46:19Z</time>
      </trkpt>
      <trkpt lat="44.14521" lon="1.97027">
        <ele>79</ele>
        <time>2014-08-15T12:46:21Z</time>
      </trkpt>
      <trkpt lat="44.1452" lon="1.97036">
        <ele>78</ele>
        <time>2014-08-15T12:46:23Z</time>
      </trkpt>
      <trkpt lat="44.14521" lon="1.97051">
        <ele>78</ele>
        <time>2014-08-15T12:46:25Z</time>
      </trkpt>
      <trkpt lat="44.14522" lon="1.97061">
        <ele>78</ele>
        <time>2014-08-15T12:46:28Z</time>
      </trkpt>
      <trkpt lat="44.14521" lon="1.9707">
        <ele>78</ele>
        <time>2014-08-15T12:46:30Z</time>
      </trkpt>
      <trkpt lat="44.1452" lon="1.97076">
        <ele>78</ele>
        <time>2014-08-15T12:46:33Z</time>
      </trkpt>
      <trkpt lat="44.1452" lon="1.97086">
        <ele>78</ele>
        <time>2014-08-15T12:46:35Z</time>
      </trkpt>
      <trkpt lat="44.14521" lon="1.97094">
        <ele>78</ele>
        <time>2014-08-15T12:46:38Z</time>
      </trkpt>
      <trkpt lat="44.14522" lon="1.97105">
        <ele>78</ele>
        <time>2014-08-15T12:46:40Z</time>
      </trkpt>
      <trkpt lat="44.14522" lon="1.97112">
        <ele>78</ele>
        <time>2014-08-15T12:46:43Z</time>
      </trkpt>
      <trkpt lat="44.14521" lon="1.9712">
        <ele>78</ele>
        <time>2014-08-15T12:46:45Z</time>
      </trkpt>
      <trkpt lat="44.1452" lon="1.97132">
        <ele>78</ele>
        <time>2014-08-15T12:46:48Z</time>
      </trkpt>
      <trkpt lat="44.14519" lon="1.97143">
        <ele>77</ele>
        <time>2014-08-15T12:46:51Z</time>
      </trkpt>
      <trkpt lat="44.14518" lon="1.97148">
        <ele>77</ele>
        <time>2014-08-15T12:46:53Z</time>
      </trkpt>
      <trkpt lat="44.14517" lon="1.97154">
        <ele>77</ele>
        <time>2014-08-15T12:46:56Z</time>
      </trkpt>
      <trkpt lat="44.14516" lon="1.97158">
        <ele>77</ele>
        <time>2014-08-15T12:46:58Z</time>
      </trkpt>
      <trkpt lat="44.14516" lon="1.97164">
        <ele>77</ele>
        <time>2014-08-15T12:47:00Z</time>
      </trkpt>
      <trkpt lat="44.14516" lon="1.9717">
        <ele>77</ele>
        <time>2014-08-15T12:47:03Z</time>
      </trkpt>
      <trkpt lat="44.14517" lon="1.97179">
        <ele>77</ele>
        <time>2014-08-15T12:47:05Z</time>
      </trkpt>
      <trkpt lat="44.14519" lon="1.97185">
        <ele>77</ele>
        <time>2014-08-15T12:47:07Z</time>
      </trkpt>
      <trkpt lat="44.14522" lon="1.97196">
        <ele>77</ele>
        <time>2014-08-15T12:47:11Z</time>
      </trkpt>
      <trkpt lat="44.14525" lon="1.97206">
        <ele>78</ele>
        <time>2014-08-15T12:47:13Z</time>
      </trkpt>
      <trkpt lat="44.14526" lon="1.97214">
        <ele>78</ele>
        <time>2014-08-15T12:47:16Z</time>
      </trkpt>
      <trkpt lat="44.1453" lon="1.97227">
        <ele>78</ele>
        <time>2014-08-15T12:47:18Z</time>
      </trkpt>
      <trkpt lat="44.14536" lon="1.9724">
        <ele>78</ele>
        <time>2014-08-15T12:47:22Z</time>
      </trkpt>
      <trkpt lat="44.14542" lon="1.97253">
        <ele>78</ele>
        <time>2014-08-15T12:47:24Z</time>
      </trkpt>
      <trkpt lat="44.14546" lon="1.97262">
        <ele>78</ele>
        <time>2014-08-15T12:47:27Z</time>
      </trkpt>
      <trkpt lat="44.14554" lon="1.97274">
        <ele>78</ele>
        <time>2014-08-15T12:47:29Z</time>
      </trkpt>
      <trkpt lat="44.1456" lon="1.97282">
        <ele>78</ele>
        <time>2014-08-15T12:47:32Z</time>
      </trkpt>
      <trkpt lat="44.14567" lon="1.97289">
        <ele>78</ele>
        <time>2014-08-15T12:47:34Z</time>
      </trkpt>
      <trkpt lat="44.14576" lon="1.973">
        <ele>77</ele>
        <time>2014-08-15T12:47:37Z</time>
      </trkpt>
      <trkpt lat="44.14587" lon="1.9731">
        <ele>78</ele>
        <time>2014-08-15T12:47:39Z</time>
      </trkpt>
      <trkpt lat="44.14594" lon="1.97316">
        <ele>78</ele>
        <time>2014-08-15T12:47:42Z</time>
      </trkpt>
      <trkpt lat="44.14605" lon="1.97324">
        <ele>78</ele>
        <time>2014-08-15T12:47:45Z</time>
      </trkpt>
      <trkpt lat="44.14617" lon="1.97334">
        <ele>78</ele>
        <time>2014-08-15T12:47:47Z</time>
      </trkpt>
      <trkpt lat="44.14631" lon="1.97342">
        <ele>78</ele>
        <time>2014-08-15T12:47:50Z</time>
      </trkpt>
      <trkpt lat="44.14642" lon="1.97348">
        <ele>78</ele>
        <time>2014-08-15T12:47:52Z</time>
      </trkpt>
      <trkpt lat="44.14654" lon="1.97354">
        <ele>78</ele>
        <time>2014-08-15T12:47:54Z</time>
      </trkpt>
      <trkpt lat="44.14664" lon="1.97359">
        <ele>79</ele>
        <time>2014-08-15T12:47:57Z</time>
      </trkpt>
      <trkpt lat="44.14678" lon="1.97368">
        <ele>78</ele>
        <time>2014-08-15T12:47:59Z</time>
      </trkpt>
      <trkpt lat="44.14687" lon="1.97374">
        <ele>78</ele>
        <time>2014-08-15T12:48:01Z</time>
      </trkpt>
      <trkpt lat="44.14702" lon="1.97381">
        <ele>78</ele>
        <time>2014-08-15T12:48:04Z</time>
      </trkpt>
      <trkpt lat="44.14711" lon="1.97385">
        <ele>78</ele>
        <time>2014-08-15T12:48:06Z</time>
      </trkpt>
      <trkpt lat="44.14724" lon="1.97387">
        <ele>78</ele>
        <time>2014-08-15T12:48:10Z</time>
      </trkpt>
      <trkpt lat="44.14737" lon="1.9739">
        <ele>78</ele>
        <time>2014-08-15T12:48:12Z</time>
      </trkpt>
      <trkpt lat="44.14749" lon="1.97394">
        <ele>78</ele>
        <time>2014-08-15T12:48:15Z</time>
      </trkpt>
      <trkpt lat="44.14761" lon="1.97396">
        <ele>77</ele>
        <time>2014-08-15T12:48:18Z</time>
      </trkpt>
      <trkpt lat="44.14769" lon="1.97398">
        <ele>77</ele>
        <time>2014-08-15T12:48:20Z</time>
      </trkpt>
      <trkpt lat="44.1478" lon="1.974">
        <ele>78</ele>
        <time>2014-08-15T12:48:23Z</time>
      </trkpt>
      <trkpt lat="44.14789" lon="1.97401">
        <ele>78</ele>
        <time>2014-08-15T12:48:25Z</time>
      </trkpt>
      <trkpt lat="44.14803" lon="1.97404">
        <ele>78</ele>
        <time>2014-08-15T12:48:28Z</time>
      </trkpt>
      <trkpt lat="44.14812" lon="1.97405">
        <ele>78</ele>
        <time>2014-08-15T12:48:30Z</time>
      </trkpt>
      <trkpt lat="44.1482" lon="1.97406">
        <ele>78</ele>
        <time>2014-08-15T12:48:33Z</time>
      </trkpt>
      <trkpt lat="44.14833" lon="1.97406">
        <ele>78</ele>
        <time>2014-08-15T12:48:35Z</time>
      </trkpt>
      <trkpt lat="44.14843" lon="1.97406">
        <ele>78</ele>
        <time>2014-08-15T12:48:37Z</time>
      </trkpt>
      <trkpt lat="44.14857" lon="1.97405">
        <ele>78</ele>
        <time>2014-08-15T12:48:40Z</time>
      </trkpt>
      <trkpt lat="44.14866" lon="1.97403">
        <ele>78</ele>
        <time>2014-08-15T12:48:43Z</time>
      </trkpt>
      <trkpt lat="44.1488" lon="1.97398">
        <ele>78</ele>
        <time>2014-08-15T12:48:45Z</time>
      </trkpt>
      <trkpt lat="44.1489" lon="1.97394">
        <ele>78</ele>
        <time>2014-08-15T12:48:48Z</time>
      </trkpt>
      <trkpt lat="44.14904" lon="1.97387">
        <ele>78</ele>
        <time>2014-08-15T12:48:50Z</time>
      </trkpt>
      <trkpt lat="44.14914" lon="1.97382">
        <ele>78</ele>
        <time>2014-08-15T12:48:53Z</time>
      </trkpt>
      <trkpt lat="44.14925" lon="1.97379">
        <ele>78</ele>
        <time>2014-08-15T12:48:55Z</time>
      </trkpt>
      <trkpt lat="44.14942" lon="1.97375">
        <ele>78</ele>
        <time>2014-08-15T12:48:57Z</time>
      </trkpt>
      <trkpt lat="44.14953" lon="1.97372">
        <ele>78</ele>
        <time>2014-08-15T12:48:59Z</time>
      </trkpt>
      <trkpt lat="44.14968" lon="1.97368">
        <ele>78</ele>
        <time>2014-08-15T12:49:02Z</time>
      </trkpt>
      <trkpt lat="44.14978" lon="1.97364">
        <ele>79</ele>
        <time>2014-08-15T12:49:04Z</time>
      </trkpt>
      <trkpt lat="44.14991" lon="1.97362">
        <ele>79</ele>
        <time>2014-08-15T12:49:07Z</time>
      </trkpt>
      <trkpt lat="44.15009" lon="1.9736">
        <ele>79</ele>
        <time>2014-08-15T12:49:09Z</time>
      </trkpt>
      <trkpt lat="44.15028" lon="1.97357">
        <ele>79</ele>
        <time>2014-08-15T12:49:12Z</time>
      </trkpt>
      <trkpt lat="44.15039" lon="1.97356">
        <ele>80</ele>
        <time>2014-08-15T12:49:15Z</time>
      </trkpt>
      <trkpt lat="44.15054" lon="1.97355">
        <ele>79</ele>
        <time>2014-08-15T12:49:17Z</time>
      </trkpt>
      <trkpt lat="44.15064" lon="1.97355">
        <ele>79</ele>
        <time>2014-08-15T12:49:19Z</time>
      </trkpt>
      <trkpt lat="44.15073" lon="1.97354">
        <ele>79</ele>
        <time>2014-08-15T12:49:21Z</time>
      </trkpt>
      <trkpt lat="44.15086" lon="1.97354">
        <ele>79</ele>
        <time>2014-08-15T12:49:24Z</time>
      </trkpt>
      <trkpt lat="44.15096" lon="1.97352">
        <ele>79</ele>
        <time>2014-08-15T12:49:26Z</time>
      </trkpt>
      <trkpt lat="44.15112" lon="1.97351">
        <ele>79</ele>
        <time>2014-08-15T12:49:29Z</time>
      </trkpt>
      <trkpt lat="44.15124" lon="1.9735">
        <ele>79</ele>
        <time>2014-08-15T12:49:31Z</time>
      </trkpt>
      <trkpt lat="44.15143" lon="1.97348">
        <ele>79</ele>
        <time>2014-08-15T12:49:34Z</time>
      </trkpt>
      <trkpt lat="44.15155" lon="1.97347">
        <ele>79</ele>
        <time>2014-08-15T12:49:36Z</time>
      </trkpt>
      <trkpt lat="44.15166" lon="1.97347">
        <ele>79</ele>
        <time>2014-08-15T12:49:38Z</time>
      </trkpt>
      <trkpt lat="44.15178" lon="1.97345">
        <ele>78</ele>
        <time>2014-08-15T12:49:40Z</time>
      </trkpt>
      <trkpt lat="44.15197" lon="1.97344">
        <ele>78</ele>
        <time>2014-08-15T12:49:43Z</time>
      </trkpt>
      <trkpt lat="44.1521" lon="1.97344">
        <ele>78</ele>
        <time>2014-08-15T12:49:45Z</time>
      </trkpt>
      <trkpt lat="44.15222" lon="1.97343">
        <ele>78</ele>
        <time>2014-08-15T12:49:48Z</time>
      </trkpt>
      <trkpt lat="44.15241" lon="1.97343">
        <ele>78</ele>
        <time>2014-08-15T12:49:50Z</time>
      </trkpt>
      <trkpt lat="44.15253" lon="1.97343">
        <ele>79</ele>
        <time>2014-08-15T12:49:52Z</time>
      </trkpt>
      <trkpt lat="44.15266" lon="1.97344">
        <ele>79</ele>
        <time>2014-08-15T12:49:54Z</time>
      </trkpt>
      <trkpt lat="44.15281" lon="1.97344">
        <ele>79</ele>
        <time>2014-08-15T12:49:56Z</time>
      </trkpt>
      <trkpt lat="44.15295" lon="1.97345">
        <ele>80</ele>
        <time>2014-08-15T12:49:58Z</time>
      </trkpt>
      <trkpt lat="44.15317" lon="1.97346">
        <ele>79</ele>
        <time>2014-08-15T12:50:01Z</time>
      </trkpt>
      <trkpt lat="44.15331" lon="1.97347">
        <ele>79</ele>
        <time>2014-08-15T12:50:03Z</time>
      </trkpt>
      <trkpt lat="44.15344" lon="1.97347">
        <ele>79</ele>
        <time>2014-08-15T12:50:05Z</time>
      </trkpt>
      <trkpt lat="44.15357" lon="1.97348">
        <ele>79</ele>
        <time>2014-08-15T12:50:08Z</time>
      </trkpt>
      <trkpt lat="44.15375" lon="1.97348">
        <ele>79</ele>
        <time>2014-08-15T12:50:10Z</time>
      </trkpt>
      <trkpt lat="44.15387" lon="1.97348">
        <ele>79</ele>
        <time>2014-08-15T12:50:12Z</time>
      </trkpt>
      <trkpt lat="44.15402" lon="1.97352">
        <ele>79</ele>
        <time>2014-08-15T12:50:15Z</time>
      </trkpt>
      <trkpt lat="44.15412" lon="1.9735">
        <ele>79</ele>
        <time>2014-08-15T12:50:17Z</time>
      </trkpt>
      <trkpt lat="44.15422" lon="1.97345">
        <ele>80</ele>
        <time>2014-08-15T12:50:20Z</time>
      </trkpt>
      <trkpt lat="44.15436" lon="1.97337">
        <ele>80</ele>
        <time>2014-08-15T12:50:22Z</time>
      </trkpt>
      <trkpt lat="44.15451" lon="1.9733">
        <ele>80</ele>
        <time>2014-08-15T12:50:25Z</time>
      </trkpt>
      <trkpt lat="44.15462" lon="1.97328">
        <ele>80</ele>
        <time>2014-08-15T12:50:27Z</time>
      </trkpt>
      <trkpt lat="44.15473" lon="1.97323">
        <ele>80</ele>
        <time>2014-08-15T12:50:30Z</time>
      </trkpt>
      <trkpt lat="44.15489" lon="1.97315">
        <ele>80</ele>
        <time>2014-08-15T12:50:32Z</time>
      </trkpt>
      <trkpt lat="44.155" lon="1.97309">
        <ele>80</ele>
        <time>2014-08-15T12:50:34Z</time>
      </trkpt>
      <trkpt lat="44.15518" lon="1.97298">
        <ele>80</ele>
        <time>2014-08-15T12:50:37Z</time>
      </trkpt>
      <trkpt lat="44.15527" lon="1.97286">
        <ele>80</ele>
        <time>2014-08-15T12:50:40Z</time>
      </trkpt>
      <trkpt lat="44.15538" lon="1.97272">
        <ele>79</ele>
        <time>2014-08-15T12:50:42Z</time>
      </trkpt>
      <trkpt lat="44.15547" lon="1.97254">
        <ele>80</ele>
        <time>2014-08-15T12:50:45Z</time>
      </trkpt>
      <trkpt lat="44.15557" lon="1.97237">
        <ele>80</ele>
        <time>2014-08-15T12:50:48Z</time>
      </trkpt>
      <trkpt lat="44.1557" lon="1.97223">
        <ele>80</ele>
        <time>2014-08-15T12:50:52Z</time>
      </trkpt>
      <trkpt lat="44.15585" lon="1.97203">
        <ele>81</ele>
        <time>2014-08-15T12:50:54Z</time>
      </trkpt>
      <trkpt lat="44.15607" lon="1.97181">
        <ele>81</ele>
        <time>2014-08-15T12:50:57Z</time>
      </trkpt>
      <trkpt lat="44.1562" lon="1.97168">
        <ele>81</ele>
        <time>2014-08-15T12:50:59Z</time>
      </trkpt>
      <trkpt lat="44.15633" lon="1.97154">
        <ele>82</ele>
        <time>2014-08-15T12:51:01Z</time>
      </trkpt>
      <trkpt lat="44.15645" lon="1.97144">
        <ele>82</ele>
        <time>2014-08-15T12:51:04Z</time>
      </trkpt>
      <trkpt lat="44.1566" lon="1.97129">
        <ele>81</ele>
        <time>2014-08-15T12:51:06Z</time>
      </trkpt>
      <trkpt lat="44.15667" lon="1.97122">
        <ele>81</ele>
        <time>2014-08-15T12:51:08Z</time>
      </trkpt>
      <trkpt lat="44.1567" lon="1.97118">
        <ele>82</ele>
        <time>2014-08-15T12:51:10Z</time>
      </trkpt>
      <trkpt lat="44.15672" lon="1.97113">
        <ele>82</ele>
        <time>2014-08-15T12:51:13Z</time>
      </trkpt>
      <trkpt lat="44.15673" lon="1.97111">
        <ele>83</ele>
        <time>2014-08-15T12:51:16Z</time>
      </trkpt>
      <trkpt lat="44.15678" lon="1.97107">
        <ele>83</ele>
        <time>2014-08-15T12:51:18Z</time>
      </trkpt>
      <trkpt lat="44.15685" lon="1.97101">
        <ele>83</ele>
        <time>2014-08-15T12:51:21Z</time>
      </trkpt>
      <trkpt lat="44.15691" lon="1.97096">
        <ele>83</ele>
        <time>2014-08-15T12:51:23Z</time>
      </trkpt>
      <trkpt lat="44.15704" lon="1.97085">
        <ele>82</ele>
        <time>2014-08-15T12:51:26Z</time>
      </trkpt>
      <trkpt lat="44.15717" lon="1.97073">
        <ele>82</ele>
        <time>2014-08-15T12:51:29Z</time>
      </trkpt>
      <trkpt lat="44.15727" lon="1.97065">
        <ele>82</ele>
        <time>2014-08-15T12:51:31Z</time>
      </trkpt>
      <trkpt lat="44.15741" lon="1.97055">
        <ele>82</ele>
        <time>2014-08-15T12:51:34Z</time>
      </trkpt>
      <trkpt lat="44.15748" lon="1.97049">
        <ele>81</ele>
        <time>2014-08-15T12:51:36Z</time>
      </trkpt>
      <trkpt lat="44.15755" lon="1.97045">
        <ele>82</ele>
        <time>2014-08-15T12:51:39Z</time>
      </trkpt>
      <trkpt lat="44.15768" lon="1.9704">
        <ele>82</ele>
        <time>2014-08-15T12:51:41Z</time>
      </trkpt>
      <trkpt lat="44.15782" lon="1.97042">
        <ele>82</ele>
        <time>2014-08-15T12:51:44Z</time>
      </trkpt>
      <trkpt lat="44.1579" lon="1.97044">
        <ele>82</ele>
        <time>2014-08-15T12:51:46Z</time>
      </trkpt>
      <trkpt lat="44.15799" lon="1.97046">
        <ele>82</ele>
        <time>2014-08-15T12:51:48Z</time>
      </trkpt>
      <trkpt lat="44.15809" lon="1.97048">
        <ele>83</ele>
        <time>2014-08-15T12:51:51Z</time>
      </trkpt>
      <trkpt lat="44.15824" lon="1.97052">
        <ele>83</ele>
        <time>2014-08-15T12:51:53Z</time>
      </trkpt>
      <trkpt lat="44.15835" lon="1.97058">
        <ele>83</ele>
        <time>2014-08-15T12:51:55Z</time>
      </trkpt>
      <trkpt lat="44.15847" lon="1.97063">
        <ele>84</ele>
        <time>2014-08-15T12:51:57Z</time>
      </trkpt>
      <trkpt lat="44.15864" lon="1.97075">
        <ele>85</ele>
        <time>2014-08-15T12:52:00Z</time>
      </trkpt>
      <trkpt lat="44.15875" lon="1.97083">
        <ele>86</ele>
        <time>2014-08-15T12:52:02Z</time>
      </trkpt>
      <trkpt lat="44.15891" lon="1.97098">
        <ele>86</ele>
        <time>2014-08-15T12:52:05Z</time>
      </trkpt>
      <trkpt lat="44.15902" lon="1.97106">
        <ele>86</ele>
        <time>2014-08-15T12:52:07Z</time>
      </trkpt>
      <trkpt lat="44.1591" lon="1.97114">
        <ele>87</ele>
        <time>2014-08-15T12:52:09Z</time>
      </trkpt>
      <trkpt lat="44.15917" lon="1.9712">
        <ele>87</ele>
        <time>2014-08-15T12:52:11Z</time>
      </trkpt>
      <trkpt lat="44.15922" lon="1.97125">
        <ele>88</ele>
        <time>2014-08-15T12:52:13Z</time>
      </trkpt>
      <trkpt lat="44.15926" lon="1.9713">
        <ele>88</ele>
        <time>2014-08-15T12:52:16Z</time>
      </trkpt>
      <trkpt lat="44.15932" lon="1.97141">
        <ele>88</ele>
        <time>2014-08-15T12:52:18Z</time>
      </trkpt>
      <trkpt lat="44.15938" lon="1.97149">
        <ele>88</ele>
        <time>2014-08-15T12:52:20Z</time>
      </trkpt>
      <trkpt lat="44.15945" lon="1.9716">
        <ele>88</ele>
        <time>2014-08-15T12:52:23Z</time>
      </trkpt>
      <trkpt lat="44.15948" lon="1.97166">
        <ele>88</ele>
        <time>2014-08-15T12:52:26Z</time>
      </trkpt>
      <trkpt lat="44.1595" lon="1.97169">
        <ele>88</ele>
        <time>2014-08-15T12:52:28Z</time>
      </trkpt>
      <trkpt lat="44.15951" lon="1.97172">
        <ele>88</ele>
        <time>2014-08-15T12:52:31Z</time>
      </trkpt>
      <trkpt lat="44.15954" lon="1.97179">
        <ele>88</ele>
        <time>2014-08-15T12:52:33Z</time>
      </trkpt>
      <trkpt lat="44.15958" lon="1.97186">
        <ele>87</ele>
        <time>2014-08-15T12:52:35Z</time>
      </trkpt>
      <trkpt lat="44.15962" lon="1.97195">
        <ele>87</ele>
        <time>2014-08-15T12:52:37Z</time>
      </trkpt>
      <trkpt lat="44.15972" lon="1.97211">
        <ele>87</ele>
        <time>2014-08-15T12:52:41Z</time>
      </trkpt>
      <trkpt lat="44.15984" lon="1.97231">
        <ele>86</ele>
        <time>2014-08-15T12:52:43Z</time>
      </trkpt>
      <trkpt lat="44.15996" lon="1.97252">
        <ele>86</ele>
        <time>2014-08-15T12:52:46Z</time>
      </trkpt>
      <trkpt lat="44.16006" lon="1.97271">
        <ele>86</ele>
        <time>2014-08-15T12:52:49Z</time>
      </trkpt>
      <trkpt lat="44.16014" lon="1.97281">
        <ele>86</ele>
        <time>2014-08-15T12:52:52Z</time>
      </trkpt>
      <trkpt lat="44.16025" lon="1.97301">
        <ele>86</ele>
        <time>2014-08-15T12:52:54Z</time>
      </trkpt>
      <trkpt lat="44.16034" lon="1.97315">
        <ele>86</ele>
        <time>2014-08-15T12:52:56Z</time>
      </trkpt>
      <trkpt lat="44.16042" lon="1.97327">
        <ele>86</ele>
        <time>2014-08-15T12:52:58Z</time>
      </trkpt>
      <trkpt lat="44.16052" lon="1.97343">
        <ele>86</ele>
        <time>2014-08-15T12:53:01Z</time>
      </trkpt>
      <trkpt lat="44.16064" lon="1.97362">
        <ele>86</ele>
        <time>2014-08-15T12:53:04Z</time>
      </trkpt>
      <trkpt lat="44.16077" lon="1.97381">
        <ele>85</ele>
        <time>2014-08-15T12:53:07Z</time>
      </trkpt>
      <trkpt lat="44.16085" lon="1.97395">
        <ele>85</ele>
        <time>2014-08-15T12:53:09Z</time>
      </trkpt>
      <trkpt lat="44.16098" lon="1.97412">
        <ele>84</ele>
        <time>2014-08-15T12:53:12Z</time>
      </trkpt>
      <trkpt lat="44.16109" lon="1.9743">
        <ele>85</ele>
        <time>2014-08-15T12:53:15Z</time>
      </trkpt>
      <trkpt lat="44.16121" lon="1.97447">
        <ele>85</ele>
        <time>2014-08-15T12:53:18Z</time>
      </trkpt>
      <trkpt lat="44.1613" lon="1.97459">
        <ele>85</ele>
        <time>2014-08-15T12:53:20Z</time>
      </trkpt>
      <trkpt lat="44.16141" lon="1.9748">
        <ele>85</ele>
        <time>2014-08-15T12:53:24Z</time>
      </trkpt>
      <trkpt lat="44.16153" lon="1.97496">
        <ele>85</ele>
        <time>2014-08-15T12:53:26Z</time>
      </trkpt>
      <trkpt lat="44.16159" lon="1.97506">
        <ele>85</ele>
        <time>2014-08-15T12:53:28Z</time>
      </trkpt>
      <trkpt lat="44.16168" lon="1.9752">
        <ele>85</ele>
        <time>2014-08-15T12:53:31Z</time>
      </trkpt>
      <trkpt lat="44.16176" lon="1.97531">
        <ele>85</ele>
        <time>2014-08-15T12:53:34Z</time>
      </trkpt>
      <trkpt lat="44.16182" lon="1.97543">
        <ele>85</ele>
        <time>2014-08-15T12:53:37Z</time>
      </trkpt>
      <trkpt lat="44.16187" lon="1.97555">
        <ele>85</ele>
        <time>2014-08-15T12:53:40Z</time>
      </trkpt>
      <trkpt lat="44.1619" lon="1.97561">
        <ele>85</ele>
        <time>2014-08-15T12:53:42Z</time>
      </trkpt>
      <trkpt lat="44.16196" lon="1.97573">
        <ele>85</ele>
        <time>2014-08-15T12:53:45Z</time>
      </trkpt>
      <trkpt lat="44.162" lon="1.97582">
        <ele>85</ele>
        <time>2014-08-15T12:53:48Z</time>
      </trkpt>
      <trkpt lat="44.16205" lon="1.97595">
        <ele>85</ele>
        <time>2014-08-15T12:53:51Z</time>
      </trkpt>
      <trkpt lat="44.1621" lon="1.97606">
        <ele>85</ele>
        <time>2014-08-15T12:53:53Z</time>
      </trkpt>
      <trkpt lat="44.1622" lon="1.9762">
        <ele>85</ele>
        <time>2014-08-15T12:53:56Z</time>
      </trkpt>
      <trkpt lat="44.16232" lon="1.97639">
        <ele>85</ele>
        <time>2014-08-15T12:53:59Z</time>
      </trkpt>
      <trkpt lat="44.16248" lon="1.97658">
        <ele>85</ele>
        <time>2014-08-15T12:54:02Z</time>
      </trkpt>
      <trkpt lat="44.16267" lon="1.97672">
        <ele>86</ele>
        <time>2014-08-15T12:54:05Z</time>
      </trkpt>
      <trkpt lat="44.16278" lon="1.97677">
        <ele>87</ele>
        <time>2014-08-15T12:54:07Z</time>
      </trkpt>
      <trkpt lat="44.16285" lon="1.9768">
        <ele>87</ele>
        <time>2014-08-15T12:54:10Z</time>
      </trkpt>
      <trkpt lat="44.16294" lon="1.97684">
        <ele>87</ele>
        <time>2014-08-15T12:54:13Z</time>
      </trkpt>
      <trkpt lat="44.163" lon="1.97683">
        <ele>87</ele>
        <time>2014-08-15T12:54:15Z</time>
      </trkpt>
      <trkpt lat="44.16312" lon="1.97682">
        <ele>87</ele>
        <time>2014-08-15T12:54:18Z</time>
      </trkpt>
      <trkpt lat="44.16325" lon="1.97685">
        <ele>86</ele>
        <time>2014-08-15T12:54:21Z</time>
      </trkpt>
      <trkpt lat="44.16334" lon="1.97684">
        <ele>86</ele>
        <time>2014-08-15T12:54:23Z</time>
      </trkpt>
      <trkpt lat="44.16348" lon="1.97682">
        <ele>85</ele>
        <time>2014-08-15T12:54:26Z</time>
      </trkpt>
      <trkpt lat="44.16362" lon="1.97675">
        <ele>85</ele>
        <time>2014-08-15T12:54:29Z</time>
      </trkpt>
      <trkpt lat="44.16377" lon="1.97661">
        <ele>85</ele>
        <time>2014-08-15T12:54:32Z</time>
      </trkpt>
      <trkpt lat="44.16393" lon="1.9765">
        <ele>85</ele>
        <time>2014-08-15T12:54:35Z</time>
      </trkpt>
      <trkpt lat="44.16402" lon="1.9764">
        <ele>85</ele>
        <time>2014-08-15T12:54:37Z</time>
      </trkpt>
      <trkpt lat="44.16409" lon="1.97631">
        <ele>85</ele>
        <time>2014-08-15T12:54:39Z</time>
      </trkpt>
      <trkpt lat="44.16418" lon="1.97619">
        <ele>85</ele>
        <time>2014-08-15T12:54:42Z</time>
      </trkpt>
      <trkpt lat="44.16427" lon="1.97609">
        <ele>85</ele>
        <time>2014-08-15T12:54:45Z</time>
      </trkpt>
      <trkpt lat="44.16436" lon="1.976">
        <ele>85</ele>
        <time>2014-08-15T12:54:48Z</time>
      </trkpt>
      <trkpt lat="44.16443" lon="1.97591">
        <ele>85</ele>
        <time>2014-08-15T12:54:50Z</time>
      </trkpt>
      <trkpt lat="44.16457" lon="1.97575">
        <ele>85</ele>
        <time>2014-08-15T12:54:53Z</time>
      </trkpt>
      <trkpt lat="44.16469" lon="1.97566">
        <ele>85</ele>
        <time>2014-08-15T12:54:55Z</time>
      </trkpt>
      <trkpt lat="44.16489" lon="1.97546">
        <ele>85</ele>
        <time>2014-08-15T12:54:58Z</time>
      </trkpt>
      <trkpt lat="44.16502" lon="1.97532">
        <ele>85</ele>
        <time>2014-08-15T12:55:00Z</time>
      </trkpt>
      <trkpt lat="44.16516" lon="1.97516">
        <ele>85</ele>
        <time>2014-08-15T12:55:02Z</time>
      </trkpt>
      <trkpt lat="44.16536" lon="1.97493">
        <ele>85</ele>
        <time>2014-08-15T12:55:05Z</time>
      </trkpt>
      <trkpt lat="44.16547" lon="1.97479">
        <ele>86</ele>
        <time>2014-08-15T12:55:07Z</time>
      </trkpt>
      <trkpt lat="44.16563" lon="1.97461">
        <ele>87</ele>
        <time>2014-08-15T12:55:10Z</time>
      </trkpt>
      <trkpt lat="44.1657" lon="1.97452">
        <ele>87</ele>
        <time>2014-08-15T12:55:12Z</time>
      </trkpt>
      <trkpt lat="44.1658" lon="1.97439">
        <ele>88</ele>
        <time>2014-08-15T12:55:15Z</time>
      </trkpt>
      <trkpt lat="44.16587" lon="1.9743">
        <ele>89</ele>
        <time>2014-08-15T12:55:17Z</time>
      </trkpt>
      <trkpt lat="44.16598" lon="1.97417">
        <ele>89</ele>
        <time>2014-08-15T12:55:20Z</time>
      </trkpt>
      <trkpt lat="44.16608" lon="1.97406">
        <ele>89</ele>
        <time>2014-08-15T12:55:23Z</time>
      </trkpt>
      <trkpt lat="44.16614" lon="1.97399">
        <ele>89</ele>
        <time>2014-08-15T12:55:26Z</time>
      </trkpt>
      <trkpt lat="44.16621" lon="1.9739">
        <ele>89</ele>
        <time>2014-08-15T12:55:28Z</time>
      </trkpt>
      <trkpt lat="44.16626" lon="1.97383">
        <ele>89</ele>
        <time>2014-08-15T12:55:31Z</time>
      </trkpt>
      <trkpt lat="44.16631" lon="1.97377">
        <ele>89</ele>
        <time>2014-08-15T12:55:34Z</time>
      </trkpt>
      <trkpt lat="44.16633" lon="1.97372">
        <ele>89</ele>
        <time>2014-08-15T12:55:36Z</time>
      </trkpt>
      <trkpt lat="44.1664" lon="1.97364">
        <ele>89</ele>
        <time>2014-08-15T12:55:39Z</time>
      </trkpt>
      <trkpt lat="44.16645" lon="1.9736">
        <ele>89</ele>
        <time>2014-08-15T12:55:41Z</time>
      </trkpt>
      <trkpt lat="44.1665" lon="1.97354">
        <ele>89</ele>
        <time>2014-08-15T12:55:44Z</time>
      </trkpt>
      <trkpt lat="44.16654" lon="1.97352">
        <ele>89</ele>
        <time>2014-08-15T12:55:47Z</time>
      </trkpt>
      <trkpt lat="44.1666" lon="1.97353">
        <ele>89</ele>
        <time>2014-08-15T12:55:50Z</time>
      </trkpt>
      <trkpt lat="44.16665" lon="1.97353">
        <ele>89</ele>
        <time>2014-08-15T12:55:53Z</time>
      </trkpt>
      <trkpt lat="44.16667" lon="1.9735">
        <ele>90</ele>
        <time>2014-08-15T12:55:55Z</time>
      </trkpt>
      <trkpt lat="44.16669" lon="1.97342">
        <ele>90</ele>
        <time>2014-08-15T12:55:58Z</time>
      </trkpt>
      <trkpt lat="44.16672" lon="1.97337">
        <ele>90</ele>
        <time>2014-08-15T12:56:00Z</time>
      </trkpt>
      <trkpt lat="44.16676" lon="1.97333">
        <ele>90</ele>
        <time>2014-08-15T12:56:03Z</time>
      </trkpt>
      <trkpt lat="44.1668" lon="1.97328">
        <ele>90</ele>
        <time>2014-08-15T12:56:05Z</time>
      </trkpt>
      <trkpt lat="44.16683" lon="1.97325">
        <ele>90</ele>
        <time>2014-08-15T12:56:07Z</time>
      </trkpt>
      <trkpt lat="44.1669" lon="1.97321">
        <ele>91</ele>
        <time>2014-08-15T12:56:10Z</time>
      </trkpt>
      <trkpt lat="44.16698" lon="1.97318">
        <ele>91</ele>
        <time>2014-08-15T12:56:12Z</time>
      </trkpt>
      <trkpt lat="44.16711" lon="1.97315">
        <ele>91</ele>
        <time>2014-08-15T12:56:15Z</time>
      </trkpt>
      <trkpt lat="44.16723" lon="1.97311">
        <ele>90</ele>
        <time>2014-08-15T12:56:18Z</time>
      </trkpt>
      <trkpt lat="44.16738" lon="1.97309">
        <ele>90</ele>
        <time>2014-08-15T12:56:21Z</time>
      </trkpt>
      <trkpt lat="44.16748" lon="1.97309">
        <ele>90</ele>
        <time>2014-08-15T12:56:23Z</time>
      </trkpt>
      <trkpt lat="44.16761" lon="1.97309">
        <ele>89</ele>
        <time>2014-08-15T12:56:26Z</time>
      </trkpt>
      <trkpt lat="44.16772" lon="1.97309">
        <ele>89</ele>
        <time>2014-08-15T12:56:29Z</time>
      </trkpt>
      <trkpt lat="44.16785" lon="1.9731">
        <ele>89</ele>
        <time>2014-08-15T12:56:32Z</time>
      </trkpt>
      <trkpt lat="44.16805" lon="1.97316">
        <ele>89</ele>
        <time>2014-08-15T12:56:35Z</time>
      </trkpt>
      <trkpt lat="44.16819" lon="1.97321">
        <ele>88</ele>
        <time>2014-08-15T12:56:37Z</time>
      </trkpt>
      <trkpt lat="44.16832" lon="1.97326">
        <ele>88</ele>
        <time>2014-08-15T12:56:40Z</time>
      </trkpt>
      <trkpt lat="44.16849" lon="1.97329">
        <ele>87</ele>
        <time>2014-08-15T12:56:42Z</time>
      </trkpt>
      <trkpt lat="44.16858" lon="1.97331">
        <ele>87</ele>
        <time>2014-08-15T12:56:44Z</time>
      </trkpt>
      <trkpt lat="44.16872" lon="1.97337">
        <ele>87</ele>
        <time>2014-08-15T12:56:47Z</time>
      </trkpt>
      <trkpt lat="44.16881" lon="1.97338">
        <ele>87</ele>
        <time>2014-08-15T12:56:49Z</time>
      </trkpt>
      <trkpt lat="44.16888" lon="1.97338">
        <ele>87</ele>
        <time>2014-08-15T12:56:51Z</time>
      </trkpt>
      <trkpt lat="44.169" lon="1.97337">
        <ele>87</ele>
        <time>2014-08-15T12:56:54Z</time>
      </trkpt>
      <trkpt lat="44.16911" lon="1.97336">
        <ele>87</ele>
        <time>2014-08-15T12:56:57Z</time>
      </trkpt>
      <trkpt lat="44.16919" lon="1.97336">
        <ele>87</ele>
        <time>2014-08-15T12:56:59Z</time>
      </trkpt>
      <trkpt lat="44.16927" lon="1.97336">
        <ele>87</ele>
        <time>2014-08-15T12:57:01Z</time>
      </trkpt>
      <trkpt lat="44.16935" lon="1.97335">
        <ele>87</ele>
        <time>2014-08-15T12:57:04Z</time>
      </trkpt>
      <trkpt lat="44.1694" lon="1.97335">
        <ele>88</ele>
        <time>2014-08-15T12:57:06Z</time>
      </trkpt>
      <trkpt lat="44.16949" lon="1.97337">
        <ele>88</ele>
        <time>2014-08-15T12:57:09Z</time>
      </trkpt>
      <trkpt lat="44.16958" lon="1.97337">
        <ele>89</ele>
        <time>2014-08-15T12:57:12Z</time>
      </trkpt>
      <trkpt lat="44.16966" lon="1.97338">
        <ele>89</ele>
        <time>2014-08-15T12:57:14Z</time>
      </trkpt>
      <trkpt lat="44.16976" lon="1.97336">
        <ele>90</ele>
        <time>2014-08-15T12:57:17Z</time>
      </trkpt>
      <trkpt lat="44.16981" lon="1.97336">
        <ele>91</ele>
        <time>2014-08-15T12:57:19Z</time>
      </trkpt>
      <trkpt lat="44.16988" lon="1.97334">
        <ele>93</ele>
        <time>2014-08-15T12:57:22Z</time>
      </trkpt>
      <trkpt lat="44.1699" lon="1.97333">
        <ele>94</ele>
        <time>2014-08-15T12:57:24Z</time>
      </trkpt>
      <trkpt lat="44.16993" lon="1.97331">
        <ele>94</ele>
        <time>2014-08-15T12:57:26Z</time>
      </trkpt>
      <trkpt lat="44.16999" lon="1.97329">
        <ele>94</ele>
        <time>2014-08-15T12:57:29Z</time>
      </trkpt>
      <trkpt lat="44.17002" lon="1.97327">
        <ele>94</ele>
        <time>2014-08-15T12:57:31Z</time>
      </trkpt>
      <trkpt lat="44.17004" lon="1.97325">
        <ele>94</ele>
        <time>2014-08-15T12:57:33Z</time>
      </trkpt>
      <trkpt lat="44.17009" lon="1.97328">
        <ele>94</ele>
        <time>2014-08-15T12:57:36Z</time>
      </trkpt>
      <trkpt lat="44.17012" lon="1.9733">
        <ele>94</ele>
        <time>2014-08-15T12:57:38Z</time>
      </trkpt>
      <trkpt lat="44.17019" lon="1.97334">
        <ele>94</ele>
        <time>2014-08-15T12:57:41Z</time>
      </trkpt>
      <trkpt lat="44.17025" lon="1.97336">
        <ele>94</ele>
        <time>2014-08-15T12:57:43Z</time>
      </trkpt>
      <trkpt lat="44.17033" lon="1.97339">
        <ele>94</ele>
        <time>2014-08-15T12:57:46Z</time>
      </trkpt>
      <trkpt lat="44.17039" lon="1.9734">
        <ele>95</ele>
        <time>2014-08-15T12:57:49Z</time>
      </trkpt>
      <trkpt lat="44.17049" lon="1.97342">
        <ele>95</ele>
        <time>2014-08-15T12:57:51Z</time>
      </trkpt>
      <trkpt lat="44.17061" lon="1.97344">
        <ele>96</ele>
        <time>2014-08-15T12:57:54Z</time>
      </trkpt>
      <trkpt lat="44.17074" lon="1.97345">
        <ele>96</ele>
        <time>2014-08-15T12:57:57Z</time>
      </trkpt>
      <trkpt lat="44.17083" lon="1.97346">
        <ele>96</ele>
        <time>2014-08-15T12:57:59Z</time>
      </trkpt>
      <trkpt lat="44.17091" lon="1.97348">
        <ele>97</ele>
        <time>2014-08-15T12:58:01Z</time>
      </trkpt>
      <trkpt lat="44.171" lon="1.97349">
        <ele>97</ele>
        <time>2014-08-15T12:58:03Z</time>
      </trkpt>
      <trkpt lat="44.17115" lon="1.9735">
        <ele>97</ele>
        <time>2014-08-15T12:58:06Z</time>
      </trkpt>
      <trkpt lat="44.17126" lon="1.97351">
        <ele>97</ele>
        <time>2014-08-15T12:58:08Z</time>
      </trkpt>
      <trkpt lat="44.17143" lon="1.97356">
        <ele>97</ele>
        <time>2014-08-15T12:58:11Z</time>
      </trkpt>
      <trkpt lat="44.17153" lon="1.97359">
        <ele>96</ele>
        <time>2014-08-15T12:58:13Z</time>
      </trkpt>
      <trkpt lat="44.17168" lon="1.97361">
        <ele>97</ele>
        <time>2014-08-15T12:58:16Z</time>
      </trkpt>
      <trkpt lat="44.17179" lon="1.97361">
        <ele>97</ele>
        <time>2014-08-15T12:58:19Z</time>
      </trkpt>
      <trkpt lat="44.17186" lon="1.97361">
        <ele>97</ele>
        <time>2014-08-15T12:58:21Z</time>
      </trkpt>
      <trkpt lat="44.17198" lon="1.97364">
        <ele>96</ele>
        <time>2014-08-15T12:58:24Z</time>
      </trkpt>
      <trkpt lat="44.1721" lon="1.97368">
        <ele>95</ele>
        <time>2014-08-15T12:58:26Z</time>
      </trkpt>
      <trkpt lat="44.17224" lon="1.97371">
        <ele>93</ele>
        <time>2014-08-15T12:58:29Z</time>
      </trkpt>
      <trkpt lat="44.17234" lon="1.97374">
        <ele>92</ele>
        <time>2014-08-15T12:58:32Z</time>
      </trkpt>
      <trkpt lat="44.17238" lon="1.97373">
        <ele>91</ele>
        <time>2014-08-15T12:58:34Z</time>
      </trkpt>
      <trkpt lat="44.17245" lon="1.97372">
        <ele>91</ele>
        <time>2014-08-15T12:58:37Z</time>
      </trkpt>
      <trkpt lat="44.17248" lon="1.97372">
        <ele>91</ele>
        <time>2014-08-15T12:58:39Z</time>
      </trkpt>
      <trkpt lat="44.17253" lon="1.97372">
        <ele>91</ele>
        <time>2014-08-15T12:58:42Z</time>
      </trkpt>
      <trkpt lat="44.17258" lon="1.97372">
        <ele>91</ele>
        <time>2014-08-15T12:58:45Z</time>
      </trkpt>
      <trkpt lat="44.17263" lon="1.97374">
        <ele>91</ele>
        <time>2014-08-15T12:58:48Z</time>
      </trkpt>
      <trkpt lat="44.17267" lon="1.97376">
        <ele>91</ele>
        <time>2014-08-15T12:58:50Z</time>
      </trkpt>
      <trkpt lat="44.17273" lon="1.9738">
        <ele>91</ele>
        <time>2014-08-15T12:58:53Z</time>
      </trkpt>
      <trkpt lat="44.17277" lon="1.97383">
        <ele>91</ele>
        <time>2014-08-15T12:58:56Z</time>
      </trkpt>
      <trkpt lat="44.17284" lon="1.97394">
        <ele>91</ele>
        <time>2014-08-15T12:58:58Z</time>
      </trkpt>
      <trkpt lat="44.17292" lon="1.97407">
        <ele>90</ele>
        <time>2014-08-15T12:59:01Z</time>
      </trkpt>
      <trkpt lat="44.17303" lon="1.97426">
        <ele>90</ele>
        <time>2014-08-15T12:59:04Z</time>
      </trkpt>
      <trkpt lat="44.17318" lon="1.97446">
        <ele>90</ele>
        <time>2014-08-15T12:59:07Z</time>
      </trkpt>
      <trkpt lat="44.17329" lon="1.97459">
        <ele>89</ele>
        <time>2014-08-15T12:59:09Z</time>
      </trkpt>
      <trkpt lat="44.17343" lon="1.97483">
        <ele>89</ele>
        <time>2014-08-15T12:59:12Z</time>
      </trkpt>
      <trkpt lat="44.1735" lon="1.97503">
        <ele>89</ele>
        <time>2014-08-15T12:59:14Z</time>
      </trkpt>
      <trkpt lat="44.17362" lon="1.97531">
        <ele>89</ele>
        <time>2014-08-15T12:59:17Z</time>
      </trkpt>
      <trkpt lat="44.17373" lon="1.97559">
        <ele>89</ele>
        <time>2014-08-15T12:59:20Z</time>
      </trkpt>
      <trkpt lat="44.17382" lon="1.97583">
        <ele>90</ele>
        <time>2014-08-15T12:59:23Z</time>
      </trkpt>
      <trkpt lat="44.17387" lon="1.97594">
        <ele>90</ele>
        <time>2014-08-15T12:59:25Z</time>
      </trkpt>
      <trkpt lat="44.17393" lon="1.97609">
        <ele>90</ele>
        <time>2014-08-15T12:59:28Z</time>
      </trkpt>
      <trkpt lat="44.17398" lon="1.97624">
        <ele>90</ele>
        <time>2014-08-15T12:59:31Z</time>
      </trkpt>
      <trkpt lat="44.17405" lon="1.9764">
        <ele>90</ele>
        <time>2014-08-15T12:59:34Z</time>
      </trkpt>
      <trkpt lat="44.17413" lon="1.97656">
        <ele>89</ele>
        <time>2014-08-15T12:59:37Z</time>
      </trkpt>
      <trkpt lat="44.17419" lon="1.97666">
        <ele>89</ele>
        <time>2014-08-15T12:59:39Z</time>
      </trkpt>
      <trkpt lat="44.17427" lon="1.97681">
        <ele>89</ele>
        <time>2014-08-15T12:59:42Z</time>
      </trkpt>
      <trkpt lat="44.17433" lon="1.97691">
        <ele>89</ele>
        <time>2014-08-15T12:59:44Z</time>
      </trkpt>
      <trkpt lat="44.17442" lon="1.97708">
        <ele>89</ele>
        <time>2014-08-15T12:59:47Z</time>
      </trkpt>
      <trkpt lat="44.17447" lon="1.97716">
        <ele>89</ele>
        <time>2014-08-15T12:59:49Z</time>
      </trkpt>
      <trkpt lat="44.17453" lon="1.97726">
        <ele>89</ele>
        <time>2014-08-15T12:59:51Z</time>
      </trkpt>
      <trkpt lat="44.17463" lon="1.97743">
        <ele>89</ele>
        <time>2014-08-15T12:59:54Z</time>
      </trkpt>
      <trkpt lat="44.17471" lon="1.97758">
        <ele>89</ele>
        <time>2014-08-15T12:59:57Z</time>
      </trkpt>
      <trkpt lat="44.1748" lon="1.97775">
        <ele>90</ele>
        <time>2014-08-15T13:00:00Z</time>
      </trkpt>
      <trkpt lat="44.17487" lon="1.97787">
        <ele>90</ele>
        <time>2014-08-15T13:00:03Z</time>
      </trkpt>
      <trkpt lat="44.17495" lon="1.978">
        <ele>90</ele>
        <time>2014-08-15T13:00:06Z</time>
      </trkpt>
      <trkpt lat="44.17498" lon="1.97809">
        <ele>90</ele>
        <time>2014-08-15T13:00:08Z</time>
      </trkpt>
      <trkpt lat="44.17503" lon="1.97818">
        <ele>89</ele>
        <time>2014-08-15T13:00:10Z</time>
      </trkpt>
      <trkpt lat="44.1751" lon="1.97834">
        <ele>89</ele>
        <time>2014-08-15T13:00:13Z</time>
      </trkpt>
      <trkpt lat="44.17515" lon="1.97843">
        <ele>89</ele>
        <time>2014-08-15T13:00:15Z</time>
      </trkpt>
      <trkpt lat="44.17523" lon="1.97855">
        <ele>89</ele>
        <time>2014-08-15T13:00:17Z</time>
      </trkpt>
      <trkpt lat="44.17536" lon="1.97872">
        <ele>89</ele>
        <time>2014-08-15T13:00:20Z</time>
      </trkpt>
      <trkpt lat="44.17547" lon="1.97886">
        <ele>89</ele>
        <time>2014-08-15T13:00:23Z</time>
      </trkpt>
      <trkpt lat="44.17552" lon="1.97892">
        <ele>90</ele>
        <time>2014-08-15T13:00:25Z</time>
      </trkpt>
      <trkpt lat="44.17558" lon="1.97899">
        <ele>90</ele>
        <time>2014-08-15T13:00:27Z</time>
      </trkpt>
      <trkpt lat="44.1757" lon="1.97912">
        <ele>91</ele>
        <time>2014-08-15T13:00:30Z</time>
      </trkpt>
      <trkpt lat="44.17583" lon="1.97923">
        <ele>90</ele>
        <time>2014-08-15T13:00:33Z</time>
      </trkpt>
      <trkpt lat="44.17592" lon="1.97932">
        <ele>89</ele>
        <time>2014-08-15T13:00:35Z</time>
      </trkpt>
      <trkpt lat="44.17601" lon="1.97939">
        <ele>89</ele>
        <time>2014-08-15T13:00:37Z</time>
      </trkpt>
      <trkpt lat="44.17612" lon="1.97952">
        <ele>88</ele>
        <time>2014-08-15T13:00:40Z</time>
      </trkpt>
      <trkpt lat="44.17625" lon="1.97964">
        <ele>88</ele>
        <time>2014-08-15T13:00:43Z</time>
      </trkpt>
      <trkpt lat="44.17637" lon="1.97976">
        <ele>89</ele>
        <time>2014-08-15T13:00:46Z</time>
      </trkpt>
      <trkpt lat="44.17643" lon="1.97983">
        <ele>89</ele>
        <time>2014-08-15T13:00:48Z</time>
      </trkpt>
      <trkpt lat="44.17651" lon="1.9799">
        <ele>89</ele>
        <time>2014-08-15T13:00:51Z</time>
      </trkpt>
      <trkpt lat="44.17659" lon="1.97997">
        <ele>89</ele>
        <time>2014-08-15T13:00:54Z</time>
      </trkpt>
      <trkpt lat="44.17664" lon="1.98001">
        <ele>89</ele>
        <time>2014-08-15T13:00:57Z</time>
      </trkpt>
      <trkpt lat="44.17667" lon="1.98004">
        <ele>89</ele>
        <time>2014-08-15T13:00:59Z</time>
      </trkpt>
      <trkpt lat="44.17671" lon="1.98009">
        <ele>90</ele>
        <time>2014-08-15T13:01:02Z</time>
      </trkpt>
      <trkpt lat="44.17674" lon="1.98014">
        <ele>89</ele>
        <time>2014-08-15T13:01:05Z</time>
      </trkpt>
      <trkpt lat="44.17672" lon="1.98022">
        <ele>89</ele>
        <time>2014-08-15T13:01:08Z</time>
      </trkpt>
      <trkpt lat="44.17674" lon="1.98029">
        <ele>89</ele>
        <time>2014-08-15T13:01:10Z</time>
      </trkpt>
      <trkpt lat="44.17681" lon="1.98038">
        <ele>89</ele>
        <time>2014-08-15T13:01:13Z</time>
      </trkpt>
      <trkpt lat="44.17685" lon="1.98045">
        <ele>89</ele>
        <time>2014-08-15T13:01:15Z</time>
      </trkpt>
      <trkpt lat="44.17695" lon="1.98057">
        <ele>89</ele>
        <time>2014-08-15T13:01:18Z</time>
      </trkpt>
      <trkpt lat="44.177" lon="1.98067">
        <ele>89</ele>
        <time>2014-08-15T13:01:20Z</time>
      </trkpt>
      <trkpt lat="44.17707" lon="1.98078">
        <ele>89</ele>
        <time>2014-08-15T13:01:22Z</time>
      </trkpt>
      <trkpt lat="44.17713" lon="1.98087">
        <ele>89</ele>
        <time>2014-08-15T13:01:24Z</time>
      </trkpt>
      <trkpt lat="44.17726" lon="1.98099">
        <ele>89</ele>
        <time>2014-08-15T13:01:27Z</time>
      </trkpt>
      <trkpt lat="44.17735" lon="1.98113">
        <ele>89</ele>
        <time>2014-08-15T13:01:30Z</time>
      </trkpt>
      <trkpt lat="44.17741" lon="1.98123">
        <ele>89</ele>
        <time>2014-08-15T13:01:32Z</time>
      </trkpt>
      <trkpt lat="44.17748" lon="1.98137">
        <ele>89</ele>
        <time>2014-08-15T13:01:35Z</time>
      </trkpt>
      <trkpt lat="44.17759" lon="1.98152">
        <ele>89</ele>
        <time>2014-08-15T13:01:38Z</time>
      </trkpt>
      <trkpt lat="44.17767" lon="1.98164">
        <ele>89</ele>
        <time>2014-08-15T13:01:40Z</time>
      </trkpt>
      <trkpt lat="44.1778" lon="1.98182">
        <ele>89</ele>
        <time>2014-08-15T13:01:43Z</time>
      </trkpt>
      <trkpt lat="44.17786" lon="1.98194">
        <ele>88</ele>
        <time>2014-08-15T13:01:45Z</time>
      </trkpt>
      <trkpt lat="44.17793" lon="1.98202">
        <ele>88</ele>
        <time>2014-08-15T13:01:47Z</time>
      </trkpt>
      <trkpt lat="44.17802" lon="1.98215">
        <ele>88</ele>
        <time>2014-08-15T13:01:50Z</time>
      </trkpt>
      <trkpt lat="44.17813" lon="1.98228">
        <ele>88</ele>
        <time>2014-08-15T13:01:53Z</time>
      </trkpt>
      <trkpt lat="44.1782" lon="1.98234">
        <ele>88</ele>
        <time>2014-08-15T13:01:55Z</time>
      </trkpt>
      <trkpt lat="44.17831" lon="1.98244">
        <ele>88</ele>
        <time>2014-08-15T13:01:58Z</time>
      </trkpt>
      <trkpt lat="44.17843" lon="1.98252">
        <ele>89</ele>
        <time>2014-08-15T13:02:01Z</time>
      </trkpt>
      <trkpt lat="44.17851" lon="1.98257">
        <ele>89</ele>
        <time>2014-08-15T13:02:04Z</time>
      </trkpt>
      <trkpt lat="44.17855" lon="1.9826">
        <ele>89</ele>
        <time>2014-08-15T13:02:06Z</time>
      </trkpt>
      <trkpt lat="44.17863" lon="1.98265">
        <ele>89</ele>
        <time>2014-08-15T13:02:09Z</time>
      </trkpt>
      <trkpt lat="44.1787" lon="1.98271">
        <ele>89</ele>
        <time>2014-08-15T13:02:12Z</time>
      </trkpt>
      <trkpt lat="44.17875" lon="1.98274">
        <ele>89</ele>
        <time>2014-08-15T13:02:14Z</time>
      </trkpt>
      <trkpt lat="44.17881" lon="1.98276">
        <ele>90</ele>
        <time>2014-08-15T13:02:17Z</time>
      </trkpt>
      <trkpt lat="44.17885" lon="1.98277">
        <ele>90</ele>
        <time>2014-08-15T13:02:19Z</time>
      </trkpt>
      <trkpt lat="44.17896" lon="1.98282">
        <ele>89</ele>
        <time>2014-08-15T13:02:22Z</time>
      </trkpt>
      <trkpt lat="44.17902" lon="1.98285">
        <ele>89</ele>
        <time>2014-08-15T13:02:24Z</time>
      </trkpt>
      <trkpt lat="44.17914" lon="1.98288">
        <ele>89</ele>
        <time>2014-08-15T13:02:27Z</time>
      </trkpt>
      <trkpt lat="44.17923" lon="1.98288">
        <ele>89</ele>
        <time>2014-08-15T13:02:29Z</time>
      </trkpt>
      <trkpt lat="44.17934" lon="1.98286">
        <ele>88</ele>
        <time>2014-08-15T13:02:32Z</time>
      </trkpt>
      <trkpt lat="44.17944" lon="1.98284">
        <ele>89</ele>
        <time>2014-08-15T13:02:35Z</time>
      </trkpt>
      <trkpt lat="44.17953" lon="1.98283">
        <ele>89</ele>
        <time>2014-08-15T13:02:38Z</time>
      </trkpt>
      <trkpt lat="44.1796" lon="1.98284">
        <ele>89</ele>
        <time>2014-08-15T13:02:41Z</time>
      </trkpt>
      <trkpt lat="44.17967" lon="1.98281">
        <ele>89</ele>
        <time>2014-08-15T13:02:44Z</time>
      </trkpt>
      <trkpt lat="44.17976" lon="1.98278">
        <ele>89</ele>
        <time>2014-08-15T13:02:47Z</time>
      </trkpt>
      <trkpt lat="44.17984" lon="1.98276">
        <ele>89</ele>
        <time>2014-08-15T13:02:50Z</time>
      </trkpt>
      <trkpt lat="44.17989" lon="1.98274">
        <ele>89</ele>
        <time>2014-08-15T13:02:52Z</time>
      </trkpt>
      <trkpt lat="44.17995" lon="1.98273">
        <ele>89</ele>
        <time>2014-08-15T13:02:54Z</time>
      </trkpt>
      <trkpt lat="44.18002" lon="1.98271">
        <ele>89</ele>
        <time>2014-08-15T13:02:57Z</time>
      </trkpt>
      <trkpt lat="44.18008" lon="1.98268">
        <ele>88</ele>
        <time>2014-08-15T13:02:59Z</time>
      </trkpt>
      <trkpt lat="44.18011" lon="1.98266">
        <ele>88</ele>
        <time>2014-08-15T13:03:01Z</time>
      </trkpt>
      <trkpt lat="44.18016" lon="1.98258">
        <ele>89</ele>
        <time>2014-08-15T13:03:04Z</time>
      </trkpt>
      <trkpt lat="44.18018" lon="1.98254">
        <ele>89</ele>
        <time>2014-08-15T13:03:06Z</time>
      </trkpt>
      <trkpt lat="44.18022" lon="1.98249">
        <ele>89</ele>
        <time>2014-08-15T13:03:09Z</time>
      </trkpt>
      <trkpt lat="44.18027" lon="1.98244">
        <ele>89</ele>
        <time>2014-08-15T13:03:12Z</time>
      </trkpt>
      <trkpt lat="44.18032" lon="1.98238">
        <ele>89</ele>
        <time>2014-08-15T13:03:14Z</time>
      </trkpt>
      <trkpt lat="44.18038" lon="1.98232">
        <ele>89</ele>
        <time>2014-08-15T13:03:17Z</time>
      </trkpt>
      <trkpt lat="44.18047" lon="1.98223">
        <ele>89</ele>
        <time>2014-08-15T13:03:20Z</time>
      </trkpt>
      <trkpt lat="44.18052" lon="1.98218">
        <ele>89</ele>
        <time>2014-08-15T13:03:22Z</time>
      </trkpt>
      <trkpt lat="44.18059" lon="1.98214">
        <ele>89</ele>
        <time>2014-08-15T13:03:24Z</time>
      </trkpt>
      <trkpt lat="44.18069" lon="1.98208">
        <ele>89</ele>
        <time>2014-08-15T13:03:27Z</time>
      </trkpt>
      <trkpt lat="44.18081" lon="1.98204">
        <ele>89</ele>
        <time>2014-08-15T13:03:30Z</time>
      </trkpt>
      <trkpt lat="44.18089" lon="1.98199">
        <ele>89</ele>
        <time>2014-08-15T13:03:32Z</time>
      </trkpt>
      <trkpt lat="44.18105" lon="1.98195">
        <ele>90</ele>
        <time>2014-08-15T13:03:35Z</time>
      </trkpt>
      <trkpt lat="44.18116" lon="1.98194">
        <ele>90</ele>
        <time>2014-08-15T13:03:37Z</time>
      </trkpt>
      <trkpt lat="44.18125" lon="1.98192">
        <ele>90</ele>
        <time>2014-08-15T13:03:39Z</time>
      </trkpt>
      <trkpt lat="44.18138" lon="1.98184">
        <ele>90</ele>
        <time>2014-08-15T13:03:42Z</time>
      </trkpt>
      <trkpt lat="44.18147" lon="1.98177">
        <ele>90</ele>
        <time>2014-08-15T13:03:45Z</time>
      </trkpt>
      <trkpt lat="44.18152" lon="1.98173">
        <ele>91</ele>
        <time>2014-08-15T13:03:47Z</time>
      </trkpt>
      <trkpt lat="44.18159" lon="1.98168">
        <ele>90</ele>
        <time>2014-08-15T13:03:50Z</time>
      </trkpt>
      <trkpt lat="44.18167" lon="1.98161">
        <ele>90</ele>
        <time>2014-08-15T13:03:53Z</time>
      </trkpt>
      <trkpt lat="44.18174" lon="1.98155">
        <ele>90</ele>
        <time>2014-08-15T13:03:56Z</time>
      </trkpt>
      <trkpt lat="44.18181" lon="1.98146">
        <ele>90</ele>
        <time>2014-08-15T13:03:59Z</time>
      </trkpt>
      <trkpt lat="44.18189" lon="1.98143">
        <ele>90</ele>
        <time>2014-08-15T13:04:01Z</time>
      </trkpt>
      <trkpt lat="44.18201" lon="1.98141">
        <ele>90</ele>
        <time>2014-08-15T13:04:04Z</time>
      </trkpt>
      <trkpt lat="44.18214" lon="1.98137">
        <ele>90</ele>
        <time>2014-08-15T13:04:07Z</time>
      </trkpt>
      <trkpt lat="44.18228" lon="1.98133">
        <ele>90</ele>
        <time>2014-08-15T13:04:10Z</time>
      </trkpt>
      <trkpt lat="44.18235" lon="1.9813">
        <ele>90</ele>
        <time>2014-08-15T13:04:12Z</time>
      </trkpt>
      <trkpt lat="44.1824" lon="1.98127">
        <ele>90</ele>
        <time>2014-08-15T13:04:14Z</time>
      </trkpt>
      <trkpt lat="44.18247" lon="1.98124">
        <ele>90</ele>
        <time>2014-08-15T13:04:17Z</time>
      </trkpt>
      <trkpt lat="44.18256" lon="1.9812">
        <ele>90</ele>
        <time>2014-08-15T13:04:20Z</time>
      </trkpt>
      <trkpt lat="44.18265" lon="1.98119">
        <ele>90</ele>
        <time>2014-08-15T13:04:23Z</time>
      </trkpt>
      <trkpt lat="44.18276" lon="1.98117">
        <ele>91</ele>
        <time>2014-08-15T13:04:26Z</time>
      </trkpt>
      <trkpt lat="44.18281" lon="1.98113">
        <ele>91</ele>
        <time>2014-08-15T13:04:28Z</time>
      </trkpt>
      <trkpt lat="44.1829" lon="1.98111">
        <ele>92</ele>
        <time>2014-08-15T13:04:31Z</time>
      </trkpt>
      <trkpt lat="44.18301" lon="1.98112">
        <ele>91</ele>
        <time>2014-08-15T13:04:34Z</time>
      </trkpt>
      <trkpt lat="44.1831" lon="1.98112">
        <ele>91</ele>
        <time>2014-08-15T13:04:36Z</time>
      </trkpt>
      <trkpt lat="44.18318" lon="1.98112">
        <ele>91</ele>
        <time>2014-08-15T13:04:39Z</time>
      </trkpt>
      <trkpt lat="44.18323" lon="1.98112">
        <ele>92</ele>
        <time>2014-08-15T13:04:42Z</time>
      </trkpt>
      <trkpt lat="44.18328" lon="1.98112">
        <ele>92</ele>
        <time>2014-08-15T13:04:45Z</time>
      </trkpt>
      <trkpt lat="44.1833" lon="1.98112">
        <ele>92</ele>
        <time>2014-08-15T13:04:47Z</time>
      </trkpt>
      <trkpt lat="44.18334" lon="1.98113">
        <ele>91</ele>
        <time>2014-08-15T13:04:50Z</time>
      </trkpt>
      <trkpt lat="44.18339" lon="1.98112">
        <ele>91</ele>
        <time>2014-08-15T13:04:53Z</time>
      </trkpt>
      <trkpt lat="44.18342" lon="1.98112">
        <ele>91</ele>
        <time>2014-08-15T13:04:55Z</time>
      </trkpt>
      <trkpt lat="44.18344" lon="1.98111">
        <ele>91</ele>
        <time>2014-08-15T13:04:57Z</time>
      </trkpt>
      <trkpt lat="44.18347" lon="1.98108">
        <ele>91</ele>
        <time>2014-08-15T13:05:00Z</time>
      </trkpt>
      <trkpt lat="44.18351" lon="1.98107">
        <ele>92</ele>
        <time>2014-08-15T13:05:02Z</time>
      </trkpt>
      <trkpt lat="44.18358" lon="1.98106">
        <ele>92</ele>
        <time>2014-08-15T13:05:05Z</time>
      </trkpt>
      <trkpt lat="44.18362" lon="1.98104">
        <ele>92</ele>
        <time>2014-08-15T13:05:07Z</time>
      </trkpt>
      <trkpt lat="44.18367" lon="1.98102">
        <ele>92</ele>
        <time>2014-08-15T13:05:09Z</time>
      </trkpt>
      <trkpt lat="44.18375" lon="1.98099">
        <ele>93</ele>
        <time>2014-08-15T13:05:12Z</time>
      </trkpt>
      <trkpt lat="44.18382" lon="1.98097">
        <ele>93</ele>
        <time>2014-08-15T13:05:15Z</time>
      </trkpt>
      <trkpt lat="44.18389" lon="1.98094">
        <ele>93</ele>
        <time>2014-08-15T13:05:18Z</time>
      </trkpt>
      <trkpt lat="44.18401" lon="1.98094">
        <ele>93</ele>
        <time>2014-08-15T13:05:21Z</time>
      </trkpt>
      <trkpt lat="44.1841" lon="1.98093">
        <ele>94</ele>
        <time>2014-08-15T13:05:23Z</time>
      </trkpt>
      <trkpt lat="44.18418" lon="1.98092">
        <ele>94</ele>
        <time>2014-08-15T13:05:25Z</time>
      </trkpt>
      <trkpt lat="44.18425" lon="1.98091">
        <ele>95</ele>
        <time>2014-08-15T13:05:27Z</time>
      </trkpt>
      <trkpt lat="44.18433" lon="1.98091">
        <ele>95</ele>
        <time>2014-08-15T13:05:29Z</time>
      </trkpt>
      <trkpt lat="44.18443" lon="1.98091">
        <ele>96</ele>
        <time>2014-08-15T13:05:32Z</time>
      </trkpt>
      <trkpt lat="44.18457" lon="1.98091">
        <ele>96</ele>
        <time>2014-08-15T13:05:35Z</time>
      </trkpt>
      <trkpt lat="44.18473" lon="1.98091">
        <ele>95</ele>
        <time>2014-08-15T13:05:38Z</time>
      </trkpt>
      <trkpt lat="44.18483" lon="1.98089">
        <ele>94</ele>
        <time>2014-08-15T13:05:41Z</time>
      </trkpt>
      <trkpt lat="44.18492" lon="1.98087">
        <ele>94</ele>
        <time>2014-08-15T13:05:44Z</time>
      </trkpt>
      <trkpt lat="44.18499" lon="1.98087">
        <ele>93</ele>
        <time>2014-08-15T13:05:46Z</time>
      </trkpt>
      <trkpt lat="44.18509" lon="1.98086">
        <ele>94</ele>
        <time>2014-08-15T13:05:49Z</time>
      </trkpt>
      <trkpt lat="44.18515" lon="1.98085">
        <ele>94</ele>
        <time>2014-08-15T13:05:51Z</time>
      </trkpt>
      <trkpt lat="44.18521" lon="1.98084">
        <ele>93</ele>
        <time>2014-08-15T13:05:54Z</time>
      </trkpt>
      <trkpt lat="44.18533" lon="1.98086">
        <ele>93</ele>
        <time>2014-08-15T13:05:57Z</time>
      </trkpt>
      <trkpt lat="44.18543" lon="1.98087">
        <ele>94</ele>
        <time>2014-08-15T13:05:59Z</time>
      </trkpt>
      <trkpt lat="44.18555" lon="1.98088">
        <ele>94</ele>
        <time>2014-08-15T13:06:02Z</time>
      </trkpt>
      <trkpt lat="44.18561" lon="1.98089">
        <ele>94</ele>
        <time>2014-08-15T13:06:04Z</time>
      </trkpt>
      <trkpt lat="44.18571" lon="1.98089">
        <ele>94</ele>
        <time>2014-08-15T13:06:07Z</time>
      </trkpt>
      <trkpt lat="44.18576" lon="1.98092">
        <ele>94</ele>
        <time>2014-08-15T13:06:09Z</time>
      </trkpt>
      <trkpt lat="44.18584" lon="1.98098">
        <ele>94</ele>
        <time>2014-08-15T13:06:12Z</time>
      </trkpt>
      <trkpt lat="44.18594" lon="1.98105">
        <ele>93</ele>
        <time>2014-08-15T13:06:15Z</time>
      </trkpt>
      <trkpt lat="44.18602" lon="1.9811">
        <ele>93</ele>
        <time>2014-08-15T13:06:17Z</time>
      </trkpt>
      <trkpt lat="44.1861" lon="1.98116">
        <ele>93</ele>
        <time>2014-08-15T13:06:20Z</time>
      </trkpt>
      <trkpt lat="44.18613" lon="1.98117">
        <ele>92</ele>
        <time>2014-08-15T13:06:23Z</time>
      </trkpt>
      <trkpt lat="44.18615" lon="1.9812">
        <ele>92</ele>
        <time>2014-08-15T13:06:26Z</time>
      </trkpt>
      <trkpt lat="44.18616" lon="1.98122">
        <ele>91</ele>
        <time>2014-08-15T13:06:28Z</time>
      </trkpt>
      <trkpt lat="44.18715" lon="1.98135">
        <ele>90</ele>
        <time>2014-08-15T13:06:31Z</time>
      </trkpt>
      <trkpt lat="44.18717" lon="1.98136">
        <ele>90</ele>
        <time>2014-08-15T13:06:33Z</time>
      </trkpt>
      <trkpt lat="44.18718" lon="1.98135">
        <ele>90</ele>
        <time>2014-08-15T13:06:35Z</time>
      </trkpt>
      <trkpt lat="44.18718" lon="1.98137">
        <ele>90</ele>
        <time>2014-08-15T13:06:38Z</time>
      </trkpt>
      <trkpt lat="44.18718" lon="1.98141">
        <ele>90</ele>
        <time>2014-08-15T13:06:40Z</time>
      </trkpt>
      <trkpt lat="44.18717" lon="1.98147">
        <ele>90</ele>
        <time>2014-08-15T13:06:43Z</time>
      </trkpt>
      <trkpt lat="44.18717" lon="1.98153">
        <ele>90</ele>
        <time>2014-08-15T13:06:46Z</time>
      </trkpt>
      <trkpt lat="44.18717" lon="1.98156">
        <ele>91</ele>
        <time>2014-08-15T13:06:48Z</time>
      </trkpt>
      <trkpt lat="44.18718" lon="1.98161">
        <ele>91</ele>
        <time>2014-08-15T13:06:51Z</time>
      </trkpt>
      <trkpt lat="44.18722" lon="1.98166">
        <ele>91</ele>
        <time>2014-08-15T13:06:54Z</time>
      </trkpt>
      <trkpt lat="44.18722" lon="1.98167">
        <ele>91</ele>
        <time>2014-08-15T13:06:56Z</time>
      </trkpt>
      <trkpt lat="44.18723" lon="1.9817">
        <ele>91</ele>
        <time>2014-08-15T13:06:59Z</time>
      </trkpt>
      <trkpt lat="44.18724" lon="1.98171">
        <ele>92</ele>
        <time>2014-08-15T13:07:01Z</time>
      </trkpt>
      <trkpt lat="44.18724" lon="1.98173">
        <ele>92</ele>
        <time>2014-08-15T13:07:04Z</time>
      </trkpt>
      <trkpt lat="44.18723" lon="1.98176">
        <ele>92</ele>
        <time>2014-08-15T13:07:07Z</time>
      </trkpt>
      <trkpt lat="44.1872" lon="1.98182">
        <ele>92</ele>
        <time>2014-08-15T13:07:10Z</time>
      </trkpt>
      <trkpt lat="44.18719" lon="1.98187">
        <ele>92</ele>
        <time>2014-08-15T13:07:12Z</time>
      </trkpt>
      <trkpt lat="44.1872" lon="1.98194">
        <ele>92</ele>
        <time>2014-08-15T13:07:15Z</time>
      </trkpt>
      <trkpt lat="44.18723" lon="1.98199">
        <ele>92</ele>
        <time>2014-08-15T13:07:18Z</time>
      </trkpt>
      <trkpt lat="44.18721" lon="1.98204">
        <ele>92</ele>
        <time>2014-08-15T13:07:21Z</time>
      </trkpt>
      <trkpt lat="44.18722" lon="1.98211">
        <ele>93</ele>
        <time>2014-08-15T13:07:23Z</time>
      </trkpt>
      <trkpt lat="44.18728" lon="1.9822">
        <ele>93</ele>
        <time>2014-08-15T13:07:26Z</time>
      </trkpt>
      <trkpt lat="44.18735" lon="1.98232">
        <ele>93</ele>
        <time>2014-08-15T13:07:29Z</time>
      </trkpt>
      <trkpt lat="44.18738" lon="1.98241">
        <ele>93</ele>
        <time>2014-08-15T13:07:32Z</time>
      </trkpt>
      <trkpt lat="44.1874" lon="1.98248">
        <ele>94</ele>
        <time>2014-08-15T13:07:34Z</time>
      </trkpt>
      <trkpt lat="44.18744" lon="1.98259">
        <ele>95</ele>
        <time>2014-08-15T13:07:37Z</time>
      </trkpt>
      <trkpt lat="44.18744" lon="1.98265">
        <ele>96</ele>
        <time>2014-08-15T13:07:39Z</time>
      </trkpt>
      <trkpt lat="44.18745" lon="1.98272">
        <ele>96</ele>
        <time>2014-08-15T13:07:41Z</time>
      </trkpt>
      <trkpt lat="44.18746" lon="1.98282">
        <ele>98</ele>
        <time>2014-08-15T13:07:44Z</time>
      </trkpt>
      <trkpt lat="44.18745" lon="1.98288">
        <ele>98</ele>
        <time>2014-08-15T13:07:47Z</time>
      </trkpt>
      <trkpt lat="44.18744" lon="1.98296">
        <ele>100</ele>
        <time>2014-08-15T13:07:50Z</time>
      </trkpt>
      <trkpt lat="44.18742" lon="1.98303">
        <ele>101</ele>
        <time>2014-08-15T13:07:53Z</time>
      </trkpt>
      <trkpt lat="44.18741" lon="1.98308">
        <ele>101</ele>
        <time>2014-08-15T13:07:55Z</time>
      </trkpt>
      <trkpt lat="44.18741" lon="1.98316">
        <ele>102</ele>
        <time>2014-08-15T13:07:58Z</time>
      </trkpt>
      <trkpt lat="44.18739" lon="1.98323">
        <ele>104</ele>
        <time>2014-08-15T13:08:01Z</time>
      </trkpt>
      <trkpt lat="44.18738" lon="1.98329">
        <ele>105</ele>
        <time>2014-08-15T13:08:04Z</time>
      </trkpt>
      <trkpt lat="44.18738" lon="1.98333">
        <ele>106</ele>
        <time>2014-08-15T13:08:06Z</time>
      </trkpt>
      <trkpt lat="44.18737" lon="1.98338">
        <ele>107</ele>
        <time>2014-08-15T13:08:09Z</time>
      </trkpt>
      <trkpt lat="44.18736" lon="1.98343">
        <ele>108</ele>
        <time>2014-08-15T13:08:12Z</time>
      </trkpt>
      <trkpt lat="44.18737" lon="1.98348">
        <ele>109</ele>
        <time>2014-08-15T13:08:14Z</time>
      </trkpt>
      <trkpt lat="44.18736" lon="1.98353">
        <ele>110</ele>
        <time>2014-08-15T13:08:16Z</time>
      </trkpt>
      <trkpt lat="44.18737" lon="1.98363">
        <ele>110</ele>
        <time>2014-08-15T13:08:19Z</time>
      </trkpt>
      <trkpt lat="44.18736" lon="1.98371">
        <ele>111</ele>
        <time>2014-08-15T13:08:22Z</time>
      </trkpt>
      <trkpt lat="44.18737" lon="1.98378">
        <ele>112</ele>
        <time>2014-08-15T13:08:25Z</time>
      </trkpt>
      <trkpt lat="44.18737" lon="1.9838">
        <ele>113</ele>
        <time>2014-08-15T13:08:27Z</time>
      </trkpt>
      <trkpt lat="44.18736" lon="1.98385">
        <ele>114</ele>
        <time>2014-08-15T13:08:30Z</time>
      </trkpt>
      <trkpt lat="44.18737" lon="1.98389">
        <ele>115</ele>
        <time>2014-08-15T13:08:32Z</time>
      </trkpt>
      <trkpt lat="44.18734" lon="1.98392">
        <ele>116</ele>
        <time>2014-08-15T13:08:35Z</time>
      </trkpt>
      <trkpt lat="44.18734" lon="1.98395">
        <ele>116</ele>
        <time>2014-08-15T13:08:37Z</time>
      </trkpt>
      <trkpt lat="44.18735" lon="1.98401">
        <ele>118</ele>
        <time>2014-08-15T13:08:40Z</time>
      </trkpt>
      <trkpt lat="44.18736" lon="1.98406">
        <ele>119</ele>
        <time>2014-08-15T13:08:43Z</time>
      </trkpt>
      <trkpt lat="44.18737" lon="1.98411">
        <ele>120</ele>
        <time>2014-08-15T13:08:46Z</time>
      </trkpt>
      <trkpt lat="44.18739" lon="1.98416">
        <ele>120</ele>
        <time>2014-08-15T13:08:48Z</time>
      </trkpt>
      <trkpt lat="44.18742" lon="1.98425">
        <ele>121</ele>
        <time>2014-08-15T13:08:51Z</time>
      </trkpt>
      <trkpt lat="44.18744" lon="1.9843">
        <ele>122</ele>
        <time>2014-08-15T13:08:53Z</time>
      </trkpt>
      <trkpt lat="44.18745" lon="1.98435">
        <ele>123</ele>
        <time>2014-08-15T13:08:55Z</time>
      </trkpt>
      <trkpt lat="44.18748" lon="1.98444">
        <ele>124</ele>
        <time>2014-08-15T13:08:58Z</time>
      </trkpt>
      <trkpt lat="44.18748" lon="1.9845">
        <ele>124</ele>
        <time>2014-08-15T13:09:00Z</time>
      </trkpt>
      <trkpt lat="44.18749" lon="1.98456">
        <ele>125</ele>
        <time>2014-08-15T13:09:02Z</time>
      </trkpt>
      <trkpt lat="44.18752" lon="1.98463">
        <ele>126</ele>
        <time>2014-08-15T13:09:04Z</time>
      </trkpt>
      <trkpt lat="44.18753" lon="1.9847">
        <ele>127</ele>
        <time>2014-08-15T13:09:07Z</time>
      </trkpt>
      <trkpt lat="44.18754" lon="1.98477">
        <ele>128</ele>
        <time>2014-08-15T13:09:10Z</time>
      </trkpt>
      <trkpt lat="44.18755" lon="1.98482">
        <ele>129</ele>
        <time>2014-08-15T13:09:12Z</time>
      </trkpt>
      <trkpt lat="44.18757" lon="1.98488">
        <ele>130</ele>
        <time>2014-08-15T13:09:15Z</time>
      </trkpt>
      <trkpt lat="44.18756" lon="1.98492">
        <ele>130</ele>
        <time>2014-08-15T13:09:17Z</time>
      </trkpt>
      <trkpt lat="44.18756" lon="1.98495">
        <ele>131</ele>
        <time>2014-08-15T13:09:19Z</time>
      </trkpt>
      <trkpt lat="44.18758" lon="1.98501">
        <ele>132</ele>
        <time>2014-08-15T13:09:22Z</time>
      </trkpt>
      <trkpt lat="44.18758" lon="1.98504">
        <ele>132</ele>
        <time>2014-08-15T13:09:24Z</time>
      </trkpt>
      <trkpt lat="44.18759" lon="1.9851">
        <ele>133</ele>
        <time>2014-08-15T13:09:27Z</time>
      </trkpt>
      <trkpt lat="44.1876" lon="1.98517">
        <ele>134</ele>
        <time>2014-08-15T13:09:30Z</time>
      </trkpt>
      <trkpt lat="44.1876" lon="1.98522">
        <ele>134</ele>
        <time>2014-08-15T13:09:32Z</time>
      </trkpt>
      <trkpt lat="44.18761" lon="1.98527">
        <ele>135</ele>
        <time>2014-08-15T13:09:34Z</time>
      </trkpt>
      <trkpt lat="44.18762" lon="1.98532">
        <ele>135</ele>
        <time>2014-08-15T13:09:36Z</time>
      </trkpt>
      <trkpt lat="44.18764" lon="1.9854">
        <ele>135</ele>
        <time>2014-08-15T13:09:39Z</time>
      </trkpt>
      <trkpt lat="44.18763" lon="1.98547">
        <ele>136</ele>
        <time>2014-08-15T13:09:42Z</time>
      </trkpt>
      <trkpt lat="44.1876" lon="1.9855">
        <ele>136</ele>
        <time>2014-08-15T13:09:45Z</time>
      </trkpt>
      <trkpt lat="44.18761" lon="1.98556">
        <ele>137</ele>
        <time>2014-08-15T13:09:47Z</time>
      </trkpt>
      <trkpt lat="44.18763" lon="1.98563">
        <ele>137</ele>
        <time>2014-08-15T13:09:49Z</time>
      </trkpt>
      <trkpt lat="44.18762" lon="1.9857">
        <ele>138</ele>
        <time>2014-08-15T13:09:52Z</time>
      </trkpt>
      <trkpt lat="44.18764" lon="1.98575">
        <ele>139</ele>
        <time>2014-08-15T13:09:54Z</time>
      </trkpt>
      <trkpt lat="44.18765" lon="1.98582">
        <ele>139</ele>
        <time>2014-08-15T13:09:57Z</time>
      </trkpt>
      <trkpt lat="44.18766" lon="1.98587">
        <ele>140</ele>
        <time>2014-08-15T13:09:59Z</time>
      </trkpt>
      <trkpt lat="44.18768" lon="1.98592">
        <ele>140</ele>
        <time>2014-08-15T13:10:01Z</time>
      </trkpt>
      <trkpt lat="44.18771" lon="1.98601">
        <ele>141</ele>
        <time>2014-08-15T13:10:04Z</time>
      </trkpt>
      <trkpt lat="44.18774" lon="1.98611">
        <ele>143</ele>
        <time>2014-08-15T13:10:07Z</time>
      </trkpt>
      <trkpt lat="44.18776" lon="1.98618">
        <ele>143</ele>
        <time>2014-08-15T13:10:09Z</time>
      </trkpt>
      <trkpt lat="44.18778" lon="1.98625">
        <ele>144</ele>
        <time>2014-08-15T13:10:11Z</time>
      </trkpt>
      <trkpt lat="44.18784" lon="1.98634">
        <ele>145</ele>
        <time>2014-08-15T13:10:14Z</time>
      </trkpt>
      <trkpt lat="44.18789" lon="1.98638">
        <ele>146</ele>
        <time>2014-08-15T13:10:17Z</time>
      </trkpt>
      <trkpt lat="44.18794" lon="1.9864">
        <ele>147</ele>
        <time>2014-08-15T13:10:20Z</time>
      </trkpt>
      <trkpt lat="44.18797" lon="1.98641">
        <ele>148</ele>
        <time>2014-08-15T13:10:22Z</time>
      </trkpt>
      <trkpt lat="44.18801" lon="1.98641">
        <ele>149</ele>
        <time>2014-08-15T13:10:24Z</time>
      </trkpt>
      <trkpt lat="44.18806" lon="1.98641">
        <ele>150</ele>
        <time>2014-08-15T13:10:27Z</time>
      </trkpt>
      <trkpt lat="44.18811" lon="1.98641">
        <ele>151</ele>
        <time>2014-08-15T13:10:30Z</time>
      </trkpt>
      <trkpt lat="44.18815" lon="1.98641">
        <ele>152</ele>
        <time>2014-08-15T13:10:32Z</time>
      </trkpt>
      <trkpt lat="44.18818" lon="1.98641">
        <ele>153</ele>
        <time>2014-08-15T13:10:34Z</time>
      </trkpt>
      <trkpt lat="44.18821" lon="1.98641">
        <ele>154</ele>
        <time>2014-08-15T13:10:36Z</time>
      </trkpt>
      <trkpt lat="44.18824" lon="1.9864">
        <ele>155</ele>
        <time>2014-08-15T13:10:38Z</time>
      </trkpt>
      <trkpt lat="44.18826" lon="1.9864">
        <ele>155</ele>
        <time>2014-08-15T13:10:40Z</time>
      </trkpt>
      <trkpt lat="44.18831" lon="1.9864">
        <ele>156</ele>
        <time>2014-08-15T13:10:43Z</time>
      </trkpt>
      <trkpt lat="44.18833" lon="1.9864">
        <ele>157</ele>
        <time>2014-08-15T13:10:46Z</time>
      </trkpt>
      <trkpt lat="44.18835" lon="1.98639">
        <ele>157</ele>
        <time>2014-08-15T13:10:49Z</time>
      </trkpt>
      <trkpt lat="44.18835" lon="1.98639">
        <ele>157</ele>
        <time>2014-08-15T13:10:51Z</time>
      </trkpt>
      <trkpt lat="44.18837" lon="1.98639">
        <ele>157</ele>
        <time>2014-08-15T13:10:54Z</time>
      </trkpt>
      <trkpt lat="44.18838" lon="1.98638">
        <ele>158</ele>
        <time>2014-08-15T13:10:56Z</time>
      </trkpt>
      <trkpt lat="44.18842" lon="1.98635">
        <ele>158</ele>
        <time>2014-08-15T13:10:59Z</time>
      </trkpt>
      <trkpt lat="44.18847" lon="1.98631">
        <ele>159</ele>
        <time>2014-08-15T13:11:02Z</time>
      </trkpt>
      <trkpt lat="44.1885" lon="1.98628">
        <ele>160</ele>
        <time>2014-08-15T13:11:04Z</time>
      </trkpt>
      <trkpt lat="44.18853" lon="1.98626">
        <ele>160</ele>
        <time>2014-08-15T13:11:06Z</time>
      </trkpt>
      <trkpt lat="44.18856" lon="1.98623">
        <ele>160</ele>
        <time>2014-08-15T13:11:09Z</time>
      </trkpt>
      <trkpt lat="44.18861" lon="1.9862">
        <ele>161</ele>
        <time>2014-08-15T13:11:12Z</time>
      </trkpt>
      <trkpt lat="44.18865" lon="1.98617">
        <ele>163</ele>
        <time>2014-08-15T13:11:15Z</time>
      </trkpt>
      <trkpt lat="44.18868" lon="1.98615">
        <ele>163</ele>
        <time>2014-08-15T13:11:17Z</time>
      </trkpt>
      <trkpt lat="44.18871" lon="1.98614">
        <ele>164</ele>
        <time>2014-08-15T13:11:19Z</time>
      </trkpt>
      <trkpt lat="44.18874" lon="1.98613">
        <ele>165</ele>
        <time>2014-08-15T13:11:21Z</time>
      </trkpt>
      <trkpt lat="44.18877" lon="1.98611">
        <ele>165</ele>
        <time>2014-08-15T13:11:23Z</time>
      </trkpt>
      <trkpt lat="44.18879" lon="1.9861">
        <ele>166</ele>
        <time>2014-08-15T13:11:25Z</time>
      </trkpt>
      <trkpt lat="44.18885" lon="1.98606">
        <ele>166</ele>
        <time>2014-08-15T13:11:28Z</time>
      </trkpt>
      <trkpt lat="44.18888" lon="1.98602">
        <ele>167</ele>
        <time>2014-08-15T13:11:30Z</time>
      </trkpt>
      <trkpt lat="44.18893" lon="1.98596">
        <ele>168</ele>
        <time>2014-08-15T13:11:33Z</time>
      </trkpt>
      <trkpt lat="44.18896" lon="1.98592">
        <ele>168</ele>
        <time>2014-08-15T13:11:35Z</time>
      </trkpt>
      <trkpt lat="44.18898" lon="1.98589">
        <ele>168</ele>
        <time>2014-08-15T13:11:37Z</time>
      </trkpt>
      <trkpt lat="44.18901" lon="1.98584">
        <ele>169</ele>
        <time>2014-08-15T13:11:40Z</time>
      </trkpt>
      <trkpt lat="44.18905" lon="1.98581">
        <ele>169</ele>
        <time>2014-08-15T13:11:43Z</time>
      </trkpt>
      <trkpt lat="44.18908" lon="1.98577">
        <ele>170</ele>
        <time>2014-08-15T13:11:45Z</time>
      </trkpt>
      <trkpt lat="44.18911" lon="1.98574">
        <ele>170</ele>
        <time>2014-08-15T13:11:47Z</time>
      </trkpt>
      <trkpt lat="44.18916" lon="1.9857">
        <ele>171</ele>
        <time>2014-08-15T13:11:50Z</time>
      </trkpt>
      <trkpt lat="44.18921" lon="1.98565">
        <ele>172</ele>
        <time>2014-08-15T13:11:53Z</time>
      </trkpt>
      <trkpt lat="44.18927" lon="1.98561">
        <ele>173</ele>
        <time>2014-08-15T13:11:56Z</time>
      </trkpt>
      <trkpt lat="44.1893" lon="1.98557">
        <ele>173</ele>
        <time>2014-08-15T13:11:58Z</time>
      </trkpt>
      <trkpt lat="44.18935" lon="1.98552">
        <ele>174</ele>
        <time>2014-08-15T13:12:01Z</time>
      </trkpt>
      <trkpt lat="44.1894" lon="1.98549">
        <ele>175</ele>
        <time>2014-08-15T13:12:04Z</time>
      </trkpt>
      <trkpt lat="44.18944" lon="1.98545">
        <ele>176</ele>
        <time>2014-08-15T13:12:07Z</time>
      </trkpt>
      <trkpt lat="44.1895" lon="1.98541">
        <ele>176</ele>
        <time>2014-08-15T13:12:10Z</time>
      </trkpt>
      <trkpt lat="44.18957" lon="1.98538">
        <ele>177</ele>
        <time>2014-08-15T13:12:13Z</time>
      </trkpt>
      <trkpt lat="44.18964" lon="1.98533">
        <ele>177</ele>
        <time>2014-08-15T13:12:16Z</time>
      </trkpt>
      <trkpt lat="44.18969" lon="1.98529">
        <ele>177</ele>
        <time>2014-08-15T13:12:18Z</time>
      </trkpt>
      <trkpt lat="44.18973" lon="1.98524">
        <ele>177</ele>
        <time>2014-08-15T13:12:20Z</time>
      </trkpt>
      <trkpt lat="44.18977" lon="1.98514">
        <ele>177</ele>
        <time>2014-08-15T13:12:23Z</time>
      </trkpt>
      <trkpt lat="44.18979" lon="1.98508">
        <ele>178</ele>
        <time>2014-08-15T13:12:25Z</time>
      </trkpt>
      <trkpt lat="44.18982" lon="1.985">
        <ele>178</ele>
        <time>2014-08-15T13:12:27Z</time>
      </trkpt>
      <trkpt lat="44.18984" lon="1.98493">
        <ele>179</ele>
        <time>2014-08-15T13:12:29Z</time>
      </trkpt>
      <trkpt lat="44.18986" lon="1.98486">
        <ele>180</ele>
        <time>2014-08-15T13:12:31Z</time>
      </trkpt>
      <trkpt lat="44.18987" lon="1.98478">
        <ele>181</ele>
        <time>2014-08-15T13:12:33Z</time>
      </trkpt>
      <trkpt lat="44.1899" lon="1.98472">
        <ele>182</ele>
        <time>2014-08-15T13:12:35Z</time>
      </trkpt>
      <trkpt lat="44.18991" lon="1.9846">
        <ele>183</ele>
        <time>2014-08-15T13:12:38Z</time>
      </trkpt>
      <trkpt lat="44.18992" lon="1.98452">
        <ele>184</ele>
        <time>2014-08-15T13:12:40Z</time>
      </trkpt>
      <trkpt lat="44.18994" lon="1.98442">
        <ele>185</ele>
        <time>2014-08-15T13:12:43Z</time>
      </trkpt>
      <trkpt lat="44.18993" lon="1.98437">
        <ele>186</ele>
        <time>2014-08-15T13:12:45Z</time>
      </trkpt>
      <trkpt lat="44.18992" lon="1.98429">
        <ele>187</ele>
        <time>2014-08-15T13:12:48Z</time>
      </trkpt>
      <trkpt lat="44.18991" lon="1.98422">
        <ele>188</ele>
        <time>2014-08-15T13:12:51Z</time>
      </trkpt>
      <trkpt lat="44.18991" lon="1.98417">
        <ele>189</ele>
        <time>2014-08-15T13:12:53Z</time>
      </trkpt>
      <trkpt lat="44.18992" lon="1.98414">
        <ele>190</ele>
        <time>2014-08-15T13:12:55Z</time>
      </trkpt>
      <trkpt lat="44.18992" lon="1.9841">
        <ele>190</ele>
        <time>2014-08-15T13:12:58Z</time>
      </trkpt>
      <trkpt lat="44.18991" lon="1.98406">
        <ele>191</ele>
        <time>2014-08-15T13:13:00Z</time>
      </trkpt>
      <trkpt lat="44.1899" lon="1.984">
        <ele>192</ele>
        <time>2014-08-15T13:13:03Z</time>
      </trkpt>
      <trkpt lat="44.18989" lon="1.98397">
        <ele>193</ele>
        <time>2014-08-15T13:13:05Z</time>
      </trkpt>
      <trkpt lat="44.18987" lon="1.98393">
        <ele>193</ele>
        <time>2014-08-15T13:13:08Z</time>
      </trkpt>
      <trkpt lat="44.18985" lon="1.98387">
        <ele>194</ele>
        <time>2014-08-15T13:13:11Z</time>
      </trkpt>
      <trkpt lat="44.18982" lon="1.9838">
        <ele>195</ele>
        <time>2014-08-15T13:13:14Z</time>
      </trkpt>
      <trkpt lat="44.18981" lon="1.98376">
        <ele>196</ele>
        <time>2014-08-15T13:13:16Z</time>
      </trkpt>
      <trkpt lat="44.18978" lon="1.98372">
        <ele>196</ele>
        <time>2014-08-15T13:13:18Z</time>
      </trkpt>
      <trkpt lat="44.18975" lon="1.98365">
        <ele>196</ele>
        <time>2014-08-15T13:13:21Z</time>
      </trkpt>
      <trkpt lat="44.18972" lon="1.9836">
        <ele>196</ele>
        <time>2014-08-15T13:13:23Z</time>
      </trkpt>
      <trkpt lat="44.1897" lon="1.98355">
        <ele>197</ele>
        <time>2014-08-15T13:13:25Z</time>
      </trkpt>
      <trkpt lat="44.18968" lon="1.98343">
        <ele>197</ele>
        <time>2014-08-15T13:13:28Z</time>
      </trkpt>
      <trkpt lat="44.18966" lon="1.98334">
        <ele>197</ele>
        <time>2014-08-15T13:13:30Z</time>
      </trkpt>
      <trkpt lat="44.18963" lon="1.98321">
        <ele>197</ele>
        <time>2014-08-15T13:13:33Z</time>
      </trkpt>
      <trkpt lat="44.18961" lon="1.9831">
        <ele>197</ele>
        <time>2014-08-15T13:13:36Z</time>
      </trkpt>
      <trkpt lat="44.18961" lon="1.98298">
        <ele>196</ele>
        <time>2014-08-15T13:13:39Z</time>
      </trkpt>
      <trkpt lat="44.18949" lon="1.98269">
        <ele>196</ele>
        <time>2014-08-15T13:13:42Z</time>
      </trkpt>
      <trkpt lat="44.18949" lon="1.98262">
        <ele>196</ele>
        <time>2014-08-15T13:13:44Z</time>
      </trkpt>
      <trkpt lat="44.1895" lon="1.98256">
        <ele>196</ele>
        <time>2014-08-15T13:13:46Z</time>
      </trkpt>
      <trkpt lat="44.18953" lon="1.98246">
        <ele>196</ele>
        <time>2014-08-15T13:13:49Z</time>
      </trkpt>
      <trkpt lat="44.18956" lon="1.9824">
        <ele>197</ele>
        <time>2014-08-15T13:13:51Z</time>
      </trkpt>
      <trkpt lat="44.18961" lon="1.98234">
        <ele>197</ele>
        <time>2014-08-15T13:13:53Z</time>
      </trkpt>
      <trkpt lat="44.18968" lon="1.98227">
        <ele>198</ele>
        <time>2014-08-15T13:13:56Z</time>
      </trkpt>
      <trkpt lat="44.18973" lon="1.98222">
        <ele>199</ele>
        <time>2014-08-15T13:13:58Z</time>
      </trkpt>
      <trkpt lat="44.18978" lon="1.98218">
        <ele>199</ele>
        <time>2014-08-15T13:14:00Z</time>
      </trkpt>
      <trkpt lat="44.18983" lon="1.98212">
        <ele>200</ele>
        <time>2014-08-15T13:14:02Z</time>
      </trkpt>
      <trkpt lat="44.18991" lon="1.98204">
        <ele>201</ele>
        <time>2014-08-15T13:14:05Z</time>
      </trkpt>
      <trkpt lat="44.18996" lon="1.98198">
        <ele>202</ele>
        <time>2014-08-15T13:14:07Z</time>
      </trkpt>
      <trkpt lat="44.19002" lon="1.98194">
        <ele>203</ele>
        <time>2014-08-15T13:14:09Z</time>
      </trkpt>
      <trkpt lat="44.19008" lon="1.98189">
        <ele>204</ele>
        <time>2014-08-15T13:14:11Z</time>
      </trkpt>
      <trkpt lat="44.19016" lon="1.98183">
        <ele>204</ele>
        <time>2014-08-15T13:14:14Z</time>
      </trkpt>
      <trkpt lat="44.1902" lon="1.98178">
        <ele>205</ele>
        <time>2014-08-15T13:14:16Z</time>
      </trkpt>
      <trkpt lat="44.19025" lon="1.98173">
        <ele>206</ele>
        <time>2014-08-15T13:14:18Z</time>
      </trkpt>
      <trkpt lat="44.1903" lon="1.98168">
        <ele>206</ele>
        <time>2014-08-15T13:14:21Z</time>
      </trkpt>
      <trkpt lat="44.19034" lon="1.98161">
        <ele>207</ele>
        <time>2014-08-15T13:14:24Z</time>
      </trkpt>
      <trkpt lat="44.1904" lon="1.98155">
        <ele>207</ele>
        <time>2014-08-15T13:14:27Z</time>
      </trkpt>
      <trkpt lat="44.19044" lon="1.98151">
        <ele>207</ele>
        <time>2014-08-15T13:14:29Z</time>
      </trkpt>
      <trkpt lat="44.19048" lon="1.98147">
        <ele>207</ele>
        <time>2014-08-15T13:14:31Z</time>
      </trkpt>
      <trkpt lat="44.1905" lon="1.98142">
        <ele>208</ele>
        <time>2014-08-15T13:14:33Z</time>
      </trkpt>
      <trkpt lat="44.19052" lon="1.98134">
        <ele>208</ele>
        <time>2014-08-15T13:14:36Z</time>
      </trkpt>
      <trkpt lat="44.19054" lon="1.98123">
        <ele>209</ele>
        <time>2014-08-15T13:14:39Z</time>
      </trkpt>
      <trkpt lat="44.19056" lon="1.98116">
        <ele>209</ele>
        <time>2014-08-15T13:14:41Z</time>
      </trkpt>
      <trkpt lat="44.19058" lon="1.98112">
        <ele>210</ele>
        <time>2014-08-15T13:14:43Z</time>
      </trkpt>
      <trkpt lat="44.19061" lon="1.98105">
        <ele>211</ele>
        <time>2014-08-15T13:14:46Z</time>
      </trkpt>
      <trkpt lat="44.19062" lon="1.98101">
        <ele>211</ele>
        <time>2014-08-15T13:14:48Z</time>
      </trkpt>
      <trkpt lat="44.19064" lon="1.98098">
        <ele>212</ele>
        <time>2014-08-15T13:14:50Z</time>
      </trkpt>
      <trkpt lat="44.19066" lon="1.98092">
        <ele>211</ele>
        <time>2014-08-15T13:14:53Z</time>
      </trkpt>
      <trkpt lat="44.19069" lon="1.98091">
        <ele>212</ele>
        <time>2014-08-15T13:14:55Z</time>
      </trkpt>
      <trkpt lat="44.19072" lon="1.98089">
        <ele>212</ele>
        <time>2014-08-15T13:14:57Z</time>
      </trkpt>
      <trkpt lat="44.19078" lon="1.98084">
        <ele>213</ele>
        <time>2014-08-15T13:15:00Z</time>
      </trkpt>
      <trkpt lat="44.1908" lon="1.98084">
        <ele>213</ele>
        <time>2014-08-15T13:15:02Z</time>
      </trkpt>
      <trkpt lat="44.19084" lon="1.98084">
        <ele>214</ele>
        <time>2014-08-15T13:15:04Z</time>
      </trkpt>
      <trkpt lat="44.19086" lon="1.98084">
        <ele>214</ele>
        <time>2014-08-15T13:15:06Z</time>
      </trkpt>
      <trkpt lat="44.19088" lon="1.98084">
        <ele>214</ele>
        <time>2014-08-15T13:15:08Z</time>
      </trkpt>
      <trkpt lat="44.19091" lon="1.98084">
        <ele>214</ele>
        <time>2014-08-15T13:15:10Z</time>
      </trkpt>
      <trkpt lat="44.19095" lon="1.98084">
        <ele>215</ele>
        <time>2014-08-15T13:15:12Z</time>
      </trkpt>
      <trkpt lat="44.19099" lon="1.98084">
        <ele>215</ele>
        <time>2014-08-15T13:15:14Z</time>
      </trkpt>
      <trkpt lat="44.19102" lon="1.98085">
        <ele>215</ele>
        <time>2014-08-15T13:15:16Z</time>
      </trkpt>
      <trkpt lat="44.19107" lon="1.98084">
        <ele>215</ele>
        <time>2014-08-15T13:15:19Z</time>
      </trkpt>
      <trkpt lat="44.1911" lon="1.98083">
        <ele>215</ele>
        <time>2014-08-15T13:15:21Z</time>
      </trkpt>
      <trkpt lat="44.19114" lon="1.98082">
        <ele>215</ele>
        <time>2014-08-15T13:15:23Z</time>
      </trkpt>
      <trkpt lat="44.19117" lon="1.98081">
        <ele>214</ele>
        <time>2014-08-15T13:15:25Z</time>
      </trkpt>
      <trkpt lat="44.1912" lon="1.98077">
        <ele>214</ele>
        <time>2014-08-15T13:15:28Z</time>
      </trkpt>
      <trkpt lat="44.1912" lon="1.98075">
        <ele>215</ele>
        <time>2014-08-15T13:15:30Z</time>
      </trkpt>
      <trkpt lat="44.19122" lon="1.98071">
        <ele>215</ele>
        <time>2014-08-15T13:15:33Z</time>
      </trkpt>
      <trkpt lat="44.19125" lon="1.98068">
        <ele>215</ele>
        <time>2014-08-15T13:15:36Z</time>
      </trkpt>
      <trkpt lat="44.19128" lon="1.98067">
        <ele>215</ele>
        <time>2014-08-15T13:15:39Z</time>
      </trkpt>
      <trkpt lat="44.19131" lon="1.98069">
        <ele>215</ele>
        <time>2014-08-15T13:15:42Z</time>
      </trkpt>
      <trkpt lat="44.19132" lon="1.98069">
        <ele>215</ele>
        <time>2014-08-15T13:15:44Z</time>
      </trkpt>
      <trkpt lat="44.19132" lon="1.98069">
        <ele>215</ele>
        <time>2014-08-15T13:15:46Z</time>
      </trkpt>
      <trkpt lat="44.19132" lon="1.98069">
        <ele>215</ele>
        <time>2014-08-15T13:15:48Z</time>
      </trkpt>
      <trkpt lat="44.19134" lon="1.98068">
        <ele>215</ele>
        <time>2014-08-15T13:15:51Z</time>
      </trkpt>
      <trkpt lat="44.19139" lon="1.98068">
        <ele>215</ele>
        <time>2014-08-15T13:15:54Z</time>
      </trkpt>
      <trkpt lat="44.19141" lon="1.98066">
        <ele>214</ele>
        <time>2014-08-15T13:15:56Z</time>
      </trkpt>
      <trkpt lat="44.19146" lon="1.98065">
        <ele>213</ele>
        <time>2014-08-15T13:15:59Z</time>
      </trkpt>
      <trkpt lat="44.19147" lon="1.98062">
        <ele>213</ele>
        <time>2014-08-15T13:16:01Z</time>
      </trkpt>
      <trkpt lat="44.19149" lon="1.98056">
        <ele>212</ele>
        <time>2014-08-15T13:16:03Z</time>
      </trkpt>
      <trkpt lat="44.19148" lon="1.98038">
        <ele>211</ele>
        <time>2014-08-15T13:16:06Z</time>
      </trkpt>
      <trkpt lat="44.19145" lon="1.98019">
        <ele>211</ele>
        <time>2014-08-15T13:16:08Z</time>
      </trkpt>
      <trkpt lat="44.19144" lon="1.97986">
        <ele>210</ele>
        <time>2014-08-15T13:16:11Z</time>
      </trkpt>
      <trkpt lat="44.19143" lon="1.97952">
        <ele>209</ele>
        <time>2014-08-15T13:16:14Z</time>
      </trkpt>
      <trkpt lat="44.19141" lon="1.9793">
        <ele>207</ele>
        <time>2014-08-15T13:16:16Z</time>
      </trkpt>
      <trkpt lat="44.19141" lon="1.97908">
        <ele>207</ele>
        <time>2014-08-15T13:16:18Z</time>
      </trkpt>
      <trkpt lat="44.1914" lon="1.97874">
        <ele>205</ele>
        <time>2014-08-15T13:16:21Z</time>
      </trkpt>
      <trkpt lat="44.19141" lon="1.97842">
        <ele>203</ele>
        <time>2014-08-15T13:16:24Z</time>
      </trkpt>
      <trkpt lat="44.1914" lon="1.97818">
        <ele>201</ele>
        <time>2014-08-15T13:16:26Z</time>
      </trkpt>
      <trkpt lat="44.19141" lon="1.97793">
        <ele>200</ele>
        <time>2014-08-15T13:16:28Z</time>
      </trkpt>
      <trkpt lat="44.19143" lon="1.97757">
        <ele>198</ele>
        <time>2014-08-15T13:16:31Z</time>
      </trkpt>
      <trkpt lat="44.19144" lon="1.97724">
        <ele>196</ele>
        <time>2014-08-15T13:16:34Z</time>
      </trkpt>
      <trkpt lat="44.19154" lon="1.97692">
        <ele>195</ele>
        <time>2014-08-15T13:16:37Z</time>
      </trkpt>
      <trkpt lat="44.19166" lon="1.97673">
        <ele>194</ele>
        <time>2014-08-15T13:16:39Z</time>
      </trkpt>
      <trkpt lat="44.19177" lon="1.97655">
        <ele>193</ele>
        <time>2014-08-15T13:16:42Z</time>
      </trkpt>
      <trkpt lat="44.19181" lon="1.97642">
        <ele>191</ele>
        <time>2014-08-15T13:16:45Z</time>
      </trkpt>
      <trkpt lat="44.19184" lon="1.97631">
        <ele>189</ele>
        <time>2014-08-15T13:16:48Z</time>
      </trkpt>
      <trkpt lat="44.19192" lon="1.97621">
        <ele>188</ele>
        <time>2014-08-15T13:16:51Z</time>
      </trkpt>
      <trkpt lat="44.192" lon="1.97609">
        <ele>187</ele>
        <time>2014-08-15T13:16:54Z</time>
      </trkpt>
      <trkpt lat="44.19206" lon="1.97594">
        <ele>187</ele>
        <time>2014-08-15T13:16:57Z</time>
      </trkpt>
      <trkpt lat="44.19212" lon="1.97585">
        <ele>186</ele>
        <time>2014-08-15T13:16:59Z</time>
      </trkpt>
      <trkpt lat="44.19225" lon="1.97575">
        <ele>186</ele>
        <time>2014-08-15T13:17:02Z</time>
      </trkpt>
      <trkpt lat="44.19233" lon="1.9757">
        <ele>185</ele>
        <time>2014-08-15T13:17:04Z</time>
      </trkpt>
      <trkpt lat="44.19241" lon="1.97566">
        <ele>184</ele>
        <time>2014-08-15T13:17:07Z</time>
      </trkpt>
      <trkpt lat="44.19246" lon="1.97563">
        <ele>183</ele>
        <time>2014-08-15T13:17:09Z</time>
      </trkpt>
      <trkpt lat="44.19252" lon="1.97559">
        <ele>183</ele>
        <time>2014-08-15T13:17:12Z</time>
      </trkpt>
      <trkpt lat="44.19253" lon="1.97557">
        <ele>183</ele>
        <time>2014-08-15T13:17:14Z</time>
      </trkpt>
      <trkpt lat="44.19253" lon="1.97552">
        <ele>183</ele>
        <time>2014-08-15T13:17:17Z</time>
      </trkpt>
      <trkpt lat="44.19253" lon="1.97548">
        <ele>183</ele>
        <time>2014-08-15T13:17:19Z</time>
      </trkpt>
      <trkpt lat="44.19252" lon="1.97544">
        <ele>183</ele>
        <time>2014-08-15T13:17:22Z</time>
      </trkpt>
      <trkpt lat="44.1925" lon="1.97539">
        <ele>183</ele>
        <time>2014-08-15T13:17:25Z</time>
      </trkpt>
      <trkpt lat="44.19249" lon="1.97536">
        <ele>183</ele>
        <time>2014-08-15T13:17:27Z</time>
      </trkpt>
      <trkpt lat="44.19249" lon="1.97534">
        <ele>183</ele>
        <time>2014-08-15T13:17:29Z</time>
      </trkpt>
      <trkpt lat="44.1925" lon="1.9753">
        <ele>184</ele>
        <time>2014-08-15T13:17:32Z</time>
      </trkpt>
      <trkpt lat="44.19252" lon="1.97528">
        <ele>183</ele>
        <time>2014-08-15T13:17:35Z</time>
      </trkpt>
      <trkpt lat="44.19253" lon="1.97527">
        <ele>183</ele>
        <time>2014-08-15T13:17:38Z</time>
      </trkpt>
      <trkpt lat="44.19255" lon="1.97528">
        <ele>183</ele>
        <time>2014-08-15T13:17:40Z</time>
      </trkpt>
      <trkpt lat="44.19256" lon="1.97529">
        <ele>183</ele>
        <time>2014-08-15T13:17:43Z</time>
      </trkpt>
      <trkpt lat="44.19256" lon="1.97529">
        <ele>183</ele>
        <time>2014-08-15T13:17:45Z</time>
      </trkpt>
      <trkpt lat="44.19256" lon="1.97529">
        <ele>182</ele>
        <time>2014-08-15T13:17:48Z</time>
      </trkpt>
      <trkpt lat="44.19255" lon="1.97529">
        <ele>182</ele>
        <time>2014-08-15T13:17:50Z</time>
      </trkpt>
      <trkpt lat="44.19253" lon="1.97528">
        <ele>181</ele>
        <time>2014-08-15T13:17:52Z</time>
      </trkpt>
      <trkpt lat="44.19254" lon="1.97524">
        <ele>181</ele>
        <time>2014-08-15T13:17:55Z</time>
      </trkpt>
      <trkpt lat="44.19256" lon="1.97522">
        <ele>182</ele>
        <time>2014-08-15T13:17:58Z</time>
      </trkpt>
      <trkpt lat="44.19258" lon="1.97521">
        <ele>182</ele>
        <time>2014-08-15T13:18:00Z</time>
      </trkpt>
      <trkpt lat="44.19261" lon="1.97519">
        <ele>182</ele>
        <time>2014-08-15T13:18:03Z</time>
      </trkpt>
      <trkpt lat="44.19264" lon="1.97516">
        <ele>182</ele>
        <time>2014-08-15T13:18:05Z</time>
      </trkpt>
      <trkpt lat="44.19268" lon="1.97515">
        <ele>182</ele>
        <time>2014-08-15T13:18:07Z</time>
      </trkpt>
      <trkpt lat="44.19276" lon="1.97513">
        <ele>182</ele>
        <time>2014-08-15T13:18:09Z</time>
      </trkpt>
      <trkpt lat="44.19285" lon="1.97514">
        <ele>181</ele>
        <time>2014-08-15T13:18:11Z</time>
      </trkpt>
      <trkpt lat="44.19294" lon="1.97517">
        <ele>181</ele>
        <time>2014-08-15T13:18:13Z</time>
      </trkpt>
      <trkpt lat="44.19302" lon="1.97519">
        <ele>180</ele>
        <time>2014-08-15T13:18:15Z</time>
      </trkpt>
      <trkpt lat="44.19312" lon="1.97519">
        <ele>179</ele>
        <time>2014-08-15T13:18:18Z</time>
      </trkpt>
      <trkpt lat="44.1933" lon="1.97509">
        <ele>177</ele>
        <time>2014-08-15T13:18:21Z</time>
      </trkpt>
      <trkpt lat="44.19352" lon="1.97486">
        <ele>176</ele>
        <time>2014-08-15T13:18:24Z</time>
      </trkpt>
      <trkpt lat="44.19365" lon="1.97484">
        <ele>176</ele>
        <time>2014-08-15T13:18:26Z</time>
      </trkpt>
      <trkpt lat="44.19384" lon="1.9749">
        <ele>175</ele>
        <time>2014-08-15T13:18:29Z</time>
      </trkpt>
      <trkpt lat="44.19396" lon="1.97486">
        <ele>174</ele>
        <time>2014-08-15T13:18:31Z</time>
      </trkpt>
      <trkpt lat="44.19409" lon="1.97474">
        <ele>174</ele>
        <time>2014-08-15T13:18:33Z</time>
      </trkpt>
      <trkpt lat="44.19421" lon="1.97461">
        <ele>173</ele>
        <time>2014-08-15T13:18:35Z</time>
      </trkpt>
      <trkpt lat="44.19439" lon="1.97445">
        <ele>173</ele>
        <time>2014-08-15T13:18:38Z</time>
      </trkpt>
      <trkpt lat="44.19461" lon="1.97428">
        <ele>171</ele>
        <time>2014-08-15T13:18:41Z</time>
      </trkpt>
      <trkpt lat="44.19477" lon="1.97416">
        <ele>169</ele>
        <time>2014-08-15T13:18:43Z</time>
      </trkpt>
      <trkpt lat="44.19494" lon="1.97404">
        <ele>168</ele>
        <time>2014-08-15T13:18:45Z</time>
      </trkpt>
      <trkpt lat="44.19519" lon="1.97389">
        <ele>168</ele>
        <time>2014-08-15T13:18:48Z</time>
      </trkpt>
      <trkpt lat="44.19542" lon="1.97373">
        <ele>169</ele>
        <time>2014-08-15T13:18:51Z</time>
      </trkpt>
      <trkpt lat="44.19553" lon="1.97361">
        <ele>170</ele>
        <time>2014-08-15T13:18:53Z</time>
      </trkpt>
      <trkpt lat="44.19565" lon="1.97343">
        <ele>171</ele>
        <time>2014-08-15T13:18:56Z</time>
      </trkpt>
      <trkpt lat="44.19572" lon="1.97336">
        <ele>171</ele>
        <time>2014-08-15T13:18:58Z</time>
      </trkpt>
      <trkpt lat="44.19579" lon="1.97327">
        <ele>172</ele>
        <time>2014-08-15T13:19:00Z</time>
      </trkpt>
      <trkpt lat="44.19589" lon="1.97318">
        <ele>173</ele>
        <time>2014-08-15T13:19:03Z</time>
      </trkpt>
      <trkpt lat="44.19596" lon="1.97315">
        <ele>173</ele>
        <time>2014-08-15T13:19:05Z</time>
      </trkpt>
      <trkpt lat="44.19604" lon="1.97307">
        <ele>173</ele>
        <time>2014-08-15T13:19:08Z</time>
      </trkpt>
      <trkpt lat="44.19612" lon="1.97297">
        <ele>174</ele>
        <time>2014-08-15T13:19:11Z</time>
      </trkpt>
      <trkpt lat="44.19621" lon="1.97289">
        <ele>175</ele>
        <time>2014-08-15T13:19:14Z</time>
      </trkpt>
      <trkpt lat="44.19628" lon="1.9728">
        <ele>176</ele>
        <time>2014-08-15T13:19:17Z</time>
      </trkpt>
      <trkpt lat="44.19636" lon="1.97275">
        <ele>177</ele>
        <time>2014-08-15T13:19:20Z</time>
      </trkpt>
      <trkpt lat="44.19643" lon="1.97266">
        <ele>178</ele>
        <time>2014-08-15T13:19:23Z</time>
      </trkpt>
      <trkpt lat="44.19646" lon="1.97263">
        <ele>178</ele>
        <time>2014-08-15T13:19:25Z</time>
      </trkpt>
      <trkpt lat="44.1965" lon="1.97259">
        <ele>179</ele>
        <time>2014-08-15T13:19:27Z</time>
      </trkpt>
      <trkpt lat="44.19653" lon="1.97256">
        <ele>180</ele>
        <time>2014-08-15T13:19:29Z</time>
      </trkpt>
      <trkpt lat="44.19659" lon="1.97248">
        <ele>180</ele>
        <time>2014-08-15T13:19:32Z</time>
      </trkpt>
      <trkpt lat="44.19662" lon="1.97243">
        <ele>181</ele>
        <time>2014-08-15T13:19:34Z</time>
      </trkpt>
      <trkpt lat="44.19666" lon="1.97239">
        <ele>181</ele>
        <time>2014-08-15T13:19:36Z</time>
      </trkpt>
      <trkpt lat="44.19671" lon="1.97231">
        <ele>182</ele>
        <time>2014-08-15T13:19:39Z</time>
      </trkpt>
      <trkpt lat="44.19675" lon="1.97227">
        <ele>183</ele>
        <time>2014-08-15T13:19:41Z</time>
      </trkpt>
      <trkpt lat="44.1968" lon="1.97221">
        <ele>184</ele>
        <time>2014-08-15T13:19:44Z</time>
      </trkpt>
      <trkpt lat="44.19684" lon="1.97216">
        <ele>184</ele>
        <time>2014-08-15T13:19:46Z</time>
      </trkpt>
      <trkpt lat="44.1969" lon="1.97208">
        <ele>185</ele>
        <time>2014-08-15T13:19:49Z</time>
      </trkpt>
      <trkpt lat="44.19693" lon="1.97202">
        <ele>186</ele>
        <time>2014-08-15T13:19:51Z</time>
      </trkpt>
      <trkpt lat="44.19697" lon="1.97195">
        <ele>187</ele>
        <time>2014-08-15T13:19:53Z</time>
      </trkpt>
      <trkpt lat="44.197" lon="1.97187">
        <ele>187</ele>
        <time>2014-08-15T13:19:56Z</time>
      </trkpt>
      <trkpt lat="44.19705" lon="1.97177">
        <ele>188</ele>
        <time>2014-08-15T13:19:59Z</time>
      </trkpt>
      <trkpt lat="44.19709" lon="1.97167">
        <ele>189</ele>
        <time>2014-08-15T13:20:02Z</time>
      </trkpt>
      <trkpt lat="44.19716" lon="1.97156">
        <ele>190</ele>
        <time>2014-08-15T13:20:05Z</time>
      </trkpt>
      <trkpt lat="44.19725" lon="1.97144">
        <ele>191</ele>
        <time>2014-08-15T13:20:08Z</time>
      </trkpt>
      <trkpt lat="44.19729" lon="1.97137">
        <ele>192</ele>
        <time>2014-08-15T13:20:10Z</time>
      </trkpt>
      <trkpt lat="44.19735" lon="1.97127">
        <ele>193</ele>
        <time>2014-08-15T13:20:13Z</time>
      </trkpt>
      <trkpt lat="44.1974" lon="1.9712">
        <ele>193</ele>
        <time>2014-08-15T13:20:16Z</time>
      </trkpt>
      <trkpt lat="44.19745" lon="1.97113">
        <ele>194</ele>
        <time>2014-08-15T13:20:19Z</time>
      </trkpt>
      <trkpt lat="44.19748" lon="1.97107">
        <ele>195</ele>
        <time>2014-08-15T13:20:21Z</time>
      </trkpt>
      <trkpt lat="44.19752" lon="1.97099">
        <ele>196</ele>
        <time>2014-08-15T13:20:24Z</time>
      </trkpt>
      <trkpt lat="44.19755" lon="1.97092">
        <ele>197</ele>
        <time>2014-08-15T13:20:27Z</time>
      </trkpt>
      <trkpt lat="44.19758" lon="1.97086">
        <ele>198</ele>
        <time>2014-08-15T13:20:29Z</time>
      </trkpt>
      <trkpt lat="44.19761" lon="1.97079">
        <ele>198</ele>
        <time>2014-08-15T13:20:31Z</time>
      </trkpt>
      <trkpt lat="44.19763" lon="1.97073">
        <ele>199</ele>
        <time>2014-08-15T13:20:33Z</time>
      </trkpt>
      <trkpt lat="44.19766" lon="1.97063">
        <ele>199</ele>
        <time>2014-08-15T13:20:36Z</time>
      </trkpt>
      <trkpt lat="44.1977" lon="1.97052">
        <ele>201</ele>
        <time>2014-08-15T13:20:39Z</time>
      </trkpt>
      <trkpt lat="44.19774" lon="1.97042">
        <ele>202</ele>
        <time>2014-08-15T13:20:42Z</time>
      </trkpt>
      <trkpt lat="44.19777" lon="1.97033">
        <ele>202</ele>
        <time>2014-08-15T13:20:45Z</time>
      </trkpt>
      <trkpt lat="44.19779" lon="1.97024">
        <ele>203</ele>
        <time>2014-08-15T13:20:48Z</time>
      </trkpt>
      <trkpt lat="44.19781" lon="1.97019">
        <ele>204</ele>
        <time>2014-08-15T13:20:50Z</time>
      </trkpt>
      <trkpt lat="44.19782" lon="1.97012">
        <ele>204</ele>
        <time>2014-08-15T13:20:52Z</time>
      </trkpt>
      <trkpt lat="44.19785" lon="1.97004">
        <ele>205</ele>
        <time>2014-08-15T13:20:55Z</time>
      </trkpt>
      <trkpt lat="44.19786" lon="1.97001">
        <ele>205</ele>
        <time>2014-08-15T13:20:58Z</time>
      </trkpt>
      <trkpt lat="44.19786" lon="1.97001">
        <ele>205</ele>
        <time>2014-08-15T13:21:00Z</time>
      </trkpt>
      <trkpt lat="44.19785" lon="1.97004">
        <ele>205</ele>
        <time>2014-08-15T13:21:03Z</time>
      </trkpt>
      <trkpt lat="44.19778" lon="1.9701">
        <ele>204</ele>
        <time>2014-08-15T13:21:06Z</time>
      </trkpt>
      <trkpt lat="44.19769" lon="1.97029">
        <ele>202</ele>
        <time>2014-08-15T13:21:09Z</time>
      </trkpt>
      <trkpt lat="44.19764" lon="1.97043">
        <ele>200</ele>
        <time>2014-08-15T13:21:11Z</time>
      </trkpt>
      <trkpt lat="44.19752" lon="1.97053">
        <ele>198</ele>
        <time>2014-08-15T13:21:13Z</time>
      </trkpt>
      <trkpt lat="44.19738" lon="1.97067">
        <ele>195</ele>
        <time>2014-08-15T13:21:15Z</time>
      </trkpt>
      <trkpt lat="44.19731" lon="1.97079">
        <ele>193</ele>
        <time>2014-08-15T13:21:18Z</time>
      </trkpt>
      <trkpt lat="44.1973" lon="1.97083">
        <ele>191</ele>
        <time>2014-08-15T13:21:21Z</time>
      </trkpt>
      <trkpt lat="44.19731" lon="1.97086">
        <ele>190</ele>
        <time>2014-08-15T13:21:24Z</time>
      </trkpt>
      <trkpt lat="44.19732" lon="1.97085">
        <ele>191</ele>
        <time>2014-08-15T13:21:26Z</time>
      </trkpt>
      <trkpt lat="44.19736" lon="1.97084">
        <ele>191</ele>
        <time>2014-08-15T13:21:29Z</time>
      </trkpt>
      <trkpt lat="44.1974" lon="1.97084">
        <ele>192</ele>
        <time>2014-08-15T13:21:32Z</time>
      </trkpt>
      <trkpt lat="44.19743" lon="1.97083">
        <ele>192</ele>
        <time>2014-08-15T13:21:34Z</time>
      </trkpt>
      <trkpt lat="44.19746" lon="1.97085">
        <ele>193</ele>
        <time>2014-08-15T13:21:37Z</time>
      </trkpt>
      <trkpt lat="44.19749" lon="1.97083">
        <ele>193</ele>
        <time>2014-08-15T13:21:40Z</time>
      </trkpt>
      <trkpt lat="44.19751" lon="1.97081">
        <ele>194</ele>
        <time>2014-08-15T13:21:43Z</time>
      </trkpt>
      <trkpt lat="44.19755" lon="1.97077">
        <ele>195</ele>
        <time>2014-08-15T13:21:46Z</time>
      </trkpt>
      <trkpt lat="44.19758" lon="1.97072">
        <ele>196</ele>
        <time>2014-08-15T13:21:49Z</time>
      </trkpt>
      <trkpt lat="44.1976" lon="1.97069">
        <ele>196</ele>
        <time>2014-08-15T13:21:51Z</time>
      </trkpt>
      <trkpt lat="44.19763" lon="1.97062">
        <ele>197</ele>
        <time>2014-08-15T13:21:54Z</time>
      </trkpt>
      <trkpt lat="44.19765" lon="1.97057">
        <ele>198</ele>
        <time>2014-08-15T13:21:56Z</time>
      </trkpt>
      <trkpt lat="44.19767" lon="1.97053">
        <ele>198</ele>
        <time>2014-08-15T13:21:58Z</time>
      </trkpt>
      <trkpt lat="44.19769" lon="1.97048">
        <ele>199</ele>
        <time>2014-08-15T13:22:00Z</time>
      </trkpt>
      <trkpt lat="44.19771" lon="1.97044">
        <ele>199</ele>
        <time>2014-08-15T13:22:02Z</time>
      </trkpt>
      <trkpt lat="44.19772" lon="1.97039">
        <ele>200</ele>
        <time>2014-08-15T13:22:04Z</time>
      </trkpt>
      <trkpt lat="44.19775" lon="1.97035">
        <ele>201</ele>
        <time>2014-08-15T13:22:06Z</time>
      </trkpt>
      <trkpt lat="44.19778" lon="1.97028">
        <ele>202</ele>
        <time>2014-08-15T13:22:09Z</time>
      </trkpt>
      <trkpt lat="44.19781" lon="1.97023">
        <ele>203</ele>
        <time>2014-08-15T13:22:11Z</time>
      </trkpt>
      <trkpt lat="44.19783" lon="1.97016">
        <ele>203</ele>
        <time>2014-08-15T13:22:14Z</time>
      </trkpt>
      <trkpt lat="44.19783" lon="1.97011">
        <ele>204</ele>
        <time>2014-08-15T13:22:16Z</time>
      </trkpt>
      <trkpt lat="44.19784" lon="1.97007">
        <ele>204</ele>
        <time>2014-08-15T13:22:18Z</time>
      </trkpt>
      <trkpt lat="44.19785" lon="1.97002">
        <ele>205</ele>
        <time>2014-08-15T13:22:20Z</time>
      </trkpt>
      <trkpt lat="44.19786" lon="1.96998">
        <ele>205</ele>
        <time>2014-08-15T13:22:22Z</time>
      </trkpt>
      <trkpt lat="44.19787" lon="1.96993">
        <ele>205</ele>
        <time>2014-08-15T13:22:24Z</time>
      </trkpt>
      <trkpt lat="44.19791" lon="1.96987">
        <ele>205</ele>
        <time>2014-08-15T13:22:27Z</time>
      </trkpt>
      <trkpt lat="44.19794" lon="1.96979">
        <ele>205</ele>
        <time>2014-08-15T13:22:30Z</time>
      </trkpt>
      <trkpt lat="44.19795" lon="1.96975">
        <ele>205</ele>
        <time>2014-08-15T13:22:32Z</time>
      </trkpt>
      <trkpt lat="44.19796" lon="1.9697">
        <ele>206</ele>
        <time>2014-08-15T13:22:35Z</time>
      </trkpt>
      <trkpt lat="44.19797" lon="1.96967">
        <ele>206</ele>
        <time>2014-08-15T13:22:37Z</time>
      </trkpt>
      <trkpt lat="44.198" lon="1.96962">
        <ele>208</ele>
        <time>2014-08-15T13:22:40Z</time>
      </trkpt>
      <trkpt lat="44.19802" lon="1.96956">
        <ele>209</ele>
        <time>2014-08-15T13:22:43Z</time>
      </trkpt>
      <trkpt lat="44.19804" lon="1.96951">
        <ele>210</ele>
        <time>2014-08-15T13:22:46Z</time>
      </trkpt>
      <trkpt lat="44.19804" lon="1.96947">
        <ele>210</ele>
        <time>2014-08-15T13:22:48Z</time>
      </trkpt>
      <trkpt lat="44.19804" lon="1.96944">
        <ele>211</ele>
        <time>2014-08-15T13:22:50Z</time>
      </trkpt>
      <trkpt lat="44.19805" lon="1.96941">
        <ele>212</ele>
        <time>2014-08-15T13:22:52Z</time>
      </trkpt>
      <trkpt lat="44.19806" lon="1.96937">
        <ele>212</ele>
        <time>2014-08-15T13:22:54Z</time>
      </trkpt>
      <trkpt lat="44.19808" lon="1.96929">
        <ele>213</ele>
        <time>2014-08-15T13:22:57Z</time>
      </trkpt>
      <trkpt lat="44.19809" lon="1.96922">
        <ele>214</ele>
        <time>2014-08-15T13:23:00Z</time>
      </trkpt>
      <trkpt lat="44.19809" lon="1.96916">
        <ele>215</ele>
        <time>2014-08-15T13:23:02Z</time>
      </trkpt>
      <trkpt lat="44.1981" lon="1.96911">
        <ele>215</ele>
        <time>2014-08-15T13:23:04Z</time>
      </trkpt>
      <trkpt lat="44.19813" lon="1.96902">
        <ele>216</ele>
        <time>2014-08-15T13:23:07Z</time>
      </trkpt>
      <trkpt lat="44.19815" lon="1.96897">
        <ele>216</ele>
        <time>2014-08-15T13:23:09Z</time>
      </trkpt>
      <trkpt lat="44.19817" lon="1.96892">
        <ele>217</ele>
        <time>2014-08-15T13:23:11Z</time>
      </trkpt>
      <trkpt lat="44.19819" lon="1.96883">
        <ele>218</ele>
        <time>2014-08-15T13:23:14Z</time>
      </trkpt>
      <trkpt lat="44.1982" lon="1.96873">
        <ele>219</ele>
        <time>2014-08-15T13:23:17Z</time>
      </trkpt>
      <trkpt lat="44.1982" lon="1.96868">
        <ele>219</ele>
        <time>2014-08-15T13:23:19Z</time>
      </trkpt>
      <trkpt lat="44.19822" lon="1.96863">
        <ele>221</ele>
        <time>2014-08-15T13:23:21Z</time>
      </trkpt>
      <trkpt lat="44.19822" lon="1.96858">
        <ele>222</ele>
        <time>2014-08-15T13:23:23Z</time>
      </trkpt>
      <trkpt lat="44.19824" lon="1.96853">
        <ele>222</ele>
        <time>2014-08-15T13:23:25Z</time>
      </trkpt>
      <trkpt lat="44.19824" lon="1.96844">
        <ele>223</ele>
        <time>2014-08-15T13:23:28Z</time>
      </trkpt>
      <trkpt lat="44.19825" lon="1.96836">
        <ele>224</ele>
        <time>2014-08-15T13:23:31Z</time>
      </trkpt>
      <trkpt lat="44.19826" lon="1.96831">
        <ele>225</ele>
        <time>2014-08-15T13:23:33Z</time>
      </trkpt>
      <trkpt lat="44.19826" lon="1.96827">
        <ele>226</ele>
        <time>2014-08-15T13:23:35Z</time>
      </trkpt>
      <trkpt lat="44.19827" lon="1.9682">
        <ele>226</ele>
        <time>2014-08-15T13:23:38Z</time>
      </trkpt>
      <trkpt lat="44.19828" lon="1.96812">
        <ele>228</ele>
        <time>2014-08-15T13:23:41Z</time>
      </trkpt>
      <trkpt lat="44.19828" lon="1.96809">
        <ele>229</ele>
        <time>2014-08-15T13:23:43Z</time>
      </trkpt>
      <trkpt lat="44.19828" lon="1.96804">
        <ele>230</ele>
        <time>2014-08-15T13:23:45Z</time>
      </trkpt>
      <trkpt lat="44.1983" lon="1.96799">
        <ele>230</ele>
        <time>2014-08-15T13:23:48Z</time>
      </trkpt>
      <trkpt lat="44.19832" lon="1.96795">
        <ele>231</ele>
        <time>2014-08-15T13:23:50Z</time>
      </trkpt>
      <trkpt lat="44.19836" lon="1.9679">
        <ele>232</ele>
        <time>2014-08-15T13:23:53Z</time>
      </trkpt>
      <trkpt lat="44.19836" lon="1.96783">
        <ele>233</ele>
        <time>2014-08-15T13:23:56Z</time>
      </trkpt>
      <trkpt lat="44.19837" lon="1.96777">
        <ele>234</ele>
        <time>2014-08-15T13:23:59Z</time>
      </trkpt>
      <trkpt lat="44.19839" lon="1.96774">
        <ele>235</ele>
        <time>2014-08-15T13:24:01Z</time>
      </trkpt>
      <trkpt lat="44.19841" lon="1.9677">
        <ele>236</ele>
        <time>2014-08-15T13:24:03Z</time>
      </trkpt>
      <trkpt lat="44.19842" lon="1.96765">
        <ele>237</ele>
        <time>2014-08-15T13:24:06Z</time>
      </trkpt>
      <trkpt lat="44.19843" lon="1.96763">
        <ele>238</ele>
        <time>2014-08-15T13:24:08Z</time>
      </trkpt>
      <trkpt lat="44.19844" lon="1.96758">
        <ele>239</ele>
        <time>2014-08-15T13:24:11Z</time>
      </trkpt>
      <trkpt lat="44.19845" lon="1.96755">
        <ele>239</ele>
        <time>2014-08-15T13:24:13Z</time>
      </trkpt>
      <trkpt lat="44.19848" lon="1.9675">
        <ele>240</ele>
        <time>2014-08-15T13:24:16Z</time>
      </trkpt>
      <trkpt lat="44.19849" lon="1.96748">
        <ele>241</ele>
        <time>2014-08-15T13:24:19Z</time>
      </trkpt>
      <trkpt lat="44.19852" lon="1.96745">
        <ele>242</ele>
        <time>2014-08-15T13:24:22Z</time>
      </trkpt>
      <trkpt lat="44.19855" lon="1.96742">
        <ele>243</ele>
        <time>2014-08-15T13:24:25Z</time>
      </trkpt>
      <trkpt lat="44.19857" lon="1.9674">
        <ele>243</ele>
        <time>2014-08-15T13:24:27Z</time>
      </trkpt>
      <trkpt lat="44.19858" lon="1.96739">
        <ele>244</ele>
        <time>2014-08-15T13:24:30Z</time>
      </trkpt>
      <trkpt lat="44.19859" lon="1.96738">
        <ele>244</ele>
        <time>2014-08-15T13:24:33Z</time>
      </trkpt>
      <trkpt lat="44.19859" lon="1.96736">
        <ele>244</ele>
        <time>2014-08-15T13:24:35Z</time>
      </trkpt>
      <trkpt lat="44.1986" lon="1.96733">
        <ele>244</ele>
        <time>2014-08-15T13:24:38Z</time>
      </trkpt>
      <trkpt lat="44.19862" lon="1.9673">
        <ele>244</ele>
        <time>2014-08-15T13:24:40Z</time>
      </trkpt>
      <trkpt lat="44.19864" lon="1.96726">
        <ele>245</ele>
        <time>2014-08-15T13:24:43Z</time>
      </trkpt>
      <trkpt lat="44.19865" lon="1.96724">
        <ele>246</ele>
        <time>2014-08-15T13:24:45Z</time>
      </trkpt>
      <trkpt lat="44.19867" lon="1.96722">
        <ele>247</ele>
        <time>2014-08-15T13:24:47Z</time>
      </trkpt>
      <trkpt lat="44.19869" lon="1.96718">
        <ele>247</ele>
        <time>2014-08-15T13:24:50Z</time>
      </trkpt>
      <trkpt lat="44.19871" lon="1.96714">
        <ele>248</ele>
        <time>2014-08-15T13:24:53Z</time>
      </trkpt>
      <trkpt lat="44.19872" lon="1.96713">
        <ele>249</ele>
        <time>2014-08-15T13:24:55Z</time>
      </trkpt>
      <trkpt lat="44.19874" lon="1.96711">
        <ele>249</ele>
        <time>2014-08-15T13:24:57Z</time>
      </trkpt>
      <trkpt lat="44.19878" lon="1.96708">
        <ele>249</ele>
        <time>2014-08-15T13:25:00Z</time>
      </trkpt>
      <trkpt lat="44.1988" lon="1.96705">
        <ele>250</ele>
        <time>2014-08-15T13:25:02Z</time>
      </trkpt>
      <trkpt lat="44.19882" lon="1.96701">
        <ele>250</ele>
        <time>2014-08-15T13:25:05Z</time>
      </trkpt>
      <trkpt lat="44.19885" lon="1.96695">
        <ele>251</ele>
        <time>2014-08-15T13:25:08Z</time>
      </trkpt>
      <trkpt lat="44.19886" lon="1.96693">
        <ele>252</ele>
        <time>2014-08-15T13:25:10Z</time>
      </trkpt>
      <trkpt lat="44.19888" lon="1.96689">
        <ele>253</ele>
        <time>2014-08-15T13:25:13Z</time>
      </trkpt>
      <trkpt lat="44.1989" lon="1.96685">
        <ele>253</ele>
        <time>2014-08-15T13:25:16Z</time>
      </trkpt>
      <trkpt lat="44.19892" lon="1.96683">
        <ele>254</ele>
        <time>2014-08-15T13:25:18Z</time>
      </trkpt>
      <trkpt lat="44.19895" lon="1.96679">
        <ele>255</ele>
        <time>2014-08-15T13:25:21Z</time>
      </trkpt>
      <trkpt lat="44.19897" lon="1.96676">
        <ele>256</ele>
        <time>2014-08-15T13:25:23Z</time>
      </trkpt>
      <trkpt lat="44.199" lon="1.9667">
        <ele>256</ele>
        <time>2014-08-15T13:25:26Z</time>
      </trkpt>
      <trkpt lat="44.19904" lon="1.96666">
        <ele>257</ele>
        <time>2014-08-15T13:25:29Z</time>
      </trkpt>
      <trkpt lat="44.19907" lon="1.96662">
        <ele>258</ele>
        <time>2014-08-15T13:25:32Z</time>
      </trkpt>
      <trkpt lat="44.1991" lon="1.96657">
        <ele>259</ele>
        <time>2014-08-15T13:25:35Z</time>
      </trkpt>
      <trkpt lat="44.19912" lon="1.96653">
        <ele>260</ele>
        <time>2014-08-15T13:25:37Z</time>
      </trkpt>
      <trkpt lat="44.19915" lon="1.96649">
        <ele>261</ele>
        <time>2014-08-15T13:25:40Z</time>
      </trkpt>
      <trkpt lat="44.19917" lon="1.96642">
        <ele>261</ele>
        <time>2014-08-15T13:25:43Z</time>
      </trkpt>
      <trkpt lat="44.1992" lon="1.96639">
        <ele>262</ele>
        <time>2014-08-15T13:25:45Z</time>
      </trkpt>
      <trkpt lat="44.19923" lon="1.96633">
        <ele>263</ele>
        <time>2014-08-15T13:25:48Z</time>
      </trkpt>
      <trkpt lat="44.19926" lon="1.96628">
        <ele>263</ele>
        <time>2014-08-15T13:25:51Z</time>
      </trkpt>
      <trkpt lat="44.19929" lon="1.96625">
        <ele>264</ele>
        <time>2014-08-15T13:25:53Z</time>
      </trkpt>
      <trkpt lat="44.19931" lon="1.96619">
        <ele>265</ele>
        <time>2014-08-15T13:25:56Z</time>
      </trkpt>
      <trkpt lat="44.19934" lon="1.96614">
        <ele>265</ele>
        <time>2014-08-15T13:25:59Z</time>
      </trkpt>
      <trkpt lat="44.19936" lon="1.9661">
        <ele>266</ele>
        <time>2014-08-15T13:26:01Z</time>
      </trkpt>
      <trkpt lat="44.19938" lon="1.96605">
        <ele>266</ele>
        <time>2014-08-15T13:26:04Z</time>
      </trkpt>
      <trkpt lat="44.1994" lon="1.96602">
        <ele>266</ele>
        <time>2014-08-15T13:26:06Z</time>
      </trkpt>
      <trkpt lat="44.19943" lon="1.96598">
        <ele>266</ele>
        <time>2014-08-15T13:26:09Z</time>
      </trkpt>
      <trkpt lat="44.19946" lon="1.96592">
        <ele>267</ele>
        <time>2014-08-15T13:26:12Z</time>
      </trkpt>
      <trkpt lat="44.19949" lon="1.96586">
        <ele>267</ele>
        <time>2014-08-15T13:26:15Z</time>
      </trkpt>
      <trkpt lat="44.19952" lon="1.96578">
        <ele>268</ele>
        <time>2014-08-15T13:26:18Z</time>
      </trkpt>
      <trkpt lat="44.19953" lon="1.96574">
        <ele>268</ele>
        <time>2014-08-15T13:26:20Z</time>
      </trkpt>
      <trkpt lat="44.19958" lon="1.96568">
        <ele>269</ele>
        <time>2014-08-15T13:26:23Z</time>
      </trkpt>
      <trkpt lat="44.1996" lon="1.96563">
        <ele>269</ele>
        <time>2014-08-15T13:26:25Z</time>
      </trkpt>
      <trkpt lat="44.19964" lon="1.96558">
        <ele>270</ele>
        <time>2014-08-15T13:26:28Z</time>
      </trkpt>
      <trkpt lat="44.19967" lon="1.96552">
        <ele>271</ele>
        <time>2014-08-15T13:26:31Z</time>
      </trkpt>
      <trkpt lat="44.19969" lon="1.96547">
        <ele>271</ele>
        <time>2014-08-15T13:26:33Z</time>
      </trkpt>
      <trkpt lat="44.19972" lon="1.96542">
        <ele>272</ele>
        <time>2014-08-15T13:26:36Z</time>
      </trkpt>
      <trkpt lat="44.19974" lon="1.96536">
        <ele>273</ele>
        <time>2014-08-15T13:26:39Z</time>
      </trkpt>
      <trkpt lat="44.19977" lon="1.96534">
        <ele>273</ele>
        <time>2014-08-15T13:26:41Z</time>
      </trkpt>
      <trkpt lat="44.19979" lon="1.96528">
        <ele>273</ele>
        <time>2014-08-15T13:26:44Z</time>
      </trkpt>
      <trkpt lat="44.1998" lon="1.96526">
        <ele>274</ele>
        <time>2014-08-15T13:26:46Z</time>
      </trkpt>
      <trkpt lat="44.1998" lon="1.96523">
        <ele>273</ele>
        <time>2014-08-15T13:26:49Z</time>
      </trkpt>
      <trkpt lat="44.2" lon="1.96497">
        <ele>274</ele>
        <time>2014-08-15T13:26:51Z</time>
      </trkpt>
      <trkpt lat="44.20001" lon="1.96496">
        <ele>274</ele>
        <time>2014-08-15T13:26:53Z</time>
      </trkpt>
      <trkpt lat="44.20002" lon="1.96496">
        <ele>274</ele>
        <time>2014-08-15T13:26:55Z</time>
      </trkpt>
      <trkpt lat="44.20002" lon="1.96496">
        <ele>274</ele>
        <time>2014-08-15T13:26:57Z</time>
      </trkpt>
      <trkpt lat="44.20003" lon="1.96496">
        <ele>274</ele>
        <time>2014-08-15T13:26:59Z</time>
      </trkpt>
      <trkpt lat="44.20006" lon="1.96496">
        <ele>274</ele>
        <time>2014-08-15T13:27:01Z</time>
      </trkpt>
      <trkpt lat="44.20009" lon="1.96495">
        <ele>273</ele>
        <time>2014-08-15T13:27:03Z</time>
      </trkpt>
      <trkpt lat="44.20014" lon="1.96496">
        <ele>273</ele>
        <time>2014-08-15T13:27:06Z</time>
      </trkpt>
      <trkpt lat="44.20017" lon="1.96496">
        <ele>272</ele>
        <time>2014-08-15T13:27:09Z</time>
      </trkpt>
      <trkpt lat="44.20017" lon="1.96496">
        <ele>273</ele>
        <time>2014-08-15T13:27:12Z</time>
      </trkpt>
      <trkpt lat="44.20018" lon="1.96496">
        <ele>273</ele>
        <time>2014-08-15T13:27:14Z</time>
      </trkpt>
      <trkpt lat="44.2002" lon="1.96497">
        <ele>274</ele>
        <time>2014-08-15T13:27:16Z</time>
      </trkpt>
      <trkpt lat="44.20021" lon="1.96497">
        <ele>274</ele>
        <time>2014-08-15T13:27:18Z</time>
      </trkpt>
      <trkpt lat="44.20021" lon="1.96497">
        <ele>275</ele>
        <time>2014-08-15T13:27:21Z</time>
      </trkpt>
      <trkpt lat="44.20022" lon="1.96497">
        <ele>275</ele>
        <time>2014-08-15T13:27:24Z</time>
      </trkpt>
      <trkpt lat="44.20023" lon="1.96499">
        <ele>276</ele>
        <time>2014-08-15T13:27:27Z</time>
      </trkpt>
      <trkpt lat="44.20023" lon="1.965">
        <ele>276</ele>
        <time>2014-08-15T13:27:29Z</time>
      </trkpt>
      <trkpt lat="44.20023" lon="1.96502">
        <ele>277</ele>
        <time>2014-08-15T13:27:31Z</time>
      </trkpt>
      <trkpt lat="44.20021" lon="1.96503">
        <ele>278</ele>
        <time>2014-08-15T13:27:33Z</time>
      </trkpt>
      <trkpt lat="44.2002" lon="1.96506">
        <ele>279</ele>
        <time>2014-08-15T13:27:36Z</time>
      </trkpt>
      <trkpt lat="44.20021" lon="1.96508">
        <ele>280</ele>
        <time>2014-08-15T13:27:38Z</time>
      </trkpt>
      <trkpt lat="44.20023" lon="1.9651">
        <ele>281</ele>
        <time>2014-08-15T13:27:40Z</time>
      </trkpt>
      <trkpt lat="44.20024" lon="1.96513">
        <ele>282</ele>
        <time>2014-08-15T13:27:43Z</time>
      </trkpt>
      <trkpt lat="44.20025" lon="1.96516">
        <ele>283</ele>
        <time>2014-08-15T13:27:45Z</time>
      </trkpt>
      <trkpt lat="44.20027" lon="1.9652">
        <ele>284</ele>
        <time>2014-08-15T13:27:47Z</time>
      </trkpt>
      <trkpt lat="44.20028" lon="1.96522">
        <ele>285</ele>
        <time>2014-08-15T13:27:49Z</time>
      </trkpt>
      <trkpt lat="44.2003" lon="1.96526">
        <ele>286</ele>
        <time>2014-08-15T13:27:52Z</time>
      </trkpt>
      <trkpt lat="44.20031" lon="1.96528">
        <ele>287</ele>
        <time>2014-08-15T13:27:54Z</time>
      </trkpt>
      <trkpt lat="44.20031" lon="1.96531">
        <ele>288</ele>
        <time>2014-08-15T13:27:56Z</time>
      </trkpt>
      <trkpt lat="44.20031" lon="1.96532">
        <ele>289</ele>
        <time>2014-08-15T13:27:58Z</time>
      </trkpt>
      <trkpt lat="44.20031" lon="1.96536">
        <ele>290</ele>
        <time>2014-08-15T13:28:01Z</time>
      </trkpt>
      <trkpt lat="44.20031" lon="1.96539">
        <ele>290</ele>
        <time>2014-08-15T13:28:04Z</time>
      </trkpt>
      <trkpt lat="44.2003" lon="1.96541">
        <ele>290</ele>
        <time>2014-08-15T13:28:06Z</time>
      </trkpt>
      <trkpt lat="44.20029" lon="1.96542">
        <ele>290</ele>
        <time>2014-08-15T13:28:08Z</time>
      </trkpt>
      <trkpt lat="44.20029" lon="1.96544">
        <ele>290</ele>
        <time>2014-08-15T13:28:11Z</time>
      </trkpt>
      <trkpt lat="44.20029" lon="1.96546">
        <ele>290</ele>
        <time>2014-08-15T13:28:13Z</time>
      </trkpt>
      <trkpt lat="44.20028" lon="1.96548">
        <ele>290</ele>
        <time>2014-08-15T13:28:15Z</time>
      </trkpt>
      <trkpt lat="44.20026" lon="1.9655">
        <ele>290</ele>
        <time>2014-08-15T13:28:17Z</time>
      </trkpt>
      <trkpt lat="44.20026" lon="1.96552">
        <ele>291</ele>
        <time>2014-08-15T13:28:19Z</time>
      </trkpt>
      <trkpt lat="44.20025" lon="1.96554">
        <ele>290</ele>
        <time>2014-08-15T13:28:22Z</time>
      </trkpt>
      <trkpt lat="44.20024" lon="1.96556">
        <ele>291</ele>
        <time>2014-08-15T13:28:24Z</time>
      </trkpt>
      <trkpt lat="44.20023" lon="1.96557">
        <ele>291</ele>
        <time>2014-08-15T13:28:26Z</time>
      </trkpt>
      <trkpt lat="44.20023" lon="1.96559">
        <ele>290</ele>
        <time>2014-08-15T13:28:28Z</time>
      </trkpt>
      <trkpt lat="44.20023" lon="1.9656">
        <ele>290</ele>
        <time>2014-08-15T13:28:31Z</time>
      </trkpt>
      <trkpt lat="44.20023" lon="1.9656">
        <ele>291</ele>
        <time>2014-08-15T13:28:34Z</time>
      </trkpt>
      <trkpt lat="44.20023" lon="1.96561">
        <ele>291</ele>
        <time>2014-08-15T13:28:36Z</time>
      </trkpt>
      <trkpt lat="44.20024" lon="1.96562">
        <ele>291</ele>
        <time>2014-08-15T13:28:39Z</time>
      </trkpt>
      <trkpt lat="44.20025" lon="1.96563">
        <ele>290</ele>
        <time>2014-08-15T13:28:42Z</time>
      </trkpt>
      <trkpt lat="44.20026" lon="1.96565">
        <ele>291</ele>
        <time>2014-08-15T13:28:45Z</time>
      </trkpt>
      <trkpt lat="44.20027" lon="1.96567">
        <ele>291</ele>
        <time>2014-08-15T13:28:47Z</time>
      </trkpt>
      <trkpt lat="44.20028" lon="1.96568">
        <ele>291</ele>
        <time>2014-08-15T13:28:49Z</time>
      </trkpt>
      <trkpt lat="44.20028" lon="1.96569">
        <ele>291</ele>
        <time>2014-08-15T13:28:51Z</time>
      </trkpt>
      <trkpt lat="44.20029" lon="1.9657">
        <ele>291</ele>
        <time>2014-08-15T13:28:53Z</time>
      </trkpt>
      <trkpt lat="44.20029" lon="1.96571">
        <ele>291</ele>
        <time>2014-08-15T13:28:56Z</time>
      </trkpt>
      <trkpt lat="44.2003" lon="1.96572">
        <ele>291</ele>
        <time>2014-08-15T13:28:59Z</time>
      </trkpt>
      <trkpt lat="44.2003" lon="1.96572">
        <ele>291</ele>
        <time>2014-08-15T13:29:01Z</time>
      </trkpt>
      <trkpt lat="44.2003" lon="1.96573">
        <ele>291</ele>
        <time>2014-08-15T13:29:03Z</time>
      </trkpt>
      <trkpt lat="44.2003" lon="1.96573">
        <ele>291</ele>
        <time>2014-08-15T13:29:05Z</time>
      </trkpt>
      <trkpt lat="44.2003" lon="1.96574">
        <ele>291</ele>
        <time>2014-08-15T13:29:07Z</time>
      </trkpt>
      <trkpt lat="44.2003" lon="1.96574">
        <ele>291</ele>
        <time>2014-08-15T13:29:11Z</time>
      </trkpt>
      <trkpt lat="44.2003" lon="1.96574">
        <ele>291</ele>
        <time>2014-08-15T13:29:13Z</time>
      </trkpt>
      <trkpt lat="44.2003" lon="1.96574">
        <ele>291</ele>
        <time>2014-08-15T13:29:15Z</time>
      </trkpt>
      <trkpt lat="44.20031" lon="1.96574">
        <ele>291</ele>
        <time>2014-08-15T13:29:17Z</time>
      </trkpt>
      <trkpt lat="44.20031" lon="1.96574">
        <ele>290</ele>
        <time>2014-08-15T13:29:19Z</time>
      </trkpt>
      <trkpt lat="44.20031" lon="1.96574">
        <ele>290</ele>
        <time>2014-08-15T13:29:22Z</time>
      </trkpt>
      <trkpt lat="44.20031" lon="1.96575">
        <ele>291</ele>
        <time>2014-08-15T13:29:25Z</time>
      </trkpt>
      <trkpt lat="44.20027" lon="1.9658">
        <ele>291</ele>
        <time>2014-08-15T13:29:28Z</time>
      </trkpt>
      <trkpt lat="44.20023" lon="1.96584">
        <ele>291</ele>
        <time>2014-08-15T13:29:31Z</time>
      </trkpt>
      <trkpt lat="44.20019" lon="1.9659">
        <ele>291</ele>
        <time>2014-08-15T13:29:34Z</time>
      </trkpt>
      <trkpt lat="44.20017" lon="1.96594">
        <ele>291</ele>
        <time>2014-08-15T13:29:36Z</time>
      </trkpt>
      <trkpt lat="44.20013" lon="1.966">
        <ele>291</ele>
        <time>2014-08-15T13:29:39Z</time>
      </trkpt>
      <trkpt lat="44.20009" lon="1.96606">
        <ele>291</ele>
        <time>2014-08-15T13:29:42Z</time>
      </trkpt>
      <trkpt lat="44.20007" lon="1.9661">
        <ele>291</ele>
        <time>2014-08-15T13:29:44Z</time>
      </trkpt>
      <trkpt lat="44.20005" lon="1.96614">
        <ele>292</ele>
        <time>2014-08-15T13:29:47Z</time>
      </trkpt>
      <trkpt lat="44.20003" lon="1.96621">
        <ele>292</ele>
        <time>2014-08-15T13:29:49Z</time>
      </trkpt>
      <trkpt lat="44.20001" lon="1.96628">
        <ele>293</ele>
        <time>2014-08-15T13:29:52Z</time>
      </trkpt>
      <trkpt lat="44.20001" lon="1.96637">
        <ele>293</ele>
        <time>2014-08-15T13:29:55Z</time>
      </trkpt>
      <trkpt lat="44.20001" lon="1.96642">
        <ele>294</ele>
        <time>2014-08-15T13:29:57Z</time>
      </trkpt>
      <trkpt lat="44.20001" lon="1.96649">
        <ele>294</ele>
        <time>2014-08-15T13:29:59Z</time>
      </trkpt>
      <trkpt lat="44.20002" lon="1.96655">
        <ele>294</ele>
        <time>2014-08-15T13:30:01Z</time>
      </trkpt>
      <trkpt lat="44.20002" lon="1.96659">
        <ele>295</ele>
        <time>2014-08-15T13:30:03Z</time>
      </trkpt>
      <trkpt lat="44.20001" lon="1.96665">
        <ele>295</ele>
        <time>2014-08-15T13:30:06Z</time>
      </trkpt>
      <trkpt lat="44.19999" lon="1.96671">
        <ele>296</ele>
        <time>2014-08-15T13:30:08Z</time>
      </trkpt>
      <trkpt lat="44.19997" lon="1.96676">
        <ele>296</ele>
        <time>2014-08-15T13:30:11Z</time>
      </trkpt>
      <trkpt lat="44.19993" lon="1.96686">
        <ele>296</ele>
        <time>2014-08-15T13:30:13Z</time>
      </trkpt>
      <trkpt lat="44.19992" lon="1.96693">
        <ele>296</ele>
        <time>2014-08-15T13:30:15Z</time>
      </trkpt>
      <trkpt lat="44.19988" lon="1.96698">
        <ele>296</ele>
        <time>2014-08-15T13:30:17Z</time>
      </trkpt>
      <trkpt lat="44.19986" lon="1.96707">
        <ele>296</ele>
        <time>2014-08-15T13:30:19Z</time>
      </trkpt>
      <trkpt lat="44.19984" lon="1.96715">
        <ele>297</ele>
        <time>2014-08-15T13:30:21Z</time>
      </trkpt>
      <trkpt lat="44.19982" lon="1.96722">
        <ele>297</ele>
        <time>2014-08-15T13:30:23Z</time>
      </trkpt>
      <trkpt lat="44.19979" lon="1.96734">
        <ele>298</ele>
        <time>2014-08-15T13:30:26Z</time>
      </trkpt>
      <trkpt lat="44.19978" lon="1.96742">
        <ele>298</ele>
        <time>2014-08-15T13:30:28Z</time>
      </trkpt>
      <trkpt lat="44.19976" lon="1.9675">
        <ele>299</ele>
        <time>2014-08-15T13:30:30Z</time>
      </trkpt>
      <trkpt lat="44.19976" lon="1.96757">
        <ele>299</ele>
        <time>2014-08-15T13:30:33Z</time>
      </trkpt>
      <trkpt lat="44.19977" lon="1.96769">
        <ele>300</ele>
        <time>2014-08-15T13:30:35Z</time>
      </trkpt>
      <trkpt lat="44.19977" lon="1.96778">
        <ele>300</ele>
        <time>2014-08-15T13:30:37Z</time>
      </trkpt>
      <trkpt lat="44.19977" lon="1.96787">
        <ele>300</ele>
        <time>2014-08-15T13:30:39Z</time>
      </trkpt>
      <trkpt lat="44.19976" lon="1.96797">
        <ele>300</ele>
        <time>2014-08-15T13:30:41Z</time>
      </trkpt>
      <trkpt lat="44.19975" lon="1.96809">
        <ele>300</ele>
        <time>2014-08-15T13:30:43Z</time>
      </trkpt>
      <trkpt lat="44.19975" lon="1.96824">
        <ele>301</ele>
        <time>2014-08-15T13:30:46Z</time>
      </trkpt>
      <trkpt lat="44.19975" lon="1.96834">
        <ele>301</ele>
        <time>2014-08-15T13:30:48Z</time>
      </trkpt>
      <trkpt lat="44.19975" lon="1.96846">
        <ele>302</ele>
        <time>2014-08-15T13:30:51Z</time>
      </trkpt>
      <trkpt lat="44.19975" lon="1.96853">
        <ele>302</ele>
        <time>2014-08-15T13:30:54Z</time>
      </trkpt>
      <trkpt lat="44.19977" lon="1.96864">
        <ele>302</ele>
        <time>2014-08-15T13:30:56Z</time>
      </trkpt>
      <trkpt lat="44.1998" lon="1.96871">
        <ele>303</ele>
        <time>2014-08-15T13:30:58Z</time>
      </trkpt>
      <trkpt lat="44.19982" lon="1.96878">
        <ele>303</ele>
        <time>2014-08-15T13:31:00Z</time>
      </trkpt>
      <trkpt lat="44.19984" lon="1.96884">
        <ele>303</ele>
        <time>2014-08-15T13:31:02Z</time>
      </trkpt>
      <trkpt lat="44.19987" lon="1.96894">
        <ele>304</ele>
        <time>2014-08-15T13:31:05Z</time>
      </trkpt>
      <trkpt lat="44.1999" lon="1.96899">
        <ele>304</ele>
        <time>2014-08-15T13:31:07Z</time>
      </trkpt>
      <trkpt lat="44.19993" lon="1.96908">
        <ele>304</ele>
        <time>2014-08-15T13:31:10Z</time>
      </trkpt>
      <trkpt lat="44.19997" lon="1.96918">
        <ele>305</ele>
        <time>2014-08-15T13:31:13Z</time>
      </trkpt>
      <trkpt lat="44.19999" lon="1.96923">
        <ele>305</ele>
        <time>2014-08-15T13:31:16Z</time>
      </trkpt>
      <trkpt lat="44.20004" lon="1.96931">
        <ele>305</ele>
        <time>2014-08-15T13:31:18Z</time>
      </trkpt>
      <trkpt lat="44.20007" lon="1.96935">
        <ele>305</ele>
        <time>2014-08-15T13:31:20Z</time>
      </trkpt>
      <trkpt lat="44.20012" lon="1.9694">
        <ele>305</ele>
        <time>2014-08-15T13:31:23Z</time>
      </trkpt>
      <trkpt lat="44.20015" lon="1.9694">
        <ele>305</ele>
        <time>2014-08-15T13:31:25Z</time>
      </trkpt>
      <trkpt lat="44.20018" lon="1.96939">
        <ele>306</ele>
        <time>2014-08-15T13:31:27Z</time>
      </trkpt>
      <trkpt lat="44.20022" lon="1.9694">
        <ele>306</ele>
        <time>2014-08-15T13:31:29Z</time>
      </trkpt>
      <trkpt lat="44.20025" lon="1.96939">
        <ele>307</ele>
        <time>2014-08-15T13:31:31Z</time>
      </trkpt>
      <trkpt lat="44.20028" lon="1.96938">
        <ele>307</ele>
        <time>2014-08-15T13:31:33Z</time>
      </trkpt>
      <trkpt lat="44.20031" lon="1.96938">
        <ele>308</ele>
        <time>2014-08-15T13:31:35Z</time>
      </trkpt>
      <trkpt lat="44.20034" lon="1.96937">
        <ele>308</ele>
        <time>2014-08-15T13:31:37Z</time>
      </trkpt>
      <trkpt lat="44.20038" lon="1.96937">
        <ele>309</ele>
        <time>2014-08-15T13:31:39Z</time>
      </trkpt>
      <trkpt lat="44.20042" lon="1.96936">
        <ele>310</ele>
        <time>2014-08-15T13:31:42Z</time>
      </trkpt>
      <trkpt lat="44.20048" lon="1.96934">
        <ele>311</ele>
        <time>2014-08-15T13:31:44Z</time>
      </trkpt>
      <trkpt lat="44.20052" lon="1.9693">
        <ele>312</ele>
        <time>2014-08-15T13:31:47Z</time>
      </trkpt>
      <trkpt lat="44.20055" lon="1.96925">
        <ele>313</ele>
        <time>2014-08-15T13:31:50Z</time>
      </trkpt>
      <trkpt lat="44.20057" lon="1.96921">
        <ele>314</ele>
        <time>2014-08-15T13:31:52Z</time>
      </trkpt>
      <trkpt lat="44.20058" lon="1.96917">
        <ele>314</ele>
        <time>2014-08-15T13:31:54Z</time>
      </trkpt>
      <trkpt lat="44.20059" lon="1.96912">
        <ele>315</ele>
        <time>2014-08-15T13:31:56Z</time>
      </trkpt>
      <trkpt lat="44.2006" lon="1.96907">
        <ele>315</ele>
        <time>2014-08-15T13:31:58Z</time>
      </trkpt>
      <trkpt lat="44.20061" lon="1.96901">
        <ele>316</ele>
        <time>2014-08-15T13:32:00Z</time>
      </trkpt>
      <trkpt lat="44.20061" lon="1.96895">
        <ele>317</ele>
        <time>2014-08-15T13:32:02Z</time>
      </trkpt>
      <trkpt lat="44.20062" lon="1.96889">
        <ele>318</ele>
        <time>2014-08-15T13:32:04Z</time>
      </trkpt>
      <trkpt lat="44.20063" lon="1.96883">
        <ele>318</ele>
        <time>2014-08-15T13:32:06Z</time>
      </trkpt>
      <trkpt lat="44.20064" lon="1.96878">
        <ele>319</ele>
        <time>2014-08-15T13:32:09Z</time>
      </trkpt>
      <trkpt lat="44.20066" lon="1.96869">
        <ele>319</ele>
        <time>2014-08-15T13:32:11Z</time>
      </trkpt>
      <trkpt lat="44.20068" lon="1.96861">
        <ele>319</ele>
        <time>2014-08-15T13:32:14Z</time>
      </trkpt>
      <trkpt lat="44.2007" lon="1.96857">
        <ele>320</ele>
        <time>2014-08-15T13:32:16Z</time>
      </trkpt>
      <trkpt lat="44.20071" lon="1.96854">
        <ele>320</ele>
        <time>2014-08-15T13:32:18Z</time>
      </trkpt>
      <trkpt lat="44.20072" lon="1.96853">
        <ele>320</ele>
        <time>2014-08-15T13:32:20Z</time>
      </trkpt>
      <trkpt lat="44.20072" lon="1.9685">
        <ele>320</ele>
        <time>2014-08-15T13:32:22Z</time>
      </trkpt>
      <trkpt lat="44.20073" lon="1.96848">
        <ele>320</ele>
        <time>2014-08-15T13:32:24Z</time>
      </trkpt>
      <trkpt lat="44.20073" lon="1.96845">
        <ele>320</ele>
        <time>2014-08-15T13:32:26Z</time>
      </trkpt>
      <trkpt lat="44.20074" lon="1.96842">
        <ele>320</ele>
        <time>2014-08-15T13:32:28Z</time>
      </trkpt>
      <trkpt lat="44.20076" lon="1.96837">
        <ele>320</ele>
        <time>2014-08-15T13:32:30Z</time>
      </trkpt>
      <trkpt lat="44.20077" lon="1.96833">
        <ele>320</ele>
        <time>2014-08-15T13:32:32Z</time>
      </trkpt>
      <trkpt lat="44.20081" lon="1.96807">
        <ele>320</ele>
        <time>2014-08-15T13:32:35Z</time>
      </trkpt>
      <trkpt lat="44.20085" lon="1.96804">
        <ele>320</ele>
        <time>2014-08-15T13:32:37Z</time>
      </trkpt>
      <trkpt lat="44.2009" lon="1.968">
        <ele>320</ele>
        <time>2014-08-15T13:32:40Z</time>
      </trkpt>
      <trkpt lat="44.20095" lon="1.96796">
        <ele>320</ele>
        <time>2014-08-15T13:32:42Z</time>
      </trkpt>
      <trkpt lat="44.20103" lon="1.96788">
        <ele>321</ele>
        <time>2014-08-15T13:32:45Z</time>
      </trkpt>
      <trkpt lat="44.20114" lon="1.96777">
        <ele>321</ele>
        <time>2014-08-15T13:32:48Z</time>
      </trkpt>
      <trkpt lat="44.20124" lon="1.96767">
        <ele>322</ele>
        <time>2014-08-15T13:32:51Z</time>
      </trkpt>
      <trkpt lat="44.20134" lon="1.96759">
        <ele>322</ele>
        <time>2014-08-15T13:32:54Z</time>
      </trkpt>
      <trkpt lat="44.20139" lon="1.96753">
        <ele>322</ele>
        <time>2014-08-15T13:32:56Z</time>
      </trkpt>
      <trkpt lat="44.20146" lon="1.96746">
        <ele>322</ele>
        <time>2014-08-15T13:32:59Z</time>
      </trkpt>
      <trkpt lat="44.2015" lon="1.96741">
        <ele>323</ele>
        <time>2014-08-15T13:33:01Z</time>
      </trkpt>
      <trkpt lat="44.20157" lon="1.96734">
        <ele>323</ele>
        <time>2014-08-15T13:33:04Z</time>
      </trkpt>
      <trkpt lat="44.20164" lon="1.96726">
        <ele>324</ele>
        <time>2014-08-15T13:33:07Z</time>
      </trkpt>
      <trkpt lat="44.20168" lon="1.9672">
        <ele>324</ele>
        <time>2014-08-15T13:33:09Z</time>
      </trkpt>
      <trkpt lat="44.20174" lon="1.96711">
        <ele>324</ele>
        <time>2014-08-15T13:33:12Z</time>
      </trkpt>
      <trkpt lat="44.20177" lon="1.96704">
        <ele>324</ele>
        <time>2014-08-15T13:33:14Z</time>
      </trkpt>
      <trkpt lat="44.20183" lon="1.96694">
        <ele>324</ele>
        <time>2014-08-15T13:33:17Z</time>
      </trkpt>
      <trkpt lat="44.20187" lon="1.96688">
        <ele>324</ele>
        <time>2014-08-15T13:33:19Z</time>
      </trkpt>
      <trkpt lat="44.2019" lon="1.96681">
        <ele>325</ele>
        <time>2014-08-15T13:33:21Z</time>
      </trkpt>
      <trkpt lat="44.20197" lon="1.96672">
        <ele>325</ele>
        <time>2014-08-15T13:33:24Z</time>
      </trkpt>
      <trkpt lat="44.20203" lon="1.96662">
        <ele>325</ele>
        <time>2014-08-15T13:33:27Z</time>
      </trkpt>
      <trkpt lat="44.2021" lon="1.96652">
        <ele>325</ele>
        <time>2014-08-15T13:33:30Z</time>
      </trkpt>
      <trkpt lat="44.20217" lon="1.96649">
        <ele>324</ele>
        <time>2014-08-15T13:33:33Z</time>
      </trkpt>
      <trkpt lat="44.20227" lon="1.96641">
        <ele>324</ele>
        <time>2014-08-15T13:33:36Z</time>
      </trkpt>
      <trkpt lat="44.20235" lon="1.96634">
        <ele>324</ele>
        <time>2014-08-15T13:33:38Z</time>
      </trkpt>
      <trkpt lat="44.20243" lon="1.96627">
        <ele>324</ele>
        <time>2014-08-15T13:33:40Z</time>
      </trkpt>
      <trkpt lat="44.20251" lon="1.96619">
        <ele>324</ele>
        <time>2014-08-15T13:33:42Z</time>
      </trkpt>
      <trkpt lat="44.20259" lon="1.96611">
        <ele>323</ele>
        <time>2014-08-15T13:33:44Z</time>
      </trkpt>
      <trkpt lat="44.20267" lon="1.96604">
        <ele>323</ele>
        <time>2014-08-15T13:33:46Z</time>
      </trkpt>
      <trkpt lat="44.20279" lon="1.96592">
        <ele>323</ele>
        <time>2014-08-15T13:33:49Z</time>
      </trkpt>
      <trkpt lat="44.20286" lon="1.96584">
        <ele>323</ele>
        <time>2014-08-15T13:33:51Z</time>
      </trkpt>
      <trkpt lat="44.20298" lon="1.96573">
        <ele>323</ele>
        <time>2014-08-15T13:33:54Z</time>
      </trkpt>
      <trkpt lat="44.20306" lon="1.96565">
        <ele>323</ele>
        <time>2014-08-15T13:33:56Z</time>
      </trkpt>
      <trkpt lat="44.20316" lon="1.96554">
        <ele>323</ele>
        <time>2014-08-15T13:33:59Z</time>
      </trkpt>
      <trkpt lat="44.20323" lon="1.96547">
        <ele>324</ele>
        <time>2014-08-15T13:34:01Z</time>
      </trkpt>
      <trkpt lat="44.20332" lon="1.96537">
        <ele>324</ele>
        <time>2014-08-15T13:34:04Z</time>
      </trkpt>
      <trkpt lat="44.20343" lon="1.96528">
        <ele>324</ele>
        <time>2014-08-15T13:34:07Z</time>
      </trkpt>
      <trkpt lat="44.20349" lon="1.96524">
        <ele>324</ele>
        <time>2014-08-15T13:34:09Z</time>
      </trkpt>
      <trkpt lat="44.20359" lon="1.96518">
        <ele>324</ele>
        <time>2014-08-15T13:34:12Z</time>
      </trkpt>
      <trkpt lat="44.2037" lon="1.96512">
        <ele>324</ele>
        <time>2014-08-15T13:34:15Z</time>
      </trkpt>
      <trkpt lat="44.2038" lon="1.96508">
        <ele>324</ele>
        <time>2014-08-15T13:34:18Z</time>
      </trkpt>
      <trkpt lat="44.20387" lon="1.96506">
        <ele>324</ele>
        <time>2014-08-15T13:34:20Z</time>
      </trkpt>
      <trkpt lat="44.20396" lon="1.96502">
        <ele>323</ele>
        <time>2014-08-15T13:34:23Z</time>
      </trkpt>
      <trkpt lat="44.20407" lon="1.96497">
        <ele>323</ele>
        <time>2014-08-15T13:34:26Z</time>
      </trkpt>
      <trkpt lat="44.20415" lon="1.96489">
        <ele>322</ele>
        <time>2014-08-15T13:34:28Z</time>
      </trkpt>
      <trkpt lat="44.20423" lon="1.96478">
        <ele>322</ele>
        <time>2014-08-15T13:34:30Z</time>
      </trkpt>
      <trkpt lat="44.20434" lon="1.96457">
        <ele>321</ele>
        <time>2014-08-15T13:34:33Z</time>
      </trkpt>
      <trkpt lat="44.20444" lon="1.96445">
        <ele>320</ele>
        <time>2014-08-15T13:34:35Z</time>
      </trkpt>
      <trkpt lat="44.20456" lon="1.9644">
        <ele>319</ele>
        <time>2014-08-15T13:34:37Z</time>
      </trkpt>
      <trkpt lat="44.20474" lon="1.96432">
        <ele>319</ele>
        <time>2014-08-15T13:34:40Z</time>
      </trkpt>
      <trkpt lat="44.20488" lon="1.96414">
        <ele>318</ele>
        <time>2014-08-15T13:34:43Z</time>
      </trkpt>
      <trkpt lat="44.20498" lon="1.96397">
        <ele>318</ele>
        <time>2014-08-15T13:34:46Z</time>
      </trkpt>
      <trkpt lat="44.20502" lon="1.96396">
        <ele>317</ele>
        <time>2014-08-15T13:34:48Z</time>
      </trkpt>
      <trkpt lat="44.20502" lon="1.9641">
        <ele>316</ele>
        <time>2014-08-15T13:34:51Z</time>
      </trkpt>
      <trkpt lat="44.20499" lon="1.96429">
        <ele>315</ele>
        <time>2014-08-15T13:34:54Z</time>
      </trkpt>
      <trkpt lat="44.20496" lon="1.96444">
        <ele>314</ele>
        <time>2014-08-15T13:34:56Z</time>
      </trkpt>
      <trkpt lat="44.20497" lon="1.96465">
        <ele>313</ele>
        <time>2014-08-15T13:34:58Z</time>
      </trkpt>
      <trkpt lat="44.20506" lon="1.96497">
        <ele>311</ele>
        <time>2014-08-15T13:35:01Z</time>
      </trkpt>
      <trkpt lat="44.20513" lon="1.96517">
        <ele>309</ele>
        <time>2014-08-15T13:35:03Z</time>
      </trkpt>
      <trkpt lat="44.2052" lon="1.96536">
        <ele>308</ele>
        <time>2014-08-15T13:35:05Z</time>
      </trkpt>
      <trkpt lat="44.20535" lon="1.96558">
        <ele>307</ele>
        <time>2014-08-15T13:35:08Z</time>
      </trkpt>
      <trkpt lat="44.20554" lon="1.96574">
        <ele>307</ele>
        <time>2014-08-15T13:35:11Z</time>
      </trkpt>
      <trkpt lat="44.20566" lon="1.96582">
        <ele>307</ele>
        <time>2014-08-15T13:35:13Z</time>
      </trkpt>
      <trkpt lat="44.20577" lon="1.96588">
        <ele>307</ele>
        <time>2014-08-15T13:35:15Z</time>
      </trkpt>
      <trkpt lat="44.20588" lon="1.96595">
        <ele>307</ele>
        <time>2014-08-15T13:35:17Z</time>
      </trkpt>
      <trkpt lat="44.20599" lon="1.96604">
        <ele>307</ele>
        <time>2014-08-15T13:35:19Z</time>
      </trkpt>
      <trkpt lat="44.20613" lon="1.96619">
        <ele>307</ele>
        <time>2014-08-15T13:35:22Z</time>
      </trkpt>
      <trkpt lat="44.20621" lon="1.96631">
        <ele>307</ele>
        <time>2014-08-15T13:35:24Z</time>
      </trkpt>
      <trkpt lat="44.20633" lon="1.96651">
        <ele>307</ele>
        <time>2014-08-15T13:35:27Z</time>
      </trkpt>
      <trkpt lat="44.20641" lon="1.96664">
        <ele>306</ele>
        <time>2014-08-15T13:35:29Z</time>
      </trkpt>
      <trkpt lat="44.20654" lon="1.96685">
        <ele>305</ele>
        <time>2014-08-15T13:35:32Z</time>
      </trkpt>
      <trkpt lat="44.20666" lon="1.96706">
        <ele>305</ele>
        <time>2014-08-15T13:35:35Z</time>
      </trkpt>
      <trkpt lat="44.20677" lon="1.96726">
        <ele>304</ele>
        <time>2014-08-15T13:35:38Z</time>
      </trkpt>
      <trkpt lat="44.20688" lon="1.96748">
        <ele>304</ele>
        <time>2014-08-15T13:35:41Z</time>
      </trkpt>
      <trkpt lat="44.20695" lon="1.96762">
        <ele>303</ele>
        <time>2014-08-15T13:35:43Z</time>
      </trkpt>
      <trkpt lat="44.20707" lon="1.9678">
        <ele>303</ele>
        <time>2014-08-15T13:35:46Z</time>
      </trkpt>
      <trkpt lat="44.20715" lon="1.96791">
        <ele>303</ele>
        <time>2014-08-15T13:35:48Z</time>
      </trkpt>
      <trkpt lat="44.20725" lon="1.96806">
        <ele>303</ele>
        <time>2014-08-15T13:35:51Z</time>
      </trkpt>
      <trkpt lat="44.20732" lon="1.96817">
        <ele>304</ele>
        <time>2014-08-15T13:35:53Z</time>
      </trkpt>
      <trkpt lat="44.20738" lon="1.96828">
        <ele>304</ele>
        <time>2014-08-15T13:35:55Z</time>
      </trkpt>
      <trkpt lat="44.20748" lon="1.96844">
        <ele>303</ele>
        <time>2014-08-15T13:35:58Z</time>
      </trkpt>
      <trkpt lat="44.20755" lon="1.96856">
        <ele>303</ele>
        <time>2014-08-15T13:36:00Z</time>
      </trkpt>
      <trkpt lat="44.20763" lon="1.96872">
        <ele>303</ele>
        <time>2014-08-15T13:36:03Z</time>
      </trkpt>
      <trkpt lat="44.20767" lon="1.96882">
        <ele>303</ele>
        <time>2014-08-15T13:36:05Z</time>
      </trkpt>
      <trkpt lat="44.20773" lon="1.96894">
        <ele>303</ele>
        <time>2014-08-15T13:36:07Z</time>
      </trkpt>
      <trkpt lat="44.20783" lon="1.96914">
        <ele>302</ele>
        <time>2014-08-15T13:36:10Z</time>
      </trkpt>
      <trkpt lat="44.20794" lon="1.96933">
        <ele>302</ele>
        <time>2014-08-15T13:36:13Z</time>
      </trkpt>
      <trkpt lat="44.20803" lon="1.96953">
        <ele>302</ele>
        <time>2014-08-15T13:36:16Z</time>
      </trkpt>
      <trkpt lat="44.2081" lon="1.96966">
        <ele>302</ele>
        <time>2014-08-15T13:36:18Z</time>
      </trkpt>
      <trkpt lat="44.20819" lon="1.96983">
        <ele>302</ele>
        <time>2014-08-15T13:36:21Z</time>
      </trkpt>
      <trkpt lat="44.20826" lon="1.96992">
        <ele>302</ele>
        <time>2014-08-15T13:36:23Z</time>
      </trkpt>
      <trkpt lat="44.20832" lon="1.97002">
        <ele>302</ele>
        <time>2014-08-15T13:36:26Z</time>
      </trkpt>
      <trkpt lat="44.20842" lon="1.97012">
        <ele>302</ele>
        <time>2014-08-15T13:36:29Z</time>
      </trkpt>
      <trkpt lat="44.20857" lon="1.97021">
        <ele>301</ele>
        <time>2014-08-15T13:36:32Z</time>
      </trkpt>
      <trkpt lat="44.20871" lon="1.97025">
        <ele>301</ele>
        <time>2014-08-15T13:36:34Z</time>
      </trkpt>
      <trkpt lat="44.20894" lon="1.97037">
        <ele>300</ele>
        <time>2014-08-15T13:36:37Z</time>
      </trkpt>
      <trkpt lat="44.20919" lon="1.97052">
        <ele>298</ele>
        <time>2014-08-15T13:36:40Z</time>
      </trkpt>
      <trkpt lat="44.20943" lon="1.97068">
        <ele>297</ele>
        <time>2014-08-15T13:36:43Z</time>
      </trkpt>
      <trkpt lat="44.20956" lon="1.97079">
        <ele>297</ele>
        <time>2014-08-15T13:36:45Z</time>
      </trkpt>
      <trkpt lat="44.20974" lon="1.97093">
        <ele>297</ele>
        <time>2014-08-15T13:36:48Z</time>
      </trkpt>
      <trkpt lat="44.20988" lon="1.9711">
        <ele>297</ele>
        <time>2014-08-15T13:36:51Z</time>
      </trkpt>
      <trkpt lat="44.21002" lon="1.97127">
        <ele>297</ele>
        <time>2014-08-15T13:36:54Z</time>
      </trkpt>
      <trkpt lat="44.2101" lon="1.97138">
        <ele>296</ele>
        <time>2014-08-15T13:36:56Z</time>
      </trkpt>
      <trkpt lat="44.21017" lon="1.97146">
        <ele>296</ele>
        <time>2014-08-15T13:36:58Z</time>
      </trkpt>
      <trkpt lat="44.2102" lon="1.97153">
        <ele>296</ele>
        <time>2014-08-15T13:37:00Z</time>
      </trkpt>
      <trkpt lat="44.21024" lon="1.97158">
        <ele>295</ele>
        <time>2014-08-15T13:37:02Z</time>
      </trkpt>
      <trkpt lat="44.21028" lon="1.97164">
        <ele>295</ele>
        <time>2014-08-15T13:37:04Z</time>
      </trkpt>
      <trkpt lat="44.21031" lon="1.97169">
        <ele>295</ele>
        <time>2014-08-15T13:37:07Z</time>
      </trkpt>
      <trkpt lat="44.21034" lon="1.97173">
        <ele>295</ele>
        <time>2014-08-15T13:37:10Z</time>
      </trkpt>
      <trkpt lat="44.21037" lon="1.97179">
        <ele>295</ele>
        <time>2014-08-15T13:37:13Z</time>
      </trkpt>
      <trkpt lat="44.21039" lon="1.97182">
        <ele>294</ele>
        <time>2014-08-15T13:37:15Z</time>
      </trkpt>
      <trkpt lat="44.21043" lon="1.97187">
        <ele>295</ele>
        <time>2014-08-15T13:37:18Z</time>
      </trkpt>
      <trkpt lat="44.21046" lon="1.97193">
        <ele>295</ele>
        <time>2014-08-15T13:37:21Z</time>
      </trkpt>
      <trkpt lat="44.21051" lon="1.97199">
        <ele>295</ele>
        <time>2014-08-15T13:37:24Z</time>
      </trkpt>
      <trkpt lat="44.21057" lon="1.97204">
        <ele>296</ele>
        <time>2014-08-15T13:37:27Z</time>
      </trkpt>
      <trkpt lat="44.21067" lon="1.97205">
        <ele>296</ele>
        <time>2014-08-15T13:37:30Z</time>
      </trkpt>
      <trkpt lat="44.21075" lon="1.97207">
        <ele>296</ele>
        <time>2014-08-15T13:37:32Z</time>
      </trkpt>
      <trkpt lat="44.21083" lon="1.97207">
        <ele>296</ele>
        <time>2014-08-15T13:37:34Z</time>
      </trkpt>
      <trkpt lat="44.21093" lon="1.97208">
        <ele>295</ele>
        <time>2014-08-15T13:37:36Z</time>
      </trkpt>
      <trkpt lat="44.21104" lon="1.97206">
        <ele>295</ele>
        <time>2014-08-15T13:37:38Z</time>
      </trkpt>
      <trkpt lat="44.21116" lon="1.97202">
        <ele>295</ele>
        <time>2014-08-15T13:37:40Z</time>
      </trkpt>
      <trkpt lat="44.2113" lon="1.97195">
        <ele>294</ele>
        <time>2014-08-15T13:37:42Z</time>
      </trkpt>
      <trkpt lat="44.2115" lon="1.97179">
        <ele>292</ele>
        <time>2014-08-15T13:37:45Z</time>
      </trkpt>
      <trkpt lat="44.21172" lon="1.97158">
        <ele>290</ele>
        <time>2014-08-15T13:37:48Z</time>
      </trkpt>
      <trkpt lat="44.21189" lon="1.97144">
        <ele>289</ele>
        <time>2014-08-15T13:37:50Z</time>
      </trkpt>
      <trkpt lat="44.21206" lon="1.9713">
        <ele>286</ele>
        <time>2014-08-15T13:37:52Z</time>
      </trkpt>
      <trkpt lat="44.21227" lon="1.97109">
        <ele>283</ele>
        <time>2014-08-15T13:37:55Z</time>
      </trkpt>
      <trkpt lat="44.21235" lon="1.97091">
        <ele>281</ele>
        <time>2014-08-15T13:37:57Z</time>
      </trkpt>
      <trkpt lat="44.21241" lon="1.97071">
        <ele>278</ele>
        <time>2014-08-15T13:37:59Z</time>
      </trkpt>
      <trkpt lat="44.21242" lon="1.97049">
        <ele>276</ele>
        <time>2014-08-15T13:38:01Z</time>
      </trkpt>
      <trkpt lat="44.2124" lon="1.9702">
        <ele>273</ele>
        <time>2014-08-15T13:38:04Z</time>
      </trkpt>
      <trkpt lat="44.21241" lon="1.97008">
        <ele>272</ele>
        <time>2014-08-15T13:38:07Z</time>
      </trkpt>
      <trkpt lat="44.21245" lon="1.97004">
        <ele>269</ele>
        <time>2014-08-15T13:38:10Z</time>
      </trkpt>
      <trkpt lat="44.21252" lon="1.97005">
        <ele>268</ele>
        <time>2014-08-15T13:38:13Z</time>
      </trkpt>
      <trkpt lat="44.21255" lon="1.97007">
        <ele>267</ele>
        <time>2014-08-15T13:38:15Z</time>
      </trkpt>
      <trkpt lat="44.21257" lon="1.97009">
        <ele>267</ele>
        <time>2014-08-15T13:38:17Z</time>
      </trkpt>
      <trkpt lat="44.21261" lon="1.97014">
        <ele>266</ele>
        <time>2014-08-15T13:38:20Z</time>
      </trkpt>
      <trkpt lat="44.21263" lon="1.97017">
        <ele>266</ele>
        <time>2014-08-15T13:38:22Z</time>
      </trkpt>
      <trkpt lat="44.21266" lon="1.97023">
        <ele>265</ele>
        <time>2014-08-15T13:38:25Z</time>
      </trkpt>
      <trkpt lat="44.21268" lon="1.9703">
        <ele>264</ele>
        <time>2014-08-15T13:38:28Z</time>
      </trkpt>
      <trkpt lat="44.21271" lon="1.97032">
        <ele>263</ele>
        <time>2014-08-15T13:38:31Z</time>
      </trkpt>
      <trkpt lat="44.21274" lon="1.97027">
        <ele>263</ele>
        <time>2014-08-15T13:38:34Z</time>
      </trkpt>
      <trkpt lat="44.21276" lon="1.97014">
        <ele>261</ele>
        <time>2014-08-15T13:38:37Z</time>
      </trkpt>
      <trkpt lat="44.21277" lon="1.97005">
        <ele>259</ele>
        <time>2014-08-15T13:38:39Z</time>
      </trkpt>
      <trkpt lat="44.21278" lon="1.96999">
        <ele>257</ele>
        <time>2014-08-15T13:38:41Z</time>
      </trkpt>
      <trkpt lat="44.21281" lon="1.96983">
        <ele>255</ele>
        <time>2014-08-15T13:38:44Z</time>
      </trkpt>
      <trkpt lat="44.21283" lon="1.96972">
        <ele>251</ele>
        <time>2014-08-15T13:38:47Z</time>
      </trkpt>
      <trkpt lat="44.21283" lon="1.96964">
        <ele>249</ele>
        <time>2014-08-15T13:38:50Z</time>
      </trkpt>
      <trkpt lat="44.2128" lon="1.96956">
        <ele>247</ele>
        <time>2014-08-15T13:38:53Z</time>
      </trkpt>
      <trkpt lat="44.21276" lon="1.96951">
        <ele>246</ele>
        <time>2014-08-15T13:38:55Z</time>
      </trkpt>
      <trkpt lat="44.21273" lon="1.96946">
        <ele>245</ele>
        <time>2014-08-15T13:38:57Z</time>
      </trkpt>
      <trkpt lat="44.21268" lon="1.96937">
        <ele>244</ele>
        <time>2014-08-15T13:38:59Z</time>
      </trkpt>
      <trkpt lat="44.21266" lon="1.96927">
        <ele>243</ele>
        <time>2014-08-15T13:39:01Z</time>
      </trkpt>
      <trkpt lat="44.21265" lon="1.96919">
        <ele>242</ele>
        <time>2014-08-15T13:39:03Z</time>
      </trkpt>
      <trkpt lat="44.21264" lon="1.96913">
        <ele>240</ele>
        <time>2014-08-15T13:39:05Z</time>
      </trkpt>
      <trkpt lat="44.21263" lon="1.96912">
        <ele>239</ele>
        <time>2014-08-15T13:39:07Z</time>
      </trkpt>
      <trkpt lat="44.21263" lon="1.9691">
        <ele>238</ele>
        <time>2014-08-15T13:39:09Z</time>
      </trkpt>
      <trkpt lat="44.21262" lon="1.96906">
        <ele>238</ele>
        <time>2014-08-15T13:39:12Z</time>
      </trkpt>
      <trkpt lat="44.21262" lon="1.96903">
        <ele>238</ele>
        <time>2014-08-15T13:39:14Z</time>
      </trkpt>
      <trkpt lat="44.21262" lon="1.96897">
        <ele>238</ele>
        <time>2014-08-15T13:39:17Z</time>
      </trkpt>
      <trkpt lat="44.21262" lon="1.96889">
        <ele>237</ele>
        <time>2014-08-15T13:39:20Z</time>
      </trkpt>
      <trkpt lat="44.21262" lon="1.96879">
        <ele>236</ele>
        <time>2014-08-15T13:39:23Z</time>
      </trkpt>
      <trkpt lat="44.21261" lon="1.9687">
        <ele>235</ele>
        <time>2014-08-15T13:39:25Z</time>
      </trkpt>
      <trkpt lat="44.2126" lon="1.96862">
        <ele>234</ele>
        <time>2014-08-15T13:39:28Z</time>
      </trkpt>
      <trkpt lat="44.21259" lon="1.96861">
        <ele>233</ele>
        <time>2014-08-15T13:39:31Z</time>
      </trkpt>
      <trkpt lat="44.21259" lon="1.96859">
        <ele>232</ele>
        <time>2014-08-15T13:39:34Z</time>
      </trkpt>
      <trkpt lat="44.21258" lon="1.96857">
        <ele>232</ele>
        <time>2014-08-15T13:39:36Z</time>
      </trkpt>
      <trkpt lat="44.21257" lon="1.96856">
        <ele>233</ele>
        <time>2014-08-15T13:39:39Z</time>
      </trkpt>
      <trkpt lat="44.21255" lon="1.96855">
        <ele>232</ele>
        <time>2014-08-15T13:39:41Z</time>
      </trkpt>
      <trkpt lat="44.21253" lon="1.96854">
        <ele>232</ele>
        <time>2014-08-15T13:39:43Z</time>
      </trkpt>
      <trkpt lat="44.21252" lon="1.96853">
        <ele>232</ele>
        <time>2014-08-15T13:39:46Z</time>
      </trkpt>
      <trkpt lat="44.21251" lon="1.96853">
        <ele>232</ele>
        <time>2014-08-15T13:39:49Z</time>
      </trkpt>
      <trkpt lat="44.2125" lon="1.96852">
        <ele>231</ele>
        <time>2014-08-15T13:39:51Z</time>
      </trkpt>
      <trkpt lat="44.21251" lon="1.96853">
        <ele>231</ele>
        <time>2014-08-15T13:39:53Z</time>
      </trkpt>
      <trkpt lat="44.21251" lon="1.96853">
        <ele>232</ele>
        <time>2014-08-15T13:39:55Z</time>
      </trkpt>
      <trkpt lat="44.21251" lon="1.96853">
        <ele>232</ele>
        <time>2014-08-15T13:39:59Z</time>
      </trkpt>
      <trkpt lat="44.21251" lon="1.96853">
        <ele>232</ele>
        <time>2014-08-15T13:40:01Z</time>
      </trkpt>
      <trkpt lat="44.2125" lon="1.96852">
        <ele>232</ele>
        <time>2014-08-15T13:40:03Z</time>
      </trkpt>
      <trkpt lat="44.21251" lon="1.96853">
        <ele>232</ele>
        <time>2014-08-15T13:40:06Z</time>
      </trkpt>
      <trkpt lat="44.21251" lon="1.96853">
        <ele>232</ele>
        <time>2014-08-15T13:40:09Z</time>
      </trkpt>
      <trkpt lat="44.21251" lon="1.96853">
        <ele>232</ele>
        <time>2014-08-15T13:40:12Z</time>
      </trkpt>
      <trkpt lat="44.21251" lon="1.96853">
        <ele>232</ele>
        <time>2014-08-15T13:40:16Z</time>
      </trkpt>
      <trkpt lat="44.21249" lon="1.96852">
        <ele>232</ele>
        <time>2014-08-15T13:40:19Z</time>
      </trkpt>
      <trkpt lat="44.21249" lon="1.96852">
        <ele>232</ele>
        <time>2014-08-15T13:40:21Z</time>
      </trkpt>
      <trkpt lat="44.21249" lon="1.96853">
        <ele>232</ele>
        <time>2014-08-15T13:40:23Z</time>
      </trkpt>
      <trkpt lat="44.21249" lon="1.96852">
        <ele>232</ele>
        <time>2014-08-15T13:40:25Z</time>
      </trkpt>
      <trkpt lat="44.21246" lon="1.96847">
        <ele>233</ele>
        <time>2014-08-15T13:40:28Z</time>
      </trkpt>
      <trkpt lat="44.21244" lon="1.96847">
        <ele>232</ele>
        <time>2014-08-15T13:40:31Z</time>
      </trkpt>
      <trkpt lat="44.21243" lon="1.96846">
        <ele>232</ele>
        <time>2014-08-15T13:40:34Z</time>
      </trkpt>
      <trkpt lat="44.21243" lon="1.96845">
        <ele>232</ele>
        <time>2014-08-15T13:40:37Z</time>
      </trkpt>
      <trkpt lat="44.21243" lon="1.96844">
        <ele>233</ele>
        <time>2014-08-15T13:40:40Z</time>
      </trkpt>
      <trkpt lat="44.21243" lon="1.96844">
        <ele>232</ele>
        <time>2014-08-15T13:40:42Z</time>
      </trkpt>
      <trkpt lat="44.21243" lon="1.96845">
        <ele>232</ele>
        <time>2014-08-15T13:40:45Z</time>
      </trkpt>
      <trkpt lat="44.21242" lon="1.96844">
        <ele>232</ele>
        <time>2014-08-15T13:40:48Z</time>
      </trkpt>
      <trkpt lat="44.21243" lon="1.96844">
        <ele>232</ele>
        <time>2014-08-15T13:40:51Z</time>
      </trkpt>
      <trkpt lat="44.21243" lon="1.96844">
        <ele>231</ele>
        <time>2014-08-15T13:40:55Z</time>
      </trkpt>
      <trkpt lat="44.21243" lon="1.96844">
        <ele>231</ele>
        <time>2014-08-15T13:40:58Z</time>
      </trkpt>
      <trkpt lat="44.21243" lon="1.96843">
        <ele>231</ele>
        <time>2014-08-15T13:41:00Z</time>
      </trkpt>
      <trkpt lat="44.21243" lon="1.96843">
        <ele>232</ele>
        <time>2014-08-15T13:41:03Z</time>
      </trkpt>
      <trkpt lat="44.21243" lon="1.96842">
        <ele>231</ele>
        <time>2014-08-15T13:41:06Z</time>
      </trkpt>
      <trkpt lat="44.21242" lon="1.96837">
        <ele>231</ele>
        <time>2014-08-15T13:41:09Z</time>
      </trkpt>
      <trkpt lat="44.21241" lon="1.96833">
        <ele>231</ele>
        <time>2014-08-15T13:41:11Z</time>
      </trkpt>
      <trkpt lat="44.21238" lon="1.96829">
        <ele>230</ele>
        <time>2014-08-15T13:41:13Z</time>
      </trkpt>
      <trkpt lat="44.21236" lon="1.96825">
        <ele>229</ele>
        <time>2014-08-15T13:41:15Z</time>
      </trkpt>
      <trkpt lat="44.21232" lon="1.9682">
        <ele>229</ele>
        <time>2014-08-15T13:41:17Z</time>
      </trkpt>
      <trkpt lat="44.21228" lon="1.96814">
        <ele>227</ele>
        <time>2014-08-15T13:41:19Z</time>
      </trkpt>
      <trkpt lat="44.21223" lon="1.96806">
        <ele>226</ele>
        <time>2014-08-15T13:41:22Z</time>
      </trkpt>
      <trkpt lat="44.21219" lon="1.96798">
        <ele>224</ele>
        <time>2014-08-15T13:41:24Z</time>
      </trkpt>
      <trkpt lat="44.21217" lon="1.96791">
        <ele>223</ele>
        <time>2014-08-15T13:41:26Z</time>
      </trkpt>
      <trkpt lat="44.21211" lon="1.96779">
        <ele>222</ele>
        <time>2014-08-15T13:41:29Z</time>
      </trkpt>
      <trkpt lat="44.21209" lon="1.96772">
        <ele>221</ele>
        <time>2014-08-15T13:41:31Z</time>
      </trkpt>
      <trkpt lat="44.21206" lon="1.96764">
        <ele>219</ele>
        <time>2014-08-15T13:41:33Z</time>
      </trkpt>
      <trkpt lat="44.21205" lon="1.96756">
        <ele>217</ele>
        <time>2014-08-15T13:41:35Z</time>
      </trkpt>
      <trkpt lat="44.21202" lon="1.96749">
        <ele>216</ele>
        <time>2014-08-15T13:41:37Z</time>
      </trkpt>
      <trkpt lat="44.212" lon="1.96742">
        <ele>214</ele>
        <time>2014-08-15T13:41:40Z</time>
      </trkpt>
      <trkpt lat="44.21199" lon="1.96736">
        <ele>212</ele>
        <time>2014-08-15T13:41:42Z</time>
      </trkpt>
      <trkpt lat="44.21194" lon="1.96726">
        <ele>210</ele>
        <time>2014-08-15T13:41:45Z</time>
      </trkpt>
      <trkpt lat="44.21188" lon="1.96717">
        <ele>209</ele>
        <time>2014-08-15T13:41:47Z</time>
      </trkpt>
      <trkpt lat="44.21181" lon="1.96711">
        <ele>207</ele>
        <time>2014-08-15T13:41:50Z</time>
      </trkpt>
      <trkpt lat="44.21179" lon="1.96704">
        <ele>206</ele>
        <time>2014-08-15T13:41:52Z</time>
      </trkpt>
      <trkpt lat="44.21173" lon="1.96694">
        <ele>203</ele>
        <time>2014-08-15T13:41:55Z</time>
      </trkpt>
      <trkpt lat="44.2117" lon="1.96691">
        <ele>202</ele>
        <time>2014-08-15T13:41:57Z</time>
      </trkpt>
      <trkpt lat="44.21167" lon="1.96684">
        <ele>201</ele>
        <time>2014-08-15T13:42:00Z</time>
      </trkpt>
      <trkpt lat="44.21161" lon="1.96674">
        <ele>199</ele>
        <time>2014-08-15T13:42:03Z</time>
      </trkpt>
      <trkpt lat="44.21151" lon="1.96669">
        <ele>197</ele>
        <time>2014-08-15T13:42:06Z</time>
      </trkpt>
      <trkpt lat="44.21146" lon="1.96665">
        <ele>196</ele>
        <time>2014-08-15T13:42:08Z</time>
      </trkpt>
      <trkpt lat="44.21135" lon="1.96658">
        <ele>195</ele>
        <time>2014-08-15T13:42:11Z</time>
      </trkpt>
      <trkpt lat="44.21125" lon="1.96649">
        <ele>193</ele>
        <time>2014-08-15T13:42:14Z</time>
      </trkpt>
      <trkpt lat="44.2112" lon="1.96639">
        <ele>192</ele>
        <time>2014-08-15T13:42:16Z</time>
      </trkpt>
      <trkpt lat="44.21115" lon="1.96631">
        <ele>190</ele>
        <time>2014-08-15T13:42:18Z</time>
      </trkpt>
      <trkpt lat="44.21112" lon="1.96626">
        <ele>189</ele>
        <time>2014-08-15T13:42:20Z</time>
      </trkpt>
      <trkpt lat="44.21108" lon="1.96616">
        <ele>188</ele>
        <time>2014-08-15T13:42:23Z</time>
      </trkpt>
      <trkpt lat="44.21104" lon="1.9661">
        <ele>187</ele>
        <time>2014-08-15T13:42:25Z</time>
      </trkpt>
      <trkpt lat="44.21096" lon="1.966">
        <ele>185</ele>
        <time>2014-08-15T13:42:28Z</time>
      </trkpt>
      <trkpt lat="44.2109" lon="1.96592">
        <ele>183</ele>
        <time>2014-08-15T13:42:31Z</time>
      </trkpt>
      <trkpt lat="44.21083" lon="1.96578">
        <ele>181</ele>
        <time>2014-08-15T13:42:34Z</time>
      </trkpt>
      <trkpt lat="44.21075" lon="1.96564">
        <ele>178</ele>
        <time>2014-08-15T13:42:37Z</time>
      </trkpt>
      <trkpt lat="44.21067" lon="1.96551">
        <ele>175</ele>
        <time>2014-08-15T13:42:40Z</time>
      </trkpt>
      <trkpt lat="44.21065" lon="1.9654">
        <ele>171</ele>
        <time>2014-08-15T13:42:43Z</time>
      </trkpt>
      <trkpt lat="44.2107" lon="1.9654">
        <ele>169</ele>
        <time>2014-08-15T13:42:46Z</time>
      </trkpt>
      <trkpt lat="44.21077" lon="1.96541">
        <ele>166</ele>
        <time>2014-08-15T13:42:49Z</time>
      </trkpt>
      <trkpt lat="44.2108" lon="1.96542">
        <ele>164</ele>
        <time>2014-08-15T13:42:51Z</time>
      </trkpt>
      <trkpt lat="44.21085" lon="1.96541">
        <ele>161</ele>
        <time>2014-08-15T13:42:54Z</time>
      </trkpt>
      <trkpt lat="44.2109" lon="1.96539">
        <ele>159</ele>
        <time>2014-08-15T13:42:57Z</time>
      </trkpt>
      <trkpt lat="44.21095" lon="1.96539">
        <ele>157</ele>
        <time>2014-08-15T13:43:00Z</time>
      </trkpt>
      <trkpt lat="44.21099" lon="1.9654">
        <ele>156</ele>
        <time>2014-08-15T13:43:03Z</time>
      </trkpt>
      <trkpt lat="44.21102" lon="1.96533">
        <ele>154</ele>
        <time>2014-08-15T13:43:06Z</time>
      </trkpt>
      <trkpt lat="44.21105" lon="1.96531">
        <ele>154</ele>
        <time>2014-08-15T13:43:08Z</time>
      </trkpt>
      <trkpt lat="44.21106" lon="1.96529">
        <ele>153</ele>
        <time>2014-08-15T13:43:11Z</time>
      </trkpt>
      <trkpt lat="44.21106" lon="1.96529">
        <ele>153</ele>
        <time>2014-08-15T13:43:13Z</time>
      </trkpt>
      <trkpt lat="44.21098" lon="1.96515">
        <ele>153</ele>
        <time>2014-08-15T13:43:16Z</time>
      </trkpt>
      <trkpt lat="44.21098" lon="1.96515">
        <ele>153</ele>
        <time>2014-08-15T13:43:18Z</time>
      </trkpt>
      <trkpt lat="44.21098" lon="1.96516">
        <ele>153</ele>
        <time>2014-08-15T13:43:20Z</time>
      </trkpt>
      <trkpt lat="44.21099" lon="1.96517">
        <ele>153</ele>
        <time>2014-08-15T13:43:23Z</time>
      </trkpt>
      <trkpt lat="44.21103" lon="1.96517">
        <ele>153</ele>
        <time>2014-08-15T13:43:26Z</time>
      </trkpt>
      <trkpt lat="44.21106" lon="1.9651">
        <ele>152</ele>
        <time>2014-08-15T13:43:29Z</time>
      </trkpt>
      <trkpt lat="44.21111" lon="1.96508">
        <ele>151</ele>
        <time>2014-08-15T13:43:32Z</time>
      </trkpt>
      <trkpt lat="44.21119" lon="1.96511">
        <ele>150</ele>
        <time>2014-08-15T13:43:35Z</time>
      </trkpt>
      <trkpt lat="44.21123" lon="1.96512">
        <ele>149</ele>
        <time>2014-08-15T13:43:38Z</time>
      </trkpt>
      <trkpt lat="44.21126" lon="1.96511">
        <ele>147</ele>
        <time>2014-08-15T13:43:40Z</time>
      </trkpt>
      <trkpt lat="44.21132" lon="1.96505">
        <ele>145</ele>
        <time>2014-08-15T13:43:43Z</time>
      </trkpt>
      <trkpt lat="44.2114" lon="1.96504">
        <ele>143</ele>
        <time>2014-08-15T13:43:46Z</time>
      </trkpt>
      <trkpt lat="44.21144" lon="1.96504">
        <ele>141</ele>
        <time>2014-08-15T13:43:48Z</time>
      </trkpt>
      <trkpt lat="44.21147" lon="1.96501">
        <ele>139</ele>
        <time>2014-08-15T13:43:51Z</time>
      </trkpt>
      <trkpt lat="44.21149" lon="1.96498">
        <ele>138</ele>
        <time>2014-08-15T13:43:53Z</time>
      </trkpt>
      <trkpt lat="44.2115" lon="1.96494">
        <ele>137</ele>
        <time>2014-08-15T13:43:55Z</time>
      </trkpt>
      <trkpt lat="44.21152" lon="1.9649">
        <ele>136</ele>
        <time>2014-08-15T13:43:58Z</time>
      </trkpt>
      <trkpt lat="44.21153" lon="1.96489">
        <ele>135</ele>
        <time>2014-08-15T13:44:00Z</time>
      </trkpt>
      <trkpt lat="44.21154" lon="1.96486">
        <ele>134</ele>
        <time>2014-08-15T13:44:03Z</time>
      </trkpt>
      <trkpt lat="44.21155" lon="1.96484">
        <ele>134</ele>
        <time>2014-08-15T13:44:05Z</time>
      </trkpt>
      <trkpt lat="44.21156" lon="1.96481">
        <ele>133</ele>
        <time>2014-08-15T13:44:07Z</time>
      </trkpt>
      <trkpt lat="44.21156" lon="1.9648">
        <ele>133</ele>
        <time>2014-08-15T13:44:09Z</time>
      </trkpt>
      <trkpt lat="44.21158" lon="1.96478">
        <ele>132</ele>
        <time>2014-08-15T13:44:12Z</time>
      </trkpt>
      <trkpt lat="44.21159" lon="1.96476">
        <ele>132</ele>
        <time>2014-08-15T13:44:14Z</time>
      </trkpt>
      <trkpt lat="44.2116" lon="1.96475">
        <ele>131</ele>
        <time>2014-08-15T13:44:16Z</time>
      </trkpt>
      <trkpt lat="44.21161" lon="1.96474">
        <ele>131</ele>
        <time>2014-08-15T13:44:18Z</time>
      </trkpt>
      <trkpt lat="44.21161" lon="1.96474">
        <ele>131</ele>
        <time>2014-08-15T13:44:20Z</time>
      </trkpt>
      <trkpt lat="44.21162" lon="1.96473">
        <ele>131</ele>
        <time>2014-08-15T13:44:23Z</time>
      </trkpt>
      <trkpt lat="44.21165" lon="1.96475">
        <ele>130</ele>
        <time>2014-08-15T13:44:25Z</time>
      </trkpt>
      <trkpt lat="44.2117" lon="1.96476">
        <ele>130</ele>
        <time>2014-08-15T13:44:27Z</time>
      </trkpt>
      <trkpt lat="44.21175" lon="1.96473">
        <ele>128</ele>
        <time>2014-08-15T13:44:30Z</time>
      </trkpt>
      <trkpt lat="44.21183" lon="1.96471">
        <ele>126</ele>
        <time>2014-08-15T13:44:33Z</time>
      </trkpt>
      <trkpt lat="44.21188" lon="1.9647">
        <ele>125</ele>
        <time>2014-08-15T13:44:35Z</time>
      </trkpt>
      <trkpt lat="44.21196" lon="1.96467">
        <ele>124</ele>
        <time>2014-08-15T13:44:38Z</time>
      </trkpt>
      <trkpt lat="44.21207" lon="1.96463">
        <ele>123</ele>
        <time>2014-08-15T13:44:41Z</time>
      </trkpt>
      <trkpt lat="44.21214" lon="1.96459">
        <ele>122</ele>
        <time>2014-08-15T13:44:43Z</time>
      </trkpt>
      <trkpt lat="44.21222" lon="1.96454">
        <ele>122</ele>
        <time>2014-08-15T13:44:45Z</time>
      </trkpt>
      <trkpt lat="44.21234" lon="1.96449">
        <ele>121</ele>
        <time>2014-08-15T13:44:48Z</time>
      </trkpt>
      <trkpt lat="44.21241" lon="1.96447">
        <ele>120</ele>
        <time>2014-08-15T13:44:51Z</time>
      </trkpt>
      <trkpt lat="44.21244" lon="1.9644">
        <ele>119</ele>
        <time>2014-08-15T13:44:54Z</time>
      </trkpt>
      <trkpt lat="44.21246" lon="1.9643">
        <ele>119</ele>
        <time>2014-08-15T13:44:57Z</time>
      </trkpt>
      <trkpt lat="44.21247" lon="1.96419">
        <ele>119</ele>
        <time>2014-08-15T13:45:00Z</time>
      </trkpt>
      <trkpt lat="44.21249" lon="1.96409">
        <ele>119</ele>
        <time>2014-08-15T13:45:03Z</time>
      </trkpt>
      <trkpt lat="44.21251" lon="1.96404">
        <ele>119</ele>
        <time>2014-08-15T13:45:05Z</time>
      </trkpt>
      <trkpt lat="44.21253" lon="1.96396">
        <ele>119</ele>
        <time>2014-08-15T13:45:08Z</time>
      </trkpt>
      <trkpt lat="44.21257" lon="1.96387">
        <ele>120</ele>
        <time>2014-08-15T13:45:11Z</time>
      </trkpt>
      <trkpt lat="44.2126" lon="1.96381">
        <ele>120</ele>
        <time>2014-08-15T13:45:13Z</time>
      </trkpt>
      <trkpt lat="44.21264" lon="1.96376">
        <ele>120</ele>
        <time>2014-08-15T13:45:15Z</time>
      </trkpt>
      <trkpt lat="44.21269" lon="1.96367">
        <ele>120</ele>
        <time>2014-08-15T13:45:18Z</time>
      </trkpt>
      <trkpt lat="44.21272" lon="1.9636">
        <ele>120</ele>
        <time>2014-08-15T13:45:20Z</time>
      </trkpt>
      <trkpt lat="44.21274" lon="1.96353">
        <ele>119</ele>
        <time>2014-08-15T13:45:22Z</time>
      </trkpt>
      <trkpt lat="44.21275" lon="1.96349">
        <ele>119</ele>
        <time>2014-08-15T13:45:24Z</time>
      </trkpt>
      <trkpt lat="44.21277" lon="1.96344">
        <ele>119</ele>
        <time>2014-08-15T13:45:26Z</time>
      </trkpt>
      <trkpt lat="44.21279" lon="1.96335">
        <ele>120</ele>
        <time>2014-08-15T13:45:29Z</time>
      </trkpt>
      <trkpt lat="44.21281" lon="1.9633">
        <ele>120</ele>
        <time>2014-08-15T13:45:31Z</time>
      </trkpt>
      <trkpt lat="44.21283" lon="1.96324">
        <ele>120</ele>
        <time>2014-08-15T13:45:34Z</time>
      </trkpt>
      <trkpt lat="44.21284" lon="1.96322">
        <ele>120</ele>
        <time>2014-08-15T13:45:36Z</time>
      </trkpt>
      <trkpt lat="44.21286" lon="1.9632">
        <ele>120</ele>
        <time>2014-08-15T13:45:38Z</time>
      </trkpt>
      <trkpt lat="44.21288" lon="1.96317">
        <ele>120</ele>
        <time>2014-08-15T13:45:41Z</time>
      </trkpt>
      <trkpt lat="44.2129" lon="1.96314">
        <ele>120</ele>
        <time>2014-08-15T13:45:43Z</time>
      </trkpt>
      <trkpt lat="44.21294" lon="1.96307">
        <ele>120</ele>
        <time>2014-08-15T13:45:46Z</time>
      </trkpt>
      <trkpt lat="44.21298" lon="1.96301">
        <ele>120</ele>
        <time>2014-08-15T13:45:49Z</time>
      </trkpt>
      <trkpt lat="44.21305" lon="1.96288">
        <ele>121</ele>
        <time>2014-08-15T13:45:52Z</time>
      </trkpt>
      <trkpt lat="44.21312" lon="1.96275">
        <ele>121</ele>
        <time>2014-08-15T13:45:55Z</time>
      </trkpt>
      <trkpt lat="44.2132" lon="1.96261">
        <ele>122</ele>
        <time>2014-08-15T13:45:58Z</time>
      </trkpt>
      <trkpt lat="44.21325" lon="1.96253">
        <ele>122</ele>
        <time>2014-08-15T13:46:00Z</time>
      </trkpt>
      <trkpt lat="44.21334" lon="1.96242">
        <ele>123</ele>
        <time>2014-08-15T13:46:03Z</time>
      </trkpt>
      <trkpt lat="44.21345" lon="1.96233">
        <ele>123</ele>
        <time>2014-08-15T13:46:06Z</time>
      </trkpt>
      <trkpt lat="44.21353" lon="1.96228">
        <ele>123</ele>
        <time>2014-08-15T13:46:08Z</time>
      </trkpt>
      <trkpt lat="44.21361" lon="1.96224">
        <ele>123</ele>
        <time>2014-08-15T13:46:10Z</time>
      </trkpt>
      <trkpt lat="44.21369" lon="1.96219">
        <ele>123</ele>
        <time>2014-08-15T13:46:12Z</time>
      </trkpt>
      <trkpt lat="44.21377" lon="1.96215">
        <ele>123</ele>
        <time>2014-08-15T13:46:14Z</time>
      </trkpt>
      <trkpt lat="44.21389" lon="1.96206">
        <ele>123</ele>
        <time>2014-08-15T13:46:17Z</time>
      </trkpt>
      <trkpt lat="44.21398" lon="1.96198">
        <ele>123</ele>
        <time>2014-08-15T13:46:19Z</time>
      </trkpt>
      <trkpt lat="44.21407" lon="1.96193">
        <ele>123</ele>
        <time>2014-08-15T13:46:21Z</time>
      </trkpt>
      <trkpt lat="44.21416" lon="1.96191">
        <ele>124</ele>
        <time>2014-08-15T13:46:23Z</time>
      </trkpt>
      <trkpt lat="44.21425" lon="1.96191">
        <ele>124</ele>
        <time>2014-08-15T13:46:25Z</time>
      </trkpt>
      <trkpt lat="44.21434" lon="1.9619">
        <ele>124</ele>
        <time>2014-08-15T13:46:27Z</time>
      </trkpt>
      <trkpt lat="44.21448" lon="1.96185">
        <ele>125</ele>
        <time>2014-08-15T13:46:30Z</time>
      </trkpt>
      <trkpt lat="44.21463" lon="1.9618">
        <ele>125</ele>
        <time>2014-08-15T13:46:33Z</time>
      </trkpt>
      <trkpt lat="44.21479" lon="1.96176">
        <ele>125</ele>
        <time>2014-08-15T13:46:36Z</time>
      </trkpt>
      <trkpt lat="44.21495" lon="1.96171">
        <ele>125</ele>
        <time>2014-08-15T13:46:39Z</time>
      </trkpt>
      <trkpt lat="44.21512" lon="1.96164">
        <ele>125</ele>
        <time>2014-08-15T13:46:42Z</time>
      </trkpt>
      <trkpt lat="44.21531" lon="1.96155">
        <ele>124</ele>
        <time>2014-08-15T13:46:45Z</time>
      </trkpt>
      <trkpt lat="44.21544" lon="1.96148">
        <ele>124</ele>
        <time>2014-08-15T13:46:47Z</time>
      </trkpt>
      <trkpt lat="44.21562" lon="1.96136">
        <ele>123</ele>
        <time>2014-08-15T13:46:50Z</time>
      </trkpt>
      <trkpt lat="44.21573" lon="1.96128">
        <ele>123</ele>
        <time>2014-08-15T13:46:52Z</time>
      </trkpt>
      <trkpt lat="44.21587" lon="1.96115">
        <ele>122</ele>
        <time>2014-08-15T13:46:55Z</time>
      </trkpt>
      <trkpt lat="44.216" lon="1.96113">
        <ele>122</ele>
        <time>2014-08-15T13:46:58Z</time>
      </trkpt>
      <trkpt lat="44.21605" lon="1.96116">
        <ele>122</ele>
        <time>2014-08-15T13:47:00Z</time>
      </trkpt>
      <trkpt lat="44.21607" lon="1.96119">
        <ele>122</ele>
        <time>2014-08-15T13:47:02Z</time>
      </trkpt>
      <trkpt lat="44.21608" lon="1.96123">
        <ele>123</ele>
        <time>2014-08-15T13:47:04Z</time>
      </trkpt>
      <trkpt lat="44.21609" lon="1.96129">
        <ele>123</ele>
        <time>2014-08-15T13:47:07Z</time>
      </trkpt>
      <trkpt lat="44.21609" lon="1.96133">
        <ele>123</ele>
        <time>2014-08-15T13:47:09Z</time>
      </trkpt>
      <trkpt lat="44.21611" lon="1.96139">
        <ele>123</ele>
        <time>2014-08-15T13:47:12Z</time>
      </trkpt>
      <trkpt lat="44.21612" lon="1.96143">
        <ele>124</ele>
        <time>2014-08-15T13:47:14Z</time>
      </trkpt>
      <trkpt lat="44.21613" lon="1.9615">
        <ele>124</ele>
        <time>2014-08-15T13:47:17Z</time>
      </trkpt>
      <trkpt lat="44.21615" lon="1.96162">
        <ele>124</ele>
        <time>2014-08-15T13:47:20Z</time>
      </trkpt>
      <trkpt lat="44.21613" lon="1.96178">
        <ele>123</ele>
        <time>2014-08-15T13:47:23Z</time>
      </trkpt>
      <trkpt lat="44.21608" lon="1.96193">
        <ele>122</ele>
        <time>2014-08-15T13:47:25Z</time>
      </trkpt>
      <trkpt lat="44.21601" lon="1.96213">
        <ele>122</ele>
        <time>2014-08-15T13:47:28Z</time>
      </trkpt>
      <trkpt lat="44.21595" lon="1.96228">
        <ele>121</ele>
        <time>2014-08-15T13:47:31Z</time>
      </trkpt>
      <trkpt lat="44.21589" lon="1.96241">
        <ele>122</ele>
        <time>2014-08-15T13:47:34Z</time>
      </trkpt>
      <trkpt lat="44.21585" lon="1.9625">
        <ele>122</ele>
        <time>2014-08-15T13:47:36Z</time>
      </trkpt>
      <trkpt lat="44.21582" lon="1.96258">
        <ele>123</ele>
        <time>2014-08-15T13:47:38Z</time>
      </trkpt>
      <trkpt lat="44.21578" lon="1.96271">
        <ele>123</ele>
        <time>2014-08-15T13:47:41Z</time>
      </trkpt>
      <trkpt lat="44.21575" lon="1.96282">
        <ele>125</ele>
        <time>2014-08-15T13:47:44Z</time>
      </trkpt>
      <trkpt lat="44.21575" lon="1.96291">
        <ele>125</ele>
        <time>2014-08-15T13:47:46Z</time>
      </trkpt>
      <trkpt lat="44.21576" lon="1.96301">
        <ele>126</ele>
        <time>2014-08-15T13:47:49Z</time>
      </trkpt>
      <trkpt lat="44.21577" lon="1.96307">
        <ele>127</ele>
        <time>2014-08-15T13:47:52Z</time>
      </trkpt>
      <trkpt lat="44.21578" lon="1.96311">
        <ele>127</ele>
        <time>2014-08-15T13:47:54Z</time>
      </trkpt>
      <trkpt lat="44.21581" lon="1.96316">
        <ele>128</ele>
        <time>2014-08-15T13:47:57Z</time>
      </trkpt>
      <trkpt lat="44.21584" lon="1.96318">
        <ele>128</ele>
        <time>2014-08-15T13:47:59Z</time>
      </trkpt>
      <trkpt lat="44.21587" lon="1.96319">
        <ele>128</ele>
        <time>2014-08-15T13:48:02Z</time>
      </trkpt>
      <trkpt lat="44.2159" lon="1.9632">
        <ele>128</ele>
        <time>2014-08-15T13:48:04Z</time>
      </trkpt>
      <trkpt lat="44.21588" lon="1.96318">
        <ele>128</ele>
        <time>2014-08-15T13:48:07Z</time>
      </trkpt>
      <trkpt lat="44.21587" lon="1.96322">
        <ele>128</ele>
        <time>2014-08-15T13:48:09Z</time>
      </trkpt>
      <trkpt lat="44.21587" lon="1.96323">
        <ele>128</ele>
        <time>2014-08-15T13:48:13Z</time>
      </trkpt>
      <trkpt lat="44.21587" lon="1.96324">
        <ele>128</ele>
        <time>2014-08-15T13:48:15Z</time>
      </trkpt>
      <trkpt lat="44.21563" lon="1.96298">
        <ele>127</ele>
        <time>2014-08-15T13:48:17Z</time>
      </trkpt>
      <trkpt lat="44.21564" lon="1.96299">
        <ele>127</ele>
        <time>2014-08-15T13:48:19Z</time>
      </trkpt>
      <trkpt lat="44.21565" lon="1.963">
        <ele>127</ele>
        <time>2014-08-15T13:48:21Z</time>
      </trkpt>
      <trkpt lat="44.21567" lon="1.96302">
        <ele>127</ele>
        <time>2014-08-15T13:48:23Z</time>
      </trkpt>
      <trkpt lat="44.21571" lon="1.96304">
        <ele>127</ele>
        <time>2014-08-15T13:48:25Z</time>
      </trkpt>
      <trkpt lat="44.21578" lon="1.96304">
        <ele>127</ele>
        <time>2014-08-15T13:48:28Z</time>
      </trkpt>
      <trkpt lat="44.2159" lon="1.96305">
        <ele>128</ele>
        <time>2014-08-15T13:48:31Z</time>
      </trkpt>
      <trkpt lat="44.21599" lon="1.96301">
        <ele>128</ele>
        <time>2014-08-15T13:48:33Z</time>
      </trkpt>
      <trkpt lat="44.21613" lon="1.96294">
        <ele>129</ele>
        <time>2014-08-15T13:48:36Z</time>
      </trkpt>
      <trkpt lat="44.21626" lon="1.96285">
        <ele>130</ele>
        <time>2014-08-15T13:48:39Z</time>
      </trkpt>
      <trkpt lat="44.21641" lon="1.96279">
        <ele>131</ele>
        <time>2014-08-15T13:48:42Z</time>
      </trkpt>
      <trkpt lat="44.2165" lon="1.96276">
        <ele>131</ele>
        <time>2014-08-15T13:48:44Z</time>
      </trkpt>
      <trkpt lat="44.2166" lon="1.96275">
        <ele>133</ele>
        <time>2014-08-15T13:48:47Z</time>
      </trkpt>
      <trkpt lat="44.21669" lon="1.96276">
        <ele>133</ele>
        <time>2014-08-15T13:48:50Z</time>
      </trkpt>
      <trkpt lat="44.21676" lon="1.96276">
        <ele>133</ele>
        <time>2014-08-15T13:48:52Z</time>
      </trkpt>
      <trkpt lat="44.21683" lon="1.96275">
        <ele>134</ele>
        <time>2014-08-15T13:48:54Z</time>
      </trkpt>
      <trkpt lat="44.21693" lon="1.96274">
        <ele>134</ele>
        <time>2014-08-15T13:48:57Z</time>
      </trkpt>
      <trkpt lat="44.21698" lon="1.96273">
        <ele>134</ele>
        <time>2014-08-15T13:48:59Z</time>
      </trkpt>
      <trkpt lat="44.21706" lon="1.9627">
        <ele>134</ele>
        <time>2014-08-15T13:49:02Z</time>
      </trkpt>
      <trkpt lat="44.21717" lon="1.96268">
        <ele>135</ele>
        <time>2014-08-15T13:49:05Z</time>
      </trkpt>
      <trkpt lat="44.21729" lon="1.9627">
        <ele>136</ele>
        <time>2014-08-15T13:49:08Z</time>
      </trkpt>
      <trkpt lat="44.2174" lon="1.96281">
        <ele>137</ele>
        <time>2014-08-15T13:49:11Z</time>
      </trkpt>
      <trkpt lat="44.21746" lon="1.9629">
        <ele>138</ele>
        <time>2014-08-15T13:49:13Z</time>
      </trkpt>
      <trkpt lat="44.21755" lon="1.96305">
        <ele>139</ele>
        <time>2014-08-15T13:49:16Z</time>
      </trkpt>
      <trkpt lat="44.21762" lon="1.96318">
        <ele>140</ele>
        <time>2014-08-15T13:49:19Z</time>
      </trkpt>
      <trkpt lat="44.21768" lon="1.96329">
        <ele>141</ele>
        <time>2014-08-15T13:49:22Z</time>
      </trkpt>
      <trkpt lat="44.21774" lon="1.96343">
        <ele>141</ele>
        <time>2014-08-15T13:49:25Z</time>
      </trkpt>
      <trkpt lat="44.21777" lon="1.96354">
        <ele>142</ele>
        <time>2014-08-15T13:49:27Z</time>
      </trkpt>
      <trkpt lat="44.21781" lon="1.9637">
        <ele>143</ele>
        <time>2014-08-15T13:49:30Z</time>
      </trkpt>
      <trkpt lat="44.21781" lon="1.96387">
        <ele>145</ele>
        <time>2014-08-15T13:49:33Z</time>
      </trkpt>
      <trkpt lat="44.21781" lon="1.96398">
        <ele>146</ele>
        <time>2014-08-15T13:49:35Z</time>
      </trkpt>
      <trkpt lat="44.21783" lon="1.96411">
        <ele>147</ele>
        <time>2014-08-15T13:49:38Z</time>
      </trkpt>
      <trkpt lat="44.21785" lon="1.96421">
        <ele>147</ele>
        <time>2014-08-15T13:49:40Z</time>
      </trkpt>
      <trkpt lat="44.21787" lon="1.96437">
        <ele>148</ele>
        <time>2014-08-15T13:49:43Z</time>
      </trkpt>
      <trkpt lat="44.21788" lon="1.96448">
        <ele>148</ele>
        <time>2014-08-15T13:49:45Z</time>
      </trkpt>
      <trkpt lat="44.21787" lon="1.96463">
        <ele>149</ele>
        <time>2014-08-15T13:49:48Z</time>
      </trkpt>
      <trkpt lat="44.21786" lon="1.96478">
        <ele>150</ele>
        <time>2014-08-15T13:49:51Z</time>
      </trkpt>
      <trkpt lat="44.21787" lon="1.96495">
        <ele>151</ele>
        <time>2014-08-15T13:49:54Z</time>
      </trkpt>
      <trkpt lat="44.21789" lon="1.96505">
        <ele>151</ele>
        <time>2014-08-15T13:49:56Z</time>
      </trkpt>
      <trkpt lat="44.21792" lon="1.9652">
        <ele>152</ele>
        <time>2014-08-15T13:49:59Z</time>
      </trkpt>
      <trkpt lat="44.21798" lon="1.96535">
        <ele>153</ele>
        <time>2014-08-15T13:50:02Z</time>
      </trkpt>
      <trkpt lat="44.21802" lon="1.96543">
        <ele>154</ele>
        <time>2014-08-15T13:50:04Z</time>
      </trkpt>
      <trkpt lat="44.21808" lon="1.96556">
        <ele>155</ele>
        <time>2014-08-15T13:50:07Z</time>
      </trkpt>
      <trkpt lat="44.21812" lon="1.96571">
        <ele>156</ele>
        <time>2014-08-15T13:50:10Z</time>
      </trkpt>
      <trkpt lat="44.21812" lon="1.96584">
        <ele>156</ele>
        <time>2014-08-15T13:50:13Z</time>
      </trkpt>
      <trkpt lat="44.21809" lon="1.96593">
        <ele>157</ele>
        <time>2014-08-15T13:50:16Z</time>
      </trkpt>
      <trkpt lat="44.21806" lon="1.966">
        <ele>158</ele>
        <time>2014-08-15T13:50:18Z</time>
      </trkpt>
      <trkpt lat="44.21801" lon="1.96609">
        <ele>159</ele>
        <time>2014-08-15T13:50:21Z</time>
      </trkpt>
      <trkpt lat="44.21798" lon="1.96616">
        <ele>160</ele>
        <time>2014-08-15T13:50:23Z</time>
      </trkpt>
      <trkpt lat="44.21792" lon="1.96624">
        <ele>161</ele>
        <time>2014-08-15T13:50:26Z</time>
      </trkpt>
      <trkpt lat="44.21788" lon="1.96628">
        <ele>161</ele>
        <time>2014-08-15T13:50:28Z</time>
      </trkpt>
      <trkpt lat="44.21782" lon="1.96631">
        <ele>162</ele>
        <time>2014-08-15T13:50:31Z</time>
      </trkpt>
      <trkpt lat="44.21775" lon="1.9663">
        <ele>163</ele>
        <time>2014-08-15T13:50:34Z</time>
      </trkpt>
      <trkpt lat="44.21771" lon="1.96627">
        <ele>164</ele>
        <time>2014-08-15T13:50:36Z</time>
      </trkpt>
      <trkpt lat="44.21764" lon="1.96622">
        <ele>164</ele>
        <time>2014-08-15T13:50:39Z</time>
      </trkpt>
      <trkpt lat="44.21756" lon="1.96616">
        <ele>165</ele>
        <time>2014-08-15T13:50:42Z</time>
      </trkpt>
      <trkpt lat="44.21748" lon="1.96609">
        <ele>166</ele>
        <time>2014-08-15T13:50:45Z</time>
      </trkpt>
      <trkpt lat="44.21743" lon="1.96606">
        <ele>167</ele>
        <time>2014-08-15T13:50:47Z</time>
      </trkpt>
      <trkpt lat="44.21735" lon="1.96601">
        <ele>167</ele>
        <time>2014-08-15T13:50:50Z</time>
      </trkpt>
      <trkpt lat="44.21728" lon="1.96596">
        <ele>168</ele>
        <time>2014-08-15T13:50:53Z</time>
      </trkpt>
      <trkpt lat="44.21721" lon="1.96593">
        <ele>168</ele>
        <time>2014-08-15T13:50:56Z</time>
      </trkpt>
      <trkpt lat="44.21717" lon="1.96591">
        <ele>169</ele>
        <time>2014-08-15T13:50:58Z</time>
      </trkpt>
      <trkpt lat="44.21712" lon="1.96589">
        <ele>169</ele>
        <time>2014-08-15T13:51:00Z</time>
      </trkpt>
      <trkpt lat="44.21707" lon="1.96586">
        <ele>169</ele>
        <time>2014-08-15T13:51:03Z</time>
      </trkpt>
      <trkpt lat="44.21701" lon="1.96583">
        <ele>169</ele>
        <time>2014-08-15T13:51:06Z</time>
      </trkpt>
      <trkpt lat="44.21696" lon="1.96582">
        <ele>170</ele>
        <time>2014-08-15T13:51:08Z</time>
      </trkpt>
      <trkpt lat="44.21692" lon="1.9658">
        <ele>170</ele>
        <time>2014-08-15T13:51:10Z</time>
      </trkpt>
      <trkpt lat="44.21684" lon="1.96579">
        <ele>171</ele>
        <time>2014-08-15T13:51:13Z</time>
      </trkpt>
      <trkpt lat="44.21677" lon="1.96579">
        <ele>172</ele>
        <time>2014-08-15T13:51:16Z</time>
      </trkpt>
      <trkpt lat="44.2167" lon="1.96582">
        <ele>173</ele>
        <time>2014-08-15T13:51:19Z</time>
      </trkpt>
      <trkpt lat="44.21664" lon="1.9659">
        <ele>173</ele>
        <time>2014-08-15T13:51:22Z</time>
      </trkpt>
      <trkpt lat="44.21659" lon="1.966">
        <ele>173</ele>
        <time>2014-08-15T13:51:25Z</time>
      </trkpt>
      <trkpt lat="44.21657" lon="1.96612">
        <ele>174</ele>
        <time>2014-08-15T13:51:28Z</time>
      </trkpt>
      <trkpt lat="44.21658" lon="1.96625">
        <ele>174</ele>
        <time>2014-08-15T13:51:31Z</time>
      </trkpt>
      <trkpt lat="44.2166" lon="1.96633">
        <ele>175</ele>
        <time>2014-08-15T13:51:33Z</time>
      </trkpt>
      <trkpt lat="44.21662" lon="1.9664">
        <ele>175</ele>
        <time>2014-08-15T13:51:35Z</time>
      </trkpt>
      <trkpt lat="44.21664" lon="1.96652">
        <ele>176</ele>
        <time>2014-08-15T13:51:38Z</time>
      </trkpt>
      <trkpt lat="44.21666" lon="1.9666">
        <ele>176</ele>
        <time>2014-08-15T13:51:40Z</time>
      </trkpt>
      <trkpt lat="44.2167" lon="1.96672">
        <ele>176</ele>
        <time>2014-08-15T13:51:43Z</time>
      </trkpt>
      <trkpt lat="44.21673" lon="1.9668">
        <ele>176</ele>
        <time>2014-08-15T13:51:45Z</time>
      </trkpt>
      <trkpt lat="44.21676" lon="1.96688">
        <ele>177</ele>
        <time>2014-08-15T13:51:47Z</time>
      </trkpt>
      <trkpt lat="44.21679" lon="1.967">
        <ele>177</ele>
        <time>2014-08-15T13:51:50Z</time>
      </trkpt>
      <trkpt lat="44.21682" lon="1.96708">
        <ele>177</ele>
        <time>2014-08-15T13:51:52Z</time>
      </trkpt>
      <trkpt lat="44.21686" lon="1.96719">
        <ele>178</ele>
        <time>2014-08-15T13:51:55Z</time>
      </trkpt>
      <trkpt lat="44.21688" lon="1.96727">
        <ele>178</ele>
        <time>2014-08-15T13:51:58Z</time>
      </trkpt>
      <trkpt lat="44.21691" lon="1.96733">
        <ele>178</ele>
        <time>2014-08-15T13:52:01Z</time>
      </trkpt>
      <trkpt lat="44.21695" lon="1.96733">
        <ele>178</ele>
        <time>2014-08-15T13:52:03Z</time>
      </trkpt>
      <trkpt lat="44.21699" lon="1.96736">
        <ele>179</ele>
        <time>2014-08-15T13:52:05Z</time>
      </trkpt>
      <trkpt lat="44.21702" lon="1.9674">
        <ele>179</ele>
        <time>2014-08-15T13:52:07Z</time>
      </trkpt>
      <trkpt lat="44.21705" lon="1.96746">
        <ele>180</ele>
        <time>2014-08-15T13:52:09Z</time>
      </trkpt>
      <trkpt lat="44.21708" lon="1.96754">
        <ele>180</ele>
        <time>2014-08-15T13:52:12Z</time>
      </trkpt>
      <trkpt lat="44.21711" lon="1.96761">
        <ele>181</ele>
        <time>2014-08-15T13:52:15Z</time>
      </trkpt>
      <trkpt lat="44.21713" lon="1.96767">
        <ele>181</ele>
        <time>2014-08-15T13:52:18Z</time>
      </trkpt>
      <trkpt lat="44.21716" lon="1.96774">
        <ele>182</ele>
        <time>2014-08-15T13:52:21Z</time>
      </trkpt>
      <trkpt lat="44.21719" lon="1.96781">
        <ele>183</ele>
        <time>2014-08-15T13:52:24Z</time>
      </trkpt>
      <trkpt lat="44.21721" lon="1.96785">
        <ele>184</ele>
        <time>2014-08-15T13:52:26Z</time>
      </trkpt>
      <trkpt lat="44.21722" lon="1.9679">
        <ele>184</ele>
        <time>2014-08-15T13:52:29Z</time>
      </trkpt>
      <trkpt lat="44.21724" lon="1.96793">
        <ele>184</ele>
        <time>2014-08-15T13:52:31Z</time>
      </trkpt>
      <trkpt lat="44.21726" lon="1.96796">
        <ele>185</ele>
        <time>2014-08-15T13:52:33Z</time>
      </trkpt>
      <trkpt lat="44.21729" lon="1.968">
        <ele>185</ele>
        <time>2014-08-15T13:52:35Z</time>
      </trkpt>
      <trkpt lat="44.21731" lon="1.96804">
        <ele>186</ele>
        <time>2014-08-15T13:52:37Z</time>
      </trkpt>
      <trkpt lat="44.21733" lon="1.96809">
        <ele>186</ele>
        <time>2014-08-15T13:52:39Z</time>
      </trkpt>
      <trkpt lat="44.21734" lon="1.96813">
        <ele>187</ele>
        <time>2014-08-15T13:52:41Z</time>
      </trkpt>
      <trkpt lat="44.21737" lon="1.96819">
        <ele>187</ele>
        <time>2014-08-15T13:52:44Z</time>
      </trkpt>
      <trkpt lat="44.21738" lon="1.96823">
        <ele>187</ele>
        <time>2014-08-15T13:52:46Z</time>
      </trkpt>
      <trkpt lat="44.2174" lon="1.96829">
        <ele>188</ele>
        <time>2014-08-15T13:52:49Z</time>
      </trkpt>
      <trkpt lat="44.21741" lon="1.96834">
        <ele>189</ele>
        <time>2014-08-15T13:52:51Z</time>
      </trkpt>
      <trkpt lat="44.21743" lon="1.96844">
        <ele>190</ele>
        <time>2014-08-15T13:52:54Z</time>
      </trkpt>
      <trkpt lat="44.21745" lon="1.9685">
        <ele>191</ele>
        <time>2014-08-15T13:52:56Z</time>
      </trkpt>
      <trkpt lat="44.21747" lon="1.96855">
        <ele>191</ele>
        <time>2014-08-15T13:52:58Z</time>
      </trkpt>
      <trkpt lat="44.21749" lon="1.96863">
        <ele>192</ele>
        <time>2014-08-15T13:53:01Z</time>
      </trkpt>
      <trkpt lat="44.21752" lon="1.96869">
        <ele>193</ele>
        <time>2014-08-15T13:53:03Z</time>
      </trkpt>
      <trkpt lat="44.21755" lon="1.96878">
        <ele>194</ele>
        <time>2014-08-15T13:53:06Z</time>
      </trkpt>
      <trkpt lat="44.21758" lon="1.96886">
        <ele>196</ele>
        <time>2014-08-15T13:53:09Z</time>
      </trkpt>
      <trkpt lat="44.21761" lon="1.96891">
        <ele>197</ele>
        <time>2014-08-15T13:53:11Z</time>
      </trkpt>
      <trkpt lat="44.21762" lon="1.96896">
        <ele>197</ele>
        <time>2014-08-15T13:53:13Z</time>
      </trkpt>
      <trkpt lat="44.21764" lon="1.96904">
        <ele>198</ele>
        <time>2014-08-15T13:53:16Z</time>
      </trkpt>
      <trkpt lat="44.21764" lon="1.96909">
        <ele>198</ele>
        <time>2014-08-15T13:53:18Z</time>
      </trkpt>
      <trkpt lat="44.21764" lon="1.96915">
        <ele>199</ele>
        <time>2014-08-15T13:53:20Z</time>
      </trkpt>
      <trkpt lat="44.21764" lon="1.96921">
        <ele>200</ele>
        <time>2014-08-15T13:53:23Z</time>
      </trkpt>
      <trkpt lat="44.21761" lon="1.96929">
        <ele>200</ele>
        <time>2014-08-15T13:53:26Z</time>
      </trkpt>
      <trkpt lat="44.21758" lon="1.96935">
        <ele>202</ele>
        <time>2014-08-15T13:53:29Z</time>
      </trkpt>
      <trkpt lat="44.21756" lon="1.96939">
        <ele>203</ele>
        <time>2014-08-15T13:53:31Z</time>
      </trkpt>
      <trkpt lat="44.21753" lon="1.96946">
        <ele>204</ele>
        <time>2014-08-15T13:53:34Z</time>
      </trkpt>
      <trkpt lat="44.21751" lon="1.9695">
        <ele>205</ele>
        <time>2014-08-15T13:53:36Z</time>
      </trkpt>
      <trkpt lat="44.21747" lon="1.96957">
        <ele>206</ele>
        <time>2014-08-15T13:53:39Z</time>
      </trkpt>
      <trkpt lat="44.21743" lon="1.96963">
        <ele>207</ele>
        <time>2014-08-15T13:53:42Z</time>
      </trkpt>
      <trkpt lat="44.2174" lon="1.96968">
        <ele>208</ele>
        <time>2014-08-15T13:53:44Z</time>
      </trkpt>
      <trkpt lat="44.21738" lon="1.96974">
        <ele>209</ele>
        <time>2014-08-15T13:53:46Z</time>
      </trkpt>
      <trkpt lat="44.21735" lon="1.96981">
        <ele>210</ele>
        <time>2014-08-15T13:53:49Z</time>
      </trkpt>
      <trkpt lat="44.21733" lon="1.96985">
        <ele>210</ele>
        <time>2014-08-15T13:53:51Z</time>
      </trkpt>
      <trkpt lat="44.21731" lon="1.9699">
        <ele>211</ele>
        <time>2014-08-15T13:53:54Z</time>
      </trkpt>
      <trkpt lat="44.21729" lon="1.96993">
        <ele>211</ele>
        <time>2014-08-15T13:53:56Z</time>
      </trkpt>
      <trkpt lat="44.21728" lon="1.96997">
        <ele>212</ele>
        <time>2014-08-15T13:53:58Z</time>
      </trkpt>
      <trkpt lat="44.21726" lon="1.97001">
        <ele>212</ele>
        <time>2014-08-15T13:54:00Z</time>
      </trkpt>
      <trkpt lat="44.21724" lon="1.97004">
        <ele>213</ele>
        <time>2014-08-15T13:54:02Z</time>
      </trkpt>
      <trkpt lat="44.21722" lon="1.97006">
        <ele>213</ele>
        <time>2014-08-15T13:54:04Z</time>
      </trkpt>
      <trkpt lat="44.21719" lon="1.97011">
        <ele>213</ele>
        <time>2014-08-15T13:54:06Z</time>
      </trkpt>
      <trkpt lat="44.21717" lon="1.97015">
        <ele>213</ele>
        <time>2014-08-15T13:54:08Z</time>
      </trkpt>
      <trkpt lat="44.21714" lon="1.97021">
        <ele>212</ele>
        <time>2014-08-15T13:54:10Z</time>
      </trkpt>
      <trkpt lat="44.21713" lon="1.97028">
        <ele>212</ele>
        <time>2014-08-15T13:54:12Z</time>
      </trkpt>
      <trkpt lat="44.21714" lon="1.97042">
        <ele>212</ele>
        <time>2014-08-15T13:54:15Z</time>
      </trkpt>
      <trkpt lat="44.21716" lon="1.97057">
        <ele>212</ele>
        <time>2014-08-15T13:54:18Z</time>
      </trkpt>
      <trkpt lat="44.21717" lon="1.97066">
        <ele>212</ele>
        <time>2014-08-15T13:54:20Z</time>
      </trkpt>
      <trkpt lat="44.21718" lon="1.97081">
        <ele>211</ele>
        <time>2014-08-15T13:54:23Z</time>
      </trkpt>
      <trkpt lat="44.2172" lon="1.97092">
        <ele>211</ele>
        <time>2014-08-15T13:54:26Z</time>
      </trkpt>
      <trkpt lat="44.21721" lon="1.97101">
        <ele>211</ele>
        <time>2014-08-15T13:54:29Z</time>
      </trkpt>
      <trkpt lat="44.2172" lon="1.97107">
        <ele>211</ele>
        <time>2014-08-15T13:54:31Z</time>
      </trkpt>
      <trkpt lat="44.2172" lon="1.97113">
        <ele>211</ele>
        <time>2014-08-15T13:54:33Z</time>
      </trkpt>
      <trkpt lat="44.2172" lon="1.97118">
        <ele>212</ele>
        <time>2014-08-15T13:54:36Z</time>
      </trkpt>
      <trkpt lat="44.21719" lon="1.97122">
        <ele>212</ele>
        <time>2014-08-15T13:54:38Z</time>
      </trkpt>
      <trkpt lat="44.21719" lon="1.97124">
        <ele>212</ele>
        <time>2014-08-15T13:54:40Z</time>
      </trkpt>
      <trkpt lat="44.21719" lon="1.97125">
        <ele>212</ele>
        <time>2014-08-15T13:54:42Z</time>
      </trkpt>
      <trkpt lat="44.21719" lon="1.97126">
        <ele>212</ele>
        <time>2014-08-15T13:54:45Z</time>
      </trkpt>
      <trkpt lat="44.2172" lon="1.97126">
        <ele>212</ele>
        <time>2014-08-15T13:54:47Z</time>
      </trkpt>
      <trkpt lat="44.2172" lon="1.97127">
        <ele>212</ele>
        <time>2014-08-15T13:54:49Z</time>
      </trkpt>
      <trkpt lat="44.21721" lon="1.97127">
        <ele>212</ele>
        <time>2014-08-15T13:54:51Z</time>
      </trkpt>
      <trkpt lat="44.21721" lon="1.97128">
        <ele>212</ele>
        <time>2014-08-15T13:54:54Z</time>
      </trkpt>
      <trkpt lat="44.2172" lon="1.9713">
        <ele>212</ele>
        <time>2014-08-15T13:54:57Z</time>
      </trkpt>
      <trkpt lat="44.2172" lon="1.97132">
        <ele>212</ele>
        <time>2014-08-15T13:54:59Z</time>
      </trkpt>
      <trkpt lat="44.2172" lon="1.97134">
        <ele>212</ele>
        <time>2014-08-15T13:55:01Z</time>
      </trkpt>
      <trkpt lat="44.21722" lon="1.97134">
        <ele>212</ele>
        <time>2014-08-15T13:55:04Z</time>
      </trkpt>
      <trkpt lat="44.21721" lon="1.9713">
        <ele>212</ele>
        <time>2014-08-15T13:55:06Z</time>
      </trkpt>
      <trkpt lat="44.2172" lon="1.97128">
        <ele>212</ele>
        <time>2014-08-15T13:55:08Z</time>
      </trkpt>
      <trkpt lat="44.21721" lon="1.97127">
        <ele>211</ele>
        <time>2014-08-15T13:55:10Z</time>
      </trkpt>
      <trkpt lat="44.21722" lon="1.97128">
        <ele>211</ele>
        <time>2014-08-15T13:55:12Z</time>
      </trkpt>
      <trkpt lat="44.21721" lon="1.97131">
        <ele>212</ele>
        <time>2014-08-15T13:55:15Z</time>
      </trkpt>
      <trkpt lat="44.2172" lon="1.97133">
        <ele>212</ele>
        <time>2014-08-15T13:55:17Z</time>
      </trkpt>
      <trkpt lat="44.2172" lon="1.97135">
        <ele>212</ele>
        <time>2014-08-15T13:55:19Z</time>
      </trkpt>
      <trkpt lat="44.2172" lon="1.97138">
        <ele>212</ele>
        <time>2014-08-15T13:55:21Z</time>
      </trkpt>
      <trkpt lat="44.21721" lon="1.97141">
        <ele>212</ele>
        <time>2014-08-15T13:55:23Z</time>
      </trkpt>
      <trkpt lat="44.21721" lon="1.97144">
        <ele>212</ele>
        <time>2014-08-15T13:55:25Z</time>
      </trkpt>
      <trkpt lat="44.21721" lon="1.97149">
        <ele>212</ele>
        <time>2014-08-15T13:55:27Z</time>
      </trkpt>
      <trkpt lat="44.21721" lon="1.97155">
        <ele>213</ele>
        <time>2014-08-15T13:55:30Z</time>
      </trkpt>
      <trkpt lat="44.21722" lon="1.97161">
        <ele>213</ele>
        <time>2014-08-15T13:55:32Z</time>
      </trkpt>
      <trkpt lat="44.21722" lon="1.97167">
        <ele>213</ele>
        <time>2014-08-15T13:55:34Z</time>
      </trkpt>
      <trkpt lat="44.21724" lon="1.97171">
        <ele>213</ele>
        <time>2014-08-15T13:55:36Z</time>
      </trkpt>
      <trkpt lat="44.21727" lon="1.97171">
        <ele>213</ele>
        <time>2014-08-15T13:55:38Z</time>
      </trkpt>
      <trkpt lat="44.21728" lon="1.97168">
        <ele>214</ele>
        <time>2014-08-15T13:55:40Z</time>
      </trkpt>
      <trkpt lat="44.21728" lon="1.97162">
        <ele>214</ele>
        <time>2014-08-15T13:55:43Z</time>
      </trkpt>
      <trkpt lat="44.21731" lon="1.97155">
        <ele>215</ele>
        <time>2014-08-15T13:55:46Z</time>
      </trkpt>
      <trkpt lat="44.21734" lon="1.9715">
        <ele>216</ele>
        <time>2014-08-15T13:55:48Z</time>
      </trkpt>
      <trkpt lat="44.21735" lon="1.97145">
        <ele>217</ele>
        <time>2014-08-15T13:55:50Z</time>
      </trkpt>
      <trkpt lat="44.21738" lon="1.97139">
        <ele>218</ele>
        <time>2014-08-15T13:55:53Z</time>
      </trkpt>
      <trkpt lat="44.21738" lon="1.97134">
        <ele>219</ele>
        <time>2014-08-15T13:55:55Z</time>
      </trkpt>
      <trkpt lat="44.21738" lon="1.97128">
        <ele>220</ele>
        <time>2014-08-15T13:55:57Z</time>
      </trkpt>
      <trkpt lat="44.21738" lon="1.9712">
        <ele>221</ele>
        <time>2014-08-15T13:56:00Z</time>
      </trkpt>
      <trkpt lat="44.21738" lon="1.97114">
        <ele>222</ele>
        <time>2014-08-15T13:56:02Z</time>
      </trkpt>
      <trkpt lat="44.21738" lon="1.97105">
        <ele>223</ele>
        <time>2014-08-15T13:56:05Z</time>
      </trkpt>
      <trkpt lat="44.21739" lon="1.97099">
        <ele>223</ele>
        <time>2014-08-15T13:56:07Z</time>
      </trkpt>
      <trkpt lat="44.21739" lon="1.97093">
        <ele>224</ele>
        <time>2014-08-15T13:56:09Z</time>
      </trkpt>
      <trkpt lat="44.2174" lon="1.97088">
        <ele>224</ele>
        <time>2014-08-15T13:56:11Z</time>
      </trkpt>
      <trkpt lat="44.21741" lon="1.97082">
        <ele>224</ele>
        <time>2014-08-15T13:56:13Z</time>
      </trkpt>
      <trkpt lat="44.21742" lon="1.97073">
        <ele>224</ele>
        <time>2014-08-15T13:56:16Z</time>
      </trkpt>
      <trkpt lat="44.21745" lon="1.97068">
        <ele>225</ele>
        <time>2014-08-15T13:56:19Z</time>
      </trkpt>
      <trkpt lat="44.21747" lon="1.97065">
        <ele>225</ele>
        <time>2014-08-15T13:56:21Z</time>
      </trkpt>
      <trkpt lat="44.21752" lon="1.97064">
        <ele>225</ele>
        <time>2014-08-15T13:56:24Z</time>
      </trkpt>
      <trkpt lat="44.21756" lon="1.97065">
        <ele>225</ele>
        <time>2014-08-15T13:56:27Z</time>
      </trkpt>
      <trkpt lat="44.2176" lon="1.97067">
        <ele>225</ele>
        <time>2014-08-15T13:56:30Z</time>
      </trkpt>
      <trkpt lat="44.21763" lon="1.97071">
        <ele>226</ele>
        <time>2014-08-15T13:56:33Z</time>
      </trkpt>
      <trkpt lat="44.21764" lon="1.97071">
        <ele>226</ele>
        <time>2014-08-15T13:56:36Z</time>
      </trkpt>
      <trkpt lat="44.21764" lon="1.97069">
        <ele>226</ele>
        <time>2014-08-15T13:56:39Z</time>
      </trkpt>
      <trkpt lat="44.21764" lon="1.97068">
        <ele>226</ele>
        <time>2014-08-15T13:56:42Z</time>
      </trkpt>
      <trkpt lat="44.21765" lon="1.97067">
        <ele>226</ele>
        <time>2014-08-15T13:56:44Z</time>
      </trkpt>
      <trkpt lat="44.21765" lon="1.97067">
        <ele>226</ele>
        <time>2014-08-15T13:56:46Z</time>
      </trkpt>
      <trkpt lat="44.21765" lon="1.97067">
        <ele>227</ele>
        <time>2014-08-15T13:56:48Z</time>
      </trkpt>
      <trkpt lat="44.21765" lon="1.97066">
        <ele>226</ele>
        <time>2014-08-15T13:56:51Z</time>
      </trkpt>
      <trkpt lat="44.21765" lon="1.97066">
        <ele>226</ele>
        <time>2014-08-15T13:56:53Z</time>
      </trkpt>
      <trkpt lat="44.21765" lon="1.97066">
        <ele>226</ele>
        <time>2014-08-15T13:56:55Z</time>
      </trkpt>
      <trkpt lat="44.21765" lon="1.97067">
        <ele>226</ele>
        <time>2014-08-15T13:56:57Z</time>
      </trkpt>
      <trkpt lat="44.21764" lon="1.97067">
        <ele>226</ele>
        <time>2014-08-15T13:56:59Z</time>
      </trkpt>
      <trkpt lat="44.21764" lon="1.97067">
        <ele>226</ele>
        <time>2014-08-15T13:57:01Z</time>
      </trkpt>
      <trkpt lat="44.21764" lon="1.97067">
        <ele>226</ele>
        <time>2014-08-15T13:57:03Z</time>
      </trkpt>
      <trkpt lat="44.21764" lon="1.97066">
        <ele>226</ele>
        <time>2014-08-15T13:57:06Z</time>
      </trkpt>
      <trkpt lat="44.21764" lon="1.97066">
        <ele>226</ele>
        <time>2014-08-15T13:57:08Z</time>
      </trkpt>
      <trkpt lat="44.21764" lon="1.97065">
        <ele>226</ele>
        <time>2014-08-15T13:57:10Z</time>
      </trkpt>
      <trkpt lat="44.21764" lon="1.97064">
        <ele>227</ele>
        <time>2014-08-15T13:57:12Z</time>
      </trkpt>
      <trkpt lat="44.21764" lon="1.97064">
        <ele>226</ele>
        <time>2014-08-15T13:57:14Z</time>
      </trkpt>
      <trkpt lat="44.21764" lon="1.97063">
        <ele>226</ele>
        <time>2014-08-15T13:57:16Z</time>
      </trkpt>
      <trkpt lat="44.21764" lon="1.97062">
        <ele>226</ele>
        <time>2014-08-15T13:57:18Z</time>
      </trkpt>
      <trkpt lat="44.21764" lon="1.97061">
        <ele>226</ele>
        <time>2014-08-15T13:57:20Z</time>
      </trkpt>
      <trkpt lat="44.21763" lon="1.9706">
        <ele>226</ele>
        <time>2014-08-15T13:57:23Z</time>
      </trkpt>
      <trkpt lat="44.21763" lon="1.97061">
        <ele>226</ele>
        <time>2014-08-15T13:57:25Z</time>
      </trkpt>
      <trkpt lat="44.21763" lon="1.97065">
        <ele>226</ele>
        <time>2014-08-15T13:57:27Z</time>
      </trkpt>
      <trkpt lat="44.21764" lon="1.97072">
        <ele>227</ele>
        <time>2014-08-15T13:57:29Z</time>
      </trkpt>
      <trkpt lat="44.21765" lon="1.97077">
        <ele>227</ele>
        <time>2014-08-15T13:57:31Z</time>
      </trkpt>
      <trkpt lat="44.21765" lon="1.97085">
        <ele>229</ele>
        <time>2014-08-15T13:57:34Z</time>
      </trkpt>
      <trkpt lat="44.21765" lon="1.97089">
        <ele>229</ele>
        <time>2014-08-15T13:57:36Z</time>
      </trkpt>
      <trkpt lat="44.21766" lon="1.97096">
        <ele>230</ele>
        <time>2014-08-15T13:57:39Z</time>
      </trkpt>
      <trkpt lat="44.21766" lon="1.971">
        <ele>231</ele>
        <time>2014-08-15T13:57:41Z</time>
      </trkpt>
      <trkpt lat="44.21764" lon="1.97107">
        <ele>232</ele>
        <time>2014-08-15T13:57:44Z</time>
      </trkpt>
      <trkpt lat="44.21763" lon="1.97116">
        <ele>233</ele>
        <time>2014-08-15T13:57:47Z</time>
      </trkpt>
      <trkpt lat="44.21763" lon="1.97127">
        <ele>234</ele>
        <time>2014-08-15T13:57:50Z</time>
      </trkpt>
      <trkpt lat="44.21764" lon="1.97139">
        <ele>235</ele>
        <time>2014-08-15T13:57:53Z</time>
      </trkpt>
      <trkpt lat="44.21764" lon="1.97146">
        <ele>236</ele>
        <time>2014-08-15T13:57:55Z</time>
      </trkpt>
      <trkpt lat="44.21764" lon="1.97153">
        <ele>236</ele>
        <time>2014-08-15T13:57:57Z</time>
      </trkpt>
      <trkpt lat="44.21765" lon="1.97164">
        <ele>237</ele>
        <time>2014-08-15T13:58:00Z</time>
      </trkpt>
      <trkpt lat="44.21765" lon="1.97171">
        <ele>238</ele>
        <time>2014-08-15T13:58:02Z</time>
      </trkpt>
      <trkpt lat="44.21766" lon="1.97178">
        <ele>238</ele>
        <time>2014-08-15T13:58:04Z</time>
      </trkpt>
      <trkpt lat="44.21766" lon="1.97184">
        <ele>239</ele>
        <time>2014-08-15T13:58:06Z</time>
      </trkpt>
      <trkpt lat="44.21767" lon="1.97194">
        <ele>240</ele>
        <time>2014-08-15T13:58:09Z</time>
      </trkpt>
      <trkpt lat="44.21769" lon="1.97201">
        <ele>240</ele>
        <time>2014-08-15T13:58:12Z</time>
      </trkpt>
      <trkpt lat="44.21769" lon="1.97205">
        <ele>241</ele>
        <time>2014-08-15T13:58:14Z</time>
      </trkpt>
      <trkpt lat="44.2177" lon="1.97211">
        <ele>241</ele>
        <time>2014-08-15T13:58:17Z</time>
      </trkpt>
      <trkpt lat="44.2177" lon="1.97217">
        <ele>242</ele>
        <time>2014-08-15T13:58:20Z</time>
      </trkpt>
      <trkpt lat="44.2177" lon="1.97223">
        <ele>243</ele>
        <time>2014-08-15T13:58:23Z</time>
      </trkpt>
      <trkpt lat="44.2177" lon="1.97226">
        <ele>243</ele>
        <time>2014-08-15T13:58:25Z</time>
      </trkpt>
      <trkpt lat="44.21769" lon="1.9723">
        <ele>243</ele>
        <time>2014-08-15T13:58:27Z</time>
      </trkpt>
      <trkpt lat="44.21769" lon="1.97235">
        <ele>244</ele>
        <time>2014-08-15T13:58:30Z</time>
      </trkpt>
      <trkpt lat="44.21769" lon="1.97238">
        <ele>244</ele>
        <time>2014-08-15T13:58:32Z</time>
      </trkpt>
      <trkpt lat="44.21769" lon="1.9724">
        <ele>243</ele>
        <time>2014-08-15T13:58:35Z</time>
      </trkpt>
      <trkpt lat="44.21769" lon="1.9724">
        <ele>244</ele>
        <time>2014-08-15T13:58:37Z</time>
      </trkpt>
      <trkpt lat="44.21769" lon="1.97241">
        <ele>244</ele>
        <time>2014-08-15T13:58:39Z</time>
      </trkpt>
      <trkpt lat="44.21769" lon="1.97242">
        <ele>243</ele>
        <time>2014-08-15T13:58:41Z</time>
      </trkpt>
      <trkpt lat="44.21769" lon="1.97243">
        <ele>243</ele>
        <time>2014-08-15T13:58:43Z</time>
      </trkpt>
      <trkpt lat="44.21768" lon="1.97244">
        <ele>243</ele>
        <time>2014-08-15T13:58:46Z</time>
      </trkpt>
      <trkpt lat="44.21768" lon="1.97245">
        <ele>244</ele>
        <time>2014-08-15T13:58:48Z</time>
      </trkpt>
      <trkpt lat="44.21768" lon="1.97245">
        <ele>244</ele>
        <time>2014-08-15T13:58:51Z</time>
      </trkpt>
      <trkpt lat="44.21768" lon="1.97246">
        <ele>244</ele>
        <time>2014-08-15T13:58:53Z</time>
      </trkpt>
      <trkpt lat="44.21768" lon="1.97247">
        <ele>244</ele>
        <time>2014-08-15T13:58:55Z</time>
      </trkpt>
      <trkpt lat="44.21768" lon="1.97248">
        <ele>244</ele>
        <time>2014-08-15T13:58:57Z</time>
      </trkpt>
      <trkpt lat="44.21769" lon="1.97252">
        <ele>243</ele>
        <time>2014-08-15T13:59:00Z</time>
      </trkpt>
      <trkpt lat="44.21768" lon="1.97254">
        <ele>243</ele>
        <time>2014-08-15T13:59:02Z</time>
      </trkpt>
      <trkpt lat="44.21768" lon="1.97254">
        <ele>243</ele>
        <time>2014-08-15T13:59:04Z</time>
      </trkpt>
      <trkpt lat="44.21768" lon="1.97254">
        <ele>243</ele>
        <time>2014-08-15T13:59:06Z</time>
      </trkpt>
      <trkpt lat="44.21768" lon="1.97255">
        <ele>243</ele>
        <time>2014-08-15T13:59:09Z</time>
      </trkpt>
      <trkpt lat="44.21768" lon="1.97255">
        <ele>243</ele>
        <time>2014-08-15T13:59:11Z</time>
      </trkpt>
      <trkpt lat="44.21768" lon="1.97255">
        <ele>243</ele>
        <time>2014-08-15T13:59:13Z</time>
      </trkpt>
      <trkpt lat="44.21768" lon="1.97255">
        <ele>243</ele>
        <time>2014-08-15T13:59:16Z</time>
      </trkpt>
      <trkpt lat="44.21772" lon="1.97259">
        <ele>244</ele>
        <time>2014-08-15T13:59:18Z</time>
      </trkpt>
      <trkpt lat="44.21772" lon="1.97259">
        <ele>243</ele>
        <time>2014-08-15T13:59:21Z</time>
      </trkpt>
      <trkpt lat="44.21772" lon="1.97259">
        <ele>244</ele>
        <time>2014-08-15T13:59:23Z</time>
      </trkpt>
      <trkpt lat="44.21772" lon="1.97259">
        <ele>244</ele>
        <time>2014-08-15T13:59:25Z</time>
      </trkpt>
      <trkpt lat="44.21772" lon="1.9726">
        <ele>244</ele>
        <time>2014-08-15T13:59:27Z</time>
      </trkpt>
      <trkpt lat="44.21772" lon="1.97265">
        <ele>244</ele>
        <time>2014-08-15T13:59:29Z</time>
      </trkpt>
      <trkpt lat="44.21773" lon="1.97275">
        <ele>244</ele>
        <time>2014-08-15T13:59:31Z</time>
      </trkpt>
      <trkpt lat="44.21774" lon="1.97289">
        <ele>243</ele>
        <time>2014-08-15T13:59:33Z</time>
      </trkpt>
      <trkpt lat="44.21776" lon="1.97307">
        <ele>243</ele>
        <time>2014-08-15T13:59:35Z</time>
      </trkpt>
      <trkpt lat="44.21781" lon="1.97333">
        <ele>243</ele>
        <time>2014-08-15T13:59:38Z</time>
      </trkpt>
      <trkpt lat="44.21785" lon="1.97344">
        <ele>243</ele>
        <time>2014-08-15T13:59:40Z</time>
      </trkpt>
      <trkpt lat="44.21788" lon="1.97353">
        <ele>244</ele>
        <time>2014-08-15T13:59:42Z</time>
      </trkpt>
      <trkpt lat="44.21792" lon="1.97366">
        <ele>245</ele>
        <time>2014-08-15T13:59:45Z</time>
      </trkpt>
      <trkpt lat="44.21793" lon="1.97376">
        <ele>246</ele>
        <time>2014-08-15T13:59:47Z</time>
      </trkpt>
      <trkpt lat="44.21796" lon="1.97384">
        <ele>247</ele>
        <time>2014-08-15T13:59:49Z</time>
      </trkpt>
      <trkpt lat="44.21799" lon="1.97392">
        <ele>247</ele>
        <time>2014-08-15T13:59:51Z</time>
      </trkpt>
      <trkpt lat="44.21804" lon="1.97406">
        <ele>248</ele>
        <time>2014-08-15T13:59:54Z</time>
      </trkpt>
      <trkpt lat="44.21807" lon="1.97415">
        <ele>248</ele>
        <time>2014-08-15T13:59:56Z</time>
      </trkpt>
      <trkpt lat="44.2181" lon="1.97424">
        <ele>249</ele>
        <time>2014-08-15T13:59:58Z</time>
      </trkpt>
      <trkpt lat="44.21815" lon="1.97437">
        <ele>249</ele>
        <time>2014-08-15T14:00:01Z</time>
      </trkpt>
      <trkpt lat="44.21819" lon="1.97445">
        <ele>250</ele>
        <time>2014-08-15T14:00:03Z</time>
      </trkpt>
      <trkpt lat="44.21823" lon="1.97453">
        <ele>250</ele>
        <time>2014-08-15T14:00:05Z</time>
      </trkpt>
      <trkpt lat="44.21833" lon="1.97462">
        <ele>250</ele>
        <time>2014-08-15T14:00:08Z</time>
      </trkpt>
      <trkpt lat="44.21842" lon="1.97471">
        <ele>250</ele>
        <time>2014-08-15T14:00:11Z</time>
      </trkpt>
      <trkpt lat="44.2185" lon="1.9748">
        <ele>251</ele>
        <time>2014-08-15T14:00:14Z</time>
      </trkpt>
      <trkpt lat="44.21854" lon="1.97484">
        <ele>251</ele>
        <time>2014-08-15T14:00:16Z</time>
      </trkpt>
      <trkpt lat="44.21856" lon="1.97487">
        <ele>251</ele>
        <time>2014-08-15T14:00:19Z</time>
      </trkpt>
      <trkpt lat="44.21858" lon="1.97489">
        <ele>251</ele>
        <time>2014-08-15T14:00:21Z</time>
      </trkpt>
      <trkpt lat="44.21859" lon="1.97492">
        <ele>251</ele>
        <time>2014-08-15T14:00:24Z</time>
      </trkpt>
      <trkpt lat="44.2186" lon="1.97494">
        <ele>251</ele>
        <time>2014-08-15T14:00:26Z</time>
      </trkpt>
      <trkpt lat="44.21863" lon="1.97499">
        <ele>251</ele>
        <time>2014-08-15T14:00:28Z</time>
      </trkpt>
      <trkpt lat="44.21865" lon="1.97506">
        <ele>250</ele>
        <time>2014-08-15T14:00:30Z</time>
      </trkpt>
      <trkpt lat="44.21864" lon="1.97512">
        <ele>250</ele>
        <time>2014-08-15T14:00:32Z</time>
      </trkpt>
      <trkpt lat="44.21864" lon="1.97519">
        <ele>248</ele>
        <time>2014-08-15T14:00:35Z</time>
      </trkpt>
      <trkpt lat="44.21868" lon="1.97523">
        <ele>247</ele>
        <time>2014-08-15T14:00:37Z</time>
      </trkpt>
      <trkpt lat="44.21871" lon="1.97527">
        <ele>246</ele>
        <time>2014-08-15T14:00:39Z</time>
      </trkpt>
      <trkpt lat="44.21873" lon="1.9753">
        <ele>245</ele>
        <time>2014-08-15T14:00:42Z</time>
      </trkpt>
      <trkpt lat="44.21874" lon="1.97532">
        <ele>244</ele>
        <time>2014-08-15T14:00:44Z</time>
      </trkpt>
      <trkpt lat="44.21875" lon="1.97536">
        <ele>243</ele>
        <time>2014-08-15T14:00:46Z</time>
      </trkpt>
      <trkpt lat="44.21875" lon="1.97544">
        <ele>242</ele>
        <time>2014-08-15T14:00:49Z</time>
      </trkpt>
      <trkpt lat="44.21875" lon="1.97551">
        <ele>241</ele>
        <time>2014-08-15T14:00:51Z</time>
      </trkpt>
      <trkpt lat="44.21875" lon="1.97558">
        <ele>239</ele>
        <time>2014-08-15T14:00:53Z</time>
      </trkpt>
      <trkpt lat="44.21875" lon="1.97563">
        <ele>238</ele>
        <time>2014-08-15T14:00:55Z</time>
      </trkpt>
      <trkpt lat="44.21875" lon="1.97567">
        <ele>237</ele>
        <time>2014-08-15T14:00:57Z</time>
      </trkpt>
      <trkpt lat="44.21875" lon="1.97575">
        <ele>236</ele>
        <time>2014-08-15T14:01:00Z</time>
      </trkpt>
      <trkpt lat="44.21877" lon="1.97586">
        <ele>235</ele>
        <time>2014-08-15T14:01:02Z</time>
      </trkpt>
      <trkpt lat="44.2188" lon="1.97595">
        <ele>234</ele>
        <time>2014-08-15T14:01:04Z</time>
      </trkpt>
      <trkpt lat="44.2188" lon="1.976">
        <ele>233</ele>
        <time>2014-08-15T14:01:06Z</time>
      </trkpt>
      <trkpt lat="44.2188" lon="1.97605">
        <ele>232</ele>
        <time>2014-08-15T14:01:08Z</time>
      </trkpt>
      <trkpt lat="44.2188" lon="1.97611">
        <ele>231</ele>
        <time>2014-08-15T14:01:10Z</time>
      </trkpt>
      <trkpt lat="44.21884" lon="1.97626">
        <ele>230</ele>
        <time>2014-08-15T14:01:13Z</time>
      </trkpt>
      <trkpt lat="44.21889" lon="1.97633">
        <ele>229</ele>
        <time>2014-08-15T14:01:16Z</time>
      </trkpt>
      <trkpt lat="44.21893" lon="1.97631">
        <ele>229</ele>
        <time>2014-08-15T14:01:18Z</time>
      </trkpt>
      <trkpt lat="44.21897" lon="1.97628">
        <ele>229</ele>
        <time>2014-08-15T14:01:20Z</time>
      </trkpt>
      <trkpt lat="44.219" lon="1.97626">
        <ele>228</ele>
        <time>2014-08-15T14:01:22Z</time>
      </trkpt>
      <trkpt lat="44.21903" lon="1.97629">
        <ele>228</ele>
        <time>2014-08-15T14:01:24Z</time>
      </trkpt>
      <trkpt lat="44.21907" lon="1.97638">
        <ele>227</ele>
        <time>2014-08-15T14:01:27Z</time>
      </trkpt>
      <trkpt lat="44.21909" lon="1.97644">
        <ele>227</ele>
        <time>2014-08-15T14:01:29Z</time>
      </trkpt>
      <trkpt lat="44.21911" lon="1.97649">
        <ele>226</ele>
        <time>2014-08-15T14:01:31Z</time>
      </trkpt>
      <trkpt lat="44.21913" lon="1.97653">
        <ele>226</ele>
        <time>2014-08-15T14:01:33Z</time>
      </trkpt>
      <trkpt lat="44.21915" lon="1.97657">
        <ele>226</ele>
        <time>2014-08-15T14:01:35Z</time>
      </trkpt>
      <trkpt lat="44.21916" lon="1.97658">
        <ele>226</ele>
        <time>2014-08-15T14:01:37Z</time>
      </trkpt>
      <trkpt lat="44.21916" lon="1.97658">
        <ele>226</ele>
        <time>2014-08-15T14:01:39Z</time>
      </trkpt>
      <trkpt lat="44.21915" lon="1.97653">
        <ele>227</ele>
        <time>2014-08-15T14:01:42Z</time>
      </trkpt>
      <trkpt lat="44.21915" lon="1.97651">
        <ele>227</ele>
        <time>2014-08-15T14:01:44Z</time>
      </trkpt>
      <trkpt lat="44.21914" lon="1.9765">
        <ele>226</ele>
        <time>2014-08-15T14:01:47Z</time>
      </trkpt>
      <trkpt lat="44.21913" lon="1.97652">
        <ele>226</ele>
        <time>2014-08-15T14:01:49Z</time>
      </trkpt>
      <trkpt lat="44.21911" lon="1.97653">
        <ele>226</ele>
        <time>2014-08-15T14:01:51Z</time>
      </trkpt>
      <trkpt lat="44.21906" lon="1.97658">
        <ele>225</ele>
        <time>2014-08-15T14:01:54Z</time>
      </trkpt>
      <trkpt lat="44.21899" lon="1.97661">
        <ele>225</ele>
        <time>2014-08-15T14:01:56Z</time>
      </trkpt>
      <trkpt lat="44.2189" lon="1.97667">
        <ele>223</ele>
        <time>2014-08-15T14:01:59Z</time>
      </trkpt>
      <trkpt lat="44.21884" lon="1.9767">
        <ele>222</ele>
        <time>2014-08-15T14:02:02Z</time>
      </trkpt>
      <trkpt lat="44.21882" lon="1.97671">
        <ele>221</ele>
        <time>2014-08-15T14:02:04Z</time>
      </trkpt>
      <trkpt lat="44.21881" lon="1.9767">
        <ele>221</ele>
        <time>2014-08-15T14:02:06Z</time>
      </trkpt>
      <trkpt lat="44.21878" lon="1.97664">
        <ele>221</ele>
        <time>2014-08-15T14:02:08Z</time>
      </trkpt>
      <trkpt lat="44.21874" lon="1.97656">
        <ele>220</ele>
        <time>2014-08-15T14:02:10Z</time>
      </trkpt>
      <trkpt lat="44.21871" lon="1.97648">
        <ele>220</ele>
        <time>2014-08-15T14:02:12Z</time>
      </trkpt>
      <trkpt lat="44.21868" lon="1.97643">
        <ele>218</ele>
        <time>2014-08-15T14:02:14Z</time>
      </trkpt>
      <trkpt lat="44.21864" lon="1.97644">
        <ele>217</ele>
        <time>2014-08-15T14:02:16Z</time>
      </trkpt>
      <trkpt lat="44.21863" lon="1.97662">
        <ele>216</ele>
        <time>2014-08-15T14:02:19Z</time>
      </trkpt>
      <trkpt lat="44.21862" lon="1.97674">
        <ele>215</ele>
        <time>2014-08-15T14:02:21Z</time>
      </trkpt>
      <trkpt lat="44.21864" lon="1.97685">
        <ele>213</ele>
        <time>2014-08-15T14:02:24Z</time>
      </trkpt>
      <trkpt lat="44.21862" lon="1.9769">
        <ele>212</ele>
        <time>2014-08-15T14:02:26Z</time>
      </trkpt>
      <trkpt lat="44.21864" lon="1.97699">
        <ele>212</ele>
        <time>2014-08-15T14:02:28Z</time>
      </trkpt>
      <trkpt lat="44.2187" lon="1.97713">
        <ele>213</ele>
        <time>2014-08-15T14:02:31Z</time>
      </trkpt>
      <trkpt lat="44.21875" lon="1.97723">
        <ele>214</ele>
        <time>2014-08-15T14:02:33Z</time>
      </trkpt>
      <trkpt lat="44.21884" lon="1.97742">
        <ele>215</ele>
        <time>2014-08-15T14:02:36Z</time>
      </trkpt>
      <trkpt lat="44.21891" lon="1.97756">
        <ele>216</ele>
        <time>2014-08-15T14:02:38Z</time>
      </trkpt>
      <trkpt lat="44.21901" lon="1.97776">
        <ele>217</ele>
        <time>2014-08-15T14:02:41Z</time>
      </trkpt>
      <trkpt lat="44.21908" lon="1.97787">
        <ele>218</ele>
        <time>2014-08-15T14:02:43Z</time>
      </trkpt>
      <trkpt lat="44.21914" lon="1.978">
        <ele>218</ele>
        <time>2014-08-15T14:02:45Z</time>
      </trkpt>
      <trkpt lat="44.21923" lon="1.97817">
        <ele>219</ele>
        <time>2014-08-15T14:02:48Z</time>
      </trkpt>
      <trkpt lat="44.21928" lon="1.97828">
        <ele>220</ele>
        <time>2014-08-15T14:02:50Z</time>
      </trkpt>
      <trkpt lat="44.21933" lon="1.97839">
        <ele>221</ele>
        <time>2014-08-15T14:02:52Z</time>
      </trkpt>
      <trkpt lat="44.21938" lon="1.97855">
        <ele>222</ele>
        <time>2014-08-15T14:02:55Z</time>
      </trkpt>
      <trkpt lat="44.21942" lon="1.97864">
        <ele>223</ele>
        <time>2014-08-15T14:02:57Z</time>
      </trkpt>
      <trkpt lat="44.21945" lon="1.97872">
        <ele>223</ele>
        <time>2014-08-15T14:02:59Z</time>
      </trkpt>
      <trkpt lat="44.21949" lon="1.97885">
        <ele>224</ele>
        <time>2014-08-15T14:03:02Z</time>
      </trkpt>
      <trkpt lat="44.21952" lon="1.97894">
        <ele>224</ele>
        <time>2014-08-15T14:03:04Z</time>
      </trkpt>
      <trkpt lat="44.21957" lon="1.97908">
        <ele>225</ele>
        <time>2014-08-15T14:03:07Z</time>
      </trkpt>
      <trkpt lat="44.2196" lon="1.97917">
        <ele>226</ele>
        <time>2014-08-15T14:03:09Z</time>
      </trkpt>
      <trkpt lat="44.21963" lon="1.97926">
        <ele>226</ele>
        <time>2014-08-15T14:03:11Z</time>
      </trkpt>
      <trkpt lat="44.21967" lon="1.97941">
        <ele>227</ele>
        <time>2014-08-15T14:03:14Z</time>
      </trkpt>
      <trkpt lat="44.2197" lon="1.97951">
        <ele>228</ele>
        <time>2014-08-15T14:03:16Z</time>
      </trkpt>
      <trkpt lat="44.21973" lon="1.97966">
        <ele>229</ele>
        <time>2014-08-15T14:03:19Z</time>
      </trkpt>
      <trkpt lat="44.21974" lon="1.97975">
        <ele>230</ele>
        <time>2014-08-15T14:03:21Z</time>
      </trkpt>
      <trkpt lat="44.21976" lon="1.97985">
        <ele>230</ele>
        <time>2014-08-15T14:03:23Z</time>
      </trkpt>
      <trkpt lat="44.21977" lon="1.97996">
        <ele>231</ele>
        <time>2014-08-15T14:03:25Z</time>
      </trkpt>
      <trkpt lat="44.21978" lon="1.98006">
        <ele>231</ele>
        <time>2014-08-15T14:03:27Z</time>
      </trkpt>
      <trkpt lat="44.21978" lon="1.9802">
        <ele>232</ele>
        <time>2014-08-15T14:03:30Z</time>
      </trkpt>
      <trkpt lat="44.21979" lon="1.98035">
        <ele>233</ele>
        <time>2014-08-15T14:03:33Z</time>
      </trkpt>
      <trkpt lat="44.21979" lon="1.98048">
        <ele>234</ele>
        <time>2014-08-15T14:03:36Z</time>
      </trkpt>
      <trkpt lat="44.21979" lon="1.98062">
        <ele>235</ele>
        <time>2014-08-15T14:03:39Z</time>
      </trkpt>
      <trkpt lat="44.21979" lon="1.98071">
        <ele>236</ele>
        <time>2014-08-15T14:03:41Z</time>
      </trkpt>
      <trkpt lat="44.21977" lon="1.98084">
        <ele>236</ele>
        <time>2014-08-15T14:03:44Z</time>
      </trkpt>
      <trkpt lat="44.21976" lon="1.98093">
        <ele>237</ele>
        <time>2014-08-15T14:03:46Z</time>
      </trkpt>
      <trkpt lat="44.21976" lon="1.98108">
        <ele>238</ele>
        <time>2014-08-15T14:03:49Z</time>
      </trkpt>
      <trkpt lat="44.21976" lon="1.98117">
        <ele>238</ele>
        <time>2014-08-15T14:03:51Z</time>
      </trkpt>
      <trkpt lat="44.21976" lon="1.98132">
        <ele>239</ele>
        <time>2014-08-15T14:03:54Z</time>
      </trkpt>
      <trkpt lat="44.21976" lon="1.98142">
        <ele>240</ele>
        <time>2014-08-15T14:03:56Z</time>
      </trkpt>
      <trkpt lat="44.21976" lon="1.98152">
        <ele>240</ele>
        <time>2014-08-15T14:03:58Z</time>
      </trkpt>
      <trkpt lat="44.21977" lon="1.98167">
        <ele>241</ele>
        <time>2014-08-15T14:04:01Z</time>
      </trkpt>
      <trkpt lat="44.21978" lon="1.98177">
        <ele>241</ele>
        <time>2014-08-15T14:04:03Z</time>
      </trkpt>
      <trkpt lat="44.2198" lon="1.98187">
        <ele>242</ele>
        <time>2014-08-15T14:04:05Z</time>
      </trkpt>
      <trkpt lat="44.21982" lon="1.98198">
        <ele>243</ele>
        <time>2014-08-15T14:04:07Z</time>
      </trkpt>
      <trkpt lat="44.21986" lon="1.98213">
        <ele>243</ele>
        <time>2014-08-15T14:04:10Z</time>
      </trkpt>
      <trkpt lat="44.21988" lon="1.98223">
        <ele>244</ele>
        <time>2014-08-15T14:04:12Z</time>
      </trkpt>
      <trkpt lat="44.2199" lon="1.98233">
        <ele>244</ele>
        <time>2014-08-15T14:04:14Z</time>
      </trkpt>
      <trkpt lat="44.21992" lon="1.98243">
        <ele>245</ele>
        <time>2014-08-15T14:04:16Z</time>
      </trkpt>
      <trkpt lat="44.21995" lon="1.98253">
        <ele>246</ele>
        <time>2014-08-15T14:04:18Z</time>
      </trkpt>
      <trkpt lat="44.21998" lon="1.98268">
        <ele>247</ele>
        <time>2014-08-15T14:04:21Z</time>
      </trkpt>
      <trkpt lat="44.21999" lon="1.98278">
        <ele>247</ele>
        <time>2014-08-15T14:04:23Z</time>
      </trkpt>
      <trkpt lat="44.22001" lon="1.98287">
        <ele>248</ele>
        <time>2014-08-15T14:04:25Z</time>
      </trkpt>
      <trkpt lat="44.22002" lon="1.98299">
        <ele>248</ele>
        <time>2014-08-15T14:04:28Z</time>
      </trkpt>
      <trkpt lat="44.22004" lon="1.9831">
        <ele>249</ele>
        <time>2014-08-15T14:04:31Z</time>
      </trkpt>
      <trkpt lat="44.22005" lon="1.98319">
        <ele>250</ele>
        <time>2014-08-15T14:04:33Z</time>
      </trkpt>
      <trkpt lat="44.22006" lon="1.98332">
        <ele>251</ele>
        <time>2014-08-15T14:04:36Z</time>
      </trkpt>
      <trkpt lat="44.22007" lon="1.98342">
        <ele>251</ele>
        <time>2014-08-15T14:04:38Z</time>
      </trkpt>
      <trkpt lat="44.22008" lon="1.98351">
        <ele>252</ele>
        <time>2014-08-15T14:04:40Z</time>
      </trkpt>
      <trkpt lat="44.22009" lon="1.98358">
        <ele>252</ele>
        <time>2014-08-15T14:04:42Z</time>
      </trkpt>
      <trkpt lat="44.22009" lon="1.98366">
        <ele>253</ele>
        <time>2014-08-15T14:04:44Z</time>
      </trkpt>
      <trkpt lat="44.22011" lon="1.98373">
        <ele>253</ele>
        <time>2014-08-15T14:04:46Z</time>
      </trkpt>
      <trkpt lat="44.22012" lon="1.98381">
        <ele>254</ele>
        <time>2014-08-15T14:04:48Z</time>
      </trkpt>
      <trkpt lat="44.22012" lon="1.9839">
        <ele>255</ele>
        <time>2014-08-15T14:04:50Z</time>
      </trkpt>
      <trkpt lat="44.22012" lon="1.98399">
        <ele>255</ele>
        <time>2014-08-15T14:04:52Z</time>
      </trkpt>
      <trkpt lat="44.22012" lon="1.98414">
        <ele>256</ele>
        <time>2014-08-15T14:04:55Z</time>
      </trkpt>
      <trkpt lat="44.22011" lon="1.98424">
        <ele>257</ele>
        <time>2014-08-15T14:04:57Z</time>
      </trkpt>
      <trkpt lat="44.22011" lon="1.98434">
        <ele>257</ele>
        <time>2014-08-15T14:04:59Z</time>
      </trkpt>
      <trkpt lat="44.22011" lon="1.98443">
        <ele>258</ele>
        <time>2014-08-15T14:05:01Z</time>
      </trkpt>
      <trkpt lat="44.2201" lon="1.98452">
        <ele>258</ele>
        <time>2014-08-15T14:05:03Z</time>
      </trkpt>
      <trkpt lat="44.2201" lon="1.98462">
        <ele>259</ele>
        <time>2014-08-15T14:05:05Z</time>
      </trkpt>
      <trkpt lat="44.22012" lon="1.98471">
        <ele>260</ele>
        <time>2014-08-15T14:05:07Z</time>
      </trkpt>
      <trkpt lat="44.22013" lon="1.98481">
        <ele>260</ele>
        <time>2014-08-15T14:05:09Z</time>
      </trkpt>
      <trkpt lat="44.22015" lon="1.9849">
        <ele>261</ele>
        <time>2014-08-15T14:05:11Z</time>
      </trkpt>
      <trkpt lat="44.22018" lon="1.98497">
        <ele>262</ele>
        <time>2014-08-15T14:05:13Z</time>
      </trkpt>
      <trkpt lat="44.22021" lon="1.98504">
        <ele>262</ele>
        <time>2014-08-15T14:05:15Z</time>
      </trkpt>
      <trkpt lat="44.22026" lon="1.98514">
        <ele>263</ele>
        <time>2014-08-15T14:05:18Z</time>
      </trkpt>
      <trkpt lat="44.22028" lon="1.98521">
        <ele>264</ele>
        <time>2014-08-15T14:05:20Z</time>
      </trkpt>
      <trkpt lat="44.22029" lon="1.98528">
        <ele>264</ele>
        <time>2014-08-15T14:05:22Z</time>
      </trkpt>
      <trkpt lat="44.22029" lon="1.98536">
        <ele>265</ele>
        <time>2014-08-15T14:05:24Z</time>
      </trkpt>
      <trkpt lat="44.22027" lon="1.98544">
        <ele>265</ele>
        <time>2014-08-15T14:05:26Z</time>
      </trkpt>
      <trkpt lat="44.22024" lon="1.98551">
        <ele>266</ele>
        <time>2014-08-15T14:05:28Z</time>
      </trkpt>
      <trkpt lat="44.22022" lon="1.98562">
        <ele>267</ele>
        <time>2014-08-15T14:05:31Z</time>
      </trkpt>
      <trkpt lat="44.2202" lon="1.9857">
        <ele>267</ele>
        <time>2014-08-15T14:05:33Z</time>
      </trkpt>
      <trkpt lat="44.22015" lon="1.98581">
        <ele>268</ele>
        <time>2014-08-15T14:05:36Z</time>
      </trkpt>
      <trkpt lat="44.22012" lon="1.98589">
        <ele>269</ele>
        <time>2014-08-15T14:05:38Z</time>
      </trkpt>
      <trkpt lat="44.22008" lon="1.98596">
        <ele>270</ele>
        <time>2014-08-15T14:05:40Z</time>
      </trkpt>
      <trkpt lat="44.22004" lon="1.98603">
        <ele>270</ele>
        <time>2014-08-15T14:05:42Z</time>
      </trkpt>
      <trkpt lat="44.21999" lon="1.98609">
        <ele>271</ele>
        <time>2014-08-15T14:05:44Z</time>
      </trkpt>
      <trkpt lat="44.21993" lon="1.98619">
        <ele>271</ele>
        <time>2014-08-15T14:05:47Z</time>
      </trkpt>
      <trkpt lat="44.21986" lon="1.98629">
        <ele>272</ele>
        <time>2014-08-15T14:05:50Z</time>
      </trkpt>
      <trkpt lat="44.21981" lon="1.98636">
        <ele>273</ele>
        <time>2014-08-15T14:05:52Z</time>
      </trkpt>
      <trkpt lat="44.21975" lon="1.98647">
        <ele>274</ele>
        <time>2014-08-15T14:05:55Z</time>
      </trkpt>
      <trkpt lat="44.2197" lon="1.98654">
        <ele>274</ele>
        <time>2014-08-15T14:05:57Z</time>
      </trkpt>
      <trkpt lat="44.21961" lon="1.98665">
        <ele>275</ele>
        <time>2014-08-15T14:06:00Z</time>
      </trkpt>
      <trkpt lat="44.21954" lon="1.98676">
        <ele>276</ele>
        <time>2014-08-15T14:06:03Z</time>
      </trkpt>
      <trkpt lat="44.21949" lon="1.98683">
        <ele>277</ele>
        <time>2014-08-15T14:06:05Z</time>
      </trkpt>
      <trkpt lat="44.21942" lon="1.98694">
        <ele>278</ele>
        <time>2014-08-15T14:06:08Z</time>
      </trkpt>
      <trkpt lat="44.21938" lon="1.98702">
        <ele>279</ele>
        <time>2014-08-15T14:06:10Z</time>
      </trkpt>
      <trkpt lat="44.2193" lon="1.98714">
        <ele>279</ele>
        <time>2014-08-15T14:06:13Z</time>
      </trkpt>
      <trkpt lat="44.21924" lon="1.98721">
        <ele>280</ele>
        <time>2014-08-15T14:06:15Z</time>
      </trkpt>
      <trkpt lat="44.21916" lon="1.98733">
        <ele>281</ele>
        <time>2014-08-15T14:06:18Z</time>
      </trkpt>
      <trkpt lat="44.21911" lon="1.98742">
        <ele>282</ele>
        <time>2014-08-15T14:06:20Z</time>
      </trkpt>
      <trkpt lat="44.21905" lon="1.9875">
        <ele>282</ele>
        <time>2014-08-15T14:06:22Z</time>
      </trkpt>
      <trkpt lat="44.21899" lon="1.98759">
        <ele>283</ele>
        <time>2014-08-15T14:06:24Z</time>
      </trkpt>
      <trkpt lat="44.21891" lon="1.98772">
        <ele>284</ele>
        <time>2014-08-15T14:06:27Z</time>
      </trkpt>
      <trkpt lat="44.21886" lon="1.98781">
        <ele>285</ele>
        <time>2014-08-15T14:06:29Z</time>
      </trkpt>
      <trkpt lat="44.21881" lon="1.98789">
        <ele>286</ele>
        <time>2014-08-15T14:06:31Z</time>
      </trkpt>
      <trkpt lat="44.21875" lon="1.98796">
        <ele>287</ele>
        <time>2014-08-15T14:06:33Z</time>
      </trkpt>
      <trkpt lat="44.21868" lon="1.98809">
        <ele>288</ele>
        <time>2014-08-15T14:06:36Z</time>
      </trkpt>
      <trkpt lat="44.21864" lon="1.98817">
        <ele>289</ele>
        <time>2014-08-15T14:06:38Z</time>
      </trkpt>
      <trkpt lat="44.2186" lon="1.98826">
        <ele>289</ele>
        <time>2014-08-15T14:06:40Z</time>
      </trkpt>
      <trkpt lat="44.21857" lon="1.98841">
        <ele>290</ele>
        <time>2014-08-15T14:06:43Z</time>
      </trkpt>
      <trkpt lat="44.21856" lon="1.98851">
        <ele>290</ele>
        <time>2014-08-15T14:06:45Z</time>
      </trkpt>
      <trkpt lat="44.21856" lon="1.98865">
        <ele>291</ele>
        <time>2014-08-15T14:06:48Z</time>
      </trkpt>
      <trkpt lat="44.21857" lon="1.9888">
        <ele>292</ele>
        <time>2014-08-15T14:06:51Z</time>
      </trkpt>
      <trkpt lat="44.21859" lon="1.9889">
        <ele>292</ele>
        <time>2014-08-15T14:06:53Z</time>
      </trkpt>
      <trkpt lat="44.2186" lon="1.98907">
        <ele>293</ele>
        <time>2014-08-15T14:06:56Z</time>
      </trkpt>
      <trkpt lat="44.21863" lon="1.98919">
        <ele>293</ele>
        <time>2014-08-15T14:06:58Z</time>
      </trkpt>
      <trkpt lat="44.21865" lon="1.98933">
        <ele>293</ele>
        <time>2014-08-15T14:07:00Z</time>
      </trkpt>
      <trkpt lat="44.21865" lon="1.98954">
        <ele>293</ele>
        <time>2014-08-15T14:07:03Z</time>
      </trkpt>
      <trkpt lat="44.21866" lon="1.98976">
        <ele>293</ele>
        <time>2014-08-15T14:07:06Z</time>
      </trkpt>
      <trkpt lat="44.21867" lon="1.99001">
        <ele>293</ele>
        <time>2014-08-15T14:07:09Z</time>
      </trkpt>
      <trkpt lat="44.21868" lon="1.99027">
        <ele>293</ele>
        <time>2014-08-15T14:07:12Z</time>
      </trkpt>
      <trkpt lat="44.21868" lon="1.99043">
        <ele>293</ele>
        <time>2014-08-15T14:07:14Z</time>
      </trkpt>
      <trkpt lat="44.21866" lon="1.99067">
        <ele>293</ele>
        <time>2014-08-15T14:07:17Z</time>
      </trkpt>
      <trkpt lat="44.2186" lon="1.99082">
        <ele>293</ele>
        <time>2014-08-15T14:07:19Z</time>
      </trkpt>
      <trkpt lat="44.2185" lon="1.99099">
        <ele>293</ele>
        <time>2014-08-15T14:07:22Z</time>
      </trkpt>
      <trkpt lat="44.21843" lon="1.99108">
        <ele>293</ele>
        <time>2014-08-15T14:07:24Z</time>
      </trkpt>
      <trkpt lat="44.21836" lon="1.99116">
        <ele>294</ele>
        <time>2014-08-15T14:07:26Z</time>
      </trkpt>
      <trkpt lat="44.21826" lon="1.99127">
        <ele>295</ele>
        <time>2014-08-15T14:07:29Z</time>
      </trkpt>
      <trkpt lat="44.21816" lon="1.9914">
        <ele>295</ele>
        <time>2014-08-15T14:07:32Z</time>
      </trkpt>
      <trkpt lat="44.21806" lon="1.99152">
        <ele>297</ele>
        <time>2014-08-15T14:07:35Z</time>
      </trkpt>
      <trkpt lat="44.218" lon="1.9916">
        <ele>298</ele>
        <time>2014-08-15T14:07:37Z</time>
      </trkpt>
      <trkpt lat="44.21795" lon="1.99167">
        <ele>298</ele>
        <time>2014-08-15T14:07:39Z</time>
      </trkpt>
      <trkpt lat="44.21788" lon="1.99174">
        <ele>299</ele>
        <time>2014-08-15T14:07:41Z</time>
      </trkpt>
      <trkpt lat="44.2178" lon="1.99186">
        <ele>300</ele>
        <time>2014-08-15T14:07:44Z</time>
      </trkpt>
      <trkpt lat="44.21775" lon="1.99192">
        <ele>301</ele>
        <time>2014-08-15T14:07:46Z</time>
      </trkpt>
      <trkpt lat="44.2177" lon="1.99198">
        <ele>302</ele>
        <time>2014-08-15T14:07:48Z</time>
      </trkpt>
      <trkpt lat="44.21766" lon="1.99204">
        <ele>302</ele>
        <time>2014-08-15T14:07:50Z</time>
      </trkpt>
      <trkpt lat="44.21762" lon="1.9921">
        <ele>303</ele>
        <time>2014-08-15T14:07:52Z</time>
      </trkpt>
      <trkpt lat="44.21754" lon="1.9922">
        <ele>304</ele>
        <time>2014-08-15T14:07:55Z</time>
      </trkpt>
      <trkpt lat="44.2175" lon="1.99225">
        <ele>305</ele>
        <time>2014-08-15T14:07:57Z</time>
      </trkpt>
      <trkpt lat="44.21745" lon="1.99232">
        <ele>306</ele>
        <time>2014-08-15T14:07:59Z</time>
      </trkpt>
      <trkpt lat="44.21741" lon="1.99238">
        <ele>306</ele>
        <time>2014-08-15T14:08:01Z</time>
      </trkpt>
      <trkpt lat="44.21736" lon="1.99244">
        <ele>307</ele>
        <time>2014-08-15T14:08:03Z</time>
      </trkpt>
      <trkpt lat="44.2173" lon="1.99254">
        <ele>308</ele>
        <time>2014-08-15T14:08:06Z</time>
      </trkpt>
      <trkpt lat="44.21725" lon="1.9926">
        <ele>308</ele>
        <time>2014-08-15T14:08:08Z</time>
      </trkpt>
      <trkpt lat="44.21715" lon="1.9927">
        <ele>309</ele>
        <time>2014-08-15T14:08:11Z</time>
      </trkpt>
      <trkpt lat="44.21706" lon="1.99281">
        <ele>309</ele>
        <time>2014-08-15T14:08:14Z</time>
      </trkpt>
      <trkpt lat="44.21696" lon="1.99293">
        <ele>310</ele>
        <time>2014-08-15T14:08:17Z</time>
      </trkpt>
      <trkpt lat="44.2169" lon="1.99301">
        <ele>310</ele>
        <time>2014-08-15T14:08:19Z</time>
      </trkpt>
      <trkpt lat="44.2168" lon="1.99313">
        <ele>311</ele>
        <time>2014-08-15T14:08:22Z</time>
      </trkpt>
      <trkpt lat="44.21674" lon="1.99321">
        <ele>312</ele>
        <time>2014-08-15T14:08:24Z</time>
      </trkpt>
      <trkpt lat="44.21668" lon="1.99329">
        <ele>313</ele>
        <time>2014-08-15T14:08:26Z</time>
      </trkpt>
      <trkpt lat="44.21661" lon="1.99336">
        <ele>313</ele>
        <time>2014-08-15T14:08:28Z</time>
      </trkpt>
      <trkpt lat="44.21655" lon="1.99344">
        <ele>314</ele>
        <time>2014-08-15T14:08:30Z</time>
      </trkpt>
      <trkpt lat="44.21646" lon="1.99355">
        <ele>314</ele>
        <time>2014-08-15T14:08:33Z</time>
      </trkpt>
      <trkpt lat="44.2164" lon="1.99363">
        <ele>315</ele>
        <time>2014-08-15T14:08:35Z</time>
      </trkpt>
      <trkpt lat="44.21633" lon="1.99371">
        <ele>315</ele>
        <time>2014-08-15T14:08:37Z</time>
      </trkpt>
      <trkpt lat="44.21627" lon="1.99379">
        <ele>316</ele>
        <time>2014-08-15T14:08:39Z</time>
      </trkpt>
      <trkpt lat="44.2162" lon="1.99388">
        <ele>316</ele>
        <time>2014-08-15T14:08:41Z</time>
      </trkpt>
      <trkpt lat="44.21609" lon="1.99401">
        <ele>317</ele>
        <time>2014-08-15T14:08:44Z</time>
      </trkpt>
      <trkpt lat="44.21603" lon="1.9941">
        <ele>318</ele>
        <time>2014-08-15T14:08:46Z</time>
      </trkpt>
      <trkpt lat="44.21593" lon="1.99423">
        <ele>319</ele>
        <time>2014-08-15T14:08:49Z</time>
      </trkpt>
      <trkpt lat="44.21586" lon="1.99431">
        <ele>320</ele>
        <time>2014-08-15T14:08:51Z</time>
      </trkpt>
      <trkpt lat="44.2158" lon="1.99439">
        <ele>320</ele>
        <time>2014-08-15T14:08:53Z</time>
      </trkpt>
      <trkpt lat="44.21574" lon="1.99446">
        <ele>320</ele>
        <time>2014-08-15T14:08:55Z</time>
      </trkpt>
      <trkpt lat="44.21568" lon="1.99452">
        <ele>321</ele>
        <time>2014-08-15T14:08:57Z</time>
      </trkpt>
      <trkpt lat="44.21562" lon="1.99458">
        <ele>321</ele>
        <time>2014-08-15T14:08:59Z</time>
      </trkpt>
      <trkpt lat="44.21556" lon="1.99464">
        <ele>322</ele>
        <time>2014-08-15T14:09:01Z</time>
      </trkpt>
      <trkpt lat="44.21546" lon="1.99472">
        <ele>323</ele>
        <time>2014-08-15T14:09:04Z</time>
      </trkpt>
      <trkpt lat="44.21536" lon="1.9948">
        <ele>324</ele>
        <time>2014-08-15T14:09:07Z</time>
      </trkpt>
      <trkpt lat="44.21529" lon="1.99484">
        <ele>324</ele>
        <time>2014-08-15T14:09:09Z</time>
      </trkpt>
      <trkpt lat="44.21522" lon="1.99489">
        <ele>325</ele>
        <time>2014-08-15T14:09:11Z</time>
      </trkpt>
      <trkpt lat="44.21515" lon="1.99494">
        <ele>326</ele>
        <time>2014-08-15T14:09:13Z</time>
      </trkpt>
      <trkpt lat="44.21505" lon="1.99502">
        <ele>326</ele>
        <time>2014-08-15T14:09:16Z</time>
      </trkpt>
      <trkpt lat="44.21498" lon="1.99508">
        <ele>327</ele>
        <time>2014-08-15T14:09:18Z</time>
      </trkpt>
      <trkpt lat="44.21491" lon="1.99514">
        <ele>327</ele>
        <time>2014-08-15T14:09:20Z</time>
      </trkpt>
      <trkpt lat="44.21481" lon="1.99524">
        <ele>328</ele>
        <time>2014-08-15T14:09:23Z</time>
      </trkpt>
      <trkpt lat="44.21474" lon="1.9953">
        <ele>328</ele>
        <time>2014-08-15T14:09:25Z</time>
      </trkpt>
      <trkpt lat="44.21463" lon="1.99539">
        <ele>329</ele>
        <time>2014-08-15T14:09:28Z</time>
      </trkpt>
      <trkpt lat="44.21456" lon="1.99546">
        <ele>329</ele>
        <time>2014-08-15T14:09:30Z</time>
      </trkpt>
      <trkpt lat="44.21444" lon="1.99557">
        <ele>330</ele>
        <time>2014-08-15T14:09:33Z</time>
      </trkpt>
      <trkpt lat="44.21437" lon="1.99566">
        <ele>331</ele>
        <time>2014-08-15T14:09:35Z</time>
      </trkpt>
      <trkpt lat="44.21427" lon="1.9958">
        <ele>332</ele>
        <time>2014-08-15T14:09:38Z</time>
      </trkpt>
      <trkpt lat="44.21421" lon="1.99591">
        <ele>332</ele>
        <time>2014-08-15T14:09:40Z</time>
      </trkpt>
      <trkpt lat="44.21416" lon="1.99601">
        <ele>333</ele>
        <time>2014-08-15T14:09:42Z</time>
      </trkpt>
      <trkpt lat="44.21407" lon="1.99618">
        <ele>334</ele>
        <time>2014-08-15T14:09:45Z</time>
      </trkpt>
      <trkpt lat="44.21402" lon="1.99628">
        <ele>334</ele>
        <time>2014-08-15T14:09:47Z</time>
      </trkpt>
      <trkpt lat="44.21395" lon="1.99644">
        <ele>335</ele>
        <time>2014-08-15T14:09:50Z</time>
      </trkpt>
      <trkpt lat="44.2139" lon="1.99654">
        <ele>336</ele>
        <time>2014-08-15T14:09:52Z</time>
      </trkpt>
      <trkpt lat="44.21384" lon="1.9967">
        <ele>337</ele>
        <time>2014-08-15T14:09:55Z</time>
      </trkpt>
      <trkpt lat="44.21381" lon="1.99681">
        <ele>337</ele>
        <time>2014-08-15T14:09:57Z</time>
      </trkpt>
      <trkpt lat="44.21378" lon="1.99693">
        <ele>337</ele>
        <time>2014-08-15T14:09:59Z</time>
      </trkpt>
      <trkpt lat="44.21377" lon="1.99705">
        <ele>338</ele>
        <time>2014-08-15T14:10:01Z</time>
      </trkpt>
      <trkpt lat="44.21376" lon="1.99723">
        <ele>339</ele>
        <time>2014-08-15T14:10:04Z</time>
      </trkpt>
      <trkpt lat="44.21376" lon="1.99736">
        <ele>339</ele>
        <time>2014-08-15T14:10:06Z</time>
      </trkpt>
      <trkpt lat="44.21376" lon="1.99748">
        <ele>340</ele>
        <time>2014-08-15T14:10:08Z</time>
      </trkpt>
      <trkpt lat="44.21376" lon="1.9976">
        <ele>341</ele>
        <time>2014-08-15T14:10:10Z</time>
      </trkpt>
      <trkpt lat="44.21376" lon="1.99773">
        <ele>341</ele>
        <time>2014-08-15T14:10:12Z</time>
      </trkpt>
      <trkpt lat="44.21375" lon="1.99792">
        <ele>342</ele>
        <time>2014-08-15T14:10:15Z</time>
      </trkpt>
      <trkpt lat="44.21376" lon="1.99811">
        <ele>342</ele>
        <time>2014-08-15T14:10:18Z</time>
      </trkpt>
      <trkpt lat="44.21375" lon="1.99831">
        <ele>343</ele>
        <time>2014-08-15T14:10:21Z</time>
      </trkpt>
      <trkpt lat="44.21374" lon="1.9985">
        <ele>344</ele>
        <time>2014-08-15T14:10:24Z</time>
      </trkpt>
      <trkpt lat="44.21373" lon="1.99863">
        <ele>345</ele>
        <time>2014-08-15T14:10:26Z</time>
      </trkpt>
      <trkpt lat="44.21373" lon="1.99876">
        <ele>345</ele>
        <time>2014-08-15T14:10:28Z</time>
      </trkpt>
      <trkpt lat="44.21371" lon="1.99894">
        <ele>346</ele>
        <time>2014-08-15T14:10:31Z</time>
      </trkpt>
      <trkpt lat="44.2137" lon="1.99913">
        <ele>347</ele>
        <time>2014-08-15T14:10:34Z</time>
      </trkpt>
      <trkpt lat="44.21368" lon="1.99926">
        <ele>347</ele>
        <time>2014-08-15T14:10:36Z</time>
      </trkpt>
      <trkpt lat="44.21366" lon="1.99945">
        <ele>348</ele>
        <time>2014-08-15T14:10:39Z</time>
      </trkpt>
      <trkpt lat="44.21364" lon="1.99963">
        <ele>349</ele>
        <time>2014-08-15T14:10:42Z</time>
      </trkpt>
      <trkpt lat="44.21363" lon="1.99975">
        <ele>350</ele>
        <time>2014-08-15T14:10:44Z</time>
      </trkpt>
      <trkpt lat="44.21362" lon="1.99987">
        <ele>350</ele>
        <time>2014-08-15T14:10:46Z</time>
      </trkpt>
      <trkpt lat="44.21359" lon="2.00009">
        <ele>350</ele>
        <time>2014-08-15T14:10:49Z</time>
      </trkpt>
      <trkpt lat="44.21356" lon="2.00032">
        <ele>350</ele>
        <time>2014-08-15T14:10:52Z</time>
      </trkpt>
      <trkpt lat="44.21352" lon="2.00057">
        <ele>350</ele>
        <time>2014-08-15T14:10:55Z</time>
      </trkpt>
      <trkpt lat="44.21346" lon="2.00081">
        <ele>350</ele>
        <time>2014-08-15T14:10:58Z</time>
      </trkpt>
      <trkpt lat="44.21339" lon="2.00108">
        <ele>350</ele>
        <time>2014-08-15T14:11:01Z</time>
      </trkpt>
      <trkpt lat="44.21333" lon="2.00127">
        <ele>350</ele>
        <time>2014-08-15T14:11:03Z</time>
      </trkpt>
      <trkpt lat="44.21323" lon="2.00156">
        <ele>350</ele>
        <time>2014-08-15T14:11:06Z</time>
      </trkpt>
      <trkpt lat="44.21314" lon="2.00187">
        <ele>349</ele>
        <time>2014-08-15T14:11:09Z</time>
      </trkpt>
      <trkpt lat="44.21309" lon="2.00209">
        <ele>349</ele>
        <time>2014-08-15T14:11:11Z</time>
      </trkpt>
      <trkpt lat="44.21302" lon="2.00244">
        <ele>348</ele>
        <time>2014-08-15T14:11:14Z</time>
      </trkpt>
      <trkpt lat="44.21294" lon="2.00284">
        <ele>348</ele>
        <time>2014-08-15T14:11:17Z</time>
      </trkpt>
      <trkpt lat="44.21286" lon="2.00329">
        <ele>346</ele>
        <time>2014-08-15T14:11:20Z</time>
      </trkpt>
      <trkpt lat="44.21278" lon="2.00361">
        <ele>345</ele>
        <time>2014-08-15T14:11:22Z</time>
      </trkpt>
      <trkpt lat="44.21264" lon="2.00408">
        <ele>342</ele>
        <time>2014-08-15T14:11:25Z</time>
      </trkpt>
      <trkpt lat="44.21245" lon="2.00454">
        <ele>340</ele>
        <time>2014-08-15T14:11:28Z</time>
      </trkpt>
      <trkpt lat="44.21225" lon="2.00495">
        <ele>338</ele>
        <time>2014-08-15T14:11:31Z</time>
      </trkpt>
      <trkpt lat="44.21211" lon="2.0052">
        <ele>337</ele>
        <time>2014-08-15T14:11:33Z</time>
      </trkpt>
      <trkpt lat="44.21191" lon="2.00557">
        <ele>336</ele>
        <time>2014-08-15T14:11:36Z</time>
      </trkpt>
      <trkpt lat="44.2117" lon="2.00593">
        <ele>335</ele>
        <time>2014-08-15T14:11:39Z</time>
      </trkpt>
      <trkpt lat="44.21146" lon="2.00623">
        <ele>334</ele>
        <time>2014-08-15T14:11:42Z</time>
      </trkpt>
      <trkpt lat="44.2112" lon="2.0065">
        <ele>333</ele>
        <time>2014-08-15T14:11:45Z</time>
      </trkpt>
      <trkpt lat="44.21094" lon="2.00676">
        <ele>332</ele>
        <time>2014-08-15T14:11:48Z</time>
      </trkpt>
      <trkpt lat="44.21068" lon="2.00701">
        <ele>331</ele>
        <time>2014-08-15T14:11:51Z</time>
      </trkpt>
      <trkpt lat="44.21051" lon="2.00718">
        <ele>331</ele>
        <time>2014-08-15T14:11:53Z</time>
      </trkpt>
      <trkpt lat="44.21026" lon="2.00743">
        <ele>330</ele>
        <time>2014-08-15T14:11:56Z</time>
      </trkpt>
      <trkpt lat="44.21" lon="2.00767">
        <ele>329</ele>
        <time>2014-08-15T14:11:59Z</time>
      </trkpt>
      <trkpt lat="44.20972" lon="2.00789">
        <ele>329</ele>
        <time>2014-08-15T14:12:02Z</time>
      </trkpt>
      <trkpt lat="44.20952" lon="2.00803">
        <ele>328</ele>
        <time>2014-08-15T14:12:04Z</time>
      </trkpt>
      <trkpt lat="44.20923" lon="2.00823">
        <ele>327</ele>
        <time>2014-08-15T14:12:07Z</time>
      </trkpt>
      <trkpt lat="44.20904" lon="2.00836">
        <ele>327</ele>
        <time>2014-08-15T14:12:09Z</time>
      </trkpt>
      <trkpt lat="44.20885" lon="2.00849">
        <ele>326</ele>
        <time>2014-08-15T14:12:11Z</time>
      </trkpt>
      <trkpt lat="44.20858" lon="2.00868">
        <ele>325</ele>
        <time>2014-08-15T14:12:14Z</time>
      </trkpt>
      <trkpt lat="44.20841" lon="2.0088">
        <ele>324</ele>
        <time>2014-08-15T14:12:16Z</time>
      </trkpt>
      <trkpt lat="44.20815" lon="2.00898">
        <ele>323</ele>
        <time>2014-08-15T14:12:19Z</time>
      </trkpt>
      <trkpt lat="44.20788" lon="2.00917">
        <ele>323</ele>
        <time>2014-08-15T14:12:22Z</time>
      </trkpt>
      <trkpt lat="44.2076" lon="2.00936">
        <ele>322</ele>
        <time>2014-08-15T14:12:25Z</time>
      </trkpt>
      <trkpt lat="44.20742" lon="2.00948">
        <ele>322</ele>
        <time>2014-08-15T14:12:27Z</time>
      </trkpt>
      <trkpt lat="44.20724" lon="2.00959">
        <ele>322</ele>
        <time>2014-08-15T14:12:29Z</time>
      </trkpt>
      <trkpt lat="44.20707" lon="2.00972">
        <ele>322</ele>
        <time>2014-08-15T14:12:31Z</time>
      </trkpt>
      <trkpt lat="44.20682" lon="2.00993">
        <ele>322</ele>
        <time>2014-08-15T14:12:34Z</time>
      </trkpt>
      <trkpt lat="44.2066" lon="2.01018">
        <ele>322</ele>
        <time>2014-08-15T14:12:37Z</time>
      </trkpt>
      <trkpt lat="44.20647" lon="2.01035">
        <ele>322</ele>
        <time>2014-08-15T14:12:39Z</time>
      </trkpt>
      <trkpt lat="44.20634" lon="2.01051">
        <ele>322</ele>
        <time>2014-08-15T14:12:41Z</time>
      </trkpt>
      <trkpt lat="44.20621" lon="2.01068">
        <ele>322</ele>
        <time>2014-08-15T14:12:43Z</time>
      </trkpt>
      <trkpt lat="44.20609" lon="2.01085">
        <ele>321</ele>
        <time>2014-08-15T14:12:45Z</time>
      </trkpt>
      <trkpt lat="44.20589" lon="2.01109">
        <ele>322</ele>
        <time>2014-08-15T14:12:48Z</time>
      </trkpt>
      <trkpt lat="44.2057" lon="2.01134">
        <ele>321</ele>
        <time>2014-08-15T14:12:51Z</time>
      </trkpt>
      <trkpt lat="44.20557" lon="2.01151">
        <ele>321</ele>
        <time>2014-08-15T14:12:53Z</time>
      </trkpt>
      <trkpt lat="44.20538" lon="2.01175">
        <ele>321</ele>
        <time>2014-08-15T14:12:56Z</time>
      </trkpt>
      <trkpt lat="44.2052" lon="2.01199">
        <ele>320</ele>
        <time>2014-08-15T14:12:59Z</time>
      </trkpt>
      <trkpt lat="44.20501" lon="2.01223">
        <ele>320</ele>
        <time>2014-08-15T14:13:02Z</time>
      </trkpt>
      <trkpt lat="44.20483" lon="2.01247">
        <ele>320</ele>
        <time>2014-08-15T14:13:05Z</time>
      </trkpt>
      <trkpt lat="44.20471" lon="2.01263">
        <ele>320</ele>
        <time>2014-08-15T14:13:07Z</time>
      </trkpt>
      <trkpt lat="44.20459" lon="2.01279">
        <ele>320</ele>
        <time>2014-08-15T14:13:09Z</time>
      </trkpt>
      <trkpt lat="44.20441" lon="2.01303">
        <ele>320</ele>
        <time>2014-08-15T14:13:12Z</time>
      </trkpt>
      <trkpt lat="44.20427" lon="2.0132">
        <ele>320</ele>
        <time>2014-08-15T14:13:14Z</time>
      </trkpt>
      <trkpt lat="44.20414" lon="2.01338">
        <ele>319</ele>
        <time>2014-08-15T14:13:16Z</time>
      </trkpt>
      <trkpt lat="44.20393" lon="2.01365">
        <ele>318</ele>
        <time>2014-08-15T14:13:19Z</time>
      </trkpt>
      <trkpt lat="44.20378" lon="2.01385">
        <ele>318</ele>
        <time>2014-08-15T14:13:21Z</time>
      </trkpt>
      <trkpt lat="44.20363" lon="2.01404">
        <ele>317</ele>
        <time>2014-08-15T14:13:23Z</time>
      </trkpt>
      <trkpt lat="44.2034" lon="2.01434">
        <ele>316</ele>
        <time>2014-08-15T14:13:26Z</time>
      </trkpt>
      <trkpt lat="44.20324" lon="2.01455">
        <ele>315</ele>
        <time>2014-08-15T14:13:28Z</time>
      </trkpt>
      <trkpt lat="44.203" lon="2.01487">
        <ele>314</ele>
        <time>2014-08-15T14:13:31Z</time>
      </trkpt>
      <trkpt lat="44.20284" lon="2.01508">
        <ele>313</ele>
        <time>2014-08-15T14:13:33Z</time>
      </trkpt>
      <trkpt lat="44.2026" lon="2.01539">
        <ele>312</ele>
        <time>2014-08-15T14:13:36Z</time>
      </trkpt>
      <trkpt lat="44.20237" lon="2.01569">
        <ele>311</ele>
        <time>2014-08-15T14:13:39Z</time>
      </trkpt>
      <trkpt lat="44.20222" lon="2.01589">
        <ele>310</ele>
        <time>2014-08-15T14:13:41Z</time>
      </trkpt>
      <trkpt lat="44.20201" lon="2.01618">
        <ele>309</ele>
        <time>2014-08-15T14:13:44Z</time>
      </trkpt>
      <trkpt lat="44.20186" lon="2.01638">
        <ele>309</ele>
        <time>2014-08-15T14:13:46Z</time>
      </trkpt>
      <trkpt lat="44.20172" lon="2.01659">
        <ele>308</ele>
        <time>2014-08-15T14:13:48Z</time>
      </trkpt>
      <trkpt lat="44.20153" lon="2.01694">
        <ele>306</ele>
        <time>2014-08-15T14:13:51Z</time>
      </trkpt>
      <trkpt lat="44.20141" lon="2.01721">
        <ele>306</ele>
        <time>2014-08-15T14:13:53Z</time>
      </trkpt>
      <trkpt lat="44.2013" lon="2.0175">
        <ele>304</ele>
        <time>2014-08-15T14:13:55Z</time>
      </trkpt>
      <trkpt lat="44.20118" lon="2.0178">
        <ele>302</ele>
        <time>2014-08-15T14:13:57Z</time>
      </trkpt>
      <trkpt lat="44.20106" lon="2.0181">
        <ele>301</ele>
        <time>2014-08-15T14:13:59Z</time>
      </trkpt>
      <trkpt lat="44.20097" lon="2.01844">
        <ele>299</ele>
        <time>2014-08-15T14:14:01Z</time>
      </trkpt>
      <trkpt lat="44.20097" lon="2.01899">
        <ele>295</ele>
        <time>2014-08-15T14:14:04Z</time>
      </trkpt>
      <trkpt lat="44.201" lon="2.01937">
        <ele>293</ele>
        <time>2014-08-15T14:14:06Z</time>
      </trkpt>
      <trkpt lat="44.20102" lon="2.01974">
        <ele>291</ele>
        <time>2014-08-15T14:14:08Z</time>
      </trkpt>
      <trkpt lat="44.20109" lon="2.02027">
        <ele>289</ele>
        <time>2014-08-15T14:14:11Z</time>
      </trkpt>
      <trkpt lat="44.20114" lon="2.02056">
        <ele>286</ele>
        <time>2014-08-15T14:14:13Z</time>
      </trkpt>
      <trkpt lat="44.20123" lon="2.02079">
        <ele>284</ele>
        <time>2014-08-15T14:14:15Z</time>
      </trkpt>
      <trkpt lat="44.2014" lon="2.02091">
        <ele>282</ele>
        <time>2014-08-15T14:14:17Z</time>
      </trkpt>
      <trkpt lat="44.20171" lon="2.021">
        <ele>279</ele>
        <time>2014-08-15T14:14:20Z</time>
      </trkpt>
      <trkpt lat="44.20193" lon="2.02107">
        <ele>278</ele>
        <time>2014-08-15T14:14:22Z</time>
      </trkpt>
      <trkpt lat="44.20224" lon="2.02126">
        <ele>276</ele>
        <time>2014-08-15T14:14:25Z</time>
      </trkpt>
      <trkpt lat="44.20258" lon="2.02137">
        <ele>273</ele>
        <time>2014-08-15T14:14:28Z</time>
      </trkpt>
      <trkpt lat="44.20293" lon="2.02148">
        <ele>270</ele>
        <time>2014-08-15T14:14:31Z</time>
      </trkpt>
      <trkpt lat="44.20323" lon="2.02172">
        <ele>267</ele>
        <time>2014-08-15T14:14:34Z</time>
      </trkpt>
      <trkpt lat="44.20348" lon="2.02193">
        <ele>265</ele>
        <time>2014-08-15T14:14:37Z</time>
      </trkpt>
      <trkpt lat="44.20354" lon="2.02208">
        <ele>262</ele>
        <time>2014-08-15T14:14:39Z</time>
      </trkpt>
      <trkpt lat="44.20351" lon="2.02226">
        <ele>260</ele>
        <time>2014-08-15T14:14:41Z</time>
      </trkpt>
      <trkpt lat="44.2033" lon="2.02238">
        <ele>258</ele>
        <time>2014-08-15T14:14:44Z</time>
      </trkpt>
      <trkpt lat="44.20304" lon="2.02246">
        <ele>255</ele>
        <time>2014-08-15T14:14:47Z</time>
      </trkpt>
      <trkpt lat="44.20278" lon="2.02275">
        <ele>253</ele>
        <time>2014-08-15T14:14:50Z</time>
      </trkpt>
      <trkpt lat="44.20262" lon="2.02297">
        <ele>251</ele>
        <time>2014-08-15T14:14:52Z</time>
      </trkpt>
      <trkpt lat="44.20243" lon="2.02315">
        <ele>249</ele>
        <time>2014-08-15T14:14:54Z</time>
      </trkpt>
      <trkpt lat="44.20219" lon="2.02321">
        <ele>247</ele>
        <time>2014-08-15T14:14:56Z</time>
      </trkpt>
      <trkpt lat="44.20182" lon="2.02318">
        <ele>243</ele>
        <time>2014-08-15T14:14:59Z</time>
      </trkpt>
      <trkpt lat="44.20144" lon="2.02324">
        <ele>241</ele>
        <time>2014-08-15T14:15:02Z</time>
      </trkpt>
      <trkpt lat="44.20118" lon="2.02323">
        <ele>238</ele>
        <time>2014-08-15T14:15:04Z</time>
      </trkpt>
      <trkpt lat="44.20081" lon="2.02334">
        <ele>235</ele>
        <time>2014-08-15T14:15:07Z</time>
      </trkpt>
      <trkpt lat="44.20047" lon="2.02356">
        <ele>233</ele>
        <time>2014-08-15T14:15:10Z</time>
      </trkpt>
      <trkpt lat="44.2001" lon="2.02364">
        <ele>229</ele>
        <time>2014-08-15T14:15:13Z</time>
      </trkpt>
      <trkpt lat="44.19987" lon="2.02353">
        <ele>227</ele>
        <time>2014-08-15T14:15:15Z</time>
      </trkpt>
      <trkpt lat="44.1996" lon="2.0232">
        <ele>224</ele>
        <time>2014-08-15T14:15:18Z</time>
      </trkpt>
      <trkpt lat="44.19929" lon="2.0229">
        <ele>221</ele>
        <time>2014-08-15T14:15:21Z</time>
      </trkpt>
      <trkpt lat="44.19892" lon="2.02282">
        <ele>217</ele>
        <time>2014-08-15T14:15:24Z</time>
      </trkpt>
      <trkpt lat="44.19859" lon="2.02291">
        <ele>215</ele>
        <time>2014-08-15T14:15:27Z</time>
      </trkpt>
      <trkpt lat="44.19834" lon="2.0231">
        <ele>213</ele>
        <time>2014-08-15T14:15:30Z</time>
      </trkpt>
      <trkpt lat="44.19829" lon="2.02335">
        <ele>213</ele>
        <time>2014-08-15T14:15:32Z</time>
      </trkpt>
      <trkpt lat="44.19835" lon="2.02371">
        <ele>213</ele>
        <time>2014-08-15T14:15:35Z</time>
      </trkpt>
      <trkpt lat="44.19839" lon="2.02391">
        <ele>214</ele>
        <time>2014-08-15T14:15:37Z</time>
      </trkpt>
      <trkpt lat="44.19843" lon="2.02416">
        <ele>215</ele>
        <time>2014-08-15T14:15:40Z</time>
      </trkpt>
      <trkpt lat="44.19843" lon="2.02439">
        <ele>215</ele>
        <time>2014-08-15T14:15:43Z</time>
      </trkpt>
      <trkpt lat="44.19841" lon="2.02455">
        <ele>216</ele>
        <time>2014-08-15T14:15:45Z</time>
      </trkpt>
      <trkpt lat="44.19837" lon="2.02476">
        <ele>217</ele>
        <time>2014-08-15T14:15:48Z</time>
      </trkpt>
      <trkpt lat="44.19838" lon="2.02496">
        <ele>218</ele>
        <time>2014-08-15T14:15:51Z</time>
      </trkpt>
      <trkpt lat="44.19844" lon="2.02512">
        <ele>219</ele>
        <time>2014-08-15T14:15:54Z</time>
      </trkpt>
      <trkpt lat="44.1985" lon="2.02518">
        <ele>220</ele>
        <time>2014-08-15T14:15:56Z</time>
      </trkpt>
      <trkpt lat="44.19857" lon="2.02523">
        <ele>220</ele>
        <time>2014-08-15T14:15:58Z</time>
      </trkpt>
      <trkpt lat="44.19866" lon="2.02531">
        <ele>221</ele>
        <time>2014-08-15T14:16:01Z</time>
      </trkpt>
      <trkpt lat="44.19872" lon="2.02537">
        <ele>222</ele>
        <time>2014-08-15T14:16:03Z</time>
      </trkpt>
      <trkpt lat="44.19877" lon="2.02544">
        <ele>223</ele>
        <time>2014-08-15T14:16:05Z</time>
      </trkpt>
      <trkpt lat="44.19883" lon="2.02557">
        <ele>224</ele>
        <time>2014-08-15T14:16:08Z</time>
      </trkpt>
      <trkpt lat="44.19885" lon="2.02565">
        <ele>225</ele>
        <time>2014-08-15T14:16:10Z</time>
      </trkpt>
      <trkpt lat="44.19887" lon="2.02575">
        <ele>225</ele>
        <time>2014-08-15T14:16:12Z</time>
      </trkpt>
      <trkpt lat="44.19889" lon="2.02586">
        <ele>226</ele>
        <time>2014-08-15T14:16:14Z</time>
      </trkpt>
      <trkpt lat="44.19889" lon="2.02602">
        <ele>227</ele>
        <time>2014-08-15T14:16:17Z</time>
      </trkpt>
      <trkpt lat="44.19887" lon="2.02617">
        <ele>228</ele>
        <time>2014-08-15T14:16:20Z</time>
      </trkpt>
      <trkpt lat="44.19884" lon="2.02626">
        <ele>229</ele>
        <time>2014-08-15T14:16:22Z</time>
      </trkpt>
      <trkpt lat="44.19881" lon="2.02636">
        <ele>230</ele>
        <time>2014-08-15T14:16:24Z</time>
      </trkpt>
      <trkpt lat="44.19878" lon="2.02644">
        <ele>230</ele>
        <time>2014-08-15T14:16:26Z</time>
      </trkpt>
      <trkpt lat="44.19875" lon="2.02653">
        <ele>231</ele>
        <time>2014-08-15T14:16:28Z</time>
      </trkpt>
      <trkpt lat="44.19873" lon="2.02662">
        <ele>232</ele>
        <time>2014-08-15T14:16:30Z</time>
      </trkpt>
      <trkpt lat="44.1987" lon="2.02672">
        <ele>232</ele>
        <time>2014-08-15T14:16:32Z</time>
      </trkpt>
      <trkpt lat="44.19864" lon="2.02687">
        <ele>233</ele>
        <time>2014-08-15T14:16:35Z</time>
      </trkpt>
      <trkpt lat="44.19859" lon="2.02697">
        <ele>234</ele>
        <time>2014-08-15T14:16:37Z</time>
      </trkpt>
      <trkpt lat="44.19853" lon="2.0271">
        <ele>234</ele>
        <time>2014-08-15T14:16:40Z</time>
      </trkpt>
      <trkpt lat="44.19849" lon="2.02716">
        <ele>235</ele>
        <time>2014-08-15T14:16:42Z</time>
      </trkpt>
      <trkpt lat="44.19845" lon="2.02723">
        <ele>236</ele>
        <time>2014-08-15T14:16:44Z</time>
      </trkpt>
      <trkpt lat="44.19841" lon="2.02731">
        <ele>236</ele>
        <time>2014-08-15T14:16:46Z</time>
      </trkpt>
      <trkpt lat="44.19836" lon="2.0274">
        <ele>237</ele>
        <time>2014-08-15T14:16:48Z</time>
      </trkpt>
      <trkpt lat="44.19831" lon="2.02748">
        <ele>237</ele>
        <time>2014-08-15T14:16:50Z</time>
      </trkpt>
      <trkpt lat="44.19826" lon="2.02757">
        <ele>238</ele>
        <time>2014-08-15T14:16:52Z</time>
      </trkpt>
      <trkpt lat="44.1982" lon="2.02765">
        <ele>239</ele>
        <time>2014-08-15T14:16:54Z</time>
      </trkpt>
      <trkpt lat="44.19813" lon="2.02771">
        <ele>239</ele>
        <time>2014-08-15T14:16:56Z</time>
      </trkpt>
      <trkpt lat="44.19805" lon="2.02777">
        <ele>240</ele>
        <time>2014-08-15T14:16:58Z</time>
      </trkpt>
      <trkpt lat="44.19797" lon="2.02781">
        <ele>241</ele>
        <time>2014-08-15T14:17:00Z</time>
      </trkpt>
      <trkpt lat="44.19786" lon="2.02786">
        <ele>241</ele>
        <time>2014-08-15T14:17:03Z</time>
      </trkpt>
      <trkpt lat="44.19778" lon="2.02791">
        <ele>242</ele>
        <time>2014-08-15T14:17:05Z</time>
      </trkpt>
      <trkpt lat="44.19771" lon="2.02798">
        <ele>242</ele>
        <time>2014-08-15T14:17:07Z</time>
      </trkpt>
      <trkpt lat="44.19765" lon="2.02812">
        <ele>244</ele>
        <time>2014-08-15T14:17:10Z</time>
      </trkpt>
      <trkpt lat="44.19763" lon="2.02826">
        <ele>244</ele>
        <time>2014-08-15T14:17:13Z</time>
      </trkpt>
      <trkpt lat="44.19763" lon="2.02835">
        <ele>245</ele>
        <time>2014-08-15T14:17:15Z</time>
      </trkpt>
      <trkpt lat="44.19764" lon="2.02845">
        <ele>246</ele>
        <time>2014-08-15T14:17:17Z</time>
      </trkpt>
      <trkpt lat="44.19764" lon="2.02855">
        <ele>246</ele>
        <time>2014-08-15T14:17:19Z</time>
      </trkpt>
      <trkpt lat="44.19765" lon="2.02869">
        <ele>247</ele>
        <time>2014-08-15T14:17:22Z</time>
      </trkpt>
      <trkpt lat="44.19766" lon="2.02878">
        <ele>248</ele>
        <time>2014-08-15T14:17:24Z</time>
      </trkpt>
      <trkpt lat="44.19767" lon="2.02888">
        <ele>249</ele>
        <time>2014-08-15T14:17:26Z</time>
      </trkpt>
      <trkpt lat="44.19767" lon="2.02899">
        <ele>249</ele>
        <time>2014-08-15T14:17:28Z</time>
      </trkpt>
      <trkpt lat="44.19767" lon="2.02916">
        <ele>249</ele>
        <time>2014-08-15T14:17:31Z</time>
      </trkpt>
      <trkpt lat="44.19768" lon="2.02928">
        <ele>250</ele>
        <time>2014-08-15T14:17:33Z</time>
      </trkpt>
      <trkpt lat="44.19766" lon="2.02945">
        <ele>251</ele>
        <time>2014-08-15T14:17:36Z</time>
      </trkpt>
      <trkpt lat="44.19764" lon="2.02957">
        <ele>252</ele>
        <time>2014-08-15T14:17:38Z</time>
      </trkpt>
      <trkpt lat="44.19762" lon="2.02968">
        <ele>253</ele>
        <time>2014-08-15T14:17:40Z</time>
      </trkpt>
      <trkpt lat="44.19756" lon="2.02983">
        <ele>254</ele>
        <time>2014-08-15T14:17:43Z</time>
      </trkpt>
      <trkpt lat="44.1975" lon="2.02997">
        <ele>255</ele>
        <time>2014-08-15T14:17:46Z</time>
      </trkpt>
      <trkpt lat="44.19746" lon="2.03004">
        <ele>256</ele>
        <time>2014-08-15T14:17:48Z</time>
      </trkpt>
      <trkpt lat="44.19741" lon="2.03011">
        <ele>256</ele>
        <time>2014-08-15T14:17:50Z</time>
      </trkpt>
      <trkpt lat="44.19737" lon="2.03018">
        <ele>257</ele>
        <time>2014-08-15T14:17:52Z</time>
      </trkpt>
      <trkpt lat="44.19732" lon="2.03026">
        <ele>257</ele>
        <time>2014-08-15T14:17:54Z</time>
      </trkpt>
      <trkpt lat="44.19727" lon="2.03034">
        <ele>258</ele>
        <time>2014-08-15T14:17:56Z</time>
      </trkpt>
      <trkpt lat="44.1972" lon="2.03046">
        <ele>258</ele>
        <time>2014-08-15T14:17:59Z</time>
      </trkpt>
      <trkpt lat="44.19715" lon="2.03054">
        <ele>259</ele>
        <time>2014-08-15T14:18:01Z</time>
      </trkpt>
      <trkpt lat="44.19709" lon="2.03065">
        <ele>260</ele>
        <time>2014-08-15T14:18:04Z</time>
      </trkpt>
      <trkpt lat="44.19704" lon="2.03073">
        <ele>261</ele>
        <time>2014-08-15T14:18:06Z</time>
      </trkpt>
      <trkpt lat="44.19699" lon="2.03081">
        <ele>261</ele>
        <time>2014-08-15T14:18:08Z</time>
      </trkpt>
      <trkpt lat="44.19692" lon="2.03093">
        <ele>262</ele>
        <time>2014-08-15T14:18:11Z</time>
      </trkpt>
      <trkpt lat="44.19687" lon="2.031">
        <ele>263</ele>
        <time>2014-08-15T14:18:13Z</time>
      </trkpt>
      <trkpt lat="44.19679" lon="2.03113">
        <ele>264</ele>
        <time>2014-08-15T14:18:16Z</time>
      </trkpt>
      <trkpt lat="44.19673" lon="2.03122">
        <ele>265</ele>
        <time>2014-08-15T14:18:18Z</time>
      </trkpt>
      <trkpt lat="44.19668" lon="2.03131">
        <ele>265</ele>
        <time>2014-08-15T14:18:20Z</time>
      </trkpt>
      <trkpt lat="44.19662" lon="2.03139">
        <ele>266</ele>
        <time>2014-08-15T14:18:22Z</time>
      </trkpt>
      <trkpt lat="44.19658" lon="2.03147">
        <ele>267</ele>
        <time>2014-08-15T14:18:24Z</time>
      </trkpt>
      <trkpt lat="44.19651" lon="2.03156">
        <ele>267</ele>
        <time>2014-08-15T14:18:27Z</time>
      </trkpt>
      <trkpt lat="44.19644" lon="2.03166">
        <ele>268</ele>
        <time>2014-08-15T14:18:30Z</time>
      </trkpt>
      <trkpt lat="44.19635" lon="2.03175">
        <ele>269</ele>
        <time>2014-08-15T14:18:33Z</time>
      </trkpt>
      <trkpt lat="44.19629" lon="2.03182">
        <ele>269</ele>
        <time>2014-08-15T14:18:35Z</time>
      </trkpt>
      <trkpt lat="44.19623" lon="2.03187">
        <ele>270</ele>
        <time>2014-08-15T14:18:37Z</time>
      </trkpt>
      <trkpt lat="44.19616" lon="2.03194">
        <ele>270</ele>
        <time>2014-08-15T14:18:39Z</time>
      </trkpt>
      <trkpt lat="44.19605" lon="2.03203">
        <ele>271</ele>
        <time>2014-08-15T14:18:42Z</time>
      </trkpt>
      <trkpt lat="44.19598" lon="2.03209">
        <ele>272</ele>
        <time>2014-08-15T14:18:44Z</time>
      </trkpt>
      <trkpt lat="44.1959" lon="2.03214">
        <ele>272</ele>
        <time>2014-08-15T14:18:46Z</time>
      </trkpt>
      <trkpt lat="44.19577" lon="2.0322">
        <ele>273</ele>
        <time>2014-08-15T14:18:49Z</time>
      </trkpt>
      <trkpt lat="44.19564" lon="2.03223">
        <ele>274</ele>
        <time>2014-08-15T14:18:52Z</time>
      </trkpt>
      <trkpt lat="44.19555" lon="2.03225">
        <ele>274</ele>
        <time>2014-08-15T14:18:54Z</time>
      </trkpt>
      <trkpt lat="44.1954" lon="2.03226">
        <ele>275</ele>
        <time>2014-08-15T14:18:57Z</time>
      </trkpt>
      <trkpt lat="44.19526" lon="2.03222">
        <ele>276</ele>
        <time>2014-08-15T14:19:00Z</time>
      </trkpt>
      <trkpt lat="44.19517" lon="2.03217">
        <ele>276</ele>
        <time>2014-08-15T14:19:02Z</time>
      </trkpt>
      <trkpt lat="44.19508" lon="2.03212">
        <ele>276</ele>
        <time>2014-08-15T14:19:04Z</time>
      </trkpt>
      <trkpt lat="44.19495" lon="2.03204">
        <ele>277</ele>
        <time>2014-08-15T14:19:07Z</time>
      </trkpt>
      <trkpt lat="44.19486" lon="2.032">
        <ele>278</ele>
        <time>2014-08-15T14:19:09Z</time>
      </trkpt>
      <trkpt lat="44.19476" lon="2.03196">
        <ele>278</ele>
        <time>2014-08-15T14:19:11Z</time>
      </trkpt>
      <trkpt lat="44.19466" lon="2.03193">
        <ele>278</ele>
        <time>2014-08-15T14:19:13Z</time>
      </trkpt>
      <trkpt lat="44.1945" lon="2.03195">
        <ele>279</ele>
        <time>2014-08-15T14:19:16Z</time>
      </trkpt>
      <trkpt lat="44.1944" lon="2.03197">
        <ele>279</ele>
        <time>2014-08-15T14:19:18Z</time>
      </trkpt>
      <trkpt lat="44.19425" lon="2.03203">
        <ele>280</ele>
        <time>2014-08-15T14:19:21Z</time>
      </trkpt>
      <trkpt lat="44.19411" lon="2.0321">
        <ele>280</ele>
        <time>2014-08-15T14:19:24Z</time>
      </trkpt>
      <trkpt lat="44.19402" lon="2.0322">
        <ele>281</ele>
        <time>2014-08-15T14:19:26Z</time>
      </trkpt>
      <trkpt lat="44.19396" lon="2.03233">
        <ele>281</ele>
        <time>2014-08-15T14:19:28Z</time>
      </trkpt>
      <trkpt lat="44.19392" lon="2.03247">
        <ele>281</ele>
        <time>2014-08-15T14:19:30Z</time>
      </trkpt>
      <trkpt lat="44.19389" lon="2.03261">
        <ele>282</ele>
        <time>2014-08-15T14:19:32Z</time>
      </trkpt>
      <trkpt lat="44.19386" lon="2.03275">
        <ele>282</ele>
        <time>2014-08-15T14:19:34Z</time>
      </trkpt>
      <trkpt lat="44.19381" lon="2.03296">
        <ele>283</ele>
        <time>2014-08-15T14:19:37Z</time>
      </trkpt>
      <trkpt lat="44.19378" lon="2.03315">
        <ele>283</ele>
        <time>2014-08-15T14:19:40Z</time>
      </trkpt>
      <trkpt lat="44.19375" lon="2.03327">
        <ele>283</ele>
        <time>2014-08-15T14:19:42Z</time>
      </trkpt>
      <trkpt lat="44.19372" lon="2.03339">
        <ele>283</ele>
        <time>2014-08-15T14:19:44Z</time>
      </trkpt>
      <trkpt lat="44.1937" lon="2.0335">
        <ele>283</ele>
        <time>2014-08-15T14:19:46Z</time>
      </trkpt>
      <trkpt lat="44.19366" lon="2.03366">
        <ele>284</ele>
        <time>2014-08-15T14:19:49Z</time>
      </trkpt>
      <trkpt lat="44.19364" lon="2.03377">
        <ele>284</ele>
        <time>2014-08-15T14:19:51Z</time>
      </trkpt>
      <trkpt lat="44.1936" lon="2.03393">
        <ele>285</ele>
        <time>2014-08-15T14:19:54Z</time>
      </trkpt>
      <trkpt lat="44.19355" lon="2.0341">
        <ele>286</ele>
        <time>2014-08-15T14:19:57Z</time>
      </trkpt>
      <trkpt lat="44.19351" lon="2.03427">
        <ele>286</ele>
        <time>2014-08-15T14:20:00Z</time>
      </trkpt>
      <trkpt lat="44.19347" lon="2.03444">
        <ele>286</ele>
        <time>2014-08-15T14:20:03Z</time>
      </trkpt>
      <trkpt lat="44.19344" lon="2.03455">
        <ele>286</ele>
        <time>2014-08-15T14:20:05Z</time>
      </trkpt>
      <trkpt lat="44.1934" lon="2.03471">
        <ele>287</ele>
        <time>2014-08-15T14:20:08Z</time>
      </trkpt>
      <trkpt lat="44.19338" lon="2.03482">
        <ele>287</ele>
        <time>2014-08-15T14:20:10Z</time>
      </trkpt>
      <trkpt lat="44.19334" lon="2.03498">
        <ele>288</ele>
        <time>2014-08-15T14:20:13Z</time>
      </trkpt>
      <trkpt lat="44.19332" lon="2.03509">
        <ele>289</ele>
        <time>2014-08-15T14:20:15Z</time>
      </trkpt>
      <trkpt lat="44.19329" lon="2.03525">
        <ele>290</ele>
        <time>2014-08-15T14:20:18Z</time>
      </trkpt>
      <trkpt lat="44.19325" lon="2.03542">
        <ele>291</ele>
        <time>2014-08-15T14:20:21Z</time>
      </trkpt>
      <trkpt lat="44.19322" lon="2.03554">
        <ele>291</ele>
        <time>2014-08-15T14:20:23Z</time>
      </trkpt>
      <trkpt lat="44.19319" lon="2.03572">
        <ele>291</ele>
        <time>2014-08-15T14:20:26Z</time>
      </trkpt>
      <trkpt lat="44.19317" lon="2.03585">
        <ele>292</ele>
        <time>2014-08-15T14:20:28Z</time>
      </trkpt>
      <trkpt lat="44.19315" lon="2.03598">
        <ele>292</ele>
        <time>2014-08-15T14:20:30Z</time>
      </trkpt>
      <trkpt lat="44.19313" lon="2.0361">
        <ele>293</ele>
        <time>2014-08-15T14:20:32Z</time>
      </trkpt>
      <trkpt lat="44.19312" lon="2.03621">
        <ele>294</ele>
        <time>2014-08-15T14:20:34Z</time>
      </trkpt>
      <trkpt lat="44.1931" lon="2.03639">
        <ele>295</ele>
        <time>2014-08-15T14:20:37Z</time>
      </trkpt>
      <trkpt lat="44.19308" lon="2.03655">
        <ele>295</ele>
        <time>2014-08-15T14:20:40Z</time>
      </trkpt>
      <trkpt lat="44.19305" lon="2.03671">
        <ele>296</ele>
        <time>2014-08-15T14:20:43Z</time>
      </trkpt>
      <trkpt lat="44.19305" lon="2.03682">
        <ele>297</ele>
        <time>2014-08-15T14:20:45Z</time>
      </trkpt>
      <trkpt lat="44.19303" lon="2.0369">
        <ele>297</ele>
        <time>2014-08-15T14:20:47Z</time>
      </trkpt>
      <trkpt lat="44.19302" lon="2.03697">
        <ele>298</ele>
        <time>2014-08-15T14:20:49Z</time>
      </trkpt>
      <trkpt lat="44.193" lon="2.03703">
        <ele>298</ele>
        <time>2014-08-15T14:20:51Z</time>
      </trkpt>
      <trkpt lat="44.19297" lon="2.03718">
        <ele>299</ele>
        <time>2014-08-15T14:20:54Z</time>
      </trkpt>
      <trkpt lat="44.19296" lon="2.03737">
        <ele>298</ele>
        <time>2014-08-15T14:20:57Z</time>
      </trkpt>
      <trkpt lat="44.19289" lon="2.03758">
        <ele>297</ele>
        <time>2014-08-15T14:21:00Z</time>
      </trkpt>
      <trkpt lat="44.19283" lon="2.03772">
        <ele>297</ele>
        <time>2014-08-15T14:21:02Z</time>
      </trkpt>
      <trkpt lat="44.19271" lon="2.03791">
        <ele>297</ele>
        <time>2014-08-15T14:21:05Z</time>
      </trkpt>
      <trkpt lat="44.19255" lon="2.03804">
        <ele>297</ele>
        <time>2014-08-15T14:21:08Z</time>
      </trkpt>
      <trkpt lat="44.19245" lon="2.03814">
        <ele>297</ele>
        <time>2014-08-15T14:21:10Z</time>
      </trkpt>
      <trkpt lat="44.19232" lon="2.03826">
        <ele>297</ele>
        <time>2014-08-15T14:21:13Z</time>
      </trkpt>
      <trkpt lat="44.1922" lon="2.03836">
        <ele>298</ele>
        <time>2014-08-15T14:21:16Z</time>
      </trkpt>
      <trkpt lat="44.19213" lon="2.03842">
        <ele>299</ele>
        <time>2014-08-15T14:21:18Z</time>
      </trkpt>
      <trkpt lat="44.1921" lon="2.03853">
        <ele>299</ele>
        <time>2014-08-15T14:21:20Z</time>
      </trkpt>
      <trkpt lat="44.19214" lon="2.03871">
        <ele>299</ele>
        <time>2014-08-15T14:21:23Z</time>
      </trkpt>
      <trkpt lat="44.19218" lon="2.03889">
        <ele>298</ele>
        <time>2014-08-15T14:21:25Z</time>
      </trkpt>
      <trkpt lat="44.19225" lon="2.0392">
        <ele>296</ele>
        <time>2014-08-15T14:21:28Z</time>
      </trkpt>
      <trkpt lat="44.19229" lon="2.03957">
        <ele>294</ele>
        <time>2014-08-15T14:21:31Z</time>
      </trkpt>
      <trkpt lat="44.19228" lon="2.03983">
        <ele>292</ele>
        <time>2014-08-15T14:21:33Z</time>
      </trkpt>
      <trkpt lat="44.19221" lon="2.04025">
        <ele>289</ele>
        <time>2014-08-15T14:21:36Z</time>
      </trkpt>
      <trkpt lat="44.19209" lon="2.04049">
        <ele>287</ele>
        <time>2014-08-15T14:21:38Z</time>
      </trkpt>
      <trkpt lat="44.19183" lon="2.04081">
        <ele>286</ele>
        <time>2014-08-15T14:21:41Z</time>
      </trkpt>
      <trkpt lat="44.19173" lon="2.04109">
        <ele>283</ele>
        <time>2014-08-15T14:21:43Z</time>
      </trkpt>
      <trkpt lat="44.19177" lon="2.04154">
        <ele>280</ele>
        <time>2014-08-15T14:21:46Z</time>
      </trkpt>
      <trkpt lat="44.19181" lon="2.04184">
        <ele>278</ele>
        <time>2014-08-15T14:21:48Z</time>
      </trkpt>
      <trkpt lat="44.19176" lon="2.04232">
        <ele>277</ele>
        <time>2014-08-15T14:21:51Z</time>
      </trkpt>
      <trkpt lat="44.19164" lon="2.04277">
        <ele>274</ele>
        <time>2014-08-15T14:21:54Z</time>
      </trkpt>
      <trkpt lat="44.1914" lon="2.04314">
        <ele>271</ele>
        <time>2014-08-15T14:21:57Z</time>
      </trkpt>
      <trkpt lat="44.19119" lon="2.04326">
        <ele>269</ele>
        <time>2014-08-15T14:21:59Z</time>
      </trkpt>
      <trkpt lat="44.19095" lon="2.04328">
        <ele>268</ele>
        <time>2014-08-15T14:22:01Z</time>
      </trkpt>
      <trkpt lat="44.1907" lon="2.04335">
        <ele>266</ele>
        <time>2014-08-15T14:22:03Z</time>
      </trkpt>
      <trkpt lat="44.19033" lon="2.04352">
        <ele>262</ele>
        <time>2014-08-15T14:22:06Z</time>
      </trkpt>
      <trkpt lat="44.1901" lon="2.04366">
        <ele>260</ele>
        <time>2014-08-15T14:22:08Z</time>
      </trkpt>
      <trkpt lat="44.18981" lon="2.04405">
        <ele>257</ele>
        <time>2014-08-15T14:22:11Z</time>
      </trkpt>
      <trkpt lat="44.1895" lon="2.04438">
        <ele>254</ele>
        <time>2014-08-15T14:22:14Z</time>
      </trkpt>
      <trkpt lat="44.18919" lon="2.04468">
        <ele>251</ele>
        <time>2014-08-15T14:22:17Z</time>
      </trkpt>
      <trkpt lat="44.18895" lon="2.04472">
        <ele>249</ele>
        <time>2014-08-15T14:22:19Z</time>
      </trkpt>
      <trkpt lat="44.18874" lon="2.04461">
        <ele>247</ele>
        <time>2014-08-15T14:22:21Z</time>
      </trkpt>
      <trkpt lat="44.18841" lon="2.0445">
        <ele>244</ele>
        <time>2014-08-15T14:22:24Z</time>
      </trkpt>
      <trkpt lat="44.18826" lon="2.0445">
        <ele>243</ele>
        <time>2014-08-15T14:22:26Z</time>
      </trkpt>
      <trkpt lat="44.18816" lon="2.04476">
        <ele>241</ele>
        <time>2014-08-15T14:22:29Z</time>
      </trkpt>
      <trkpt lat="44.18818" lon="2.04492">
        <ele>239</ele>
        <time>2014-08-15T14:22:31Z</time>
      </trkpt>
      <trkpt lat="44.18829" lon="2.04519">
        <ele>237</ele>
        <time>2014-08-15T14:22:34Z</time>
      </trkpt>
      <trkpt lat="44.18841" lon="2.04556">
        <ele>233</ele>
        <time>2014-08-15T14:22:37Z</time>
      </trkpt>
      <trkpt lat="44.18835" lon="2.04601">
        <ele>230</ele>
        <time>2014-08-15T14:22:40Z</time>
      </trkpt>
      <trkpt lat="44.18824" lon="2.04612">
        <ele>228</ele>
        <time>2014-08-15T14:22:42Z</time>
      </trkpt>
      <trkpt lat="44.18812" lon="2.04618">
        <ele>227</ele>
        <time>2014-08-15T14:22:44Z</time>
      </trkpt>
      <trkpt lat="44.18806" lon="2.04645">
        <ele>226</ele>
        <time>2014-08-15T14:22:47Z</time>
      </trkpt>
      <trkpt lat="44.18823" lon="2.04665">
        <ele>224</ele>
        <time>2014-08-15T14:22:50Z</time>
      </trkpt>
      <trkpt lat="44.18839" lon="2.0468">
        <ele>222</ele>
        <time>2014-08-15T14:22:52Z</time>
      </trkpt>
      <trkpt lat="44.18856" lon="2.04717">
        <ele>219</ele>
        <time>2014-08-15T14:22:55Z</time>
      </trkpt>
      <trkpt lat="44.18852" lon="2.04748">
        <ele>217</ele>
        <time>2014-08-15T14:22:57Z</time>
      </trkpt>
      <trkpt lat="44.18834" lon="2.04796">
        <ele>215</ele>
        <time>2014-08-15T14:23:00Z</time>
      </trkpt>
      <trkpt lat="44.18817" lon="2.04819">
        <ele>213</ele>
        <time>2014-08-15T14:23:02Z</time>
      </trkpt>
      <trkpt lat="44.18781" lon="2.04833">
        <ele>210</ele>
        <time>2014-08-15T14:23:05Z</time>
      </trkpt>
      <trkpt lat="44.18745" lon="2.04838">
        <ele>207</ele>
        <time>2014-08-15T14:23:08Z</time>
      </trkpt>
      <trkpt lat="44.18708" lon="2.0485">
        <ele>205</ele>
        <time>2014-08-15T14:23:11Z</time>
      </trkpt>
      <trkpt lat="44.18684" lon="2.04857">
        <ele>203</ele>
        <time>2014-08-15T14:23:13Z</time>
      </trkpt>
      <trkpt lat="44.18653" lon="2.04877">
        <ele>199</ele>
        <time>2014-08-15T14:23:16Z</time>
      </trkpt>
      <trkpt lat="44.18635" lon="2.04891">
        <ele>197</ele>
        <time>2014-08-15T14:23:18Z</time>
      </trkpt>
      <trkpt lat="44.18604" lon="2.04918">
        <ele>195</ele>
        <time>2014-08-15T14:23:21Z</time>
      </trkpt>
      <trkpt lat="44.1857" lon="2.04942">
        <ele>192</ele>
        <time>2014-08-15T14:23:24Z</time>
      </trkpt>
      <trkpt lat="44.18546" lon="2.04958">
        <ele>190</ele>
        <time>2014-08-15T14:23:26Z</time>
      </trkpt>
      <trkpt lat="44.1852" lon="2.04967">
        <ele>187</ele>
        <time>2014-08-15T14:23:28Z</time>
      </trkpt>
      <trkpt lat="44.18483" lon="2.04975">
        <ele>185</ele>
        <time>2014-08-15T14:23:31Z</time>
      </trkpt>
      <trkpt lat="44.18459" lon="2.04974">
        <ele>183</ele>
        <time>2014-08-15T14:23:33Z</time>
      </trkpt>
      <trkpt lat="44.18436" lon="2.04969">
        <ele>181</ele>
        <time>2014-08-15T14:23:35Z</time>
      </trkpt>
      <trkpt lat="44.18417" lon="2.04982">
        <ele>179</ele>
        <time>2014-08-15T14:23:37Z</time>
      </trkpt>
      <trkpt lat="44.18388" lon="2.0501">
        <ele>176</ele>
        <time>2014-08-15T14:23:40Z</time>
      </trkpt>
      <trkpt lat="44.18355" lon="2.05038">
        <ele>174</ele>
        <time>2014-08-15T14:23:43Z</time>
      </trkpt>
      <trkpt lat="44.18334" lon="2.05056">
        <ele>172</ele>
        <time>2014-08-15T14:23:45Z</time>
      </trkpt>
      <trkpt lat="44.18305" lon="2.05086">
        <ele>171</ele>
        <time>2014-08-15T14:23:48Z</time>
      </trkpt>
      <trkpt lat="44.18286" lon="2.05099">
        <ele>169</ele>
        <time>2014-08-15T14:23:50Z</time>
      </trkpt>
      <trkpt lat="44.18269" lon="2.05115">
        <ele>167</ele>
        <time>2014-08-15T14:23:52Z</time>
      </trkpt>
      <trkpt lat="44.18237" lon="2.05137">
        <ele>164</ele>
        <time>2014-08-15T14:23:55Z</time>
      </trkpt>
      <trkpt lat="44.18208" lon="2.05163">
        <ele>162</ele>
        <time>2014-08-15T14:23:58Z</time>
      </trkpt>
      <trkpt lat="44.18193" lon="2.05189">
        <ele>160</ele>
        <time>2014-08-15T14:24:00Z</time>
      </trkpt>
      <trkpt lat="44.18172" lon="2.05228">
        <ele>158</ele>
        <time>2014-08-15T14:24:03Z</time>
      </trkpt>
      <trkpt lat="44.18153" lon="2.05273">
        <ele>155</ele>
        <time>2014-08-15T14:24:06Z</time>
      </trkpt>
      <trkpt lat="44.18133" lon="2.05311">
        <ele>152</ele>
        <time>2014-08-15T14:24:09Z</time>
      </trkpt>
      <trkpt lat="44.18117" lon="2.05336">
        <ele>150</ele>
        <time>2014-08-15T14:24:11Z</time>
      </trkpt>
      <trkpt lat="44.181" lon="2.05355">
        <ele>147</ele>
        <time>2014-08-15T14:24:13Z</time>
      </trkpt>
      <trkpt lat="44.18071" lon="2.05375">
        <ele>144</ele>
        <time>2014-08-15T14:24:16Z</time>
      </trkpt>
      <trkpt lat="44.18051" lon="2.05387">
        <ele>142</ele>
        <time>2014-08-15T14:24:18Z</time>
      </trkpt>
      <trkpt lat="44.18022" lon="2.05417">
        <ele>140</ele>
        <time>2014-08-15T14:24:21Z</time>
      </trkpt>
      <trkpt lat="44.17992" lon="2.05452">
        <ele>137</ele>
        <time>2014-08-15T14:24:24Z</time>
      </trkpt>
      <trkpt lat="44.17961" lon="2.05477">
        <ele>134</ele>
        <time>2014-08-15T14:24:27Z</time>
      </trkpt>
      <trkpt lat="44.17944" lon="2.05499">
        <ele>132</ele>
        <time>2014-08-15T14:24:29Z</time>
      </trkpt>
      <trkpt lat="44.17926" lon="2.05543">
        <ele>129</ele>
        <time>2014-08-15T14:24:32Z</time>
      </trkpt>
      <trkpt lat="44.17909" lon="2.05566">
        <ele>127</ele>
        <time>2014-08-15T14:24:34Z</time>
      </trkpt>
      <trkpt lat="44.17883" lon="2.05595">
        <ele>125</ele>
        <time>2014-08-15T14:24:37Z</time>
      </trkpt>
      <trkpt lat="44.17856" lon="2.05628">
        <ele>123</ele>
        <time>2014-08-15T14:24:40Z</time>
      </trkpt>
      <trkpt lat="44.17833" lon="2.05662">
        <ele>121</ele>
        <time>2014-08-15T14:24:43Z</time>
      </trkpt>
      <trkpt lat="44.17809" lon="2.05699">
        <ele>118</ele>
        <time>2014-08-15T14:24:46Z</time>
      </trkpt>
      <trkpt lat="44.17792" lon="2.05723">
        <ele>116</ele>
        <time>2014-08-15T14:24:48Z</time>
      </trkpt>
      <trkpt lat="44.17767" lon="2.05759">
        <ele>113</ele>
        <time>2014-08-15T14:24:51Z</time>
      </trkpt>
      <trkpt lat="44.17741" lon="2.05793">
        <ele>110</ele>
        <time>2014-08-15T14:24:54Z</time>
      </trkpt>
      <trkpt lat="44.17709" lon="2.05822">
        <ele>107</ele>
        <time>2014-08-15T14:24:57Z</time>
      </trkpt>
      <trkpt lat="44.17676" lon="2.0585">
        <ele>107</ele>
        <time>2014-08-15T14:25:00Z</time>
      </trkpt>
      <trkpt lat="44.17641" lon="2.05875">
        <ele>106</ele>
        <time>2014-08-15T14:25:03Z</time>
      </trkpt>
      <trkpt lat="44.17614" lon="2.05887">
        <ele>104</ele>
        <time>2014-08-15T14:25:05Z</time>
      </trkpt>
      <trkpt lat="44.17584" lon="2.05899">
        <ele>100</ele>
        <time>2014-08-15T14:25:08Z</time>
      </trkpt>
      <trkpt lat="44.17572" lon="2.05915">
        <ele>98</ele>
        <time>2014-08-15T14:25:10Z</time>
      </trkpt>
      <trkpt lat="44.17569" lon="2.05944">
        <ele>98</ele>
        <time>2014-08-15T14:25:13Z</time>
      </trkpt>
      <trkpt lat="44.1757" lon="2.05964">
        <ele>98</ele>
        <time>2014-08-15T14:25:15Z</time>
      </trkpt>
      <trkpt lat="44.17571" lon="2.05981">
        <ele>98</ele>
        <time>2014-08-15T14:25:17Z</time>
      </trkpt>
      <trkpt lat="44.17574" lon="2.05997">
        <ele>98</ele>
        <time>2014-08-15T14:25:19Z</time>
      </trkpt>
      <trkpt lat="44.17576" lon="2.06022">
        <ele>98</ele>
        <time>2014-08-15T14:25:22Z</time>
      </trkpt>
      <trkpt lat="44.17578" lon="2.06039">
        <ele>98</ele>
        <time>2014-08-15T14:25:24Z</time>
      </trkpt>
      <trkpt lat="44.17576" lon="2.06055">
        <ele>97</ele>
        <time>2014-08-15T14:25:26Z</time>
      </trkpt>
      <trkpt lat="44.17563" lon="2.06073">
        <ele>97</ele>
        <time>2014-08-15T14:25:29Z</time>
      </trkpt>
      <trkpt lat="44.17547" lon="2.06082">
        <ele>96</ele>
        <time>2014-08-15T14:25:32Z</time>
      </trkpt>
      <trkpt lat="44.17534" lon="2.06085">
        <ele>96</ele>
        <time>2014-08-15T14:25:34Z</time>
      </trkpt>
      <trkpt lat="44.17521" lon="2.06088">
        <ele>96</ele>
        <time>2014-08-15T14:25:36Z</time>
      </trkpt>
      <trkpt lat="44.17501" lon="2.06092">
        <ele>95</ele>
        <time>2014-08-15T14:25:39Z</time>
      </trkpt>
      <trkpt lat="44.17487" lon="2.06094">
        <ele>96</ele>
        <time>2014-08-15T14:25:41Z</time>
      </trkpt>
      <trkpt lat="44.17473" lon="2.06095">
        <ele>95</ele>
        <time>2014-08-15T14:25:43Z</time>
      </trkpt>
      <trkpt lat="44.17453" lon="2.06097">
        <ele>96</ele>
        <time>2014-08-15T14:25:46Z</time>
      </trkpt>
      <trkpt lat="44.1744" lon="2.06098">
        <ele>97</ele>
        <time>2014-08-15T14:25:48Z</time>
      </trkpt>
      <trkpt lat="44.1742" lon="2.06098">
        <ele>97</ele>
        <time>2014-08-15T14:25:51Z</time>
      </trkpt>
      <trkpt lat="44.17399" lon="2.06098">
        <ele>97</ele>
        <time>2014-08-15T14:25:54Z</time>
      </trkpt>
      <trkpt lat="44.17384" lon="2.06097">
        <ele>96</ele>
        <time>2014-08-15T14:25:56Z</time>
      </trkpt>
      <trkpt lat="44.17363" lon="2.06093">
        <ele>95</ele>
        <time>2014-08-15T14:25:59Z</time>
      </trkpt>
      <trkpt lat="44.1735" lon="2.06087">
        <ele>95</ele>
        <time>2014-08-15T14:26:01Z</time>
      </trkpt>
      <trkpt lat="44.17335" lon="2.06082">
        <ele>95</ele>
        <time>2014-08-15T14:26:03Z</time>
      </trkpt>
      <trkpt lat="44.17321" lon="2.06078">
        <ele>95</ele>
        <time>2014-08-15T14:26:05Z</time>
      </trkpt>
      <trkpt lat="44.17307" lon="2.06073">
        <ele>95</ele>
        <time>2014-08-15T14:26:07Z</time>
      </trkpt>
      <trkpt lat="44.17286" lon="2.06066">
        <ele>95</ele>
        <time>2014-08-15T14:26:10Z</time>
      </trkpt>
      <trkpt lat="44.17272" lon="2.0606">
        <ele>96</ele>
        <time>2014-08-15T14:26:12Z</time>
      </trkpt>
      <trkpt lat="44.17253" lon="2.06049">
        <ele>95</ele>
        <time>2014-08-15T14:26:15Z</time>
      </trkpt>
      <trkpt lat="44.17234" lon="2.06033">
        <ele>95</ele>
        <time>2014-08-15T14:26:18Z</time>
      </trkpt>
      <trkpt lat="44.17221" lon="2.0602">
        <ele>95</ele>
        <time>2014-08-15T14:26:20Z</time>
      </trkpt>
      <trkpt lat="44.17209" lon="2.06009">
        <ele>96</ele>
        <time>2014-08-15T14:26:22Z</time>
      </trkpt>
      <trkpt lat="44.17192" lon="2.05996">
        <ele>96</ele>
        <time>2014-08-15T14:26:25Z</time>
      </trkpt>
      <trkpt lat="44.17182" lon="2.05992">
        <ele>96</ele>
        <time>2014-08-15T14:26:27Z</time>
      </trkpt>
      <trkpt lat="44.17163" lon="2.05987">
        <ele>96</ele>
        <time>2014-08-15T14:26:30Z</time>
      </trkpt>
      <trkpt lat="44.17145" lon="2.05985">
        <ele>97</ele>
        <time>2014-08-15T14:26:33Z</time>
      </trkpt>
      <trkpt lat="44.17127" lon="2.05984">
        <ele>97</ele>
        <time>2014-08-15T14:26:36Z</time>
      </trkpt>
      <trkpt lat="44.17109" lon="2.05981">
        <ele>98</ele>
        <time>2014-08-15T14:26:39Z</time>
      </trkpt>
      <trkpt lat="44.17091" lon="2.05981">
        <ele>98</ele>
        <time>2014-08-15T14:26:42Z</time>
      </trkpt>
      <trkpt lat="44.17078" lon="2.05979">
        <ele>98</ele>
        <time>2014-08-15T14:26:44Z</time>
      </trkpt>
      <trkpt lat="44.17064" lon="2.05972">
        <ele>99</ele>
        <time>2014-08-15T14:26:47Z</time>
      </trkpt>
      <trkpt lat="44.17054" lon="2.05965">
        <ele>99</ele>
        <time>2014-08-15T14:26:49Z</time>
      </trkpt>
      <trkpt lat="44.17042" lon="2.05951">
        <ele>100</ele>
        <time>2014-08-15T14:26:52Z</time>
      </trkpt>
      <trkpt lat="44.17032" lon="2.05937">
        <ele>100</ele>
        <time>2014-08-15T14:26:55Z</time>
      </trkpt>
      <trkpt lat="44.17027" lon="2.0593">
        <ele>100</ele>
        <time>2014-08-15T14:26:57Z</time>
      </trkpt>
      <trkpt lat="44.17019" lon="2.05918">
        <ele>100</ele>
        <time>2014-08-15T14:27:00Z</time>
      </trkpt>
      <trkpt lat="44.17014" lon="2.05908">
        <ele>101</ele>
        <time>2014-08-15T14:27:03Z</time>
      </trkpt>
      <trkpt lat="44.17012" lon="2.05903">
        <ele>101</ele>
        <time>2014-08-15T14:27:06Z</time>
      </trkpt>
      <trkpt lat="44.17007" lon="2.059">
        <ele>101</ele>
        <time>2014-08-15T14:27:08Z</time>
      </trkpt>
      <trkpt lat="44.17007" lon="2.059">
        <ele>101</ele>
        <time>2014-08-15T14:27:11Z</time>
      </trkpt>
      <trkpt lat="44.1701" lon="2.05895">
        <ele>101</ele>
        <time>2014-08-15T14:27:14Z</time>
      </trkpt>
      <trkpt lat="44.17019" lon="2.05889">
        <ele>101</ele>
        <time>2014-08-15T14:27:17Z</time>
      </trkpt>
      <trkpt lat="44.17025" lon="2.05876">
        <ele>100</ele>
        <time>2014-08-15T14:27:20Z</time>
      </trkpt>
      <trkpt lat="44.17036" lon="2.05856">
        <ele>100</ele>
        <time>2014-08-15T14:27:23Z</time>
      </trkpt>
      <trkpt lat="44.17041" lon="2.0584">
        <ele>100</ele>
        <time>2014-08-15T14:27:25Z</time>
      </trkpt>
      <trkpt lat="44.17046" lon="2.05812">
        <ele>100</ele>
        <time>2014-08-15T14:27:28Z</time>
      </trkpt>
      <trkpt lat="44.17048" lon="2.05795">
        <ele>100</ele>
        <time>2014-08-15T14:27:30Z</time>
      </trkpt>
      <trkpt lat="44.17051" lon="2.0577">
        <ele>101</ele>
        <time>2014-08-15T14:27:33Z</time>
      </trkpt>
      <trkpt lat="44.17052" lon="2.05754">
        <ele>101</ele>
        <time>2014-08-15T14:27:35Z</time>
      </trkpt>
      <trkpt lat="44.17054" lon="2.05737">
        <ele>101</ele>
        <time>2014-08-15T14:27:37Z</time>
      </trkpt>
      <trkpt lat="44.17055" lon="2.05709">
        <ele>101</ele>
        <time>2014-08-15T14:27:40Z</time>
      </trkpt>
      <trkpt lat="44.17054" lon="2.0569">
        <ele>101</ele>
        <time>2014-08-15T14:27:42Z</time>
      </trkpt>
      <trkpt lat="44.17055" lon="2.05662">
        <ele>102</ele>
        <time>2014-08-15T14:27:45Z</time>
      </trkpt>
      <trkpt lat="44.17056" lon="2.05634">
        <ele>103</ele>
        <time>2014-08-15T14:27:48Z</time>
      </trkpt>
      <trkpt lat="44.17056" lon="2.05606">
        <ele>104</ele>
        <time>2014-08-15T14:27:51Z</time>
      </trkpt>
      <trkpt lat="44.17054" lon="2.0558">
        <ele>103</ele>
        <time>2014-08-15T14:27:54Z</time>
      </trkpt>
      <trkpt lat="44.17052" lon="2.05562">
        <ele>103</ele>
        <time>2014-08-15T14:27:56Z</time>
      </trkpt>
      <trkpt lat="44.17049" lon="2.05543">
        <ele>102</ele>
        <time>2014-08-15T14:27:58Z</time>
      </trkpt>
      <trkpt lat="44.17047" lon="2.05522">
        <ele>102</ele>
        <time>2014-08-15T14:28:00Z</time>
      </trkpt>
      <trkpt lat="44.17044" lon="2.05491">
        <ele>103</ele>
        <time>2014-08-15T14:28:03Z</time>
      </trkpt>
      <trkpt lat="44.17041" lon="2.05461">
        <ele>104</ele>
        <time>2014-08-15T14:28:06Z</time>
      </trkpt>
      <trkpt lat="44.17037" lon="2.05434">
        <ele>103</ele>
        <time>2014-08-15T14:28:09Z</time>
      </trkpt>
      <trkpt lat="44.17033" lon="2.05411">
        <ele>102</ele>
        <time>2014-08-15T14:28:11Z</time>
      </trkpt>
      <trkpt lat="44.17029" lon="2.05387">
        <ele>101</ele>
        <time>2014-08-15T14:28:13Z</time>
      </trkpt>
      <trkpt lat="44.17026" lon="2.05362">
        <ele>101</ele>
        <time>2014-08-15T14:28:15Z</time>
      </trkpt>
      <trkpt lat="44.17027" lon="2.05327">
        <ele>101</ele>
        <time>2014-08-15T14:28:18Z</time>
      </trkpt>
      <trkpt lat="44.17029" lon="2.05304">
        <ele>101</ele>
        <time>2014-08-15T14:28:20Z</time>
      </trkpt>
      <trkpt lat="44.17033" lon="2.05281">
        <ele>101</ele>
        <time>2014-08-15T14:28:22Z</time>
      </trkpt>
      <trkpt lat="44.1704" lon="2.0526">
        <ele>101</ele>
        <time>2014-08-15T14:28:24Z</time>
      </trkpt>
      <trkpt lat="44.1705" lon="2.05231">
        <ele>101</ele>
        <time>2014-08-15T14:28:27Z</time>
      </trkpt>
      <trkpt lat="44.17057" lon="2.05211">
        <ele>101</ele>
        <time>2014-08-15T14:28:29Z</time>
      </trkpt>
      <trkpt lat="44.17059" lon="2.0519">
        <ele>101</ele>
        <time>2014-08-15T14:28:31Z</time>
      </trkpt>
      <trkpt lat="44.17059" lon="2.05168">
        <ele>101</ele>
        <time>2014-08-15T14:28:33Z</time>
      </trkpt>
      <trkpt lat="44.17055" lon="2.05147">
        <ele>101</ele>
        <time>2014-08-15T14:28:35Z</time>
      </trkpt>
      <trkpt lat="44.17046" lon="2.05116">
        <ele>100</ele>
        <time>2014-08-15T14:28:38Z</time>
      </trkpt>
      <trkpt lat="44.17037" lon="2.05083">
        <ele>99</ele>
        <time>2014-08-15T14:28:41Z</time>
      </trkpt>
      <trkpt lat="44.17039" lon="2.05061">
        <ele>99</ele>
        <time>2014-08-15T14:28:43Z</time>
      </trkpt>
      <trkpt lat="44.17045" lon="2.05037">
        <ele>98</ele>
        <time>2014-08-15T14:28:45Z</time>
      </trkpt>
      <trkpt lat="44.17051" lon="2.05013">
        <ele>97</ele>
        <time>2014-08-15T14:28:47Z</time>
      </trkpt>
      <trkpt lat="44.17056" lon="2.04988">
        <ele>97</ele>
        <time>2014-08-15T14:28:49Z</time>
      </trkpt>
      <trkpt lat="44.17061" lon="2.04949">
        <ele>96</ele>
        <time>2014-08-15T14:28:52Z</time>
      </trkpt>
      <trkpt lat="44.17062" lon="2.04923">
        <ele>95</ele>
        <time>2014-08-15T14:28:54Z</time>
      </trkpt>
      <trkpt lat="44.17062" lon="2.04896">
        <ele>95</ele>
        <time>2014-08-15T14:28:56Z</time>
      </trkpt>
      <trkpt lat="44.17059" lon="2.04856">
        <ele>94</ele>
        <time>2014-08-15T14:28:59Z</time>
      </trkpt>
      <trkpt lat="44.17056" lon="2.0483">
        <ele>94</ele>
        <time>2014-08-15T14:29:01Z</time>
      </trkpt>
      <trkpt lat="44.17051" lon="2.04793">
        <ele>93</ele>
        <time>2014-08-15T14:29:04Z</time>
      </trkpt>
      <trkpt lat="44.17044" lon="2.04757">
        <ele>93</ele>
        <time>2014-08-15T14:29:07Z</time>
      </trkpt>
      <trkpt lat="44.1704" lon="2.04726">
        <ele>93</ele>
        <time>2014-08-15T14:29:10Z</time>
      </trkpt>
      <trkpt lat="44.17038" lon="2.04699">
        <ele>93</ele>
        <time>2014-08-15T14:29:13Z</time>
      </trkpt>
      <trkpt lat="44.17035" lon="2.04681">
        <ele>93</ele>
        <time>2014-08-15T14:29:15Z</time>
      </trkpt>
      <trkpt lat="44.17025" lon="2.04652">
        <ele>93</ele>
        <time>2014-08-15T14:29:18Z</time>
      </trkpt>
      <trkpt lat="44.17019" lon="2.04635">
        <ele>94</ele>
        <time>2014-08-15T14:29:20Z</time>
      </trkpt>
      <trkpt lat="44.17012" lon="2.04616">
        <ele>94</ele>
        <time>2014-08-15T14:29:22Z</time>
      </trkpt>
      <trkpt lat="44.17004" lon="2.04592">
        <ele>94</ele>
        <time>2014-08-15T14:29:25Z</time>
      </trkpt>
      <trkpt lat="44.16999" lon="2.04577">
        <ele>94</ele>
        <time>2014-08-15T14:29:27Z</time>
      </trkpt>
      <trkpt lat="44.1699" lon="2.0455">
        <ele>94</ele>
        <time>2014-08-15T14:29:30Z</time>
      </trkpt>
      <trkpt lat="44.1698" lon="2.04521">
        <ele>94</ele>
        <time>2014-08-15T14:29:33Z</time>
      </trkpt>
      <trkpt lat="44.16967" lon="2.04493">
        <ele>94</ele>
        <time>2014-08-15T14:29:36Z</time>
      </trkpt>
      <trkpt lat="44.16957" lon="2.04475">
        <ele>94</ele>
        <time>2014-08-15T14:29:38Z</time>
      </trkpt>
      <trkpt lat="44.16949" lon="2.04458">
        <ele>94</ele>
        <time>2014-08-15T14:29:40Z</time>
      </trkpt>
      <trkpt lat="44.1694" lon="2.04441">
        <ele>94</ele>
        <time>2014-08-15T14:29:42Z</time>
      </trkpt>
      <trkpt lat="44.1693" lon="2.04412">
        <ele>94</ele>
        <time>2014-08-15T14:29:45Z</time>
      </trkpt>
      <trkpt lat="44.16919" lon="2.04385">
        <ele>94</ele>
        <time>2014-08-15T14:29:48Z</time>
      </trkpt>
      <trkpt lat="44.16912" lon="2.0437">
        <ele>94</ele>
        <time>2014-08-15T14:29:50Z</time>
      </trkpt>
      <trkpt lat="44.16905" lon="2.04353">
        <ele>94</ele>
        <time>2014-08-15T14:29:52Z</time>
      </trkpt>
      <trkpt lat="44.16895" lon="2.04324">
        <ele>94</ele>
        <time>2014-08-15T14:29:55Z</time>
      </trkpt>
      <trkpt lat="44.16885" lon="2.04294">
        <ele>94</ele>
        <time>2014-08-15T14:29:58Z</time>
      </trkpt>
      <trkpt lat="44.1688" lon="2.04276">
        <ele>94</ele>
        <time>2014-08-15T14:30:00Z</time>
      </trkpt>
      <trkpt lat="44.16871" lon="2.0425">
        <ele>95</ele>
        <time>2014-08-15T14:30:03Z</time>
      </trkpt>
      <trkpt lat="44.16864" lon="2.04225">
        <ele>95</ele>
        <time>2014-08-15T14:30:06Z</time>
      </trkpt>
      <trkpt lat="44.16856" lon="2.04199">
        <ele>95</ele>
        <time>2014-08-15T14:30:09Z</time>
      </trkpt>
      <trkpt lat="44.1685" lon="2.04174">
        <ele>95</ele>
        <time>2014-08-15T14:30:12Z</time>
      </trkpt>
      <trkpt lat="44.16846" lon="2.04157">
        <ele>95</ele>
        <time>2014-08-15T14:30:14Z</time>
      </trkpt>
      <trkpt lat="44.16839" lon="2.04132">
        <ele>95</ele>
        <time>2014-08-15T14:30:17Z</time>
      </trkpt>
      <trkpt lat="44.1683" lon="2.04105">
        <ele>96</ele>
        <time>2014-08-15T14:30:20Z</time>
      </trkpt>
      <trkpt lat="44.16821" lon="2.04076">
        <ele>96</ele>
        <time>2014-08-15T14:30:23Z</time>
      </trkpt>
      <trkpt lat="44.16815" lon="2.04056">
        <ele>96</ele>
        <time>2014-08-15T14:30:25Z</time>
      </trkpt>
      <trkpt lat="44.16808" lon="2.04036">
        <ele>96</ele>
        <time>2014-08-15T14:30:27Z</time>
      </trkpt>
      <trkpt lat="44.16802" lon="2.04005">
        <ele>96</ele>
        <time>2014-08-15T14:30:30Z</time>
      </trkpt>
      <trkpt lat="44.16798" lon="2.03984">
        <ele>97</ele>
        <time>2014-08-15T14:30:32Z</time>
      </trkpt>
      <trkpt lat="44.16795" lon="2.03967">
        <ele>97</ele>
        <time>2014-08-15T14:30:34Z</time>
      </trkpt>
      <trkpt lat="44.16793" lon="2.03949">
        <ele>97</ele>
        <time>2014-08-15T14:30:36Z</time>
      </trkpt>
      <trkpt lat="44.16791" lon="2.03931">
        <ele>97</ele>
        <time>2014-08-15T14:30:38Z</time>
      </trkpt>
      <trkpt lat="44.16791" lon="2.03913">
        <ele>98</ele>
        <time>2014-08-15T14:30:40Z</time>
      </trkpt>
      <trkpt lat="44.16791" lon="2.03894">
        <ele>98</ele>
        <time>2014-08-15T14:30:42Z</time>
      </trkpt>
      <trkpt lat="44.16793" lon="2.03867">
        <ele>98</ele>
        <time>2014-08-15T14:30:45Z</time>
      </trkpt>
      <trkpt lat="44.16794" lon="2.03841">
        <ele>98</ele>
        <time>2014-08-15T14:30:48Z</time>
      </trkpt>
      <trkpt lat="44.16795" lon="2.03825">
        <ele>98</ele>
        <time>2014-08-15T14:30:50Z</time>
      </trkpt>
      <trkpt lat="44.16796" lon="2.03809">
        <ele>98</ele>
        <time>2014-08-15T14:30:52Z</time>
      </trkpt>
      <trkpt lat="44.16796" lon="2.03797">
        <ele>99</ele>
        <time>2014-08-15T14:30:54Z</time>
      </trkpt>
      <trkpt lat="44.16795" lon="2.03778">
        <ele>100</ele>
        <time>2014-08-15T14:30:57Z</time>
      </trkpt>
      <trkpt lat="44.16795" lon="2.03767">
        <ele>101</ele>
        <time>2014-08-15T14:30:59Z</time>
      </trkpt>
      <trkpt lat="44.16794" lon="2.03752">
        <ele>102</ele>
        <time>2014-08-15T14:31:02Z</time>
      </trkpt>
      <trkpt lat="44.16795" lon="2.03742">
        <ele>102</ele>
        <time>2014-08-15T14:31:04Z</time>
      </trkpt>
      <trkpt lat="44.16795" lon="2.03731">
        <ele>103</ele>
        <time>2014-08-15T14:31:06Z</time>
      </trkpt>
      <trkpt lat="44.16795" lon="2.0372">
        <ele>104</ele>
        <time>2014-08-15T14:31:08Z</time>
      </trkpt>
      <trkpt lat="44.16793" lon="2.03709">
        <ele>105</ele>
        <time>2014-08-15T14:31:10Z</time>
      </trkpt>
      <trkpt lat="44.1679" lon="2.03694">
        <ele>106</ele>
        <time>2014-08-15T14:31:13Z</time>
      </trkpt>
      <trkpt lat="44.1679" lon="2.03682">
        <ele>106</ele>
        <time>2014-08-15T14:31:15Z</time>
      </trkpt>
      <trkpt lat="44.16788" lon="2.03667">
        <ele>107</ele>
        <time>2014-08-15T14:31:18Z</time>
      </trkpt>
      <trkpt lat="44.1679" lon="2.03657">
        <ele>108</ele>
        <time>2014-08-15T14:31:20Z</time>
      </trkpt>
      <trkpt lat="44.16791" lon="2.03646">
        <ele>108</ele>
        <time>2014-08-15T14:31:22Z</time>
      </trkpt>
      <trkpt lat="44.16793" lon="2.03629">
        <ele>109</ele>
        <time>2014-08-15T14:31:25Z</time>
      </trkpt>
      <trkpt lat="44.16794" lon="2.03618">
        <ele>109</ele>
        <time>2014-08-15T14:31:27Z</time>
      </trkpt>
      <trkpt lat="44.16793" lon="2.03603">
        <ele>110</ele>
        <time>2014-08-15T14:31:30Z</time>
      </trkpt>
      <trkpt lat="44.16793" lon="2.03585">
        <ele>111</ele>
        <time>2014-08-15T14:31:33Z</time>
      </trkpt>
      <trkpt lat="44.16792" lon="2.0357">
        <ele>112</ele>
        <time>2014-08-15T14:31:36Z</time>
      </trkpt>
      <trkpt lat="44.16792" lon="2.03552">
        <ele>113</ele>
        <time>2014-08-15T14:31:39Z</time>
      </trkpt>
      <trkpt lat="44.16791" lon="2.03539">
        <ele>113</ele>
        <time>2014-08-15T14:31:41Z</time>
      </trkpt>
      <trkpt lat="44.16791" lon="2.03521">
        <ele>114</ele>
        <time>2014-08-15T14:31:44Z</time>
      </trkpt>
      <trkpt lat="44.16789" lon="2.0351">
        <ele>115</ele>
        <time>2014-08-15T14:31:46Z</time>
      </trkpt>
      <trkpt lat="44.16788" lon="2.03498">
        <ele>116</ele>
        <time>2014-08-15T14:31:48Z</time>
      </trkpt>
      <trkpt lat="44.16789" lon="2.03486">
        <ele>116</ele>
        <time>2014-08-15T14:31:50Z</time>
      </trkpt>
      <trkpt lat="44.16789" lon="2.03478">
        <ele>117</ele>
        <time>2014-08-15T14:31:52Z</time>
      </trkpt>
      <trkpt lat="44.16787" lon="2.03467">
        <ele>117</ele>
        <time>2014-08-15T14:31:55Z</time>
      </trkpt>
      <trkpt lat="44.16787" lon="2.03454">
        <ele>118</ele>
        <time>2014-08-15T14:31:58Z</time>
      </trkpt>
      <trkpt lat="44.16787" lon="2.03445">
        <ele>118</ele>
        <time>2014-08-15T14:32:00Z</time>
      </trkpt>
      <trkpt lat="44.1679" lon="2.03429">
        <ele>119</ele>
        <time>2014-08-15T14:32:03Z</time>
      </trkpt>
      <trkpt lat="44.16792" lon="2.03419">
        <ele>120</ele>
        <time>2014-08-15T14:32:05Z</time>
      </trkpt>
      <trkpt lat="44.16794" lon="2.03403">
        <ele>121</ele>
        <time>2014-08-15T14:32:08Z</time>
      </trkpt>
      <trkpt lat="44.16795" lon="2.03393">
        <ele>122</ele>
        <time>2014-08-15T14:32:10Z</time>
      </trkpt>
      <trkpt lat="44.16796" lon="2.03377">
        <ele>122</ele>
        <time>2014-08-15T14:32:13Z</time>
      </trkpt>
      <trkpt lat="44.16796" lon="2.03365">
        <ele>123</ele>
        <time>2014-08-15T14:32:15Z</time>
      </trkpt>
      <trkpt lat="44.16795" lon="2.03345">
        <ele>123</ele>
        <time>2014-08-15T14:32:18Z</time>
      </trkpt>
      <trkpt lat="44.16797" lon="2.0332">
        <ele>124</ele>
        <time>2014-08-15T14:32:21Z</time>
      </trkpt>
      <trkpt lat="44.168" lon="2.03294">
        <ele>124</ele>
        <time>2014-08-15T14:32:24Z</time>
      </trkpt>
      <trkpt lat="44.168" lon="2.03277">
        <ele>125</ele>
        <time>2014-08-15T14:32:26Z</time>
      </trkpt>
      <trkpt lat="44.16801" lon="2.03261">
        <ele>125</ele>
        <time>2014-08-15T14:32:28Z</time>
      </trkpt>
      <trkpt lat="44.16801" lon="2.03238">
        <ele>125</ele>
        <time>2014-08-15T14:32:31Z</time>
      </trkpt>
      <trkpt lat="44.16803" lon="2.03222">
        <ele>126</ele>
        <time>2014-08-15T14:32:33Z</time>
      </trkpt>
      <trkpt lat="44.16803" lon="2.03207">
        <ele>126</ele>
        <time>2014-08-15T14:32:35Z</time>
      </trkpt>
      <trkpt lat="44.16801" lon="2.03184">
        <ele>127</ele>
        <time>2014-08-15T14:32:38Z</time>
      </trkpt>
      <trkpt lat="44.16794" lon="2.03163">
        <ele>128</ele>
        <time>2014-08-15T14:32:41Z</time>
      </trkpt>
      <trkpt lat="44.16788" lon="2.03152">
        <ele>128</ele>
        <time>2014-08-15T14:32:43Z</time>
      </trkpt>
      <trkpt lat="44.16779" lon="2.03136">
        <ele>128</ele>
        <time>2014-08-15T14:32:46Z</time>
      </trkpt>
      <trkpt lat="44.16771" lon="2.03125">
        <ele>128</ele>
        <time>2014-08-15T14:32:48Z</time>
      </trkpt>
      <trkpt lat="44.16758" lon="2.03106">
        <ele>128</ele>
        <time>2014-08-15T14:32:51Z</time>
      </trkpt>
      <trkpt lat="44.16745" lon="2.03095">
        <ele>127</ele>
        <time>2014-08-15T14:32:53Z</time>
      </trkpt>
      <trkpt lat="44.16731" lon="2.03086">
        <ele>127</ele>
        <time>2014-08-15T14:32:55Z</time>
      </trkpt>
      <trkpt lat="44.1671" lon="2.03077">
        <ele>127</ele>
        <time>2014-08-15T14:32:58Z</time>
      </trkpt>
      <trkpt lat="44.16696" lon="2.03068">
        <ele>127</ele>
        <time>2014-08-15T14:33:00Z</time>
      </trkpt>
      <trkpt lat="44.16675" lon="2.03057">
        <ele>127</ele>
        <time>2014-08-15T14:33:03Z</time>
      </trkpt>
      <trkpt lat="44.16654" lon="2.03053">
        <ele>125</ele>
        <time>2014-08-15T14:33:06Z</time>
      </trkpt>
      <trkpt lat="44.16634" lon="2.03057">
        <ele>125</ele>
        <time>2014-08-15T14:33:09Z</time>
      </trkpt>
      <trkpt lat="44.16621" lon="2.03058">
        <ele>125</ele>
        <time>2014-08-15T14:33:11Z</time>
      </trkpt>
      <trkpt lat="44.16599" lon="2.03054">
        <ele>125</ele>
        <time>2014-08-15T14:33:14Z</time>
      </trkpt>
      <trkpt lat="44.16575" lon="2.03048">
        <ele>124</ele>
        <time>2014-08-15T14:33:17Z</time>
      </trkpt>
      <trkpt lat="44.16548" lon="2.0304">
        <ele>122</ele>
        <time>2014-08-15T14:33:20Z</time>
      </trkpt>
      <trkpt lat="44.16529" lon="2.03037">
        <ele>120</ele>
        <time>2014-08-15T14:33:22Z</time>
      </trkpt>
      <trkpt lat="44.1651" lon="2.0304">
        <ele>119</ele>
        <time>2014-08-15T14:33:24Z</time>
      </trkpt>
      <trkpt lat="44.16492" lon="2.0304">
        <ele>118</ele>
        <time>2014-08-15T14:33:26Z</time>
      </trkpt>
      <trkpt lat="44.16474" lon="2.03039">
        <ele>117</ele>
        <time>2014-08-15T14:33:28Z</time>
      </trkpt>
      <trkpt lat="44.16443" lon="2.03034">
        <ele>118</ele>
        <time>2014-08-15T14:33:31Z</time>
      </trkpt>
      <trkpt lat="44.16412" lon="2.03033">
        <ele>119</ele>
        <time>2014-08-15T14:33:34Z</time>
      </trkpt>
      <trkpt lat="44.16379" lon="2.03036">
        <ele>117</ele>
        <time>2014-08-15T14:33:37Z</time>
      </trkpt>
      <trkpt lat="44.16359" lon="2.0304">
        <ele>114</ele>
        <time>2014-08-15T14:33:39Z</time>
      </trkpt>
      <trkpt lat="44.16338" lon="2.03049">
        <ele>112</ele>
        <time>2014-08-15T14:33:41Z</time>
      </trkpt>
      <trkpt lat="44.16318" lon="2.03061">
        <ele>109</ele>
        <time>2014-08-15T14:33:43Z</time>
      </trkpt>
      <trkpt lat="44.16299" lon="2.03075">
        <ele>107</ele>
        <time>2014-08-15T14:33:45Z</time>
      </trkpt>
      <trkpt lat="44.16269" lon="2.03096">
        <ele>105</ele>
        <time>2014-08-15T14:33:48Z</time>
      </trkpt>
      <trkpt lat="44.16248" lon="2.03109">
        <ele>102</ele>
        <time>2014-08-15T14:33:50Z</time>
      </trkpt>
      <trkpt lat="44.16226" lon="2.03122">
        <ele>100</ele>
        <time>2014-08-15T14:33:52Z</time>
      </trkpt>
      <trkpt lat="44.16193" lon="2.03141">
        <ele>97</ele>
        <time>2014-08-15T14:33:55Z</time>
      </trkpt>
      <trkpt lat="44.16166" lon="2.03164">
        <ele>95</ele>
        <time>2014-08-15T14:33:58Z</time>
      </trkpt>
      <trkpt lat="44.16147" lon="2.03177">
        <ele>93</ele>
        <time>2014-08-15T14:34:00Z</time>
      </trkpt>
      <trkpt lat="44.16127" lon="2.0318">
        <ele>92</ele>
        <time>2014-08-15T14:34:02Z</time>
      </trkpt>
      <trkpt lat="44.16095" lon="2.03181">
        <ele>92</ele>
        <time>2014-08-15T14:34:05Z</time>
      </trkpt>
      <trkpt lat="44.16065" lon="2.03185">
        <ele>93</ele>
        <time>2014-08-15T14:34:08Z</time>
      </trkpt>
      <trkpt lat="44.16038" lon="2.03187">
        <ele>94</ele>
        <time>2014-08-15T14:34:11Z</time>
      </trkpt>
      <trkpt lat="44.16013" lon="2.03187">
        <ele>95</ele>
        <time>2014-08-15T14:34:14Z</time>
      </trkpt>
      <trkpt lat="44.1599" lon="2.03185">
        <ele>96</ele>
        <time>2014-08-15T14:34:17Z</time>
      </trkpt>
      <trkpt lat="44.15971" lon="2.03185">
        <ele>97</ele>
        <time>2014-08-15T14:34:20Z</time>
      </trkpt>
      <trkpt lat="44.15958" lon="2.03184">
        <ele>98</ele>
        <time>2014-08-15T14:34:22Z</time>
      </trkpt>
      <trkpt lat="44.15947" lon="2.03185">
        <ele>98</ele>
        <time>2014-08-15T14:34:24Z</time>
      </trkpt>
      <trkpt lat="44.15931" lon="2.03189">
        <ele>99</ele>
        <time>2014-08-15T14:34:27Z</time>
      </trkpt>
      <trkpt lat="44.15921" lon="2.03199">
        <ele>100</ele>
        <time>2014-08-15T14:34:30Z</time>
      </trkpt>
      <trkpt lat="44.15913" lon="2.03206">
        <ele>101</ele>
        <time>2014-08-15T14:34:32Z</time>
      </trkpt>
      <trkpt lat="44.159" lon="2.03212">
        <ele>102</ele>
        <time>2014-08-15T14:34:35Z</time>
      </trkpt>
      <trkpt lat="44.15888" lon="2.03209">
        <ele>103</ele>
        <time>2014-08-15T14:34:38Z</time>
      </trkpt>
      <trkpt lat="44.15881" lon="2.03205">
        <ele>104</ele>
        <time>2014-08-15T14:34:40Z</time>
      </trkpt>
      <trkpt lat="44.15873" lon="2.03198">
        <ele>104</ele>
        <time>2014-08-15T14:34:43Z</time>
      </trkpt>
      <trkpt lat="44.15865" lon="2.03194">
        <ele>105</ele>
        <time>2014-08-15T14:34:45Z</time>
      </trkpt>
      <trkpt lat="44.15853" lon="2.0319">
        <ele>106</ele>
        <time>2014-08-15T14:34:48Z</time>
      </trkpt>
      <trkpt lat="44.15841" lon="2.03188">
        <ele>107</ele>
        <time>2014-08-15T14:34:51Z</time>
      </trkpt>
      <trkpt lat="44.1583" lon="2.03188">
        <ele>108</ele>
        <time>2014-08-15T14:34:54Z</time>
      </trkpt>
      <trkpt lat="44.15818" lon="2.03187">
        <ele>108</ele>
        <time>2014-08-15T14:34:57Z</time>
      </trkpt>
      <trkpt lat="44.15808" lon="2.03185">
        <ele>108</ele>
        <time>2014-08-15T14:34:59Z</time>
      </trkpt>
      <trkpt lat="44.15797" lon="2.03183">
        <ele>108</ele>
        <time>2014-08-15T14:35:01Z</time>
      </trkpt>
      <trkpt lat="44.15778" lon="2.03177">
        <ele>108</ele>
        <time>2014-08-15T14:35:04Z</time>
      </trkpt>
      <trkpt lat="44.15764" lon="2.03172">
        <ele>107</ele>
        <time>2014-08-15T14:35:06Z</time>
      </trkpt>
      <trkpt lat="44.15749" lon="2.03169">
        <ele>106</ele>
        <time>2014-08-15T14:35:08Z</time>
      </trkpt>
      <trkpt lat="44.15726" lon="2.03162">
        <ele>105</ele>
        <time>2014-08-15T14:35:11Z</time>
      </trkpt>
      <trkpt lat="44.157" lon="2.03156">
        <ele>103</ele>
        <time>2014-08-15T14:35:14Z</time>
      </trkpt>
      <trkpt lat="44.15677" lon="2.03148">
        <ele>102</ele>
        <time>2014-08-15T14:35:17Z</time>
      </trkpt>
      <trkpt lat="44.15662" lon="2.03144">
        <ele>101</ele>
        <time>2014-08-15T14:35:19Z</time>
      </trkpt>
      <trkpt lat="44.15652" lon="2.0313">
        <ele>100</ele>
        <time>2014-08-15T14:35:21Z</time>
      </trkpt>
      <trkpt lat="44.15648" lon="2.03111">
        <ele>100</ele>
        <time>2014-08-15T14:35:23Z</time>
      </trkpt>
      <trkpt lat="44.15646" lon="2.03079">
        <ele>100</ele>
        <time>2014-08-15T14:35:26Z</time>
      </trkpt>
      <trkpt lat="44.15645" lon="2.03058">
        <ele>101</ele>
        <time>2014-08-15T14:35:28Z</time>
      </trkpt>
      <trkpt lat="44.15645" lon="2.03035">
        <ele>100</ele>
        <time>2014-08-15T14:35:30Z</time>
      </trkpt>
      <trkpt lat="44.15645" lon="2.02999">
        <ele>100</ele>
        <time>2014-08-15T14:35:33Z</time>
      </trkpt>
      <trkpt lat="44.15642" lon="2.02962">
        <ele>98</ele>
        <time>2014-08-15T14:35:36Z</time>
      </trkpt>
      <trkpt lat="44.15636" lon="2.02938">
        <ele>97</ele>
        <time>2014-08-15T14:35:38Z</time>
      </trkpt>
      <trkpt lat="44.15622" lon="2.02918">
        <ele>95</ele>
        <time>2014-08-15T14:35:40Z</time>
      </trkpt>
      <trkpt lat="44.15606" lon="2.02883">
        <ele>93</ele>
        <time>2014-08-15T14:35:43Z</time>
      </trkpt>
      <trkpt lat="44.15603" lon="2.02859">
        <ele>92</ele>
        <time>2014-08-15T14:35:45Z</time>
      </trkpt>
      <trkpt lat="44.15601" lon="2.02833">
        <ele>92</ele>
        <time>2014-08-15T14:35:47Z</time>
      </trkpt>
      <trkpt lat="44.15591" lon="2.02793">
        <ele>91</ele>
        <time>2014-08-15T14:35:50Z</time>
      </trkpt>
      <trkpt lat="44.1558" lon="2.02767">
        <ele>90</ele>
        <time>2014-08-15T14:35:52Z</time>
      </trkpt>
      <trkpt lat="44.15569" lon="2.02745">
        <ele>89</ele>
        <time>2014-08-15T14:35:54Z</time>
      </trkpt>
      <trkpt lat="44.15558" lon="2.02723">
        <ele>89</ele>
        <time>2014-08-15T14:35:56Z</time>
      </trkpt>
      <trkpt lat="44.15544" lon="2.02696">
        <ele>89</ele>
        <time>2014-08-15T14:35:59Z</time>
      </trkpt>
      <trkpt lat="44.15536" lon="2.02676">
        <ele>89</ele>
        <time>2014-08-15T14:36:01Z</time>
      </trkpt>
      <trkpt lat="44.15525" lon="2.02644">
        <ele>88</ele>
        <time>2014-08-15T14:36:04Z</time>
      </trkpt>
      <trkpt lat="44.15516" lon="2.02622">
        <ele>88</ele>
        <time>2014-08-15T14:36:06Z</time>
      </trkpt>
      <trkpt lat="44.15508" lon="2.02598">
        <ele>88</ele>
        <time>2014-08-15T14:36:08Z</time>
      </trkpt>
      <trkpt lat="44.15497" lon="2.02562">
        <ele>88</ele>
        <time>2014-08-15T14:36:11Z</time>
      </trkpt>
      <trkpt lat="44.15484" lon="2.02526">
        <ele>88</ele>
        <time>2014-08-15T14:36:14Z</time>
      </trkpt>
      <trkpt lat="44.15477" lon="2.02503">
        <ele>87</ele>
        <time>2014-08-15T14:36:16Z</time>
      </trkpt>
      <trkpt lat="44.1547" lon="2.02469">
        <ele>87</ele>
        <time>2014-08-15T14:36:19Z</time>
      </trkpt>
      <trkpt lat="44.15466" lon="2.02446">
        <ele>87</ele>
        <time>2014-08-15T14:36:21Z</time>
      </trkpt>
      <trkpt lat="44.15459" lon="2.02427">
        <ele>86</ele>
        <time>2014-08-15T14:36:23Z</time>
      </trkpt>
      <trkpt lat="44.15455" lon="2.02409">
        <ele>86</ele>
        <time>2014-08-15T14:36:25Z</time>
      </trkpt>
      <trkpt lat="44.1545" lon="2.02389">
        <ele>86</ele>
        <time>2014-08-15T14:36:27Z</time>
      </trkpt>
      <trkpt lat="44.1544" lon="2.02357">
        <ele>86</ele>
        <time>2014-08-15T14:36:30Z</time>
      </trkpt>
      <trkpt lat="44.15432" lon="2.02333">
        <ele>86</ele>
        <time>2014-08-15T14:36:32Z</time>
      </trkpt>
      <trkpt lat="44.15425" lon="2.02296">
        <ele>86</ele>
        <time>2014-08-15T14:36:35Z</time>
      </trkpt>
      <trkpt lat="44.15419" lon="2.02261">
        <ele>85</ele>
        <time>2014-08-15T14:36:38Z</time>
      </trkpt>
      <trkpt lat="44.15414" lon="2.02227">
        <ele>86</ele>
        <time>2014-08-15T14:36:41Z</time>
      </trkpt>
      <trkpt lat="44.15411" lon="2.02193">
        <ele>86</ele>
        <time>2014-08-15T14:36:44Z</time>
      </trkpt>
      <trkpt lat="44.15406" lon="2.02171">
        <ele>86</ele>
        <time>2014-08-15T14:36:46Z</time>
      </trkpt>
      <trkpt lat="44.15402" lon="2.02137">
        <ele>86</ele>
        <time>2014-08-15T14:36:49Z</time>
      </trkpt>
      <trkpt lat="44.15402" lon="2.02114">
        <ele>86</ele>
        <time>2014-08-15T14:36:51Z</time>
      </trkpt>
      <trkpt lat="44.15407" lon="2.0208">
        <ele>86</ele>
        <time>2014-08-15T14:36:54Z</time>
      </trkpt>
      <trkpt lat="44.15409" lon="2.02059">
        <ele>86</ele>
        <time>2014-08-15T14:36:56Z</time>
      </trkpt>
      <trkpt lat="44.15416" lon="2.02024">
        <ele>85</ele>
        <time>2014-08-15T14:36:59Z</time>
      </trkpt>
      <trkpt lat="44.1542" lon="2.02001">
        <ele>85</ele>
        <time>2014-08-15T14:37:01Z</time>
      </trkpt>
      <trkpt lat="44.15426" lon="2.01968">
        <ele>85</ele>
        <time>2014-08-15T14:37:04Z</time>
      </trkpt>
      <trkpt lat="44.15431" lon="2.01946">
        <ele>85</ele>
        <time>2014-08-15T14:37:06Z</time>
      </trkpt>
      <trkpt lat="44.15436" lon="2.01925">
        <ele>85</ele>
        <time>2014-08-15T14:37:08Z</time>
      </trkpt>
      <trkpt lat="44.15442" lon="2.01894">
        <ele>85</ele>
        <time>2014-08-15T14:37:11Z</time>
      </trkpt>
      <trkpt lat="44.15446" lon="2.01874">
        <ele>85</ele>
        <time>2014-08-15T14:37:13Z</time>
      </trkpt>
      <trkpt lat="44.15449" lon="2.01855">
        <ele>85</ele>
        <time>2014-08-15T14:37:15Z</time>
      </trkpt>
      <trkpt lat="44.1545" lon="2.01829">
        <ele>86</ele>
        <time>2014-08-15T14:37:18Z</time>
      </trkpt>
      <trkpt lat="44.15446" lon="2.01807">
        <ele>86</ele>
        <time>2014-08-15T14:37:21Z</time>
      </trkpt>
      <trkpt lat="44.15446" lon="2.01791">
        <ele>86</ele>
        <time>2014-08-15T14:37:23Z</time>
      </trkpt>
      <trkpt lat="44.15444" lon="2.01781">
        <ele>86</ele>
        <time>2014-08-15T14:37:25Z</time>
      </trkpt>
      <trkpt lat="44.1544" lon="2.01756">
        <ele>86</ele>
        <time>2014-08-15T14:37:28Z</time>
      </trkpt>
      <trkpt lat="44.15441" lon="2.01739">
        <ele>87</ele>
        <time>2014-08-15T14:37:30Z</time>
      </trkpt>
      <trkpt lat="44.15442" lon="2.01712">
        <ele>87</ele>
        <time>2014-08-15T14:37:33Z</time>
      </trkpt>
      <trkpt lat="44.15438" lon="2.01696">
        <ele>87</ele>
        <time>2014-08-15T14:37:35Z</time>
      </trkpt>
      <trkpt lat="44.15435" lon="2.01684">
        <ele>87</ele>
        <time>2014-08-15T14:37:37Z</time>
      </trkpt>
      <trkpt lat="44.15434" lon="2.0167">
        <ele>88</ele>
        <time>2014-08-15T14:37:39Z</time>
      </trkpt>
      <trkpt lat="44.15432" lon="2.01656">
        <ele>88</ele>
        <time>2014-08-15T14:37:41Z</time>
      </trkpt>
      <trkpt lat="44.15431" lon="2.01635">
        <ele>88</ele>
        <time>2014-08-15T14:37:44Z</time>
      </trkpt>
      <trkpt lat="44.15427" lon="2.01616">
        <ele>88</ele>
        <time>2014-08-15T14:37:47Z</time>
      </trkpt>
      <trkpt lat="44.15417" lon="2.01605">
        <ele>88</ele>
        <time>2014-08-15T14:37:50Z</time>
      </trkpt>
      <trkpt lat="44.15409" lon="2.01596">
        <ele>88</ele>
        <time>2014-08-15T14:37:52Z</time>
      </trkpt>
      <trkpt lat="44.15405" lon="2.01583">
        <ele>88</ele>
        <time>2014-08-15T14:37:54Z</time>
      </trkpt>
      <trkpt lat="44.15403" lon="2.01564">
        <ele>88</ele>
        <time>2014-08-15T14:37:56Z</time>
      </trkpt>
      <trkpt lat="44.15409" lon="2.01533">
        <ele>88</ele>
        <time>2014-08-15T14:37:59Z</time>
      </trkpt>
      <trkpt lat="44.15413" lon="2.015">
        <ele>88</ele>
        <time>2014-08-15T14:38:02Z</time>
      </trkpt>
      <trkpt lat="44.1541" lon="2.01468">
        <ele>88</ele>
        <time>2014-08-15T14:38:05Z</time>
      </trkpt>
      <trkpt lat="44.15404" lon="2.01445">
        <ele>87</ele>
        <time>2014-08-15T14:38:08Z</time>
      </trkpt>
      <trkpt lat="44.15394" lon="2.01416">
        <ele>86</ele>
        <time>2014-08-15T14:38:11Z</time>
      </trkpt>
      <trkpt lat="44.15379" lon="2.01383">
        <ele>86</ele>
        <time>2014-08-15T14:38:14Z</time>
      </trkpt>
      <trkpt lat="44.15368" lon="2.01343">
        <ele>86</ele>
        <time>2014-08-15T14:38:17Z</time>
      </trkpt>
      <trkpt lat="44.15358" lon="2.01308">
        <ele>85</ele>
        <time>2014-08-15T14:38:20Z</time>
      </trkpt>
      <trkpt lat="44.15352" lon="2.01277">
        <ele>85</ele>
        <time>2014-08-15T14:38:23Z</time>
      </trkpt>
      <trkpt lat="44.15344" lon="2.01242">
        <ele>85</ele>
        <time>2014-08-15T14:38:26Z</time>
      </trkpt>
      <trkpt lat="44.15338" lon="2.01214">
        <ele>84</ele>
        <time>2014-08-15T14:38:29Z</time>
      </trkpt>
      <trkpt lat="44.15334" lon="2.01196">
        <ele>84</ele>
        <time>2014-08-15T14:38:31Z</time>
      </trkpt>
      <trkpt lat="44.15327" lon="2.01173">
        <ele>83</ele>
        <time>2014-08-15T14:38:33Z</time>
      </trkpt>
      <trkpt lat="44.15315" lon="2.01138">
        <ele>83</ele>
        <time>2014-08-15T14:38:36Z</time>
      </trkpt>
      <trkpt lat="44.15304" lon="2.01107">
        <ele>84</ele>
        <time>2014-08-15T14:38:39Z</time>
      </trkpt>
      <trkpt lat="44.15297" lon="2.01086">
        <ele>83</ele>
        <time>2014-08-15T14:38:41Z</time>
      </trkpt>
      <trkpt lat="44.15284" lon="2.01053">
        <ele>83</ele>
        <time>2014-08-15T14:38:44Z</time>
      </trkpt>
      <trkpt lat="44.15277" lon="2.01035">
        <ele>83</ele>
        <time>2014-08-15T14:38:46Z</time>
      </trkpt>
      <trkpt lat="44.15264" lon="2.01012">
        <ele>83</ele>
        <time>2014-08-15T14:38:49Z</time>
      </trkpt>
      <trkpt lat="44.15252" lon="2.00988">
        <ele>82</ele>
        <time>2014-08-15T14:38:52Z</time>
      </trkpt>
      <trkpt lat="44.15237" lon="2.00958">
        <ele>82</ele>
        <time>2014-08-15T14:38:55Z</time>
      </trkpt>
      <trkpt lat="44.1523" lon="2.00937">
        <ele>82</ele>
        <time>2014-08-15T14:38:57Z</time>
      </trkpt>
      <trkpt lat="44.15222" lon="2.00916">
        <ele>82</ele>
        <time>2014-08-15T14:38:59Z</time>
      </trkpt>
      <trkpt lat="44.15211" lon="2.00883">
        <ele>82</ele>
        <time>2014-08-15T14:39:02Z</time>
      </trkpt>
      <trkpt lat="44.15204" lon="2.00864">
        <ele>82</ele>
        <time>2014-08-15T14:39:04Z</time>
      </trkpt>
      <trkpt lat="44.15196" lon="2.00844">
        <ele>82</ele>
        <time>2014-08-15T14:39:06Z</time>
      </trkpt>
      <trkpt lat="44.15185" lon="2.00811">
        <ele>82</ele>
        <time>2014-08-15T14:39:09Z</time>
      </trkpt>
      <trkpt lat="44.15174" lon="2.00781">
        <ele>83</ele>
        <time>2014-08-15T14:39:12Z</time>
      </trkpt>
      <trkpt lat="44.15161" lon="2.00752">
        <ele>83</ele>
        <time>2014-08-15T14:39:15Z</time>
      </trkpt>
      <trkpt lat="44.15146" lon="2.00726">
        <ele>83</ele>
        <time>2014-08-15T14:39:18Z</time>
      </trkpt>
      <trkpt lat="44.1514" lon="2.00701">
        <ele>82</ele>
        <time>2014-08-15T14:39:21Z</time>
      </trkpt>
      <trkpt lat="44.15133" lon="2.00678">
        <ele>82</ele>
        <time>2014-08-15T14:39:24Z</time>
      </trkpt>
      <trkpt lat="44.15129" lon="2.00663">
        <ele>82</ele>
        <time>2014-08-15T14:39:26Z</time>
      </trkpt>
      <trkpt lat="44.15122" lon="2.00637">
        <ele>82</ele>
        <time>2014-08-15T14:39:29Z</time>
      </trkpt>
      <trkpt lat="44.15118" lon="2.0062">
        <ele>82</ele>
        <time>2014-08-15T14:39:31Z</time>
      </trkpt>
      <trkpt lat="44.15111" lon="2.00593">
        <ele>82</ele>
        <time>2014-08-15T14:39:34Z</time>
      </trkpt>
      <trkpt lat="44.15108" lon="2.00572">
        <ele>81</ele>
        <time>2014-08-15T14:39:36Z</time>
      </trkpt>
      <trkpt lat="44.15104" lon="2.00553">
        <ele>81</ele>
        <time>2014-08-15T14:39:38Z</time>
      </trkpt>
      <trkpt lat="44.15099" lon="2.00534">
        <ele>82</ele>
        <time>2014-08-15T14:39:40Z</time>
      </trkpt>
      <trkpt lat="44.15088" lon="2.00508">
        <ele>82</ele>
        <time>2014-08-15T14:39:43Z</time>
      </trkpt>
      <trkpt lat="44.15076" lon="2.00497">
        <ele>82</ele>
        <time>2014-08-15T14:39:45Z</time>
      </trkpt>
      <trkpt lat="44.15056" lon="2.00489">
        <ele>83</ele>
        <time>2014-08-15T14:39:48Z</time>
      </trkpt>
      <trkpt lat="44.15043" lon="2.0049">
        <ele>83</ele>
        <time>2014-08-15T14:39:50Z</time>
      </trkpt>
      <trkpt lat="44.1503" lon="2.0049">
        <ele>83</ele>
        <time>2014-08-15T14:39:52Z</time>
      </trkpt>
      <trkpt lat="44.15013" lon="2.00492">
        <ele>84</ele>
        <time>2014-08-15T14:39:55Z</time>
      </trkpt>
      <trkpt lat="44.15001" lon="2.00494">
        <ele>84</ele>
        <time>2014-08-15T14:39:57Z</time>
      </trkpt>
      <trkpt lat="44.14982" lon="2.00489">
        <ele>84</ele>
        <time>2014-08-15T14:40:00Z</time>
      </trkpt>
      <trkpt lat="44.14972" lon="2.00481">
        <ele>85</ele>
        <time>2014-08-15T14:40:02Z</time>
      </trkpt>
      <trkpt lat="44.1496" lon="2.00461">
        <ele>85</ele>
        <time>2014-08-15T14:40:05Z</time>
      </trkpt>
      <trkpt lat="44.14954" lon="2.00448">
        <ele>85</ele>
        <time>2014-08-15T14:40:07Z</time>
      </trkpt>
      <trkpt lat="44.14953" lon="2.00432">
        <ele>85</ele>
        <time>2014-08-15T14:40:10Z</time>
      </trkpt>
      <trkpt lat="44.14953" lon="2.00417">
        <ele>86</ele>
        <time>2014-08-15T14:40:13Z</time>
      </trkpt>
      <trkpt lat="44.14956" lon="2.00409">
        <ele>87</ele>
        <time>2014-08-15T14:40:15Z</time>
      </trkpt>
      <trkpt lat="44.14963" lon="2.00401">
        <ele>87</ele>
        <time>2014-08-15T14:40:17Z</time>
      </trkpt>
      <trkpt lat="44.14972" lon="2.00394">
        <ele>88</ele>
        <time>2014-08-15T14:40:19Z</time>
      </trkpt>
      <trkpt lat="44.14981" lon="2.00387">
        <ele>88</ele>
        <time>2014-08-15T14:40:21Z</time>
      </trkpt>
      <trkpt lat="44.14991" lon="2.0038">
        <ele>89</ele>
        <time>2014-08-15T14:40:23Z</time>
      </trkpt>
      <trkpt lat="44.15007" lon="2.00371">
        <ele>89</ele>
        <time>2014-08-15T14:40:26Z</time>
      </trkpt>
      <trkpt lat="44.15019" lon="2.00361">
        <ele>91</ele>
        <time>2014-08-15T14:40:29Z</time>
      </trkpt>
      <trkpt lat="44.15026" lon="2.00354">
        <ele>91</ele>
        <time>2014-08-15T14:40:31Z</time>
      </trkpt>
      <trkpt lat="44.15031" lon="2.00348">
        <ele>92</ele>
        <time>2014-08-15T14:40:33Z</time>
      </trkpt>
      <trkpt lat="44.15036" lon="2.00339">
        <ele>92</ele>
        <time>2014-08-15T14:40:36Z</time>
      </trkpt>
      <trkpt lat="44.15041" lon="2.00327">
        <ele>93</ele>
        <time>2014-08-15T14:40:39Z</time>
      </trkpt>
      <trkpt lat="44.15045" lon="2.00312">
        <ele>94</ele>
        <time>2014-08-15T14:40:42Z</time>
      </trkpt>
      <trkpt lat="44.15047" lon="2.00303">
        <ele>94</ele>
        <time>2014-08-15T14:40:44Z</time>
      </trkpt>
      <trkpt lat="44.15047" lon="2.00293">
        <ele>95</ele>
        <time>2014-08-15T14:40:46Z</time>
      </trkpt>
      <trkpt lat="44.15046" lon="2.0028">
        <ele>95</ele>
        <time>2014-08-15T14:40:48Z</time>
      </trkpt>
      <trkpt lat="44.15045" lon="2.00268">
        <ele>96</ele>
        <time>2014-08-15T14:40:50Z</time>
      </trkpt>
      <trkpt lat="44.15041" lon="2.00256">
        <ele>96</ele>
        <time>2014-08-15T14:40:52Z</time>
      </trkpt>
      <trkpt lat="44.15039" lon="2.0024">
        <ele>97</ele>
        <time>2014-08-15T14:40:55Z</time>
      </trkpt>
      <trkpt lat="44.15036" lon="2.0023">
        <ele>97</ele>
        <time>2014-08-15T14:40:57Z</time>
      </trkpt>
      <trkpt lat="44.15033" lon="2.00218">
        <ele>98</ele>
        <time>2014-08-15T14:40:59Z</time>
      </trkpt>
      <trkpt lat="44.1503" lon="2.00208">
        <ele>98</ele>
        <time>2014-08-15T14:41:01Z</time>
      </trkpt>
      <trkpt lat="44.15023" lon="2.00197">
        <ele>99</ele>
        <time>2014-08-15T14:41:03Z</time>
      </trkpt>
      <trkpt lat="44.15015" lon="2.00185">
        <ele>99</ele>
        <time>2014-08-15T14:41:05Z</time>
      </trkpt>
      <trkpt lat="44.15004" lon="2.00164">
        <ele>98</ele>
        <time>2014-08-15T14:41:08Z</time>
      </trkpt>
      <trkpt lat="44.15001" lon="2.00149">
        <ele>98</ele>
        <time>2014-08-15T14:41:10Z</time>
      </trkpt>
      <trkpt lat="44.15003" lon="2.00121">
        <ele>98</ele>
        <time>2014-08-15T14:41:13Z</time>
      </trkpt>
      <trkpt lat="44.15004" lon="2.001">
        <ele>98</ele>
        <time>2014-08-15T14:41:15Z</time>
      </trkpt>
      <trkpt lat="44.15008" lon="2.00066">
        <ele>97</ele>
        <time>2014-08-15T14:41:18Z</time>
      </trkpt>
      <trkpt lat="44.15011" lon="2.00044">
        <ele>96</ele>
        <time>2014-08-15T14:41:20Z</time>
      </trkpt>
      <trkpt lat="44.15013" lon="2.00021">
        <ele>95</ele>
        <time>2014-08-15T14:41:22Z</time>
      </trkpt>
      <trkpt lat="44.15014" lon="1.99983">
        <ele>95</ele>
        <time>2014-08-15T14:41:25Z</time>
      </trkpt>
      <trkpt lat="44.15012" lon="1.9996">
        <ele>94</ele>
        <time>2014-08-15T14:41:27Z</time>
      </trkpt>
      <trkpt lat="44.1501" lon="1.99941">
        <ele>94</ele>
        <time>2014-08-15T14:41:29Z</time>
      </trkpt>
      <trkpt lat="44.15007" lon="1.99916">
        <ele>93</ele>
        <time>2014-08-15T14:41:32Z</time>
      </trkpt>
      <trkpt lat="44.15" lon="1.99889">
        <ele>92</ele>
        <time>2014-08-15T14:41:35Z</time>
      </trkpt>
      <trkpt lat="44.14996" lon="1.9986">
        <ele>90</ele>
        <time>2014-08-15T14:41:38Z</time>
      </trkpt>
      <trkpt lat="44.14993" lon="1.99841">
        <ele>90</ele>
        <time>2014-08-15T14:41:40Z</time>
      </trkpt>
      <trkpt lat="44.1499" lon="1.99802">
        <ele>89</ele>
        <time>2014-08-15T14:41:43Z</time>
      </trkpt>
      <trkpt lat="44.14986" lon="1.99776">
        <ele>89</ele>
        <time>2014-08-15T14:41:45Z</time>
      </trkpt>
      <trkpt lat="44.14979" lon="1.9975">
        <ele>89</ele>
        <time>2014-08-15T14:41:47Z</time>
      </trkpt>
      <trkpt lat="44.14971" lon="1.99724">
        <ele>88</ele>
        <time>2014-08-15T14:41:49Z</time>
      </trkpt>
      <trkpt lat="44.14962" lon="1.99687">
        <ele>88</ele>
        <time>2014-08-15T14:41:52Z</time>
      </trkpt>
      <trkpt lat="44.14954" lon="1.9965">
        <ele>87</ele>
        <time>2014-08-15T14:41:55Z</time>
      </trkpt>
      <trkpt lat="44.1495" lon="1.99624">
        <ele>87</ele>
        <time>2014-08-15T14:41:57Z</time>
      </trkpt>
      <trkpt lat="44.14942" lon="1.99588">
        <ele>86</ele>
        <time>2014-08-15T14:42:00Z</time>
      </trkpt>
      <trkpt lat="44.14937" lon="1.99564">
        <ele>86</ele>
        <time>2014-08-15T14:42:02Z</time>
      </trkpt>
      <trkpt lat="44.14927" lon="1.9953">
        <ele>86</ele>
        <time>2014-08-15T14:42:05Z</time>
      </trkpt>
      <trkpt lat="44.14917" lon="1.99499">
        <ele>86</ele>
        <time>2014-08-15T14:42:08Z</time>
      </trkpt>
      <trkpt lat="44.14909" lon="1.9948">
        <ele>86</ele>
        <time>2014-08-15T14:42:10Z</time>
      </trkpt>
      <trkpt lat="44.14899" lon="1.99448">
        <ele>85</ele>
        <time>2014-08-15T14:42:13Z</time>
      </trkpt>
      <trkpt lat="44.14885" lon="1.99418">
        <ele>84</ele>
        <time>2014-08-15T14:42:16Z</time>
      </trkpt>
      <trkpt lat="44.14876" lon="1.99396">
        <ele>84</ele>
        <time>2014-08-15T14:42:18Z</time>
      </trkpt>
      <trkpt lat="44.14869" lon="1.99377">
        <ele>84</ele>
        <time>2014-08-15T14:42:20Z</time>
      </trkpt>
      <trkpt lat="44.14865" lon="1.99358">
        <ele>84</ele>
        <time>2014-08-15T14:42:22Z</time>
      </trkpt>
      <trkpt lat="44.14861" lon="1.99338">
        <ele>84</ele>
        <time>2014-08-15T14:42:24Z</time>
      </trkpt>
      <trkpt lat="44.14858" lon="1.99311">
        <ele>85</ele>
        <time>2014-08-15T14:42:27Z</time>
      </trkpt>
      <trkpt lat="44.14854" lon="1.99292">
        <ele>86</ele>
        <time>2014-08-15T14:42:29Z</time>
      </trkpt>
      <trkpt lat="44.14851" lon="1.99272">
        <ele>86</ele>
        <time>2014-08-15T14:42:31Z</time>
      </trkpt>
      <trkpt lat="44.14849" lon="1.99251">
        <ele>86</ele>
        <time>2014-08-15T14:42:33Z</time>
      </trkpt>
      <trkpt lat="44.14848" lon="1.99229">
        <ele>86</ele>
        <time>2014-08-15T14:42:35Z</time>
      </trkpt>
      <trkpt lat="44.14847" lon="1.99209">
        <ele>87</ele>
        <time>2014-08-15T14:42:37Z</time>
      </trkpt>
      <trkpt lat="44.14845" lon="1.99192">
        <ele>86</ele>
        <time>2014-08-15T14:42:39Z</time>
      </trkpt>
      <trkpt lat="44.14838" lon="1.99175">
        <ele>86</ele>
        <time>2014-08-15T14:42:41Z</time>
      </trkpt>
      <trkpt lat="44.14835" lon="1.99146">
        <ele>87</ele>
        <time>2014-08-15T14:42:44Z</time>
      </trkpt>
      <trkpt lat="44.1483" lon="1.99118">
        <ele>88</ele>
        <time>2014-08-15T14:42:47Z</time>
      </trkpt>
      <trkpt lat="44.14827" lon="1.99102">
        <ele>88</ele>
        <time>2014-08-15T14:42:49Z</time>
      </trkpt>
      <trkpt lat="44.14824" lon="1.99086">
        <ele>88</ele>
        <time>2014-08-15T14:42:51Z</time>
      </trkpt>
      <trkpt lat="44.1482" lon="1.99067">
        <ele>88</ele>
        <time>2014-08-15T14:42:54Z</time>
      </trkpt>
      <trkpt lat="44.14817" lon="1.99053">
        <ele>88</ele>
        <time>2014-08-15T14:42:56Z</time>
      </trkpt>
      <trkpt lat="44.1481" lon="1.99033">
        <ele>88</ele>
        <time>2014-08-15T14:42:59Z</time>
      </trkpt>
      <trkpt lat="44.14808" lon="1.99016">
        <ele>89</ele>
        <time>2014-08-15T14:43:01Z</time>
      </trkpt>
      <trkpt lat="44.14804" lon="1.98992">
        <ele>89</ele>
        <time>2014-08-15T14:43:04Z</time>
      </trkpt>
      <trkpt lat="44.14801" lon="1.98972">
        <ele>88</ele>
        <time>2014-08-15T14:43:07Z</time>
      </trkpt>
      <trkpt lat="44.14797" lon="1.98957">
        <ele>88</ele>
        <time>2014-08-15T14:43:09Z</time>
      </trkpt>
      <trkpt lat="44.14795" lon="1.98931">
        <ele>88</ele>
        <time>2014-08-15T14:43:12Z</time>
      </trkpt>
      <trkpt lat="44.14793" lon="1.98913">
        <ele>89</ele>
        <time>2014-08-15T14:43:14Z</time>
      </trkpt>
      <trkpt lat="44.14793" lon="1.98893">
        <ele>89</ele>
        <time>2014-08-15T14:43:16Z</time>
      </trkpt>
      <trkpt lat="44.14794" lon="1.98872">
        <ele>90</ele>
        <time>2014-08-15T14:43:18Z</time>
      </trkpt>
      <trkpt lat="44.14793" lon="1.98853">
        <ele>90</ele>
        <time>2014-08-15T14:43:20Z</time>
      </trkpt>
      <trkpt lat="44.14793" lon="1.98833">
        <ele>91</ele>
        <time>2014-08-15T14:43:22Z</time>
      </trkpt>
      <trkpt lat="44.14791" lon="1.98805">
        <ele>91</ele>
        <time>2014-08-15T14:43:25Z</time>
      </trkpt>
      <trkpt lat="44.1479" lon="1.98787">
        <ele>91</ele>
        <time>2014-08-15T14:43:27Z</time>
      </trkpt>
      <trkpt lat="44.14789" lon="1.9877">
        <ele>92</ele>
        <time>2014-08-15T14:43:29Z</time>
      </trkpt>
      <trkpt lat="44.14787" lon="1.98745">
        <ele>92</ele>
        <time>2014-08-15T14:43:32Z</time>
      </trkpt>
      <trkpt lat="44.14787" lon="1.9872">
        <ele>92</ele>
        <time>2014-08-15T14:43:35Z</time>
      </trkpt>
      <trkpt lat="44.14787" lon="1.98705">
        <ele>93</ele>
        <time>2014-08-15T14:43:37Z</time>
      </trkpt>
      <trkpt lat="44.14783" lon="1.98686">
        <ele>93</ele>
        <time>2014-08-15T14:43:40Z</time>
      </trkpt>
      <trkpt lat="44.14777" lon="1.98665">
        <ele>94</ele>
        <time>2014-08-15T14:43:43Z</time>
      </trkpt>
      <trkpt lat="44.14772" lon="1.98644">
        <ele>95</ele>
        <time>2014-08-15T14:43:46Z</time>
      </trkpt>
      <trkpt lat="44.14771" lon="1.9863">
        <ele>95</ele>
        <time>2014-08-15T14:43:48Z</time>
      </trkpt>
      <trkpt lat="44.14767" lon="1.98616">
        <ele>95</ele>
        <time>2014-08-15T14:43:50Z</time>
      </trkpt>
      <trkpt lat="44.14762" lon="1.98605">
        <ele>96</ele>
        <time>2014-08-15T14:43:52Z</time>
      </trkpt>
      <trkpt lat="44.1476" lon="1.98582">
        <ele>96</ele>
        <time>2014-08-15T14:43:55Z</time>
      </trkpt>
      <trkpt lat="44.14761" lon="1.98566">
        <ele>97</ele>
        <time>2014-08-15T14:43:57Z</time>
      </trkpt>
      <trkpt lat="44.14766" lon="1.98542">
        <ele>98</ele>
        <time>2014-08-15T14:44:00Z</time>
      </trkpt>
      <trkpt lat="44.14772" lon="1.98527">
        <ele>98</ele>
        <time>2014-08-15T14:44:02Z</time>
      </trkpt>
      <trkpt lat="44.1478" lon="1.98506">
        <ele>99</ele>
        <time>2014-08-15T14:44:05Z</time>
      </trkpt>
      <trkpt lat="44.14784" lon="1.98492">
        <ele>99</ele>
        <time>2014-08-15T14:44:07Z</time>
      </trkpt>
      <trkpt lat="44.14789" lon="1.9848">
        <ele>99</ele>
        <time>2014-08-15T14:44:09Z</time>
      </trkpt>
      <trkpt lat="44.14795" lon="1.98466">
        <ele>99</ele>
        <time>2014-08-15T14:44:11Z</time>
      </trkpt>
      <trkpt lat="44.14802" lon="1.98451">
        <ele>100</ele>
        <time>2014-08-15T14:44:13Z</time>
      </trkpt>
      <trkpt lat="44.14807" lon="1.98436">
        <ele>100</ele>
        <time>2014-08-15T14:44:15Z</time>
      </trkpt>
      <trkpt lat="44.14814" lon="1.98414">
        <ele>100</ele>
        <time>2014-08-15T14:44:18Z</time>
      </trkpt>
      <trkpt lat="44.14818" lon="1.98399">
        <ele>101</ele>
        <time>2014-08-15T14:44:20Z</time>
      </trkpt>
      <trkpt lat="44.14819" lon="1.98384">
        <ele>101</ele>
        <time>2014-08-15T14:44:22Z</time>
      </trkpt>
      <trkpt lat="44.14819" lon="1.9837">
        <ele>101</ele>
        <time>2014-08-15T14:44:24Z</time>
      </trkpt>
      <trkpt lat="44.14814" lon="1.98352">
        <ele>102</ele>
        <time>2014-08-15T14:44:27Z</time>
      </trkpt>
      <trkpt lat="44.14807" lon="1.98343">
        <ele>102</ele>
        <time>2014-08-15T14:44:29Z</time>
      </trkpt>
      <trkpt lat="44.14799" lon="1.98336">
        <ele>101</ele>
        <time>2014-08-15T14:44:31Z</time>
      </trkpt>
      <trkpt lat="44.14789" lon="1.98331">
        <ele>101</ele>
        <time>2014-08-15T14:44:33Z</time>
      </trkpt>
      <trkpt lat="44.14773" lon="1.98326">
        <ele>101</ele>
        <time>2014-08-15T14:44:36Z</time>
      </trkpt>
      <trkpt lat="44.14761" lon="1.98324">
        <ele>100</ele>
        <time>2014-08-15T14:44:38Z</time>
      </trkpt>
      <trkpt lat="44.1475" lon="1.98321">
        <ele>99</ele>
        <time>2014-08-15T14:44:40Z</time>
      </trkpt>
      <trkpt lat="44.14738" lon="1.98319">
        <ele>99</ele>
        <time>2014-08-15T14:44:42Z</time>
      </trkpt>
      <trkpt lat="44.14717" lon="1.98313">
        <ele>98</ele>
        <time>2014-08-15T14:44:45Z</time>
      </trkpt>
      <trkpt lat="44.14703" lon="1.98307">
        <ele>97</ele>
        <time>2014-08-15T14:44:47Z</time>
      </trkpt>
      <trkpt lat="44.1468" lon="1.98293">
        <ele>96</ele>
        <time>2014-08-15T14:44:50Z</time>
      </trkpt>
      <trkpt lat="44.14666" lon="1.98283">
        <ele>95</ele>
        <time>2014-08-15T14:44:52Z</time>
      </trkpt>
      <trkpt lat="44.14652" lon="1.98271">
        <ele>94</ele>
        <time>2014-08-15T14:44:54Z</time>
      </trkpt>
      <trkpt lat="44.14639" lon="1.98258">
        <ele>93</ele>
        <time>2014-08-15T14:44:56Z</time>
      </trkpt>
      <trkpt lat="44.14626" lon="1.98245">
        <ele>92</ele>
        <time>2014-08-15T14:44:58Z</time>
      </trkpt>
      <trkpt lat="44.14606" lon="1.98221">
        <ele>91</ele>
        <time>2014-08-15T14:45:01Z</time>
      </trkpt>
      <trkpt lat="44.14585" lon="1.98191">
        <ele>90</ele>
        <time>2014-08-15T14:45:04Z</time>
      </trkpt>
      <trkpt lat="44.14572" lon="1.98172">
        <ele>89</ele>
        <time>2014-08-15T14:45:06Z</time>
      </trkpt>
      <trkpt lat="44.14558" lon="1.98155">
        <ele>88</ele>
        <time>2014-08-15T14:45:08Z</time>
      </trkpt>
      <trkpt lat="44.14545" lon="1.98137">
        <ele>87</ele>
        <time>2014-08-15T14:45:10Z</time>
      </trkpt>
      <trkpt lat="44.14532" lon="1.98118">
        <ele>87</ele>
        <time>2014-08-15T14:45:12Z</time>
      </trkpt>
      <trkpt lat="44.14514" lon="1.98086">
        <ele>88</ele>
        <time>2014-08-15T14:45:15Z</time>
      </trkpt>
      <trkpt lat="44.14497" lon="1.98054">
        <ele>89</ele>
        <time>2014-08-15T14:45:18Z</time>
      </trkpt>
      <trkpt lat="44.14479" lon="1.98022">
        <ele>87</ele>
        <time>2014-08-15T14:45:21Z</time>
      </trkpt>
      <trkpt lat="44.14462" lon="1.97987">
        <ele>85</ele>
        <time>2014-08-15T14:45:24Z</time>
      </trkpt>
      <trkpt lat="44.14453" lon="1.97963">
        <ele>83</ele>
        <time>2014-08-15T14:45:26Z</time>
      </trkpt>
      <trkpt lat="44.14444" lon="1.9794">
        <ele>81</ele>
        <time>2014-08-15T14:45:28Z</time>
      </trkpt>
      <trkpt lat="44.14436" lon="1.97916">
        <ele>81</ele>
        <time>2014-08-15T14:45:30Z</time>
      </trkpt>
      <trkpt lat="44.14428" lon="1.97895">
        <ele>80</ele>
        <time>2014-08-15T14:45:32Z</time>
      </trkpt>
      <trkpt lat="44.14419" lon="1.97861">
        <ele>80</ele>
        <time>2014-08-15T14:45:35Z</time>
      </trkpt>
      <trkpt lat="44.14415" lon="1.97838">
        <ele>79</ele>
        <time>2014-08-15T14:45:37Z</time>
      </trkpt>
      <trkpt lat="44.14414" lon="1.97802">
        <ele>79</ele>
        <time>2014-08-15T14:45:40Z</time>
      </trkpt>
      <trkpt lat="44.14413" lon="1.97778">
        <ele>79</ele>
        <time>2014-08-15T14:45:42Z</time>
      </trkpt>
      <trkpt lat="44.1441" lon="1.97754">
        <ele>79</ele>
        <time>2014-08-15T14:45:44Z</time>
      </trkpt>
      <trkpt lat="44.14404" lon="1.9772">
        <ele>78</ele>
        <time>2014-08-15T14:45:47Z</time>
      </trkpt>
      <trkpt lat="44.14399" lon="1.97697">
        <ele>78</ele>
        <time>2014-08-15T14:45:49Z</time>
      </trkpt>
      <trkpt lat="44.14393" lon="1.97674">
        <ele>77</ele>
        <time>2014-08-15T14:45:51Z</time>
      </trkpt>
      <trkpt lat="44.14388" lon="1.97652">
        <ele>77</ele>
        <time>2014-08-15T14:45:53Z</time>
      </trkpt>
      <trkpt lat="44.1438" lon="1.97619">
        <ele>76</ele>
        <time>2014-08-15T14:45:56Z</time>
      </trkpt>
      <trkpt lat="44.14371" lon="1.97589">
        <ele>76</ele>
        <time>2014-08-15T14:45:59Z</time>
      </trkpt>
      <trkpt lat="44.14362" lon="1.97559">
        <ele>76</ele>
        <time>2014-08-15T14:46:02Z</time>
      </trkpt>
      <trkpt lat="44.14351" lon="1.9753">
        <ele>75</ele>
        <time>2014-08-15T14:46:05Z</time>
      </trkpt>
      <trkpt lat="44.14338" lon="1.97505">
        <ele>75</ele>
        <time>2014-08-15T14:46:08Z</time>
      </trkpt>
      <trkpt lat="44.1433" lon="1.97496">
        <ele>75</ele>
        <time>2014-08-15T14:46:10Z</time>
      </trkpt>
      <trkpt lat="44.14322" lon="1.97493">
        <ele>76</ele>
        <time>2014-08-15T14:46:12Z</time>
      </trkpt>
      <trkpt lat="44.14318" lon="1.9749">
        <ele>77</ele>
        <time>2014-08-15T14:46:14Z</time>
      </trkpt>
      <trkpt lat="44.14313" lon="1.97486">
        <ele>78</ele>
        <time>2014-08-15T14:46:17Z</time>
      </trkpt>
      <trkpt lat="44.14307" lon="1.97482">
        <ele>79</ele>
        <time>2014-08-15T14:46:20Z</time>
      </trkpt>
      <trkpt lat="44.14304" lon="1.97479">
        <ele>80</ele>
        <time>2014-08-15T14:46:22Z</time>
      </trkpt>
      <trkpt lat="44.14299" lon="1.97474">
        <ele>81</ele>
        <time>2014-08-15T14:46:25Z</time>
      </trkpt>
      <trkpt lat="44.14295" lon="1.97471">
        <ele>82</ele>
        <time>2014-08-15T14:46:27Z</time>
      </trkpt>
      <trkpt lat="44.14289" lon="1.97464">
        <ele>84</ele>
        <time>2014-08-15T14:46:30Z</time>
      </trkpt>
      <trkpt lat="44.14283" lon="1.97459">
        <ele>85</ele>
        <time>2014-08-15T14:46:33Z</time>
      </trkpt>
      <trkpt lat="44.14279" lon="1.97454">
        <ele>86</ele>
        <time>2014-08-15T14:46:35Z</time>
      </trkpt>
      <trkpt lat="44.14272" lon="1.97449">
        <ele>87</ele>
        <time>2014-08-15T14:46:38Z</time>
      </trkpt>
      <trkpt lat="44.14268" lon="1.97445">
        <ele>88</ele>
        <time>2014-08-15T14:46:40Z</time>
      </trkpt>
      <trkpt lat="44.14264" lon="1.97442">
        <ele>89</ele>
        <time>2014-08-15T14:46:42Z</time>
      </trkpt>
      <trkpt lat="44.1426" lon="1.97438">
        <ele>90</ele>
        <time>2014-08-15T14:46:44Z</time>
      </trkpt>
      <trkpt lat="44.14256" lon="1.97435">
        <ele>91</ele>
        <time>2014-08-15T14:46:46Z</time>
      </trkpt>
      <trkpt lat="44.14249" lon="1.97431">
        <ele>91</ele>
        <time>2014-08-15T14:46:49Z</time>
      </trkpt>
      <trkpt lat="44.14243" lon="1.97427">
        <ele>93</ele>
        <time>2014-08-15T14:46:52Z</time>
      </trkpt>
      <trkpt lat="44.14238" lon="1.97426">
        <ele>94</ele>
        <time>2014-08-15T14:46:54Z</time>
      </trkpt>
      <trkpt lat="44.14233" lon="1.97424">
        <ele>94</ele>
        <time>2014-08-15T14:46:56Z</time>
      </trkpt>
      <trkpt lat="44.14225" lon="1.97424">
        <ele>95</ele>
        <time>2014-08-15T14:46:59Z</time>
      </trkpt>
      <trkpt lat="44.14219" lon="1.97424">
        <ele>95</ele>
        <time>2014-08-15T14:47:01Z</time>
      </trkpt>
      <trkpt lat="44.14214" lon="1.97423">
        <ele>95</ele>
        <time>2014-08-15T14:47:03Z</time>
      </trkpt>
      <trkpt lat="44.14209" lon="1.97422">
        <ele>95</ele>
        <time>2014-08-15T14:47:05Z</time>
      </trkpt>
      <trkpt lat="44.14199" lon="1.97421">
        <ele>96</ele>
        <time>2014-08-15T14:47:08Z</time>
      </trkpt>
      <trkpt lat="44.14194" lon="1.97421">
        <ele>97</ele>
        <time>2014-08-15T14:47:10Z</time>
      </trkpt>
      <trkpt lat="44.14188" lon="1.97422">
        <ele>98</ele>
        <time>2014-08-15T14:47:12Z</time>
      </trkpt>
      <trkpt lat="44.14182" lon="1.97422">
        <ele>98</ele>
        <time>2014-08-15T14:47:14Z</time>
      </trkpt>
      <trkpt lat="44.14177" lon="1.97424">
        <ele>99</ele>
        <time>2014-08-15T14:47:16Z</time>
      </trkpt>
      <trkpt lat="44.1417" lon="1.97426">
        <ele>100</ele>
        <time>2014-08-15T14:47:19Z</time>
      </trkpt>
      <trkpt lat="44.14165" lon="1.97426">
        <ele>100</ele>
        <time>2014-08-15T14:47:21Z</time>
      </trkpt>
      <trkpt lat="44.14159" lon="1.97429">
        <ele>102</ele>
        <time>2014-08-15T14:47:24Z</time>
      </trkpt>
      <trkpt lat="44.14154" lon="1.9743">
        <ele>102</ele>
        <time>2014-08-15T14:47:27Z</time>
      </trkpt>
      <trkpt lat="44.14146" lon="1.97432">
        <ele>103</ele>
        <time>2014-08-15T14:47:30Z</time>
      </trkpt>
      <trkpt lat="44.14138" lon="1.97434">
        <ele>104</ele>
        <time>2014-08-15T14:47:33Z</time>
      </trkpt>
      <trkpt lat="44.1413" lon="1.97436">
        <ele>104</ele>
        <time>2014-08-15T14:47:36Z</time>
      </trkpt>
      <trkpt lat="44.14122" lon="1.97438">
        <ele>105</ele>
        <time>2014-08-15T14:47:39Z</time>
      </trkpt>
      <trkpt lat="44.14116" lon="1.97441">
        <ele>106</ele>
        <time>2014-08-15T14:47:42Z</time>
      </trkpt>
      <trkpt lat="44.14108" lon="1.97444">
        <ele>107</ele>
        <time>2014-08-15T14:47:45Z</time>
      </trkpt>
      <trkpt lat="44.14101" lon="1.97448">
        <ele>108</ele>
        <time>2014-08-15T14:47:48Z</time>
      </trkpt>
      <trkpt lat="44.14096" lon="1.97451">
        <ele>109</ele>
        <time>2014-08-15T14:47:50Z</time>
      </trkpt>
      <trkpt lat="44.14091" lon="1.97454">
        <ele>109</ele>
        <time>2014-08-15T14:47:52Z</time>
      </trkpt>
      <trkpt lat="44.14084" lon="1.97459">
        <ele>110</ele>
        <time>2014-08-15T14:47:55Z</time>
      </trkpt>
      <trkpt lat="44.14079" lon="1.97461">
        <ele>111</ele>
        <time>2014-08-15T14:47:57Z</time>
      </trkpt>
      <trkpt lat="44.14074" lon="1.97464">
        <ele>111</ele>
        <time>2014-08-15T14:47:59Z</time>
      </trkpt>
      <trkpt lat="44.14066" lon="1.9747">
        <ele>113</ele>
        <time>2014-08-15T14:48:02Z</time>
      </trkpt>
      <trkpt lat="44.14061" lon="1.97475">
        <ele>113</ele>
        <time>2014-08-15T14:48:05Z</time>
      </trkpt>
      <trkpt lat="44.14054" lon="1.9748">
        <ele>114</ele>
        <time>2014-08-15T14:48:08Z</time>
      </trkpt>
      <trkpt lat="44.14047" lon="1.97485">
        <ele>115</ele>
        <time>2014-08-15T14:48:11Z</time>
      </trkpt>
      <trkpt lat="44.1404" lon="1.97491">
        <ele>116</ele>
        <time>2014-08-15T14:48:14Z</time>
      </trkpt>
      <trkpt lat="44.14033" lon="1.97498">
        <ele>117</ele>
        <time>2014-08-15T14:48:17Z</time>
      </trkpt>
      <trkpt lat="44.14026" lon="1.97505">
        <ele>118</ele>
        <time>2014-08-15T14:48:20Z</time>
      </trkpt>
      <trkpt lat="44.14021" lon="1.97512">
        <ele>119</ele>
        <time>2014-08-15T14:48:23Z</time>
      </trkpt>
      <trkpt lat="44.14017" lon="1.97516">
        <ele>119</ele>
        <time>2014-08-15T14:48:25Z</time>
      </trkpt>
      <trkpt lat="44.14014" lon="1.97519">
        <ele>120</ele>
        <time>2014-08-15T14:48:27Z</time>
      </trkpt>
      <trkpt lat="44.14009" lon="1.97523">
        <ele>120</ele>
        <time>2014-08-15T14:48:30Z</time>
      </trkpt>
      <trkpt lat="44.14004" lon="1.97528">
        <ele>121</ele>
        <time>2014-08-15T14:48:33Z</time>
      </trkpt>
      <trkpt lat="44.14" lon="1.97534">
        <ele>122</ele>
        <time>2014-08-15T14:48:36Z</time>
      </trkpt>
      <trkpt lat="44.13994" lon="1.97541">
        <ele>123</ele>
        <time>2014-08-15T14:48:39Z</time>
      </trkpt>
      <trkpt lat="44.13989" lon="1.97549">
        <ele>124</ele>
        <time>2014-08-15T14:48:42Z</time>
      </trkpt>
      <trkpt lat="44.13982" lon="1.97557">
        <ele>125</ele>
        <time>2014-08-15T14:48:45Z</time>
      </trkpt>
      <trkpt lat="44.13975" lon="1.97565">
        <ele>126</ele>
        <time>2014-08-15T14:48:48Z</time>
      </trkpt>
      <trkpt lat="44.13968" lon="1.97572">
        <ele>127</ele>
        <time>2014-08-15T14:48:51Z</time>
      </trkpt>
      <trkpt lat="44.1396" lon="1.97579">
        <ele>128</ele>
        <time>2014-08-15T14:48:54Z</time>
      </trkpt>
      <trkpt lat="44.13955" lon="1.97583">
        <ele>129</ele>
        <time>2014-08-15T14:48:56Z</time>
      </trkpt>
      <trkpt lat="44.13946" lon="1.97589">
        <ele>130</ele>
        <time>2014-08-15T14:48:59Z</time>
      </trkpt>
      <trkpt lat="44.13941" lon="1.97593">
        <ele>131</ele>
        <time>2014-08-15T14:49:01Z</time>
      </trkpt>
      <trkpt lat="44.13937" lon="1.97596">
        <ele>131</ele>
        <time>2014-08-15T14:49:03Z</time>
      </trkpt>
      <trkpt lat="44.13931" lon="1.97602">
        <ele>132</ele>
        <time>2014-08-15T14:49:06Z</time>
      </trkpt>
      <trkpt lat="44.13924" lon="1.97608">
        <ele>133</ele>
        <time>2014-08-15T14:49:09Z</time>
      </trkpt>
      <trkpt lat="44.13918" lon="1.97611">
        <ele>133</ele>
        <time>2014-08-15T14:49:12Z</time>
      </trkpt>
      <trkpt lat="44.13913" lon="1.97613">
        <ele>134</ele>
        <time>2014-08-15T14:49:14Z</time>
      </trkpt>
      <trkpt lat="44.13906" lon="1.97615">
        <ele>135</ele>
        <time>2014-08-15T14:49:17Z</time>
      </trkpt>
      <trkpt lat="44.13899" lon="1.97618">
        <ele>136</ele>
        <time>2014-08-15T14:49:20Z</time>
      </trkpt>
      <trkpt lat="44.13891" lon="1.97621">
        <ele>137</ele>
        <time>2014-08-15T14:49:23Z</time>
      </trkpt>
      <trkpt lat="44.13882" lon="1.97623">
        <ele>138</ele>
        <time>2014-08-15T14:49:26Z</time>
      </trkpt>
      <trkpt lat="44.13874" lon="1.97625">
        <ele>138</ele>
        <time>2014-08-15T14:49:29Z</time>
      </trkpt>
      <trkpt lat="44.13869" lon="1.97627">
        <ele>139</ele>
        <time>2014-08-15T14:49:31Z</time>
      </trkpt>
      <trkpt lat="44.13862" lon="1.97631">
        <ele>140</ele>
        <time>2014-08-15T14:49:34Z</time>
      </trkpt>
      <trkpt lat="44.13858" lon="1.97632">
        <ele>141</ele>
        <time>2014-08-15T14:49:36Z</time>
      </trkpt>
      <trkpt lat="44.13854" lon="1.97634">
        <ele>142</ele>
        <time>2014-08-15T14:49:38Z</time>
      </trkpt>
      <trkpt lat="44.13848" lon="1.97638">
        <ele>143</ele>
        <time>2014-08-15T14:49:41Z</time>
      </trkpt>
      <trkpt lat="44.13843" lon="1.97642">
        <ele>143</ele>
        <time>2014-08-15T14:49:44Z</time>
      </trkpt>
      <trkpt lat="44.13837" lon="1.97645">
        <ele>143</ele>
        <time>2014-08-15T14:49:47Z</time>
      </trkpt>
      <trkpt lat="44.1383" lon="1.9765">
        <ele>145</ele>
        <time>2014-08-15T14:49:50Z</time>
      </trkpt>
      <trkpt lat="44.13822" lon="1.97655">
        <ele>146</ele>
        <time>2014-08-15T14:49:53Z</time>
      </trkpt>
      <trkpt lat="44.13816" lon="1.97659">
        <ele>147</ele>
        <time>2014-08-15T14:49:55Z</time>
      </trkpt>
      <trkpt lat="44.13807" lon="1.97662">
        <ele>147</ele>
        <time>2014-08-15T14:49:58Z</time>
      </trkpt>
      <trkpt lat="44.13802" lon="1.97664">
        <ele>148</ele>
        <time>2014-08-15T14:50:00Z</time>
      </trkpt>
      <trkpt lat="44.13795" lon="1.97667">
        <ele>149</ele>
        <time>2014-08-15T14:50:03Z</time>
      </trkpt>
      <trkpt lat="44.13789" lon="1.97669">
        <ele>150</ele>
        <time>2014-08-15T14:50:05Z</time>
      </trkpt>
      <trkpt lat="44.13781" lon="1.97671">
        <ele>151</ele>
        <time>2014-08-15T14:50:08Z</time>
      </trkpt>
      <trkpt lat="44.13776" lon="1.97673">
        <ele>152</ele>
        <time>2014-08-15T14:50:10Z</time>
      </trkpt>
      <trkpt lat="44.1377" lon="1.97675">
        <ele>152</ele>
        <time>2014-08-15T14:50:12Z</time>
      </trkpt>
      <trkpt lat="44.13763" lon="1.97678">
        <ele>153</ele>
        <time>2014-08-15T14:50:15Z</time>
      </trkpt>
      <trkpt lat="44.13757" lon="1.9768">
        <ele>154</ele>
        <time>2014-08-15T14:50:18Z</time>
      </trkpt>
      <trkpt lat="44.13752" lon="1.97681">
        <ele>155</ele>
        <time>2014-08-15T14:50:20Z</time>
      </trkpt>
      <trkpt lat="44.13745" lon="1.97683">
        <ele>156</ele>
        <time>2014-08-15T14:50:23Z</time>
      </trkpt>
      <trkpt lat="44.13738" lon="1.97685">
        <ele>156</ele>
        <time>2014-08-15T14:50:26Z</time>
      </trkpt>
      <trkpt lat="44.1373" lon="1.97686">
        <ele>157</ele>
        <time>2014-08-15T14:50:29Z</time>
      </trkpt>
      <trkpt lat="44.13725" lon="1.97687">
        <ele>158</ele>
        <time>2014-08-15T14:50:31Z</time>
      </trkpt>
      <trkpt lat="44.13716" lon="1.97689">
        <ele>159</ele>
        <time>2014-08-15T14:50:34Z</time>
      </trkpt>
      <trkpt lat="44.13711" lon="1.9769">
        <ele>160</ele>
        <time>2014-08-15T14:50:36Z</time>
      </trkpt>
      <trkpt lat="44.13702" lon="1.97692">
        <ele>161</ele>
        <time>2014-08-15T14:50:39Z</time>
      </trkpt>
      <trkpt lat="44.13694" lon="1.97696">
        <ele>162</ele>
        <time>2014-08-15T14:50:42Z</time>
      </trkpt>
      <trkpt lat="44.13688" lon="1.97699">
        <ele>162</ele>
        <time>2014-08-15T14:50:44Z</time>
      </trkpt>
      <trkpt lat="44.13682" lon="1.97702">
        <ele>163</ele>
        <time>2014-08-15T14:50:46Z</time>
      </trkpt>
      <trkpt lat="44.13673" lon="1.97705">
        <ele>164</ele>
        <time>2014-08-15T14:50:49Z</time>
      </trkpt>
      <trkpt lat="44.13665" lon="1.97706">
        <ele>165</ele>
        <time>2014-08-15T14:50:52Z</time>
      </trkpt>
      <trkpt lat="44.13656" lon="1.97708">
        <ele>166</ele>
        <time>2014-08-15T14:50:55Z</time>
      </trkpt>
      <trkpt lat="44.13647" lon="1.97709">
        <ele>167</ele>
        <time>2014-08-15T14:50:58Z</time>
      </trkpt>
      <trkpt lat="44.13639" lon="1.97711">
        <ele>168</ele>
        <time>2014-08-15T14:51:01Z</time>
      </trkpt>
      <trkpt lat="44.13631" lon="1.97712">
        <ele>169</ele>
        <time>2014-08-15T14:51:04Z</time>
      </trkpt>
      <trkpt lat="44.13626" lon="1.97712">
        <ele>170</ele>
        <time>2014-08-15T14:51:06Z</time>
      </trkpt>
      <trkpt lat="44.1362" lon="1.97714">
        <ele>171</ele>
        <time>2014-08-15T14:51:09Z</time>
      </trkpt>
      <trkpt lat="44.13615" lon="1.97714">
        <ele>172</ele>
        <time>2014-08-15T14:51:11Z</time>
      </trkpt>
      <trkpt lat="44.13607" lon="1.97714">
        <ele>172</ele>
        <time>2014-08-15T14:51:14Z</time>
      </trkpt>
      <trkpt lat="44.13602" lon="1.97714">
        <ele>173</ele>
        <time>2014-08-15T14:51:16Z</time>
      </trkpt>
      <trkpt lat="44.13597" lon="1.97713">
        <ele>174</ele>
        <time>2014-08-15T14:51:18Z</time>
      </trkpt>
      <trkpt lat="44.13589" lon="1.97712">
        <ele>174</ele>
        <time>2014-08-15T14:51:21Z</time>
      </trkpt>
      <trkpt lat="44.13583" lon="1.97711">
        <ele>175</ele>
        <time>2014-08-15T14:51:23Z</time>
      </trkpt>
      <trkpt lat="44.13577" lon="1.97711">
        <ele>176</ele>
        <time>2014-08-15T14:51:25Z</time>
      </trkpt>
      <trkpt lat="44.13569" lon="1.97708">
        <ele>177</ele>
        <time>2014-08-15T14:51:28Z</time>
      </trkpt>
      <trkpt lat="44.13563" lon="1.97707">
        <ele>177</ele>
        <time>2014-08-15T14:51:30Z</time>
      </trkpt>
      <trkpt lat="44.13554" lon="1.97706">
        <ele>178</ele>
        <time>2014-08-15T14:51:33Z</time>
      </trkpt>
      <trkpt lat="44.13549" lon="1.97705">
        <ele>179</ele>
        <time>2014-08-15T14:51:35Z</time>
      </trkpt>
      <trkpt lat="44.1354" lon="1.97703">
        <ele>180</ele>
        <time>2014-08-15T14:51:38Z</time>
      </trkpt>
      <trkpt lat="44.13535" lon="1.97701">
        <ele>180</ele>
        <time>2014-08-15T14:51:40Z</time>
      </trkpt>
      <trkpt lat="44.13529" lon="1.977">
        <ele>181</ele>
        <time>2014-08-15T14:51:42Z</time>
      </trkpt>
      <trkpt lat="44.13523" lon="1.97697">
        <ele>182</ele>
        <time>2014-08-15T14:51:44Z</time>
      </trkpt>
      <trkpt lat="44.13517" lon="1.97695">
        <ele>182</ele>
        <time>2014-08-15T14:51:46Z</time>
      </trkpt>
      <trkpt lat="44.13507" lon="1.97688">
        <ele>183</ele>
        <time>2014-08-15T14:51:49Z</time>
      </trkpt>
      <trkpt lat="44.135" lon="1.97686">
        <ele>184</ele>
        <time>2014-08-15T14:51:51Z</time>
      </trkpt>
      <trkpt lat="44.13493" lon="1.97683">
        <ele>185</ele>
        <time>2014-08-15T14:51:53Z</time>
      </trkpt>
      <trkpt lat="44.13484" lon="1.9768">
        <ele>186</ele>
        <time>2014-08-15T14:51:56Z</time>
      </trkpt>
      <trkpt lat="44.13479" lon="1.97681">
        <ele>186</ele>
        <time>2014-08-15T14:51:58Z</time>
      </trkpt>
      <trkpt lat="44.13474" lon="1.97686">
        <ele>187</ele>
        <time>2014-08-15T14:52:00Z</time>
      </trkpt>
      <trkpt lat="44.13473" lon="1.97691">
        <ele>187</ele>
        <time>2014-08-15T14:52:02Z</time>
      </trkpt>
      <trkpt lat="44.13476" lon="1.97699">
        <ele>188</ele>
        <time>2014-08-15T14:52:05Z</time>
      </trkpt>
      <trkpt lat="44.13483" lon="1.97705">
        <ele>188</ele>
        <time>2014-08-15T14:52:08Z</time>
      </trkpt>
      <trkpt lat="44.1349" lon="1.97708">
        <ele>189</ele>
        <time>2014-08-15T14:52:11Z</time>
      </trkpt>
      <trkpt lat="44.13494" lon="1.97711">
        <ele>190</ele>
        <time>2014-08-15T14:52:13Z</time>
      </trkpt>
      <trkpt lat="44.13498" lon="1.97713">
        <ele>190</ele>
        <time>2014-08-15T14:52:15Z</time>
      </trkpt>
      <trkpt lat="44.13505" lon="1.97718">
        <ele>191</ele>
        <time>2014-08-15T14:52:18Z</time>
      </trkpt>
      <trkpt lat="44.1351" lon="1.97721">
        <ele>191</ele>
        <time>2014-08-15T14:52:20Z</time>
      </trkpt>
      <trkpt lat="44.13515" lon="1.97724">
        <ele>192</ele>
        <time>2014-08-15T14:52:22Z</time>
      </trkpt>
      <trkpt lat="44.1352" lon="1.97729">
        <ele>193</ele>
        <time>2014-08-15T14:52:24Z</time>
      </trkpt>
      <trkpt lat="44.13524" lon="1.97733">
        <ele>193</ele>
        <time>2014-08-15T14:52:26Z</time>
      </trkpt>
      <trkpt lat="44.13534" lon="1.97739">
        <ele>194</ele>
        <time>2014-08-15T14:52:29Z</time>
      </trkpt>
      <trkpt lat="44.13543" lon="1.97744">
        <ele>195</ele>
        <time>2014-08-15T14:52:32Z</time>
      </trkpt>
      <trkpt lat="44.13552" lon="1.97748">
        <ele>196</ele>
        <time>2014-08-15T14:52:35Z</time>
      </trkpt>
      <trkpt lat="44.13556" lon="1.97754">
        <ele>198</ele>
        <time>2014-08-15T14:52:38Z</time>
      </trkpt>
      <trkpt lat="44.13551" lon="1.97758">
        <ele>199</ele>
        <time>2014-08-15T14:52:41Z</time>
      </trkpt>
      <trkpt lat="44.13547" lon="1.97759">
        <ele>200</ele>
        <time>2014-08-15T14:52:43Z</time>
      </trkpt>
      <trkpt lat="44.13542" lon="1.97759">
        <ele>200</ele>
        <time>2014-08-15T14:52:45Z</time>
      </trkpt>
      <trkpt lat="44.13535" lon="1.9776">
        <ele>201</ele>
        <time>2014-08-15T14:52:48Z</time>
      </trkpt>
      <trkpt lat="44.13528" lon="1.97761">
        <ele>201</ele>
        <time>2014-08-15T14:52:51Z</time>
      </trkpt>
      <trkpt lat="44.13523" lon="1.97763">
        <ele>202</ele>
        <time>2014-08-15T14:52:53Z</time>
      </trkpt>
      <trkpt lat="44.13517" lon="1.97767">
        <ele>202</ele>
        <time>2014-08-15T14:52:56Z</time>
      </trkpt>
      <trkpt lat="44.13513" lon="1.97772">
        <ele>202</ele>
        <time>2014-08-15T14:52:58Z</time>
      </trkpt>
      <trkpt lat="44.13509" lon="1.97776">
        <ele>203</ele>
        <time>2014-08-15T14:53:00Z</time>
      </trkpt>
      <trkpt lat="44.13505" lon="1.97783">
        <ele>203</ele>
        <time>2014-08-15T14:53:02Z</time>
      </trkpt>
      <trkpt lat="44.135" lon="1.9779">
        <ele>204</ele>
        <time>2014-08-15T14:53:04Z</time>
      </trkpt>
      <trkpt lat="44.13494" lon="1.97796">
        <ele>204</ele>
        <time>2014-08-15T14:53:06Z</time>
      </trkpt>
      <trkpt lat="44.13488" lon="1.978">
        <ele>205</ele>
        <time>2014-08-15T14:53:08Z</time>
      </trkpt>
      <trkpt lat="44.13481" lon="1.97804">
        <ele>205</ele>
        <time>2014-08-15T14:53:10Z</time>
      </trkpt>
      <trkpt lat="44.1347" lon="1.97809">
        <ele>205</ele>
        <time>2014-08-15T14:53:13Z</time>
      </trkpt>
      <trkpt lat="44.13461" lon="1.9781">
        <ele>205</ele>
        <time>2014-08-15T14:53:15Z</time>
      </trkpt>
      <trkpt lat="44.13448" lon="1.97808">
        <ele>205</ele>
        <time>2014-08-15T14:53:18Z</time>
      </trkpt>
      <trkpt lat="44.1344" lon="1.97806">
        <ele>206</ele>
        <time>2014-08-15T14:53:20Z</time>
      </trkpt>
      <trkpt lat="44.1343" lon="1.97801">
        <ele>207</ele>
        <time>2014-08-15T14:53:23Z</time>
      </trkpt>
      <trkpt lat="44.13424" lon="1.97798">
        <ele>208</ele>
        <time>2014-08-15T14:53:25Z</time>
      </trkpt>
      <trkpt lat="44.13413" lon="1.97795">
        <ele>208</ele>
        <time>2014-08-15T14:53:28Z</time>
      </trkpt>
      <trkpt lat="44.13405" lon="1.97795">
        <ele>208</ele>
        <time>2014-08-15T14:53:30Z</time>
      </trkpt>
      <trkpt lat="44.13393" lon="1.97795">
        <ele>209</ele>
        <time>2014-08-15T14:53:33Z</time>
      </trkpt>
      <trkpt lat="44.13384" lon="1.97796">
        <ele>209</ele>
        <time>2014-08-15T14:53:35Z</time>
      </trkpt>
      <trkpt lat="44.13376" lon="1.97797">
        <ele>210</ele>
        <time>2014-08-15T14:53:37Z</time>
      </trkpt>
      <trkpt lat="44.13368" lon="1.97799">
        <ele>210</ele>
        <time>2014-08-15T14:53:39Z</time>
      </trkpt>
      <trkpt lat="44.1336" lon="1.97801">
        <ele>211</ele>
        <time>2014-08-15T14:53:41Z</time>
      </trkpt>
      <trkpt lat="44.13348" lon="1.97805">
        <ele>212</ele>
        <time>2014-08-15T14:53:44Z</time>
      </trkpt>
      <trkpt lat="44.13336" lon="1.97809">
        <ele>213</ele>
        <time>2014-08-15T14:53:47Z</time>
      </trkpt>
      <trkpt lat="44.13324" lon="1.97815">
        <ele>214</ele>
        <time>2014-08-15T14:53:50Z</time>
      </trkpt>
      <trkpt lat="44.13312" lon="1.97821">
        <ele>215</ele>
        <time>2014-08-15T14:53:53Z</time>
      </trkpt>
      <trkpt lat="44.133" lon="1.97827">
        <ele>215</ele>
        <time>2014-08-15T14:53:56Z</time>
      </trkpt>
      <trkpt lat="44.13293" lon="1.97832">
        <ele>215</ele>
        <time>2014-08-15T14:53:58Z</time>
      </trkpt>
      <trkpt lat="44.13279" lon="1.9784">
        <ele>216</ele>
        <time>2014-08-15T14:54:01Z</time>
      </trkpt>
      <trkpt lat="44.13267" lon="1.97849">
        <ele>216</ele>
        <time>2014-08-15T14:54:04Z</time>
      </trkpt>
      <trkpt lat="44.13259" lon="1.97854">
        <ele>216</ele>
        <time>2014-08-15T14:54:06Z</time>
      </trkpt>
      <trkpt lat="44.13251" lon="1.97861">
        <ele>217</ele>
        <time>2014-08-15T14:54:08Z</time>
      </trkpt>
      <trkpt lat="44.13244" lon="1.97866">
        <ele>217</ele>
        <time>2014-08-15T14:54:10Z</time>
      </trkpt>
      <trkpt lat="44.13232" lon="1.97876">
        <ele>218</ele>
        <time>2014-08-15T14:54:13Z</time>
      </trkpt>
      <trkpt lat="44.13221" lon="1.97887">
        <ele>218</ele>
        <time>2014-08-15T14:54:16Z</time>
      </trkpt>
      <trkpt lat="44.1321" lon="1.97899">
        <ele>219</ele>
        <time>2014-08-15T14:54:19Z</time>
      </trkpt>
      <trkpt lat="44.13199" lon="1.97913">
        <ele>219</ele>
        <time>2014-08-15T14:54:22Z</time>
      </trkpt>
      <trkpt lat="44.13192" lon="1.97923">
        <ele>219</ele>
        <time>2014-08-15T14:54:24Z</time>
      </trkpt>
      <trkpt lat="44.13186" lon="1.97933">
        <ele>220</ele>
        <time>2014-08-15T14:54:26Z</time>
      </trkpt>
      <trkpt lat="44.13179" lon="1.97943">
        <ele>220</ele>
        <time>2014-08-15T14:54:28Z</time>
      </trkpt>
      <trkpt lat="44.13173" lon="1.97953">
        <ele>220</ele>
        <time>2014-08-15T14:54:30Z</time>
      </trkpt>
      <trkpt lat="44.13167" lon="1.97963">
        <ele>220</ele>
        <time>2014-08-15T14:54:32Z</time>
      </trkpt>
      <trkpt lat="44.13158" lon="1.97977">
        <ele>221</ele>
        <time>2014-08-15T14:54:35Z</time>
      </trkpt>
      <trkpt lat="44.13148" lon="1.97992">
        <ele>222</ele>
        <time>2014-08-15T14:54:38Z</time>
      </trkpt>
      <trkpt lat="44.13142" lon="1.98003">
        <ele>222</ele>
        <time>2014-08-15T14:54:40Z</time>
      </trkpt>
      <trkpt lat="44.13135" lon="1.98013">
        <ele>222</ele>
        <time>2014-08-15T14:54:42Z</time>
      </trkpt>
      <trkpt lat="44.13125" lon="1.9803">
        <ele>222</ele>
        <time>2014-08-15T14:54:45Z</time>
      </trkpt>
      <trkpt lat="44.13118" lon="1.98041">
        <ele>222</ele>
        <time>2014-08-15T14:54:47Z</time>
      </trkpt>
      <trkpt lat="44.13112" lon="1.98052">
        <ele>223</ele>
        <time>2014-08-15T14:54:49Z</time>
      </trkpt>
      <trkpt lat="44.13105" lon="1.98063">
        <ele>223</ele>
        <time>2014-08-15T14:54:51Z</time>
      </trkpt>
      <trkpt lat="44.13095" lon="1.9808">
        <ele>224</ele>
        <time>2014-08-15T14:54:54Z</time>
      </trkpt>
      <trkpt lat="44.13088" lon="1.98091">
        <ele>224</ele>
        <time>2014-08-15T14:54:56Z</time>
      </trkpt>
      <trkpt lat="44.13078" lon="1.98108">
        <ele>225</ele>
        <time>2014-08-15T14:54:59Z</time>
      </trkpt>
      <trkpt lat="44.13068" lon="1.98123">
        <ele>226</ele>
        <time>2014-08-15T14:55:02Z</time>
      </trkpt>
      <trkpt lat="44.1306" lon="1.98137">
        <ele>227</ele>
        <time>2014-08-15T14:55:05Z</time>
      </trkpt>
      <trkpt lat="44.13051" lon="1.98152">
        <ele>227</ele>
        <time>2014-08-15T14:55:08Z</time>
      </trkpt>
      <trkpt lat="44.13042" lon="1.98166">
        <ele>228</ele>
        <time>2014-08-15T14:55:11Z</time>
      </trkpt>
      <trkpt lat="44.13036" lon="1.98176">
        <ele>229</ele>
        <time>2014-08-15T14:55:13Z</time>
      </trkpt>
      <trkpt lat="44.13031" lon="1.98186">
        <ele>230</ele>
        <time>2014-08-15T14:55:15Z</time>
      </trkpt>
      <trkpt lat="44.13021" lon="1.982">
        <ele>230</ele>
        <time>2014-08-15T14:55:18Z</time>
      </trkpt>
      <trkpt lat="44.13015" lon="1.98209">
        <ele>231</ele>
        <time>2014-08-15T14:55:20Z</time>
      </trkpt>
      <trkpt lat="44.13004" lon="1.98219">
        <ele>231</ele>
        <time>2014-08-15T14:55:23Z</time>
      </trkpt>
      <trkpt lat="44.12993" lon="1.98228">
        <ele>231</ele>
        <time>2014-08-15T14:55:26Z</time>
      </trkpt>
      <trkpt lat="44.12986" lon="1.98232">
        <ele>232</ele>
        <time>2014-08-15T14:55:28Z</time>
      </trkpt>
      <trkpt lat="44.12978" lon="1.98236">
        <ele>232</ele>
        <time>2014-08-15T14:55:30Z</time>
      </trkpt>
      <trkpt lat="44.12969" lon="1.98237">
        <ele>232</ele>
        <time>2014-08-15T14:55:32Z</time>
      </trkpt>
      <trkpt lat="44.12961" lon="1.98235">
        <ele>233</ele>
        <time>2014-08-15T14:55:34Z</time>
      </trkpt>
      <trkpt lat="44.12948" lon="1.9823">
        <ele>233</ele>
        <time>2014-08-15T14:55:37Z</time>
      </trkpt>
      <trkpt lat="44.12938" lon="1.98226">
        <ele>233</ele>
        <time>2014-08-15T14:55:39Z</time>
      </trkpt>
      <trkpt lat="44.12928" lon="1.98221">
        <ele>233</ele>
        <time>2014-08-15T14:55:41Z</time>
      </trkpt>
      <trkpt lat="44.12918" lon="1.98216">
        <ele>232</ele>
        <time>2014-08-15T14:55:43Z</time>
      </trkpt>
      <trkpt lat="44.12902" lon="1.98208">
        <ele>232</ele>
        <time>2014-08-15T14:55:46Z</time>
      </trkpt>
      <trkpt lat="44.12891" lon="1.98203">
        <ele>232</ele>
        <time>2014-08-15T14:55:48Z</time>
      </trkpt>
      <trkpt lat="44.1288" lon="1.98197">
        <ele>231</ele>
        <time>2014-08-15T14:55:50Z</time>
      </trkpt>
      <trkpt lat="44.12862" lon="1.98188">
        <ele>231</ele>
        <time>2014-08-15T14:55:53Z</time>
      </trkpt>
      <trkpt lat="44.1285" lon="1.98182">
        <ele>231</ele>
        <time>2014-08-15T14:55:55Z</time>
      </trkpt>
      <trkpt lat="44.12838" lon="1.98177">
        <ele>231</ele>
        <time>2014-08-15T14:55:57Z</time>
      </trkpt>
      <trkpt lat="44.12825" lon="1.98171">
        <ele>230</ele>
        <time>2014-08-15T14:55:59Z</time>
      </trkpt>
      <trkpt lat="44.12805" lon="1.98165">
        <ele>229</ele>
        <time>2014-08-15T14:56:02Z</time>
      </trkpt>
      <trkpt lat="44.12784" lon="1.9816">
        <ele>228</ele>
        <time>2014-08-15T14:56:05Z</time>
      </trkpt>
      <trkpt lat="44.12762" lon="1.98158">
        <ele>228</ele>
        <time>2014-08-15T14:56:08Z</time>
      </trkpt>
      <trkpt lat="44.1274" lon="1.98143">
        <ele>228</ele>
        <time>2014-08-15T14:56:11Z</time>
      </trkpt>
      <trkpt lat="44.12731" lon="1.98122">
        <ele>227</ele>
        <time>2014-08-15T14:56:13Z</time>
      </trkpt>
      <trkpt lat="44.12732" lon="1.98085">
        <ele>225</ele>
        <time>2014-08-15T14:56:16Z</time>
      </trkpt>
      <trkpt lat="44.12739" lon="1.98061">
        <ele>223</ele>
        <time>2014-08-15T14:56:18Z</time>
      </trkpt>
      <trkpt lat="44.12746" lon="1.98035">
        <ele>221</ele>
        <time>2014-08-15T14:56:20Z</time>
      </trkpt>
      <trkpt lat="44.12754" lon="1.9801">
        <ele>219</ele>
        <time>2014-08-15T14:56:22Z</time>
      </trkpt>
      <trkpt lat="44.12766" lon="1.97973">
        <ele>217</ele>
        <time>2014-08-15T14:56:25Z</time>
      </trkpt>
      <trkpt lat="44.12766" lon="1.97945">
        <ele>216</ele>
        <time>2014-08-15T14:56:27Z</time>
      </trkpt>
      <trkpt lat="44.12747" lon="1.97912">
        <ele>215</ele>
        <time>2014-08-15T14:56:30Z</time>
      </trkpt>
      <trkpt lat="44.1273" lon="1.97896">
        <ele>214</ele>
        <time>2014-08-15T14:56:32Z</time>
      </trkpt>
      <trkpt lat="44.12709" lon="1.97888">
        <ele>212</ele>
        <time>2014-08-15T14:56:34Z</time>
      </trkpt>
      <trkpt lat="44.12688" lon="1.97889">
        <ele>210</ele>
        <time>2014-08-15T14:56:36Z</time>
      </trkpt>
      <trkpt lat="44.12657" lon="1.97898">
        <ele>208</ele>
        <time>2014-08-15T14:56:39Z</time>
      </trkpt>
      <trkpt lat="44.12636" lon="1.97903">
        <ele>206</ele>
        <time>2014-08-15T14:56:41Z</time>
      </trkpt>
      <trkpt lat="44.12614" lon="1.97902">
        <ele>205</ele>
        <time>2014-08-15T14:56:43Z</time>
      </trkpt>
      <trkpt lat="44.12591" lon="1.97898">
        <ele>203</ele>
        <time>2014-08-15T14:56:45Z</time>
      </trkpt>
      <trkpt lat="44.12556" lon="1.97895">
        <ele>201</ele>
        <time>2014-08-15T14:56:48Z</time>
      </trkpt>
      <trkpt lat="44.12522" lon="1.97894">
        <ele>199</ele>
        <time>2014-08-15T14:56:51Z</time>
      </trkpt>
      <trkpt lat="44.12488" lon="1.97897">
        <ele>196</ele>
        <time>2014-08-15T14:56:54Z</time>
      </trkpt>
      <trkpt lat="44.12455" lon="1.97901">
        <ele>195</ele>
        <time>2014-08-15T14:56:57Z</time>
      </trkpt>
      <trkpt lat="44.12422" lon="1.97906">
        <ele>193</ele>
        <time>2014-08-15T14:57:00Z</time>
      </trkpt>
      <trkpt lat="44.12389" lon="1.97913">
        <ele>191</ele>
        <time>2014-08-15T14:57:03Z</time>
      </trkpt>
      <trkpt lat="44.12366" lon="1.97915">
        <ele>188</ele>
        <time>2014-08-15T14:57:05Z</time>
      </trkpt>
      <trkpt lat="44.12343" lon="1.97907">
        <ele>187</ele>
        <time>2014-08-15T14:57:07Z</time>
      </trkpt>
      <trkpt lat="44.12313" lon="1.97877">
        <ele>184</ele>
        <time>2014-08-15T14:57:10Z</time>
      </trkpt>
      <trkpt lat="44.12296" lon="1.9783">
        <ele>181</ele>
        <time>2014-08-15T14:57:13Z</time>
      </trkpt>
      <trkpt lat="44.12291" lon="1.97796">
        <ele>179</ele>
        <time>2014-08-15T14:57:15Z</time>
      </trkpt>
      <trkpt lat="44.12287" lon="1.97764">
        <ele>177</ele>
        <time>2014-08-15T14:57:17Z</time>
      </trkpt>
      <trkpt lat="44.12288" lon="1.97731">
        <ele>175</ele>
        <time>2014-08-15T14:57:19Z</time>
      </trkpt>
      <trkpt lat="44.123" lon="1.97686">
        <ele>172</ele>
        <time>2014-08-15T14:57:22Z</time>
      </trkpt>
      <trkpt lat="44.12312" lon="1.97656">
        <ele>170</ele>
        <time>2014-08-15T14:57:24Z</time>
      </trkpt>
      <trkpt lat="44.12325" lon="1.97625">
        <ele>168</ele>
        <time>2014-08-15T14:57:26Z</time>
      </trkpt>
      <trkpt lat="44.12337" lon="1.97596">
        <ele>166</ele>
        <time>2014-08-15T14:57:28Z</time>
      </trkpt>
      <trkpt lat="44.12353" lon="1.9755">
        <ele>164</ele>
        <time>2014-08-15T14:57:31Z</time>
      </trkpt>
      <trkpt lat="44.12363" lon="1.97519">
        <ele>162</ele>
        <time>2014-08-15T14:57:33Z</time>
      </trkpt>
      <trkpt lat="44.12376" lon="1.97474">
        <ele>161</ele>
        <time>2014-08-15T14:57:36Z</time>
      </trkpt>
      <trkpt lat="44.12389" lon="1.97429">
        <ele>159</ele>
        <time>2014-08-15T14:57:39Z</time>
      </trkpt>
      <trkpt lat="44.12398" lon="1.97399">
        <ele>157</ele>
        <time>2014-08-15T14:57:41Z</time>
      </trkpt>
      <trkpt lat="44.12412" lon="1.97353">
        <ele>155</ele>
        <time>2014-08-15T14:57:44Z</time>
      </trkpt>
      <trkpt lat="44.12426" lon="1.97308">
        <ele>152</ele>
        <time>2014-08-15T14:57:47Z</time>
      </trkpt>
      <trkpt lat="44.12437" lon="1.97261">
        <ele>150</ele>
        <time>2014-08-15T14:57:50Z</time>
      </trkpt>
      <trkpt lat="44.12442" lon="1.97229">
        <ele>148</ele>
        <time>2014-08-15T14:57:52Z</time>
      </trkpt>
      <trkpt lat="44.12443" lon="1.97196">
        <ele>147</ele>
        <time>2014-08-15T14:57:54Z</time>
      </trkpt>
      <trkpt lat="44.12439" lon="1.9715">
        <ele>145</ele>
        <time>2014-08-15T14:57:57Z</time>
      </trkpt>
      <trkpt lat="44.12434" lon="1.9712">
        <ele>144</ele>
        <time>2014-08-15T14:57:59Z</time>
      </trkpt>
      <trkpt lat="44.12427" lon="1.9709">
        <ele>141</ele>
        <time>2014-08-15T14:58:01Z</time>
      </trkpt>
      <trkpt lat="44.12418" lon="1.97062">
        <ele>139</ele>
        <time>2014-08-15T14:58:03Z</time>
      </trkpt>
      <trkpt lat="44.12408" lon="1.97034">
        <ele>138</ele>
        <time>2014-08-15T14:58:05Z</time>
      </trkpt>
      <trkpt lat="44.12393" lon="1.9701">
        <ele>136</ele>
        <time>2014-08-15T14:58:07Z</time>
      </trkpt>
      <trkpt lat="44.12376" lon="1.96986">
        <ele>134</ele>
        <time>2014-08-15T14:58:09Z</time>
      </trkpt>
      <trkpt lat="44.1236" lon="1.96965">
        <ele>133</ele>
        <time>2014-08-15T14:58:11Z</time>
      </trkpt>
      <trkpt lat="44.12332" lon="1.96952">
        <ele>131</ele>
        <time>2014-08-15T14:58:14Z</time>
      </trkpt>
      <trkpt lat="44.12313" lon="1.96954">
        <ele>130</ele>
        <time>2014-08-15T14:58:16Z</time>
      </trkpt>
      <trkpt lat="44.12297" lon="1.96961">
        <ele>129</ele>
        <time>2014-08-15T14:58:18Z</time>
      </trkpt>
      <trkpt lat="44.12281" lon="1.96965">
        <ele>129</ele>
        <time>2014-08-15T14:58:20Z</time>
      </trkpt>
      <trkpt lat="44.12255" lon="1.96964">
        <ele>129</ele>
        <time>2014-08-15T14:58:23Z</time>
      </trkpt>
      <trkpt lat="44.12233" lon="1.96958">
        <ele>131</ele>
        <time>2014-08-15T14:58:26Z</time>
      </trkpt>
      <trkpt lat="44.12219" lon="1.96955">
        <ele>132</ele>
        <time>2014-08-15T14:58:28Z</time>
      </trkpt>
      <trkpt lat="44.12201" lon="1.96952">
        <ele>134</ele>
        <time>2014-08-15T14:58:31Z</time>
      </trkpt>
      <trkpt lat="44.12189" lon="1.96951">
        <ele>135</ele>
        <time>2014-08-15T14:58:33Z</time>
      </trkpt>
      <trkpt lat="44.12177" lon="1.9695">
        <ele>136</ele>
        <time>2014-08-15T14:58:35Z</time>
      </trkpt>
      <trkpt lat="44.12165" lon="1.96949">
        <ele>137</ele>
        <time>2014-08-15T14:58:37Z</time>
      </trkpt>
      <trkpt lat="44.12154" lon="1.96946">
        <ele>138</ele>
        <time>2014-08-15T14:58:39Z</time>
      </trkpt>
      <trkpt lat="44.12139" lon="1.9694">
        <ele>139</ele>
        <time>2014-08-15T14:58:42Z</time>
      </trkpt>
      <trkpt lat="44.1213" lon="1.96935">
        <ele>140</ele>
        <time>2014-08-15T14:58:44Z</time>
      </trkpt>
      <trkpt lat="44.12121" lon="1.9693">
        <ele>140</ele>
        <time>2014-08-15T14:58:46Z</time>
      </trkpt>
      <trkpt lat="44.12113" lon="1.96925">
        <ele>141</ele>
        <time>2014-08-15T14:58:48Z</time>
      </trkpt>
      <trkpt lat="44.121" lon="1.9692">
        <ele>142</ele>
        <time>2014-08-15T14:58:51Z</time>
      </trkpt>
      <trkpt lat="44.12092" lon="1.96918">
        <ele>142</ele>
        <time>2014-08-15T14:58:53Z</time>
      </trkpt>
      <trkpt lat="44.12083" lon="1.96917">
        <ele>142</ele>
        <time>2014-08-15T14:58:55Z</time>
      </trkpt>
      <trkpt lat="44.12071" lon="1.96915">
        <ele>143</ele>
        <time>2014-08-15T14:58:58Z</time>
      </trkpt>
      <trkpt lat="44.12062" lon="1.96915">
        <ele>143</ele>
        <time>2014-08-15T14:59:00Z</time>
      </trkpt>
      <trkpt lat="44.12054" lon="1.96914">
        <ele>143</ele>
        <time>2014-08-15T14:59:02Z</time>
      </trkpt>
      <trkpt lat="44.12045" lon="1.96915">
        <ele>144</ele>
        <time>2014-08-15T14:59:04Z</time>
      </trkpt>
      <trkpt lat="44.12036" lon="1.96916">
        <ele>144</ele>
        <time>2014-08-15T14:59:06Z</time>
      </trkpt>
      <trkpt lat="44.12027" lon="1.96917">
        <ele>145</ele>
        <time>2014-08-15T14:59:08Z</time>
      </trkpt>
      <trkpt lat="44.12014" lon="1.96917">
        <ele>145</ele>
        <time>2014-08-15T14:59:11Z</time>
      </trkpt>
      <trkpt lat="44.12005" lon="1.96919">
        <ele>145</ele>
        <time>2014-08-15T14:59:13Z</time>
      </trkpt>
      <trkpt lat="44.11996" lon="1.96921">
        <ele>146</ele>
        <time>2014-08-15T14:59:15Z</time>
      </trkpt>
      <trkpt lat="44.11988" lon="1.96923">
        <ele>146</ele>
        <time>2014-08-15T14:59:17Z</time>
      </trkpt>
      <trkpt lat="44.11977" lon="1.96924">
        <ele>146</ele>
        <time>2014-08-15T14:59:20Z</time>
      </trkpt>
      <trkpt lat="44.11969" lon="1.96926">
        <ele>147</ele>
        <time>2014-08-15T14:59:22Z</time>
      </trkpt>
      <trkpt lat="44.1196" lon="1.96927">
        <ele>148</ele>
        <time>2014-08-15T14:59:24Z</time>
      </trkpt>
      <trkpt lat="44.11952" lon="1.96929">
        <ele>148</ele>
        <time>2014-08-15T14:59:26Z</time>
      </trkpt>
      <trkpt lat="44.11944" lon="1.96931">
        <ele>149</ele>
        <time>2014-08-15T14:59:28Z</time>
      </trkpt>
      <trkpt lat="44.11935" lon="1.96933">
        <ele>149</ele>
        <time>2014-08-15T14:59:30Z</time>
      </trkpt>
      <trkpt lat="44.11926" lon="1.96935">
        <ele>149</ele>
        <time>2014-08-15T14:59:32Z</time>
      </trkpt>
      <trkpt lat="44.11913" lon="1.9694">
        <ele>150</ele>
        <time>2014-08-15T14:59:35Z</time>
      </trkpt>
      <trkpt lat="44.11904" lon="1.96943">
        <ele>150</ele>
        <time>2014-08-15T14:59:37Z</time>
      </trkpt>
      <trkpt lat="44.11896" lon="1.96947">
        <ele>150</ele>
        <time>2014-08-15T14:59:39Z</time>
      </trkpt>
      <trkpt lat="44.11888" lon="1.96949">
        <ele>151</ele>
        <time>2014-08-15T14:59:41Z</time>
      </trkpt>
      <trkpt lat="44.11882" lon="1.96951">
        <ele>151</ele>
        <time>2014-08-15T14:59:43Z</time>
      </trkpt>
      <trkpt lat="44.11873" lon="1.96956">
        <ele>152</ele>
        <time>2014-08-15T14:59:46Z</time>
      </trkpt>
      <trkpt lat="44.11868" lon="1.96958">
        <ele>152</ele>
        <time>2014-08-15T14:59:48Z</time>
      </trkpt>
      <trkpt lat="44.11862" lon="1.96963">
        <ele>152</ele>
        <time>2014-08-15T14:59:50Z</time>
      </trkpt>
      <trkpt lat="44.11856" lon="1.96968">
        <ele>153</ele>
        <time>2014-08-15T14:59:52Z</time>
      </trkpt>
      <trkpt lat="44.11849" lon="1.96975">
        <ele>153</ele>
        <time>2014-08-15T14:59:54Z</time>
      </trkpt>
      <trkpt lat="44.11842" lon="1.96981">
        <ele>154</ele>
        <time>2014-08-15T14:59:56Z</time>
      </trkpt>
      <trkpt lat="44.11833" lon="1.96987">
        <ele>154</ele>
        <time>2014-08-15T14:59:58Z</time>
      </trkpt>
      <trkpt lat="44.11824" lon="1.96994">
        <ele>154</ele>
        <time>2014-08-15T15:00:00Z</time>
      </trkpt>
      <trkpt lat="44.11816" lon="1.97">
        <ele>155</ele>
        <time>2014-08-15T15:00:02Z</time>
      </trkpt>
      <trkpt lat="44.11806" lon="1.97005">
        <ele>155</ele>
        <time>2014-08-15T15:00:04Z</time>
      </trkpt>
      <trkpt lat="44.11797" lon="1.9701">
        <ele>156</ele>
        <time>2014-08-15T15:00:06Z</time>
      </trkpt>
      <trkpt lat="44.11787" lon="1.97014">
        <ele>156</ele>
        <time>2014-08-15T15:00:08Z</time>
      </trkpt>
      <trkpt lat="44.11776" lon="1.97019">
        <ele>156</ele>
        <time>2014-08-15T15:00:10Z</time>
      </trkpt>
      <trkpt lat="44.1176" lon="1.97025">
        <ele>157</ele>
        <time>2014-08-15T15:00:13Z</time>
      </trkpt>
      <trkpt lat="44.11746" lon="1.97033">
        <ele>157</ele>
        <time>2014-08-15T15:00:16Z</time>
      </trkpt>
      <trkpt lat="44.11734" lon="1.97039">
        <ele>158</ele>
        <time>2014-08-15T15:00:19Z</time>
      </trkpt>
      <trkpt lat="44.11723" lon="1.97047">
        <ele>159</ele>
        <time>2014-08-15T15:00:22Z</time>
      </trkpt>
      <trkpt lat="44.11712" lon="1.97055">
        <ele>160</ele>
        <time>2014-08-15T15:00:25Z</time>
      </trkpt>
      <trkpt lat="44.11698" lon="1.9706">
        <ele>161</ele>
        <time>2014-08-15T15:00:28Z</time>
      </trkpt>
      <trkpt lat="44.1169" lon="1.97063">
        <ele>162</ele>
        <time>2014-08-15T15:00:30Z</time>
      </trkpt>
      <trkpt lat="44.1168" lon="1.97066">
        <ele>162</ele>
        <time>2014-08-15T15:00:33Z</time>
      </trkpt>
      <trkpt lat="44.11671" lon="1.97068">
        <ele>163</ele>
        <time>2014-08-15T15:00:36Z</time>
      </trkpt>
      <trkpt lat="44.11663" lon="1.97069">
        <ele>163</ele>
        <time>2014-08-15T15:00:38Z</time>
      </trkpt>
      <trkpt lat="44.11656" lon="1.97071">
        <ele>163</ele>
        <time>2014-08-15T15:00:40Z</time>
      </trkpt>
      <trkpt lat="44.11648" lon="1.97072">
        <ele>164</ele>
        <time>2014-08-15T15:00:42Z</time>
      </trkpt>
      <trkpt lat="44.11639" lon="1.97073">
        <ele>163</ele>
        <time>2014-08-15T15:00:44Z</time>
      </trkpt>
      <trkpt lat="44.11626" lon="1.97075">
        <ele>164</ele>
        <time>2014-08-15T15:00:47Z</time>
      </trkpt>
      <trkpt lat="44.11618" lon="1.97076">
        <ele>165</ele>
        <time>2014-08-15T15:00:49Z</time>
      </trkpt>
      <trkpt lat="44.11609" lon="1.97078">
        <ele>165</ele>
        <time>2014-08-15T15:00:51Z</time>
      </trkpt>
      <trkpt lat="44.116" lon="1.9708">
        <ele>166</ele>
        <time>2014-08-15T15:00:53Z</time>
      </trkpt>
      <trkpt lat="44.11591" lon="1.97082">
        <ele>166</ele>
        <time>2014-08-15T15:00:55Z</time>
      </trkpt>
      <trkpt lat="44.11579" lon="1.97085">
        <ele>167</ele>
        <time>2014-08-15T15:00:58Z</time>
      </trkpt>
      <trkpt lat="44.11572" lon="1.97087">
        <ele>167</ele>
        <time>2014-08-15T15:01:00Z</time>
      </trkpt>
      <trkpt lat="44.11565" lon="1.9709">
        <ele>168</ele>
        <time>2014-08-15T15:01:02Z</time>
      </trkpt>
      <trkpt lat="44.11552" lon="1.97096">
        <ele>168</ele>
        <time>2014-08-15T15:01:05Z</time>
      </trkpt>
      <trkpt lat="44.1154" lon="1.97102">
        <ele>168</ele>
        <time>2014-08-15T15:01:08Z</time>
      </trkpt>
      <trkpt lat="44.11528" lon="1.97108">
        <ele>169</ele>
        <time>2014-08-15T15:01:11Z</time>
      </trkpt>
      <trkpt lat="44.11521" lon="1.97112">
        <ele>170</ele>
        <time>2014-08-15T15:01:13Z</time>
      </trkpt>
      <trkpt lat="44.11512" lon="1.97116">
        <ele>170</ele>
        <time>2014-08-15T15:01:15Z</time>
      </trkpt>
      <trkpt lat="44.115" lon="1.97124">
        <ele>171</ele>
        <time>2014-08-15T15:01:18Z</time>
      </trkpt>
      <trkpt lat="44.11491" lon="1.97128">
        <ele>171</ele>
        <time>2014-08-15T15:01:20Z</time>
      </trkpt>
      <trkpt lat="44.11478" lon="1.97135">
        <ele>172</ele>
        <time>2014-08-15T15:01:23Z</time>
      </trkpt>
      <trkpt lat="44.11465" lon="1.97142">
        <ele>172</ele>
        <time>2014-08-15T15:01:26Z</time>
      </trkpt>
      <trkpt lat="44.11452" lon="1.97147">
        <ele>173</ele>
        <time>2014-08-15T15:01:29Z</time>
      </trkpt>
      <trkpt lat="44.11438" lon="1.97151">
        <ele>174</ele>
        <time>2014-08-15T15:01:32Z</time>
      </trkpt>
      <trkpt lat="44.1143" lon="1.97153">
        <ele>174</ele>
        <time>2014-08-15T15:01:34Z</time>
      </trkpt>
      <trkpt lat="44.11417" lon="1.97156">
        <ele>175</ele>
        <time>2014-08-15T15:01:37Z</time>
      </trkpt>
      <trkpt lat="44.11409" lon="1.97158">
        <ele>176</ele>
        <time>2014-08-15T15:01:39Z</time>
      </trkpt>
      <trkpt lat="44.11401" lon="1.97159">
        <ele>176</ele>
        <time>2014-08-15T15:01:41Z</time>
      </trkpt>
      <trkpt lat="44.11393" lon="1.97161">
        <ele>176</ele>
        <time>2014-08-15T15:01:43Z</time>
      </trkpt>
      <trkpt lat="44.11381" lon="1.97163">
        <ele>177</ele>
        <time>2014-08-15T15:01:46Z</time>
      </trkpt>
      <trkpt lat="44.11373" lon="1.97166">
        <ele>177</ele>
        <time>2014-08-15T15:01:48Z</time>
      </trkpt>
      <trkpt lat="44.11364" lon="1.97168">
        <ele>178</ele>
        <time>2014-08-15T15:01:50Z</time>
      </trkpt>
      <trkpt lat="44.11352" lon="1.97172">
        <ele>179</ele>
        <time>2014-08-15T15:01:53Z</time>
      </trkpt>
      <trkpt lat="44.11344" lon="1.97175">
        <ele>179</ele>
        <time>2014-08-15T15:01:55Z</time>
      </trkpt>
      <trkpt lat="44.11336" lon="1.97178">
        <ele>179</ele>
        <time>2014-08-15T15:01:57Z</time>
      </trkpt>
      <trkpt lat="44.11327" lon="1.9718">
        <ele>180</ele>
        <time>2014-08-15T15:01:59Z</time>
      </trkpt>
      <trkpt lat="44.11318" lon="1.97184">
        <ele>180</ele>
        <time>2014-08-15T15:02:01Z</time>
      </trkpt>
      <trkpt lat="44.1131" lon="1.97187">
        <ele>181</ele>
        <time>2014-08-15T15:02:03Z</time>
      </trkpt>
      <trkpt lat="44.11298" lon="1.97192">
        <ele>181</ele>
        <time>2014-08-15T15:02:06Z</time>
      </trkpt>
      <trkpt lat="44.11291" lon="1.97195">
        <ele>181</ele>
        <time>2014-08-15T15:02:08Z</time>
      </trkpt>
      <trkpt lat="44.11284" lon="1.97198">
        <ele>182</ele>
        <time>2014-08-15T15:02:10Z</time>
      </trkpt>
      <trkpt lat="44.11277" lon="1.97201">
        <ele>182</ele>
        <time>2014-08-15T15:02:12Z</time>
      </trkpt>
      <trkpt lat="44.11271" lon="1.97203">
        <ele>183</ele>
        <time>2014-08-15T15:02:14Z</time>
      </trkpt>
      <trkpt lat="44.11264" lon="1.97206">
        <ele>183</ele>
        <time>2014-08-15T15:02:16Z</time>
      </trkpt>
      <trkpt lat="44.11259" lon="1.97207">
        <ele>183</ele>
        <time>2014-08-15T15:02:18Z</time>
      </trkpt>
      <trkpt lat="44.11258" lon="1.97207">
        <ele>184</ele>
        <time>2014-08-15T15:02:20Z</time>
      </trkpt>
      <trkpt lat="44.11258" lon="1.97207">
        <ele>184</ele>
        <time>2014-08-15T15:02:22Z</time>
      </trkpt>
      <trkpt lat="44.11257" lon="1.97207">
        <ele>184</ele>
        <time>2014-08-15T15:02:24Z</time>
      </trkpt>
      <trkpt lat="44.11257" lon="1.97207">
        <ele>185</ele>
        <time>2014-08-15T15:02:27Z</time>
      </trkpt>
      <trkpt lat="44.11237" lon="1.97208">
        <ele>185</ele>
        <time>2014-08-15T15:02:30Z</time>
      </trkpt>
      <trkpt lat="44.11232" lon="1.9721">
        <ele>185</ele>
        <time>2014-08-15T15:02:32Z</time>
      </trkpt>
      <trkpt lat="44.11226" lon="1.97213">
        <ele>185</ele>
        <time>2014-08-15T15:02:34Z</time>
      </trkpt>
      <trkpt lat="44.11219" lon="1.97216">
        <ele>185</ele>
        <time>2014-08-15T15:02:36Z</time>
      </trkpt>
      <trkpt lat="44.11211" lon="1.9722">
        <ele>185</ele>
        <time>2014-08-15T15:02:38Z</time>
      </trkpt>
      <trkpt lat="44.11203" lon="1.97224">
        <ele>185</ele>
        <time>2014-08-15T15:02:40Z</time>
      </trkpt>
      <trkpt lat="44.11194" lon="1.9723">
        <ele>185</ele>
        <time>2014-08-15T15:02:42Z</time>
      </trkpt>
      <trkpt lat="44.11181" lon="1.97239">
        <ele>186</ele>
        <time>2014-08-15T15:02:45Z</time>
      </trkpt>
      <trkpt lat="44.11171" lon="1.97245">
        <ele>186</ele>
        <time>2014-08-15T15:02:47Z</time>
      </trkpt>
      <trkpt lat="44.11159" lon="1.97255">
        <ele>187</ele>
        <time>2014-08-15T15:02:50Z</time>
      </trkpt>
      <trkpt lat="44.1115" lon="1.97261">
        <ele>187</ele>
        <time>2014-08-15T15:02:52Z</time>
      </trkpt>
      <trkpt lat="44.11142" lon="1.97267">
        <ele>188</ele>
        <time>2014-08-15T15:02:54Z</time>
      </trkpt>
      <trkpt lat="44.11134" lon="1.97273">
        <ele>188</ele>
        <time>2014-08-15T15:02:56Z</time>
      </trkpt>
      <trkpt lat="44.11125" lon="1.9728">
        <ele>188</ele>
        <time>2014-08-15T15:02:58Z</time>
      </trkpt>
      <trkpt lat="44.11117" lon="1.97286">
        <ele>189</ele>
        <time>2014-08-15T15:03:00Z</time>
      </trkpt>
      <trkpt lat="44.11108" lon="1.97292">
        <ele>190</ele>
        <time>2014-08-15T15:03:02Z</time>
      </trkpt>
      <trkpt lat="44.111" lon="1.97299">
        <ele>190</ele>
        <time>2014-08-15T15:03:04Z</time>
      </trkpt>
      <trkpt lat="44.11092" lon="1.97305">
        <ele>190</ele>
        <time>2014-08-15T15:03:06Z</time>
      </trkpt>
      <trkpt lat="44.11084" lon="1.97311">
        <ele>191</ele>
        <time>2014-08-15T15:03:08Z</time>
      </trkpt>
      <trkpt lat="44.11073" lon="1.9732">
        <ele>191</ele>
        <time>2014-08-15T15:03:11Z</time>
      </trkpt>
      <trkpt lat="44.11065" lon="1.97325">
        <ele>192</ele>
        <time>2014-08-15T15:03:13Z</time>
      </trkpt>
      <trkpt lat="44.11058" lon="1.9733">
        <ele>193</ele>
        <time>2014-08-15T15:03:15Z</time>
      </trkpt>
      <trkpt lat="44.11046" lon="1.97338">
        <ele>194</ele>
        <time>2014-08-15T15:03:18Z</time>
      </trkpt>
      <trkpt lat="44.11039" lon="1.97344">
        <ele>194</ele>
        <time>2014-08-15T15:03:20Z</time>
      </trkpt>
      <trkpt lat="44.11031" lon="1.97349">
        <ele>195</ele>
        <time>2014-08-15T15:03:22Z</time>
      </trkpt>
      <trkpt lat="44.11024" lon="1.97354">
        <ele>195</ele>
        <time>2014-08-15T15:03:24Z</time>
      </trkpt>
      <trkpt lat="44.11017" lon="1.97359">
        <ele>195</ele>
        <time>2014-08-15T15:03:26Z</time>
      </trkpt>
      <trkpt lat="44.11009" lon="1.97364">
        <ele>196</ele>
        <time>2014-08-15T15:03:28Z</time>
      </trkpt>
      <trkpt lat="44.11002" lon="1.9737">
        <ele>196</ele>
        <time>2014-08-15T15:03:30Z</time>
      </trkpt>
      <trkpt lat="44.10994" lon="1.97376">
        <ele>197</ele>
        <time>2014-08-15T15:03:32Z</time>
      </trkpt>
      <trkpt lat="44.10986" lon="1.97381">
        <ele>197</ele>
        <time>2014-08-15T15:03:34Z</time>
      </trkpt>
      <trkpt lat="44.10974" lon="1.97391">
        <ele>197</ele>
        <time>2014-08-15T15:03:37Z</time>
      </trkpt>
      <trkpt lat="44.10965" lon="1.97398">
        <ele>198</ele>
        <time>2014-08-15T15:03:39Z</time>
      </trkpt>
      <trkpt lat="44.10956" lon="1.97406">
        <ele>198</ele>
        <time>2014-08-15T15:03:41Z</time>
      </trkpt>
      <trkpt lat="44.10947" lon="1.97415">
        <ele>198</ele>
        <time>2014-08-15T15:03:43Z</time>
      </trkpt>
      <trkpt lat="44.10939" lon="1.97425">
        <ele>199</ele>
        <time>2014-08-15T15:03:45Z</time>
      </trkpt>
      <trkpt lat="44.10929" lon="1.97443">
        <ele>199</ele>
        <time>2014-08-15T15:03:48Z</time>
      </trkpt>
      <trkpt lat="44.10923" lon="1.97455">
        <ele>200</ele>
        <time>2014-08-15T15:03:50Z</time>
      </trkpt>
      <trkpt lat="44.10913" lon="1.97474">
        <ele>200</ele>
        <time>2014-08-15T15:03:53Z</time>
      </trkpt>
      <trkpt lat="44.10905" lon="1.97491">
        <ele>201</ele>
        <time>2014-08-15T15:03:56Z</time>
      </trkpt>
      <trkpt lat="44.109" lon="1.97502">
        <ele>202</ele>
        <time>2014-08-15T15:03:58Z</time>
      </trkpt>
      <trkpt lat="44.10895" lon="1.97512">
        <ele>202</ele>
        <time>2014-08-15T15:04:00Z</time>
      </trkpt>
      <trkpt lat="44.10889" lon="1.97527">
        <ele>203</ele>
        <time>2014-08-15T15:04:03Z</time>
      </trkpt>
      <trkpt lat="44.10884" lon="1.97536">
        <ele>203</ele>
        <time>2014-08-15T15:04:05Z</time>
      </trkpt>
      <trkpt lat="44.10879" lon="1.97546">
        <ele>204</ele>
        <time>2014-08-15T15:04:07Z</time>
      </trkpt>
      <trkpt lat="44.10871" lon="1.97561">
        <ele>205</ele>
        <time>2014-08-15T15:04:10Z</time>
      </trkpt>
      <trkpt lat="44.10866" lon="1.9757">
        <ele>205</ele>
        <time>2014-08-15T15:04:12Z</time>
      </trkpt>
      <trkpt lat="44.1086" lon="1.97579">
        <ele>205</ele>
        <time>2014-08-15T15:04:14Z</time>
      </trkpt>
      <trkpt lat="44.10854" lon="1.97587">
        <ele>206</ele>
        <time>2014-08-15T15:04:16Z</time>
      </trkpt>
      <trkpt lat="44.10849" lon="1.97596">
        <ele>206</ele>
        <time>2014-08-15T15:04:18Z</time>
      </trkpt>
      <trkpt lat="44.10842" lon="1.97604">
        <ele>207</ele>
        <time>2014-08-15T15:04:20Z</time>
      </trkpt>
      <trkpt lat="44.10831" lon="1.97616">
        <ele>207</ele>
        <time>2014-08-15T15:04:23Z</time>
      </trkpt>
      <trkpt lat="44.10825" lon="1.97624">
        <ele>208</ele>
        <time>2014-08-15T15:04:25Z</time>
      </trkpt>
      <trkpt lat="44.10815" lon="1.97633">
        <ele>208</ele>
        <time>2014-08-15T15:04:28Z</time>
      </trkpt>
      <trkpt lat="44.10804" lon="1.97643">
        <ele>209</ele>
        <time>2014-08-15T15:04:31Z</time>
      </trkpt>
      <trkpt lat="44.10793" lon="1.97653">
        <ele>209</ele>
        <time>2014-08-15T15:04:34Z</time>
      </trkpt>
      <trkpt lat="44.10786" lon="1.97659">
        <ele>209</ele>
        <time>2014-08-15T15:04:36Z</time>
      </trkpt>
      <trkpt lat="44.10778" lon="1.97667">
        <ele>210</ele>
        <time>2014-08-15T15:04:38Z</time>
      </trkpt>
      <trkpt lat="44.10767" lon="1.97677">
        <ele>211</ele>
        <time>2014-08-15T15:04:41Z</time>
      </trkpt>
      <trkpt lat="44.1076" lon="1.97685">
        <ele>211</ele>
        <time>2014-08-15T15:04:43Z</time>
      </trkpt>
      <trkpt lat="44.10753" lon="1.97693">
        <ele>212</ele>
        <time>2014-08-15T15:04:45Z</time>
      </trkpt>
      <trkpt lat="44.10742" lon="1.97707">
        <ele>212</ele>
        <time>2014-08-15T15:04:48Z</time>
      </trkpt>
      <trkpt lat="44.10735" lon="1.97716">
        <ele>213</ele>
        <time>2014-08-15T15:04:50Z</time>
      </trkpt>
      <trkpt lat="44.10729" lon="1.97724">
        <ele>213</ele>
        <time>2014-08-15T15:04:52Z</time>
      </trkpt>
      <trkpt lat="44.1072" lon="1.97736">
        <ele>214</ele>
        <time>2014-08-15T15:04:55Z</time>
      </trkpt>
      <trkpt lat="44.10714" lon="1.97746">
        <ele>214</ele>
        <time>2014-08-15T15:04:57Z</time>
      </trkpt>
      <trkpt lat="44.10708" lon="1.97755">
        <ele>215</ele>
        <time>2014-08-15T15:04:59Z</time>
      </trkpt>
      <trkpt lat="44.10702" lon="1.97764">
        <ele>215</ele>
        <time>2014-08-15T15:05:01Z</time>
      </trkpt>
      <trkpt lat="44.10696" lon="1.97774">
        <ele>215</ele>
        <time>2014-08-15T15:05:03Z</time>
      </trkpt>
      <trkpt lat="44.1069" lon="1.97782">
        <ele>216</ele>
        <time>2014-08-15T15:05:05Z</time>
      </trkpt>
      <trkpt lat="44.10684" lon="1.97791">
        <ele>216</ele>
        <time>2014-08-15T15:05:07Z</time>
      </trkpt>
      <trkpt lat="44.10677" lon="1.97799">
        <ele>216</ele>
        <time>2014-08-15T15:05:09Z</time>
      </trkpt>
      <trkpt lat="44.1067" lon="1.97807">
        <ele>217</ele>
        <time>2014-08-15T15:05:11Z</time>
      </trkpt>
      <trkpt lat="44.10659" lon="1.97816">
        <ele>217</ele>
        <time>2014-08-15T15:05:14Z</time>
      </trkpt>
      <trkpt lat="44.10652" lon="1.97822">
        <ele>218</ele>
        <time>2014-08-15T15:05:16Z</time>
      </trkpt>
      <trkpt lat="44.10644" lon="1.97827">
        <ele>218</ele>
        <time>2014-08-15T15:05:18Z</time>
      </trkpt>
      <trkpt lat="44.10636" lon="1.97832">
        <ele>219</ele>
        <time>2014-08-15T15:05:20Z</time>
      </trkpt>
      <trkpt lat="44.10627" lon="1.97837">
        <ele>219</ele>
        <time>2014-08-15T15:05:22Z</time>
      </trkpt>
      <trkpt lat="44.10614" lon="1.97842">
        <ele>220</ele>
        <time>2014-08-15T15:05:25Z</time>
      </trkpt>
      <trkpt lat="44.10606" lon="1.97846">
        <ele>220</ele>
        <time>2014-08-15T15:05:27Z</time>
      </trkpt>
      <trkpt lat="44.10597" lon="1.97848">
        <ele>221</ele>
        <time>2014-08-15T15:05:29Z</time>
      </trkpt>
      <trkpt lat="44.10587" lon="1.9785">
        <ele>220</ele>
        <time>2014-08-15T15:05:31Z</time>
      </trkpt>
      <trkpt lat="44.10576" lon="1.9785">
        <ele>220</ele>
        <time>2014-08-15T15:05:33Z</time>
      </trkpt>
      <trkpt lat="44.10565" lon="1.97849">
        <ele>220</ele>
        <time>2014-08-15T15:05:35Z</time>
      </trkpt>
      <trkpt lat="44.10553" lon="1.97845">
        <ele>220</ele>
        <time>2014-08-15T15:05:37Z</time>
      </trkpt>
      <trkpt lat="44.10542" lon="1.97838">
        <ele>219</ele>
        <time>2014-08-15T15:05:39Z</time>
      </trkpt>
      <trkpt lat="44.10526" lon="1.97822">
        <ele>219</ele>
        <time>2014-08-15T15:05:42Z</time>
      </trkpt>
      <trkpt lat="44.10512" lon="1.97804">
        <ele>219</ele>
        <time>2014-08-15T15:05:45Z</time>
      </trkpt>
      <trkpt lat="44.10503" lon="1.9779">
        <ele>219</ele>
        <time>2014-08-15T15:05:47Z</time>
      </trkpt>
      <trkpt lat="44.1049" lon="1.97769">
        <ele>218</ele>
        <time>2014-08-15T15:05:50Z</time>
      </trkpt>
      <trkpt lat="44.10481" lon="1.97755">
        <ele>218</ele>
        <time>2014-08-15T15:05:52Z</time>
      </trkpt>
      <trkpt lat="44.10471" lon="1.97739">
        <ele>218</ele>
        <time>2014-08-15T15:05:54Z</time>
      </trkpt>
      <trkpt lat="44.10461" lon="1.97723">
        <ele>217</ele>
        <time>2014-08-15T15:05:56Z</time>
      </trkpt>
      <trkpt lat="44.1045" lon="1.97706">
        <ele>217</ele>
        <time>2014-08-15T15:05:58Z</time>
      </trkpt>
      <trkpt lat="44.10439" lon="1.97687">
        <ele>216</ele>
        <time>2014-08-15T15:06:00Z</time>
      </trkpt>
      <trkpt lat="44.10427" lon="1.97668">
        <ele>215</ele>
        <time>2014-08-15T15:06:02Z</time>
      </trkpt>
      <trkpt lat="44.10414" lon="1.97649">
        <ele>214</ele>
        <time>2014-08-15T15:06:04Z</time>
      </trkpt>
      <trkpt lat="44.10401" lon="1.97629">
        <ele>213</ele>
        <time>2014-08-15T15:06:06Z</time>
      </trkpt>
      <trkpt lat="44.1038" lon="1.97598">
        <ele>212</ele>
        <time>2014-08-15T15:06:09Z</time>
      </trkpt>
      <trkpt lat="44.10365" lon="1.97578">
        <ele>211</ele>
        <time>2014-08-15T15:06:11Z</time>
      </trkpt>
      <trkpt lat="44.10343" lon="1.9755">
        <ele>210</ele>
        <time>2014-08-15T15:06:14Z</time>
      </trkpt>
      <trkpt lat="44.1032" lon="1.97525">
        <ele>209</ele>
        <time>2014-08-15T15:06:17Z</time>
      </trkpt>
      <trkpt lat="44.10303" lon="1.97512">
        <ele>209</ele>
        <time>2014-08-15T15:06:19Z</time>
      </trkpt>
      <trkpt lat="44.10278" lon="1.97499">
        <ele>208</ele>
        <time>2014-08-15T15:06:22Z</time>
      </trkpt>
      <trkpt lat="44.10261" lon="1.97494">
        <ele>208</ele>
        <time>2014-08-15T15:06:24Z</time>
      </trkpt>
      <trkpt lat="44.10244" lon="1.97491">
        <ele>208</ele>
        <time>2014-08-15T15:06:26Z</time>
      </trkpt>
      <trkpt lat="44.10228" lon="1.9749">
        <ele>208</ele>
        <time>2014-08-15T15:06:28Z</time>
      </trkpt>
      <trkpt lat="44.10212" lon="1.9749">
        <ele>208</ele>
        <time>2014-08-15T15:06:30Z</time>
      </trkpt>
      <trkpt lat="44.10197" lon="1.97493">
        <ele>208</ele>
        <time>2014-08-15T15:06:32Z</time>
      </trkpt>
      <trkpt lat="44.10182" lon="1.97498">
        <ele>208</ele>
        <time>2014-08-15T15:06:34Z</time>
      </trkpt>
      <trkpt lat="44.10163" lon="1.97511">
        <ele>208</ele>
        <time>2014-08-15T15:06:37Z</time>
      </trkpt>
      <trkpt lat="44.1015" lon="1.97521">
        <ele>208</ele>
        <time>2014-08-15T15:06:39Z</time>
      </trkpt>
      <trkpt lat="44.10138" lon="1.97534">
        <ele>208</ele>
        <time>2014-08-15T15:06:41Z</time>
      </trkpt>
      <trkpt lat="44.10123" lon="1.97559">
        <ele>207</ele>
        <time>2014-08-15T15:06:44Z</time>
      </trkpt>
      <trkpt lat="44.1011" lon="1.97588">
        <ele>206</ele>
        <time>2014-08-15T15:06:47Z</time>
      </trkpt>
      <trkpt lat="44.10101" lon="1.97607">
        <ele>205</ele>
        <time>2014-08-15T15:06:49Z</time>
      </trkpt>
      <trkpt lat="44.10089" lon="1.97623">
        <ele>204</ele>
        <time>2014-08-15T15:06:51Z</time>
      </trkpt>
      <trkpt lat="44.10075" lon="1.97637">
        <ele>203</ele>
        <time>2014-08-15T15:06:53Z</time>
      </trkpt>
      <trkpt lat="44.10061" lon="1.97648">
        <ele>202</ele>
        <time>2014-08-15T15:06:55Z</time>
      </trkpt>
      <trkpt lat="44.10045" lon="1.97659">
        <ele>201</ele>
        <time>2014-08-15T15:06:57Z</time>
      </trkpt>
      <trkpt lat="44.10019" lon="1.97675">
        <ele>200</ele>
        <time>2014-08-15T15:07:00Z</time>
      </trkpt>
      <trkpt lat="44.09995" lon="1.97701">
        <ele>198</ele>
        <time>2014-08-15T15:07:03Z</time>
      </trkpt>
      <trkpt lat="44.09983" lon="1.97719">
        <ele>197</ele>
        <time>2014-08-15T15:07:05Z</time>
      </trkpt>
      <trkpt lat="44.09971" lon="1.97734">
        <ele>196</ele>
        <time>2014-08-15T15:07:07Z</time>
      </trkpt>
      <trkpt lat="44.09958" lon="1.97751">
        <ele>195</ele>
        <time>2014-08-15T15:07:09Z</time>
      </trkpt>
      <trkpt lat="44.09944" lon="1.97769">
        <ele>194</ele>
        <time>2014-08-15T15:07:11Z</time>
      </trkpt>
      <trkpt lat="44.09922" lon="1.97795">
        <ele>192</ele>
        <time>2014-08-15T15:07:14Z</time>
      </trkpt>
      <trkpt lat="44.09908" lon="1.97812">
        <ele>191</ele>
        <time>2014-08-15T15:07:16Z</time>
      </trkpt>
      <trkpt lat="44.09894" lon="1.97828">
        <ele>190</ele>
        <time>2014-08-15T15:07:18Z</time>
      </trkpt>
      <trkpt lat="44.09879" lon="1.97844">
        <ele>189</ele>
        <time>2014-08-15T15:07:20Z</time>
      </trkpt>
      <trkpt lat="44.09862" lon="1.97858">
        <ele>188</ele>
        <time>2014-08-15T15:07:22Z</time>
      </trkpt>
      <trkpt lat="44.09844" lon="1.97874">
        <ele>187</ele>
        <time>2014-08-15T15:07:24Z</time>
      </trkpt>
      <trkpt lat="44.0982" lon="1.97894">
        <ele>186</ele>
        <time>2014-08-15T15:07:27Z</time>
      </trkpt>
      <trkpt lat="44.098" lon="1.97913">
        <ele>185</ele>
        <time>2014-08-15T15:07:30Z</time>
      </trkpt>
      <trkpt lat="44.09784" lon="1.97927">
        <ele>184</ele>
        <time>2014-08-15T15:07:32Z</time>
      </trkpt>
      <trkpt lat="44.09749" lon="1.97933">
        <ele>181</ele>
        <time>2014-08-15T15:07:35Z</time>
      </trkpt>
      <trkpt lat="44.09727" lon="1.97924">
        <ele>180</ele>
        <time>2014-08-15T15:07:37Z</time>
      </trkpt>
      <trkpt lat="44.0971" lon="1.97906">
        <ele>179</ele>
        <time>2014-08-15T15:07:39Z</time>
      </trkpt>
      <trkpt lat="44.09681" lon="1.97889">
        <ele>177</ele>
        <time>2014-08-15T15:07:42Z</time>
      </trkpt>
      <trkpt lat="44.09649" lon="1.97899">
        <ele>175</ele>
        <time>2014-08-15T15:07:45Z</time>
      </trkpt>
      <trkpt lat="44.09633" lon="1.97904">
        <ele>174</ele>
        <time>2014-08-15T15:07:47Z</time>
      </trkpt>
      <trkpt lat="44.09614" lon="1.97906">
        <ele>173</ele>
        <time>2014-08-15T15:07:49Z</time>
      </trkpt>
      <trkpt lat="44.09592" lon="1.979">
        <ele>171</ele>
        <time>2014-08-15T15:07:51Z</time>
      </trkpt>
      <trkpt lat="44.09564" lon="1.97876">
        <ele>170</ele>
        <time>2014-08-15T15:07:54Z</time>
      </trkpt>
      <trkpt lat="44.09544" lon="1.97869">
        <ele>169</ele>
        <time>2014-08-15T15:07:56Z</time>
      </trkpt>
      <trkpt lat="44.09522" lon="1.97871">
        <ele>168</ele>
        <time>2014-08-15T15:07:58Z</time>
      </trkpt>
      <trkpt lat="44.09495" lon="1.97852">
        <ele>166</ele>
        <time>2014-08-15T15:08:01Z</time>
      </trkpt>
      <trkpt lat="44.09486" lon="1.97826">
        <ele>165</ele>
        <time>2014-08-15T15:08:03Z</time>
      </trkpt>
      <trkpt lat="44.0948" lon="1.97782">
        <ele>162</ele>
        <time>2014-08-15T15:08:06Z</time>
      </trkpt>
      <trkpt lat="44.09475" lon="1.97756">
        <ele>160</ele>
        <time>2014-08-15T15:08:08Z</time>
      </trkpt>
      <trkpt lat="44.09468" lon="1.97714">
        <ele>158</ele>
        <time>2014-08-15T15:08:11Z</time>
      </trkpt>
      <trkpt lat="44.0946" lon="1.97678">
        <ele>157</ele>
        <time>2014-08-15T15:08:14Z</time>
      </trkpt>
      <trkpt lat="44.09446" lon="1.97652">
        <ele>156</ele>
        <time>2014-08-15T15:08:17Z</time>
      </trkpt>
      <trkpt lat="44.09429" lon="1.97642">
        <ele>156</ele>
        <time>2014-08-15T15:08:19Z</time>
      </trkpt>
      <trkpt lat="44.09412" lon="1.97648">
        <ele>156</ele>
        <time>2014-08-15T15:08:21Z</time>
      </trkpt>
      <trkpt lat="44.09394" lon="1.9767">
        <ele>156</ele>
        <time>2014-08-15T15:08:24Z</time>
      </trkpt>
      <trkpt lat="44.09377" lon="1.97693">
        <ele>155</ele>
        <time>2014-08-15T15:08:27Z</time>
      </trkpt>
      <trkpt lat="44.0936" lon="1.97714">
        <ele>155</ele>
        <time>2014-08-15T15:08:30Z</time>
      </trkpt>
      <trkpt lat="44.09345" lon="1.97735">
        <ele>155</ele>
        <time>2014-08-15T15:08:33Z</time>
      </trkpt>
      <trkpt lat="44.09331" lon="1.97761">
        <ele>154</ele>
        <time>2014-08-15T15:08:36Z</time>
      </trkpt>
      <trkpt lat="44.09322" lon="1.97778">
        <ele>153</ele>
        <time>2014-08-15T15:08:38Z</time>
      </trkpt>
      <trkpt lat="44.09308" lon="1.97798">
        <ele>152</ele>
        <time>2014-08-15T15:08:41Z</time>
      </trkpt>
      <trkpt lat="44.09289" lon="1.97809">
        <ele>150</ele>
        <time>2014-08-15T15:08:44Z</time>
      </trkpt>
      <trkpt lat="44.09269" lon="1.97821">
        <ele>149</ele>
        <time>2014-08-15T15:08:46Z</time>
      </trkpt>
      <trkpt lat="44.09251" lon="1.97831">
        <ele>149</ele>
        <time>2014-08-15T15:08:48Z</time>
      </trkpt>
      <trkpt lat="44.0923" lon="1.97836">
        <ele>148</ele>
        <time>2014-08-15T15:08:50Z</time>
      </trkpt>
      <trkpt lat="44.09211" lon="1.97828">
        <ele>147</ele>
        <time>2014-08-15T15:08:52Z</time>
      </trkpt>
      <trkpt lat="44.09197" lon="1.97812">
        <ele>146</ele>
        <time>2014-08-15T15:08:54Z</time>
      </trkpt>
      <trkpt lat="44.09175" lon="1.97786">
        <ele>146</ele>
        <time>2014-08-15T15:08:57Z</time>
      </trkpt>
      <trkpt lat="44.09156" lon="1.97781">
        <ele>145</ele>
        <time>2014-08-15T15:08:59Z</time>
      </trkpt>
      <trkpt lat="44.09127" lon="1.97788">
        <ele>144</ele>
        <time>2014-08-15T15:09:02Z</time>
      </trkpt>
      <trkpt lat="44.09108" lon="1.9779">
        <ele>143</ele>
        <time>2014-08-15T15:09:04Z</time>
      </trkpt>
      <trkpt lat="44.09081" lon="1.97784">
        <ele>143</ele>
        <time>2014-08-15T15:09:07Z</time>
      </trkpt>
      <trkpt lat="44.09064" lon="1.97782">
        <ele>143</ele>
        <time>2014-08-15T15:09:09Z</time>
      </trkpt>
      <trkpt lat="44.09046" lon="1.97785">
        <ele>143</ele>
        <time>2014-08-15T15:09:11Z</time>
      </trkpt>
      <trkpt lat="44.09021" lon="1.97804">
        <ele>142</ele>
        <time>2014-08-15T15:09:14Z</time>
      </trkpt>
      <trkpt lat="44.09003" lon="1.97817">
        <ele>141</ele>
        <time>2014-08-15T15:09:16Z</time>
      </trkpt>
      <trkpt lat="44.08973" lon="1.97825">
        <ele>140</ele>
        <time>2014-08-15T15:09:19Z</time>
      </trkpt>
      <trkpt lat="44.08951" lon="1.97827">
        <ele>138</ele>
        <time>2014-08-15T15:09:21Z</time>
      </trkpt>
      <trkpt lat="44.0893" lon="1.97828">
        <ele>137</ele>
        <time>2014-08-15T15:09:23Z</time>
      </trkpt>
      <trkpt lat="44.08903" lon="1.97829">
        <ele>136</ele>
        <time>2014-08-15T15:09:26Z</time>
      </trkpt>
      <trkpt lat="44.08886" lon="1.9783">
        <ele>135</ele>
        <time>2014-08-15T15:09:28Z</time>
      </trkpt>
      <trkpt lat="44.08863" lon="1.97832">
        <ele>135</ele>
        <time>2014-08-15T15:09:31Z</time>
      </trkpt>
      <trkpt lat="44.08839" lon="1.97831">
        <ele>134</ele>
        <time>2014-08-15T15:09:34Z</time>
      </trkpt>
      <trkpt lat="44.08814" lon="1.97833">
        <ele>134</ele>
        <time>2014-08-15T15:09:37Z</time>
      </trkpt>
      <trkpt lat="44.08791" lon="1.97833">
        <ele>133</ele>
        <time>2014-08-15T15:09:40Z</time>
      </trkpt>
      <trkpt lat="44.08771" lon="1.97834">
        <ele>132</ele>
        <time>2014-08-15T15:09:42Z</time>
      </trkpt>
      <trkpt lat="44.08739" lon="1.97836">
        <ele>131</ele>
        <time>2014-08-15T15:09:45Z</time>
      </trkpt>
      <trkpt lat="44.08719" lon="1.97841">
        <ele>130</ele>
        <time>2014-08-15T15:09:47Z</time>
      </trkpt>
      <trkpt lat="44.08689" lon="1.97853">
        <ele>129</ele>
        <time>2014-08-15T15:09:50Z</time>
      </trkpt>
      <trkpt lat="44.0867" lon="1.97862">
        <ele>127</ele>
        <time>2014-08-15T15:09:52Z</time>
      </trkpt>
      <trkpt lat="44.08641" lon="1.97879">
        <ele>126</ele>
        <time>2014-08-15T15:09:55Z</time>
      </trkpt>
      <trkpt lat="44.08622" lon="1.97889">
        <ele>125</ele>
        <time>2014-08-15T15:09:57Z</time>
      </trkpt>
      <trkpt lat="44.08603" lon="1.97899">
        <ele>124</ele>
        <time>2014-08-15T15:09:59Z</time>
      </trkpt>
      <trkpt lat="44.08584" lon="1.97906">
        <ele>124</ele>
        <time>2014-08-15T15:10:01Z</time>
      </trkpt>
      <trkpt lat="44.08557" lon="1.97916">
        <ele>124</ele>
        <time>2014-08-15T15:10:04Z</time>
      </trkpt>
      <trkpt lat="44.0854" lon="1.97921">
        <ele>123</ele>
        <time>2014-08-15T15:10:06Z</time>
      </trkpt>
      <trkpt lat="44.08526" lon="1.97924">
        <ele>123</ele>
        <time>2014-08-15T15:10:08Z</time>
      </trkpt>
      <trkpt lat="44.08504" lon="1.9793">
        <ele>123</ele>
        <time>2014-08-15T15:10:11Z</time>
      </trkpt>
      <trkpt lat="44.0849" lon="1.97933">
        <ele>123</ele>
        <time>2014-08-15T15:10:13Z</time>
      </trkpt>
      <trkpt lat="44.08475" lon="1.97936">
        <ele>123</ele>
        <time>2014-08-15T15:10:15Z</time>
      </trkpt>
      <trkpt lat="44.0846" lon="1.97939">
        <ele>124</ele>
        <time>2014-08-15T15:10:17Z</time>
      </trkpt>
      <trkpt lat="44.08443" lon="1.97941">
        <ele>125</ele>
        <time>2014-08-15T15:10:19Z</time>
      </trkpt>
      <trkpt lat="44.08428" lon="1.97942">
        <ele>125</ele>
        <time>2014-08-15T15:10:21Z</time>
      </trkpt>
      <trkpt lat="44.08405" lon="1.97944">
        <ele>124</ele>
        <time>2014-08-15T15:10:24Z</time>
      </trkpt>
      <trkpt lat="44.08389" lon="1.97945">
        <ele>123</ele>
        <time>2014-08-15T15:10:26Z</time>
      </trkpt>
      <trkpt lat="44.08372" lon="1.97946">
        <ele>123</ele>
        <time>2014-08-15T15:10:28Z</time>
      </trkpt>
      <trkpt lat="44.08356" lon="1.97946">
        <ele>122</ele>
        <time>2014-08-15T15:10:30Z</time>
      </trkpt>
      <trkpt lat="44.08331" lon="1.97946">
        <ele>123</ele>
        <time>2014-08-15T15:10:33Z</time>
      </trkpt>
      <trkpt lat="44.08315" lon="1.97946">
        <ele>123</ele>
        <time>2014-08-15T15:10:35Z</time>
      </trkpt>
      <trkpt lat="44.08291" lon="1.97945">
        <ele>123</ele>
        <time>2014-08-15T15:10:38Z</time>
      </trkpt>
      <trkpt lat="44.08268" lon="1.97945">
        <ele>123</ele>
        <time>2014-08-15T15:10:41Z</time>
      </trkpt>
      <trkpt lat="44.08244" lon="1.97945">
        <ele>123</ele>
        <time>2014-08-15T15:10:44Z</time>
      </trkpt>
      <trkpt lat="44.08221" lon="1.97944">
        <ele>122</ele>
        <time>2014-08-15T15:10:47Z</time>
      </trkpt>
      <trkpt lat="44.08205" lon="1.97944">
        <ele>122</ele>
        <time>2014-08-15T15:10:49Z</time>
      </trkpt>
      <trkpt lat="44.08181" lon="1.97943">
        <ele>122</ele>
        <time>2014-08-15T15:10:52Z</time>
      </trkpt>
      <trkpt lat="44.08158" lon="1.97942">
        <ele>122</ele>
        <time>2014-08-15T15:10:55Z</time>
      </trkpt>
      <trkpt lat="44.08144" lon="1.97941">
        <ele>122</ele>
        <time>2014-08-15T15:10:57Z</time>
      </trkpt>
      <trkpt lat="44.08121" lon="1.97941">
        <ele>121</ele>
        <time>2014-08-15T15:11:00Z</time>
      </trkpt>
      <trkpt lat="44.08105" lon="1.97941">
        <ele>121</ele>
        <time>2014-08-15T15:11:02Z</time>
      </trkpt>
      <trkpt lat="44.08089" lon="1.9794">
        <ele>120</ele>
        <time>2014-08-15T15:11:04Z</time>
      </trkpt>
      <trkpt lat="44.08066" lon="1.97939">
        <ele>120</ele>
        <time>2014-08-15T15:11:07Z</time>
      </trkpt>
      <trkpt lat="44.0805" lon="1.97939">
        <ele>120</ele>
        <time>2014-08-15T15:11:09Z</time>
      </trkpt>
      <trkpt lat="44.08026" lon="1.97938">
        <ele>119</ele>
        <time>2014-08-15T15:11:12Z</time>
      </trkpt>
      <trkpt lat="44.0801" lon="1.97938">
        <ele>119</ele>
        <time>2014-08-15T15:11:14Z</time>
      </trkpt>
      <trkpt lat="44.07995" lon="1.97937">
        <ele>119</ele>
        <time>2014-08-15T15:11:16Z</time>
      </trkpt>
      <trkpt lat="44.0798" lon="1.97936">
        <ele>119</ele>
        <time>2014-08-15T15:11:18Z</time>
      </trkpt>
      <trkpt lat="44.07964" lon="1.97936">
        <ele>118</ele>
        <time>2014-08-15T15:11:20Z</time>
      </trkpt>
      <trkpt lat="44.0794" lon="1.97933">
        <ele>118</ele>
        <time>2014-08-15T15:11:23Z</time>
      </trkpt>
      <trkpt lat="44.07925" lon="1.97927">
        <ele>118</ele>
        <time>2014-08-15T15:11:25Z</time>
      </trkpt>
      <trkpt lat="44.07912" lon="1.97918">
        <ele>118</ele>
        <time>2014-08-15T15:11:27Z</time>
      </trkpt>
      <trkpt lat="44.07895" lon="1.979">
        <ele>118</ele>
        <time>2014-08-15T15:11:30Z</time>
      </trkpt>
      <trkpt lat="44.07885" lon="1.97886">
        <ele>118</ele>
        <time>2014-08-15T15:11:32Z</time>
      </trkpt>
      <trkpt lat="44.07875" lon="1.97869">
        <ele>117</ele>
        <time>2014-08-15T15:11:34Z</time>
      </trkpt>
      <trkpt lat="44.0786" lon="1.97842">
        <ele>117</ele>
        <time>2014-08-15T15:11:37Z</time>
      </trkpt>
      <trkpt lat="44.07849" lon="1.97823">
        <ele>116</ele>
        <time>2014-08-15T15:11:39Z</time>
      </trkpt>
      <trkpt lat="44.07838" lon="1.97803">
        <ele>115</ele>
        <time>2014-08-15T15:11:41Z</time>
      </trkpt>
      <trkpt lat="44.07826" lon="1.97782">
        <ele>114</ele>
        <time>2014-08-15T15:11:43Z</time>
      </trkpt>
      <trkpt lat="44.07814" lon="1.9776">
        <ele>113</ele>
        <time>2014-08-15T15:11:45Z</time>
      </trkpt>
      <trkpt lat="44.07801" lon="1.97737">
        <ele>112</ele>
        <time>2014-08-15T15:11:47Z</time>
      </trkpt>
      <trkpt lat="44.07781" lon="1.97702">
        <ele>111</ele>
        <time>2014-08-15T15:11:50Z</time>
      </trkpt>
      <trkpt lat="44.07769" lon="1.97679">
        <ele>110</ele>
        <time>2014-08-15T15:11:52Z</time>
      </trkpt>
      <trkpt lat="44.07756" lon="1.97657">
        <ele>109</ele>
        <time>2014-08-15T15:11:54Z</time>
      </trkpt>
      <trkpt lat="44.07744" lon="1.97635">
        <ele>109</ele>
        <time>2014-08-15T15:11:56Z</time>
      </trkpt>
      <trkpt lat="44.07732" lon="1.97614">
        <ele>108</ele>
        <time>2014-08-15T15:11:58Z</time>
      </trkpt>
      <trkpt lat="44.07721" lon="1.97592">
        <ele>107</ele>
        <time>2014-08-15T15:12:00Z</time>
      </trkpt>
      <trkpt lat="44.07709" lon="1.97571">
        <ele>106</ele>
        <time>2014-08-15T15:12:02Z</time>
      </trkpt>
      <trkpt lat="44.07692" lon="1.9754">
        <ele>105</ele>
        <time>2014-08-15T15:12:05Z</time>
      </trkpt>
      <trkpt lat="44.07681" lon="1.9752">
        <ele>105</ele>
        <time>2014-08-15T15:12:07Z</time>
      </trkpt>
      <trkpt lat="44.07671" lon="1.97501">
        <ele>105</ele>
        <time>2014-08-15T15:12:09Z</time>
      </trkpt>
      <trkpt lat="44.07661" lon="1.97482">
        <ele>105</ele>
        <time>2014-08-15T15:12:11Z</time>
      </trkpt>
      <trkpt lat="44.0765" lon="1.97464">
        <ele>105</ele>
        <time>2014-08-15T15:12:13Z</time>
      </trkpt>
      <trkpt lat="44.07641" lon="1.97446">
        <ele>105</ele>
        <time>2014-08-15T15:12:15Z</time>
      </trkpt>
      <trkpt lat="44.07631" lon="1.97429">
        <ele>105</ele>
        <time>2014-08-15T15:12:17Z</time>
      </trkpt>
      <trkpt lat="44.07622" lon="1.97412">
        <ele>105</ele>
        <time>2014-08-15T15:12:19Z</time>
      </trkpt>
      <trkpt lat="44.07612" lon="1.97395">
        <ele>105</ele>
        <time>2014-08-15T15:12:21Z</time>
      </trkpt>
      <trkpt lat="44.07599" lon="1.97369">
        <ele>105</ele>
        <time>2014-08-15T15:12:24Z</time>
      </trkpt>
      <trkpt lat="44.0759" lon="1.97353">
        <ele>104</ele>
        <time>2014-08-15T15:12:26Z</time>
      </trkpt>
      <trkpt lat="44.07576" lon="1.97327">
        <ele>104</ele>
        <time>2014-08-15T15:12:29Z</time>
      </trkpt>
      <trkpt lat="44.07566" lon="1.9731">
        <ele>104</ele>
        <time>2014-08-15T15:12:31Z</time>
      </trkpt>
      <trkpt lat="44.07558" lon="1.97293">
        <ele>104</ele>
        <time>2014-08-15T15:12:33Z</time>
      </trkpt>
      <trkpt lat="44.07544" lon="1.97268">
        <ele>104</ele>
        <time>2014-08-15T15:12:36Z</time>
      </trkpt>
      <trkpt lat="44.07536" lon="1.97251">
        <ele>104</ele>
        <time>2014-08-15T15:12:38Z</time>
      </trkpt>
      <trkpt lat="44.07526" lon="1.97234">
        <ele>103</ele>
        <time>2014-08-15T15:12:40Z</time>
      </trkpt>
      <trkpt lat="44.07517" lon="1.97217">
        <ele>104</ele>
        <time>2014-08-15T15:12:42Z</time>
      </trkpt>
      <trkpt lat="44.07502" lon="1.97191">
        <ele>103</ele>
        <time>2014-08-15T15:12:45Z</time>
      </trkpt>
      <trkpt lat="44.07489" lon="1.97177">
        <ele>102</ele>
        <time>2014-08-15T15:12:47Z</time>
      </trkpt>
      <trkpt lat="44.07474" lon="1.97164">
        <ele>102</ele>
        <time>2014-08-15T15:12:49Z</time>
      </trkpt>
      <trkpt lat="44.07458" lon="1.97155">
        <ele>101</ele>
        <time>2014-08-15T15:12:51Z</time>
      </trkpt>
      <trkpt lat="44.07441" lon="1.97149">
        <ele>100</ele>
        <time>2014-08-15T15:12:53Z</time>
      </trkpt>
      <trkpt lat="44.07413" lon="1.97143">
        <ele>100</ele>
        <time>2014-08-15T15:12:56Z</time>
      </trkpt>
      <trkpt lat="44.07396" lon="1.9714">
        <ele>99</ele>
        <time>2014-08-15T15:12:58Z</time>
      </trkpt>
      <trkpt lat="44.07378" lon="1.97137">
        <ele>99</ele>
        <time>2014-08-15T15:13:00Z</time>
      </trkpt>
      <trkpt lat="44.07361" lon="1.97134">
        <ele>98</ele>
        <time>2014-08-15T15:13:02Z</time>
      </trkpt>
      <trkpt lat="44.07343" lon="1.97131">
        <ele>98</ele>
        <time>2014-08-15T15:13:04Z</time>
      </trkpt>
      <trkpt lat="44.07318" lon="1.97127">
        <ele>97</ele>
        <time>2014-08-15T15:13:07Z</time>
      </trkpt>
      <trkpt lat="44.07301" lon="1.97125">
        <ele>97</ele>
        <time>2014-08-15T15:13:09Z</time>
      </trkpt>
      <trkpt lat="44.07285" lon="1.97123">
        <ele>97</ele>
        <time>2014-08-15T15:13:11Z</time>
      </trkpt>
      <trkpt lat="44.07269" lon="1.9712">
        <ele>97</ele>
        <time>2014-08-15T15:13:13Z</time>
      </trkpt>
      <trkpt lat="44.07253" lon="1.97118">
        <ele>96</ele>
        <time>2014-08-15T15:13:15Z</time>
      </trkpt>
      <trkpt lat="44.0723" lon="1.97115">
        <ele>96</ele>
        <time>2014-08-15T15:13:18Z</time>
      </trkpt>
      <trkpt lat="44.07214" lon="1.97113">
        <ele>96</ele>
        <time>2014-08-15T15:13:20Z</time>
      </trkpt>
      <trkpt lat="44.07199" lon="1.9711">
        <ele>96</ele>
        <time>2014-08-15T15:13:22Z</time>
      </trkpt>
      <trkpt lat="44.07185" lon="1.97107">
        <ele>96</ele>
        <time>2014-08-15T15:13:24Z</time>
      </trkpt>
      <trkpt lat="44.07171" lon="1.97105">
        <ele>96</ele>
        <time>2014-08-15T15:13:26Z</time>
      </trkpt>
      <trkpt lat="44.07156" lon="1.97102">
        <ele>96</ele>
        <time>2014-08-15T15:13:28Z</time>
      </trkpt>
      <trkpt lat="44.07142" lon="1.971">
        <ele>95</ele>
        <time>2014-08-15T15:13:30Z</time>
      </trkpt>
      <trkpt lat="44.07121" lon="1.97097">
        <ele>95</ele>
        <time>2014-08-15T15:13:33Z</time>
      </trkpt>
      <trkpt lat="44.071" lon="1.97092">
        <ele>94</ele>
        <time>2014-08-15T15:13:36Z</time>
      </trkpt>
      <trkpt lat="44.07077" lon="1.97089">
        <ele>93</ele>
        <time>2014-08-15T15:13:39Z</time>
      </trkpt>
      <trkpt lat="44.07062" lon="1.97087">
        <ele>93</ele>
        <time>2014-08-15T15:13:41Z</time>
      </trkpt>
      <trkpt lat="44.07039" lon="1.97084">
        <ele>93</ele>
        <time>2014-08-15T15:13:44Z</time>
      </trkpt>
      <trkpt lat="44.07017" lon="1.97081">
        <ele>93</ele>
        <time>2014-08-15T15:13:47Z</time>
      </trkpt>
      <trkpt lat="44.06997" lon="1.97078">
        <ele>93</ele>
        <time>2014-08-15T15:13:50Z</time>
      </trkpt>
      <trkpt lat="44.06984" lon="1.97077">
        <ele>93</ele>
        <time>2014-08-15T15:13:52Z</time>
      </trkpt>
      <trkpt lat="44.0697" lon="1.97073">
        <ele>93</ele>
        <time>2014-08-15T15:13:54Z</time>
      </trkpt>
      <trkpt lat="44.06951" lon="1.9707">
        <ele>93</ele>
        <time>2014-08-15T15:13:57Z</time>
      </trkpt>
      <trkpt lat="44.06937" lon="1.97067">
        <ele>93</ele>
        <time>2014-08-15T15:13:59Z</time>
      </trkpt>
      <trkpt lat="44.06924" lon="1.97064">
        <ele>93</ele>
        <time>2014-08-15T15:14:01Z</time>
      </trkpt>
      <trkpt lat="44.06902" lon="1.97061">
        <ele>93</ele>
        <time>2014-08-15T15:14:04Z</time>
      </trkpt>
      <trkpt lat="44.06889" lon="1.97058">
        <ele>93</ele>
        <time>2014-08-15T15:14:06Z</time>
      </trkpt>
      <trkpt lat="44.06875" lon="1.97057">
        <ele>93</ele>
        <time>2014-08-15T15:14:08Z</time>
      </trkpt>
      <trkpt lat="44.06862" lon="1.97056">
        <ele>93</ele>
        <time>2014-08-15T15:14:10Z</time>
      </trkpt>
      <trkpt lat="44.06848" lon="1.97053">
        <ele>93</ele>
        <time>2014-08-15T15:14:12Z</time>
      </trkpt>
      <trkpt lat="44.06829" lon="1.97051">
        <ele>94</ele>
        <time>2014-08-15T15:14:15Z</time>
      </trkpt>
      <trkpt lat="44.06815" lon="1.9705">
        <ele>94</ele>
        <time>2014-08-15T15:14:17Z</time>
      </trkpt>
      <trkpt lat="44.06796" lon="1.97047">
        <ele>94</ele>
        <time>2014-08-15T15:14:20Z</time>
      </trkpt>
      <trkpt lat="44.06783" lon="1.97046">
        <ele>93</ele>
        <time>2014-08-15T15:14:22Z</time>
      </trkpt>
      <trkpt lat="44.0677" lon="1.97044">
        <ele>93</ele>
        <time>2014-08-15T15:14:24Z</time>
      </trkpt>
      <trkpt lat="44.06758" lon="1.97043">
        <ele>93</ele>
        <time>2014-08-15T15:14:26Z</time>
      </trkpt>
      <trkpt lat="44.06739" lon="1.9704">
        <ele>94</ele>
        <time>2014-08-15T15:14:29Z</time>
      </trkpt>
      <trkpt lat="44.06726" lon="1.97038">
        <ele>94</ele>
        <time>2014-08-15T15:14:31Z</time>
      </trkpt>
      <trkpt lat="44.06708" lon="1.97036">
        <ele>95</ele>
        <time>2014-08-15T15:14:34Z</time>
      </trkpt>
      <trkpt lat="44.06696" lon="1.97033">
        <ele>95</ele>
        <time>2014-08-15T15:14:36Z</time>
      </trkpt>
      <trkpt lat="44.06685" lon="1.97027">
        <ele>95</ele>
        <time>2014-08-15T15:14:38Z</time>
      </trkpt>
      <trkpt lat="44.06671" lon="1.97011">
        <ele>95</ele>
        <time>2014-08-15T15:14:41Z</time>
      </trkpt>
      <trkpt lat="44.06663" lon="1.96997">
        <ele>95</ele>
        <time>2014-08-15T15:14:43Z</time>
      </trkpt>
      <trkpt lat="44.06659" lon="1.96981">
        <ele>95</ele>
        <time>2014-08-15T15:14:45Z</time>
      </trkpt>
      <trkpt lat="44.06657" lon="1.96965">
        <ele>95</ele>
        <time>2014-08-15T15:14:47Z</time>
      </trkpt>
      <trkpt lat="44.06656" lon="1.9694">
        <ele>95</ele>
        <time>2014-08-15T15:14:50Z</time>
      </trkpt>
      <trkpt lat="44.06656" lon="1.96922">
        <ele>95</ele>
        <time>2014-08-15T15:14:52Z</time>
      </trkpt>
      <trkpt lat="44.06654" lon="1.96895">
        <ele>95</ele>
        <time>2014-08-15T15:14:55Z</time>
      </trkpt>
      <trkpt lat="44.06651" lon="1.96879">
        <ele>95</ele>
        <time>2014-08-15T15:14:57Z</time>
      </trkpt>
      <trkpt lat="44.06647" lon="1.96863">
        <ele>95</ele>
        <time>2014-08-15T15:14:59Z</time>
      </trkpt>
      <trkpt lat="44.06639" lon="1.96839">
        <ele>95</ele>
        <time>2014-08-15T15:15:02Z</time>
      </trkpt>
      <trkpt lat="44.06631" lon="1.96816">
        <ele>95</ele>
        <time>2014-08-15T15:15:05Z</time>
      </trkpt>
      <trkpt lat="44.06626" lon="1.96801">
        <ele>96</ele>
        <time>2014-08-15T15:15:07Z</time>
      </trkpt>
      <trkpt lat="44.0662" lon="1.96786">
        <ele>96</ele>
        <time>2014-08-15T15:15:09Z</time>
      </trkpt>
      <trkpt lat="44.06614" lon="1.96771">
        <ele>97</ele>
        <time>2014-08-15T15:15:11Z</time>
      </trkpt>
      <trkpt lat="44.06608" lon="1.96755">
        <ele>97</ele>
        <time>2014-08-15T15:15:13Z</time>
      </trkpt>
      <trkpt lat="44.06599" lon="1.96732">
        <ele>97</ele>
        <time>2014-08-15T15:15:16Z</time>
      </trkpt>
      <trkpt lat="44.06593" lon="1.96718">
        <ele>98</ele>
        <time>2014-08-15T15:15:18Z</time>
      </trkpt>
      <trkpt lat="44.06587" lon="1.96705">
        <ele>98</ele>
        <time>2014-08-15T15:15:20Z</time>
      </trkpt>
      <trkpt lat="44.06581" lon="1.96692">
        <ele>98</ele>
        <time>2014-08-15T15:15:22Z</time>
      </trkpt>
      <trkpt lat="44.06575" lon="1.9668">
        <ele>99</ele>
        <time>2014-08-15T15:15:24Z</time>
      </trkpt>
      <trkpt lat="44.06569" lon="1.96669">
        <ele>99</ele>
        <time>2014-08-15T15:15:26Z</time>
      </trkpt>
      <trkpt lat="44.06562" lon="1.96657">
        <ele>100</ele>
        <time>2014-08-15T15:15:28Z</time>
      </trkpt>
      <trkpt lat="44.06557" lon="1.96646">
        <ele>101</ele>
        <time>2014-08-15T15:15:30Z</time>
      </trkpt>
      <trkpt lat="44.06551" lon="1.96636">
        <ele>101</ele>
        <time>2014-08-15T15:15:32Z</time>
      </trkpt>
      <trkpt lat="44.06546" lon="1.96625">
        <ele>101</ele>
        <time>2014-08-15T15:15:34Z</time>
      </trkpt>
      <trkpt lat="44.06541" lon="1.96616">
        <ele>102</ele>
        <time>2014-08-15T15:15:36Z</time>
      </trkpt>
      <trkpt lat="44.06536" lon="1.96606">
        <ele>102</ele>
        <time>2014-08-15T15:15:38Z</time>
      </trkpt>
      <trkpt lat="44.06528" lon="1.9659">
        <ele>103</ele>
        <time>2014-08-15T15:15:41Z</time>
      </trkpt>
      <trkpt lat="44.06524" lon="1.96578">
        <ele>103</ele>
        <time>2014-08-15T15:15:43Z</time>
      </trkpt>
      <trkpt lat="44.0652" lon="1.96566">
        <ele>104</ele>
        <time>2014-08-15T15:15:45Z</time>
      </trkpt>
      <trkpt lat="44.06518" lon="1.96557">
        <ele>104</ele>
        <time>2014-08-15T15:15:47Z</time>
      </trkpt>
      <trkpt lat="44.06516" lon="1.96546">
        <ele>105</ele>
        <time>2014-08-15T15:15:49Z</time>
      </trkpt>
      <trkpt lat="44.06512" lon="1.96535">
        <ele>106</ele>
        <time>2014-08-15T15:15:51Z</time>
      </trkpt>
      <trkpt lat="44.06511" lon="1.96526">
        <ele>106</ele>
        <time>2014-08-15T15:15:53Z</time>
      </trkpt>
      <trkpt lat="44.06509" lon="1.96517">
        <ele>106</ele>
        <time>2014-08-15T15:15:55Z</time>
      </trkpt>
      <trkpt lat="44.06507" lon="1.96507">
        <ele>107</ele>
        <time>2014-08-15T15:15:57Z</time>
      </trkpt>
      <trkpt lat="44.06504" lon="1.96497">
        <ele>107</ele>
        <time>2014-08-15T15:15:59Z</time>
      </trkpt>
      <trkpt lat="44.06502" lon="1.96486">
        <ele>108</ele>
        <time>2014-08-15T15:16:01Z</time>
      </trkpt>
      <trkpt lat="44.06499" lon="1.96475">
        <ele>108</ele>
        <time>2014-08-15T15:16:03Z</time>
      </trkpt>
      <trkpt lat="44.06495" lon="1.96457">
        <ele>109</ele>
        <time>2014-08-15T15:16:06Z</time>
      </trkpt>
      <trkpt lat="44.06491" lon="1.96443">
        <ele>109</ele>
        <time>2014-08-15T15:16:08Z</time>
      </trkpt>
      <trkpt lat="44.06488" lon="1.96431">
        <ele>109</ele>
        <time>2014-08-15T15:16:10Z</time>
      </trkpt>
      <trkpt lat="44.06485" lon="1.96419">
        <ele>110</ele>
        <time>2014-08-15T15:16:12Z</time>
      </trkpt>
      <trkpt lat="44.06482" lon="1.96407">
        <ele>110</ele>
        <time>2014-08-15T15:16:14Z</time>
      </trkpt>
      <trkpt lat="44.06479" lon="1.96396">
        <ele>111</ele>
        <time>2014-08-15T15:16:16Z</time>
      </trkpt>
      <trkpt lat="44.06475" lon="1.96386">
        <ele>112</ele>
        <time>2014-08-15T15:16:18Z</time>
      </trkpt>
      <trkpt lat="44.06473" lon="1.96377">
        <ele>112</ele>
        <time>2014-08-15T15:16:20Z</time>
      </trkpt>
      <trkpt lat="44.06471" lon="1.96369">
        <ele>113</ele>
        <time>2014-08-15T15:16:22Z</time>
      </trkpt>
      <trkpt lat="44.06469" lon="1.9636">
        <ele>113</ele>
        <time>2014-08-15T15:16:24Z</time>
      </trkpt>
      <trkpt lat="44.06465" lon="1.9635">
        <ele>114</ele>
        <time>2014-08-15T15:16:26Z</time>
      </trkpt>
      <trkpt lat="44.06462" lon="1.9634">
        <ele>115</ele>
        <time>2014-08-15T15:16:28Z</time>
      </trkpt>
      <trkpt lat="44.06454" lon="1.96325">
        <ele>115</ele>
        <time>2014-08-15T15:16:31Z</time>
      </trkpt>
      <trkpt lat="44.06448" lon="1.96316">
        <ele>115</ele>
        <time>2014-08-15T15:16:33Z</time>
      </trkpt>
      <trkpt lat="44.06444" lon="1.96308">
        <ele>116</ele>
        <time>2014-08-15T15:16:35Z</time>
      </trkpt>
      <trkpt lat="44.06438" lon="1.96294">
        <ele>117</ele>
        <time>2014-08-15T15:16:38Z</time>
      </trkpt>
      <trkpt lat="44.06434" lon="1.96285">
        <ele>117</ele>
        <time>2014-08-15T15:16:40Z</time>
      </trkpt>
      <trkpt lat="44.06427" lon="1.96269">
        <ele>118</ele>
        <time>2014-08-15T15:16:43Z</time>
      </trkpt>
      <trkpt lat="44.06421" lon="1.96254">
        <ele>119</ele>
        <time>2014-08-15T15:16:46Z</time>
      </trkpt>
      <trkpt lat="44.06417" lon="1.96245">
        <ele>119</ele>
        <time>2014-08-15T15:16:48Z</time>
      </trkpt>
      <trkpt lat="44.06413" lon="1.96235">
        <ele>120</ele>
        <time>2014-08-15T15:16:50Z</time>
      </trkpt>
      <trkpt lat="44.0641" lon="1.96227">
        <ele>120</ele>
        <time>2014-08-15T15:16:52Z</time>
      </trkpt>
      <trkpt lat="44.06406" lon="1.96213">
        <ele>120</ele>
        <time>2014-08-15T15:16:55Z</time>
      </trkpt>
      <trkpt lat="44.06404" lon="1.96203">
        <ele>121</ele>
        <time>2014-08-15T15:16:57Z</time>
      </trkpt>
      <trkpt lat="44.06401" lon="1.96194">
        <ele>121</ele>
        <time>2014-08-15T15:16:59Z</time>
      </trkpt>
      <trkpt lat="44.06399" lon="1.96184">
        <ele>122</ele>
        <time>2014-08-15T15:17:01Z</time>
      </trkpt>
      <trkpt lat="44.06396" lon="1.96174">
        <ele>122</ele>
        <time>2014-08-15T15:17:03Z</time>
      </trkpt>
      <trkpt lat="44.06393" lon="1.96158">
        <ele>123</ele>
        <time>2014-08-15T15:17:06Z</time>
      </trkpt>
      <trkpt lat="44.06388" lon="1.96142">
        <ele>123</ele>
        <time>2014-08-15T15:17:09Z</time>
      </trkpt>
      <trkpt lat="44.06382" lon="1.96125">
        <ele>124</ele>
        <time>2014-08-15T15:17:12Z</time>
      </trkpt>
      <trkpt lat="44.06378" lon="1.96114">
        <ele>125</ele>
        <time>2014-08-15T15:17:14Z</time>
      </trkpt>
      <trkpt lat="44.06369" lon="1.96099">
        <ele>125</ele>
        <time>2014-08-15T15:17:17Z</time>
      </trkpt>
      <trkpt lat="44.06361" lon="1.96091">
        <ele>125</ele>
        <time>2014-08-15T15:17:19Z</time>
      </trkpt>
      <trkpt lat="44.06348" lon="1.9608">
        <ele>126</ele>
        <time>2014-08-15T15:17:22Z</time>
      </trkpt>
      <trkpt lat="44.06335" lon="1.96074">
        <ele>127</ele>
        <time>2014-08-15T15:17:25Z</time>
      </trkpt>
      <trkpt lat="44.06321" lon="1.96069">
        <ele>127</ele>
        <time>2014-08-15T15:17:28Z</time>
      </trkpt>
      <trkpt lat="44.06309" lon="1.96065">
        <ele>127</ele>
        <time>2014-08-15T15:17:31Z</time>
      </trkpt>
      <trkpt lat="44.06301" lon="1.96062">
        <ele>128</ele>
        <time>2014-08-15T15:17:33Z</time>
      </trkpt>
      <trkpt lat="44.06293" lon="1.96056">
        <ele>128</ele>
        <time>2014-08-15T15:17:35Z</time>
      </trkpt>
      <trkpt lat="44.06284" lon="1.96044">
        <ele>129</ele>
        <time>2014-08-15T15:17:38Z</time>
      </trkpt>
      <trkpt lat="44.06278" lon="1.96031">
        <ele>130</ele>
        <time>2014-08-15T15:17:41Z</time>
      </trkpt>
      <trkpt lat="44.06276" lon="1.96021">
        <ele>130</ele>
        <time>2014-08-15T15:17:43Z</time>
      </trkpt>
      <trkpt lat="44.06274" lon="1.96011">
        <ele>131</ele>
        <time>2014-08-15T15:17:45Z</time>
      </trkpt>
      <trkpt lat="44.06273" lon="1.96">
        <ele>131</ele>
        <time>2014-08-15T15:17:47Z</time>
      </trkpt>
      <trkpt lat="44.06272" lon="1.95989">
        <ele>131</ele>
        <time>2014-08-15T15:17:49Z</time>
      </trkpt>
      <trkpt lat="44.06271" lon="1.95977">
        <ele>132</ele>
        <time>2014-08-15T15:17:51Z</time>
      </trkpt>
      <trkpt lat="44.0627" lon="1.95964">
        <ele>132</ele>
        <time>2014-08-15T15:17:53Z</time>
      </trkpt>
      <trkpt lat="44.06269" lon="1.95943">
        <ele>133</ele>
        <time>2014-08-15T15:17:56Z</time>
      </trkpt>
      <trkpt lat="44.06268" lon="1.95922">
        <ele>134</ele>
        <time>2014-08-15T15:17:59Z</time>
      </trkpt>
      <trkpt lat="44.06267" lon="1.95911">
        <ele>134</ele>
        <time>2014-08-15T15:18:01Z</time>
      </trkpt>
      <trkpt lat="44.06265" lon="1.95895">
        <ele>135</ele>
        <time>2014-08-15T15:18:04Z</time>
      </trkpt>
      <trkpt lat="44.06263" lon="1.95884">
        <ele>135</ele>
        <time>2014-08-15T15:18:06Z</time>
      </trkpt>
      <trkpt lat="44.06263" lon="1.95866">
        <ele>136</ele>
        <time>2014-08-15T15:18:09Z</time>
      </trkpt>
      <trkpt lat="44.06262" lon="1.95847">
        <ele>135</ele>
        <time>2014-08-15T15:18:12Z</time>
      </trkpt>
      <trkpt lat="44.06255" lon="1.9583">
        <ele>134</ele>
        <time>2014-08-15T15:18:15Z</time>
      </trkpt>
      <trkpt lat="44.0625" lon="1.95823">
        <ele>134</ele>
        <time>2014-08-15T15:18:18Z</time>
      </trkpt>
      <trkpt lat="44.06248" lon="1.95819">
        <ele>134</ele>
        <time>2014-08-15T15:18:20Z</time>
      </trkpt>
      <trkpt lat="44.06242" lon="1.95819">
        <ele>134</ele>
        <time>2014-08-15T15:18:22Z</time>
      </trkpt>
      <trkpt lat="44.06234" lon="1.95823">
        <ele>133</ele>
        <time>2014-08-15T15:18:24Z</time>
      </trkpt>
      <trkpt lat="44.06227" lon="1.9583">
        <ele>133</ele>
        <time>2014-08-15T15:18:26Z</time>
      </trkpt>
      <trkpt lat="44.06213" lon="1.95839">
        <ele>132</ele>
        <time>2014-08-15T15:18:29Z</time>
      </trkpt>
      <trkpt lat="44.06203" lon="1.95845">
        <ele>132</ele>
        <time>2014-08-15T15:18:31Z</time>
      </trkpt>
      <trkpt lat="44.06186" lon="1.95857">
        <ele>132</ele>
        <time>2014-08-15T15:18:34Z</time>
      </trkpt>
      <trkpt lat="44.06176" lon="1.95868">
        <ele>131</ele>
        <time>2014-08-15T15:18:36Z</time>
      </trkpt>
      <trkpt lat="44.06165" lon="1.9589">
        <ele>130</ele>
        <time>2014-08-15T15:18:39Z</time>
      </trkpt>
      <trkpt lat="44.06158" lon="1.95908">
        <ele>130</ele>
        <time>2014-08-15T15:18:41Z</time>
      </trkpt>
      <trkpt lat="44.06151" lon="1.95929">
        <ele>129</ele>
        <time>2014-08-15T15:18:43Z</time>
      </trkpt>
      <trkpt lat="44.06139" lon="1.95961">
        <ele>127</ele>
        <time>2014-08-15T15:18:46Z</time>
      </trkpt>
      <trkpt lat="44.0613" lon="1.95981">
        <ele>127</ele>
        <time>2014-08-15T15:18:48Z</time>
      </trkpt>
      <trkpt lat="44.06121" lon="1.95999">
        <ele>126</ele>
        <time>2014-08-15T15:18:50Z</time>
      </trkpt>
      <trkpt lat="44.06112" lon="1.96018">
        <ele>126</ele>
        <time>2014-08-15T15:18:52Z</time>
      </trkpt>
      <trkpt lat="44.06103" lon="1.96035">
        <ele>126</ele>
        <time>2014-08-15T15:18:54Z</time>
      </trkpt>
      <trkpt lat="44.0609" lon="1.96059">
        <ele>126</ele>
        <time>2014-08-15T15:18:57Z</time>
      </trkpt>
      <trkpt lat="44.06075" lon="1.96081">
        <ele>125</ele>
        <time>2014-08-15T15:19:00Z</time>
      </trkpt>
      <trkpt lat="44.0606" lon="1.96108">
        <ele>124</ele>
        <time>2014-08-15T15:19:03Z</time>
      </trkpt>
      <trkpt lat="44.06046" lon="1.96139">
        <ele>122</ele>
        <time>2014-08-15T15:19:06Z</time>
      </trkpt>
      <trkpt lat="44.06038" lon="1.96161">
        <ele>122</ele>
        <time>2014-08-15T15:19:08Z</time>
      </trkpt>
      <trkpt lat="44.0603" lon="1.96184">
        <ele>121</ele>
        <time>2014-08-15T15:19:10Z</time>
      </trkpt>
      <trkpt lat="44.06023" lon="1.96219">
        <ele>121</ele>
        <time>2014-08-15T15:19:13Z</time>
      </trkpt>
      <trkpt lat="44.06018" lon="1.96243">
        <ele>120</ele>
        <time>2014-08-15T15:19:15Z</time>
      </trkpt>
      <trkpt lat="44.06014" lon="1.96267">
        <ele>119</ele>
        <time>2014-08-15T15:19:17Z</time>
      </trkpt>
      <trkpt lat="44.06009" lon="1.96292">
        <ele>118</ele>
        <time>2014-08-15T15:19:19Z</time>
      </trkpt>
      <trkpt lat="44.05999" lon="1.96329">
        <ele>116</ele>
        <time>2014-08-15T15:19:22Z</time>
      </trkpt>
      <trkpt lat="44.05992" lon="1.96352">
        <ele>115</ele>
        <time>2014-08-15T15:19:24Z</time>
      </trkpt>
      <trkpt lat="44.05986" lon="1.96375">
        <ele>114</ele>
        <time>2014-08-15T15:19:26Z</time>
      </trkpt>
      <trkpt lat="44.05979" lon="1.96397">
        <ele>114</ele>
        <time>2014-08-15T15:19:28Z</time>
      </trkpt>
      <trkpt lat="44.05968" lon="1.9643">
        <ele>114</ele>
        <time>2014-08-15T15:19:31Z</time>
      </trkpt>
      <trkpt lat="44.05962" lon="1.96451">
        <ele>114</ele>
        <time>2014-08-15T15:19:33Z</time>
      </trkpt>
      <trkpt lat="44.05953" lon="1.9648">
        <ele>114</ele>
        <time>2014-08-15T15:19:36Z</time>
      </trkpt>
      <trkpt lat="44.05947" lon="1.96499">
        <ele>114</ele>
        <time>2014-08-15T15:19:38Z</time>
      </trkpt>
      <trkpt lat="44.05941" lon="1.96517">
        <ele>114</ele>
        <time>2014-08-15T15:19:40Z</time>
      </trkpt>
      <trkpt lat="44.05936" lon="1.96533">
        <ele>114</ele>
        <time>2014-08-15T15:19:42Z</time>
      </trkpt>
      <trkpt lat="44.05928" lon="1.96557">
        <ele>114</ele>
        <time>2014-08-15T15:19:45Z</time>
      </trkpt>
      <trkpt lat="44.0592" lon="1.96582">
        <ele>114</ele>
        <time>2014-08-15T15:19:48Z</time>
      </trkpt>
      <trkpt lat="44.05915" lon="1.96599">
        <ele>114</ele>
        <time>2014-08-15T15:19:50Z</time>
      </trkpt>
      <trkpt lat="44.05906" lon="1.96622">
        <ele>115</ele>
        <time>2014-08-15T15:19:53Z</time>
      </trkpt>
      <trkpt lat="44.05901" lon="1.96633">
        <ele>115</ele>
        <time>2014-08-15T15:19:55Z</time>
      </trkpt>
      <trkpt lat="44.05896" lon="1.96637">
        <ele>115</ele>
        <time>2014-08-15T15:19:57Z</time>
      </trkpt>
      <trkpt lat="44.05891" lon="1.96638">
        <ele>115</ele>
        <time>2014-08-15T15:19:59Z</time>
      </trkpt>
      <trkpt lat="44.05891" lon="1.96639">
        <ele>115</ele>
        <time>2014-08-15T15:20:02Z</time>
      </trkpt>
      <trkpt lat="44.05891" lon="1.96639">
        <ele>115</ele>
        <time>2014-08-15T15:20:03Z</time>
      </trkpt>
    </trkseg>
  </trk>
</gpx>